<?xml version="1.0" encoding="UTF-8" standalone="no" ?>
<gpx xmlns="http://www.topografix.com/GPX/1/1" xmlns:xsi="http://www.w3.org/2001/XMLSchema-instance" xsi:schemaLocation="http://www.topografix.com/GPX/1/1 http://www.topografix.com/GPX/1/1/gpx.xsd" version="1.1" creator="VisuGPX - https://www.visugpx.com">
  <metadata>
    <name>20150827 La Fournache Modane</name>
    <desc><![CDATA[Etape 10 du GR5]]></desc>
  </metadata>
  <trk>
    <name><![CDATA[20150827 La Fournache Modane_1]]></name>
    <trkseg>
      <trkpt lat="45.26557" lon="6.72456">
        <ele>2369.8</ele>
        <time>2015-08-27T07:25:43Z</time>
      </trkpt>
      <trkpt lat="45.26557" lon="6.72456">
        <ele>2369.8</ele>
        <time>2015-08-27T07:25:48Z</time>
      </trkpt>
      <trkpt lat="45.26558" lon="6.72452">
        <ele>2369.8</ele>
        <time>2015-08-27T07:25:53Z</time>
      </trkpt>
      <trkpt lat="45.2656" lon="6.7244">
        <ele>2369.835</ele>
        <time>2015-08-27T07:26:03Z</time>
      </trkpt>
      <trkpt lat="45.26559" lon="6.72434">
        <ele>2369.835</ele>
        <time>2015-08-27T07:26:08Z</time>
      </trkpt>
      <trkpt lat="45.26557" lon="6.72419">
        <ele>2380.9077</ele>
        <time>2015-08-27T07:26:18Z</time>
      </trkpt>
      <trkpt lat="45.26554" lon="6.72412">
        <ele>2380.9077</ele>
        <time>2015-08-27T07:26:23Z</time>
      </trkpt>
      <trkpt lat="45.26552" lon="6.72406">
        <ele>2392.0435</ele>
        <time>2015-08-27T07:26:33Z</time>
      </trkpt>
      <trkpt lat="45.26551" lon="6.72407">
        <ele>2392.0435</ele>
        <time>2015-08-27T07:26:38Z</time>
      </trkpt>
      <trkpt lat="45.26553" lon="6.72409">
        <ele>2392.0435</ele>
        <time>2015-08-27T07:26:48Z</time>
      </trkpt>
      <trkpt lat="45.26553" lon="6.72405">
        <ele>2392.0435</ele>
        <time>2015-08-27T07:26:53Z</time>
      </trkpt>
      <trkpt lat="45.26558" lon="6.72398">
        <ele>2402.724</ele>
        <time>2015-08-27T07:27:08Z</time>
      </trkpt>
      <trkpt lat="45.26557" lon="6.72398">
        <ele>2402.724</ele>
        <time>2015-08-27T07:27:13Z</time>
      </trkpt>
      <trkpt lat="45.26552" lon="6.72402">
        <ele>2402.724</ele>
        <time>2015-08-27T07:27:23Z</time>
      </trkpt>
      <trkpt lat="45.2655" lon="6.72405">
        <ele>2412.7954</ele>
        <time>2015-08-27T07:27:28Z</time>
      </trkpt>
      <trkpt lat="45.26549" lon="6.72406">
        <ele>2412.7954</ele>
        <time>2015-08-27T07:27:38Z</time>
      </trkpt>
      <trkpt lat="45.2655" lon="6.72406">
        <ele>2412.7954</ele>
        <time>2015-08-27T07:27:43Z</time>
      </trkpt>
      <trkpt lat="45.26552" lon="6.72408">
        <ele>2412.7954</ele>
        <time>2015-08-27T07:27:53Z</time>
      </trkpt>
      <trkpt lat="45.2655" lon="6.72408">
        <ele>2412.7954</ele>
        <time>2015-08-27T07:27:58Z</time>
      </trkpt>
      <trkpt lat="45.26548" lon="6.72407">
        <ele>2412.7954</ele>
        <time>2015-08-27T07:28:03Z</time>
      </trkpt>
      <trkpt lat="45.26548" lon="6.72409">
        <ele>2422.3271</ele>
        <time>2015-08-27T07:28:08Z</time>
      </trkpt>
      <trkpt lat="45.26548" lon="6.72408">
        <ele>2422.3271</ele>
        <time>2015-08-27T07:28:13Z</time>
      </trkpt>
      <trkpt lat="45.26549" lon="6.72407">
        <ele>2422.3271</ele>
        <time>2015-08-27T07:28:18Z</time>
      </trkpt>
      <trkpt lat="45.26549" lon="6.72409">
        <ele>2422.3271</ele>
        <time>2015-08-27T07:28:23Z</time>
      </trkpt>
      <trkpt lat="45.26546" lon="6.72412">
        <ele>2422.3271</ele>
        <time>2015-08-27T07:28:28Z</time>
      </trkpt>
      <trkpt lat="45.26544" lon="6.72424">
        <ele>2430.3838</ele>
        <time>2015-08-27T07:28:43Z</time>
      </trkpt>
      <trkpt lat="45.26542" lon="6.72427">
        <ele>2430.3838</ele>
        <time>2015-08-27T07:28:48Z</time>
      </trkpt>
      <trkpt lat="45.26539" lon="6.72438">
        <ele>2436.4863</ele>
        <time>2015-08-27T07:28:58Z</time>
      </trkpt>
      <trkpt lat="45.26537" lon="6.72441">
        <ele>2436.4863</ele>
        <time>2015-08-27T07:29:03Z</time>
      </trkpt>
      <trkpt lat="45.26537" lon="6.72445">
        <ele>2436.4863</ele>
        <time>2015-08-27T07:29:13Z</time>
      </trkpt>
      <trkpt lat="45.26534" lon="6.72448">
        <ele>2440.1216</ele>
        <time>2015-08-27T07:29:18Z</time>
      </trkpt>
      <trkpt lat="45.26533" lon="6.72451">
        <ele>2440.1216</ele>
        <time>2015-08-27T07:29:28Z</time>
      </trkpt>
      <trkpt lat="45.2653" lon="6.72451">
        <ele>2440.1216</ele>
        <time>2015-08-27T07:29:33Z</time>
      </trkpt>
      <trkpt lat="45.26525" lon="6.72443">
        <ele>2441.971</ele>
        <time>2015-08-27T07:29:43Z</time>
      </trkpt>
      <trkpt lat="45.26524" lon="6.72437">
        <ele>2441.971</ele>
        <time>2015-08-27T07:29:48Z</time>
      </trkpt>
      <trkpt lat="45.26521" lon="6.72426">
        <ele>2442.123</ele>
        <time>2015-08-27T07:29:58Z</time>
      </trkpt>
      <trkpt lat="45.26521" lon="6.7242">
        <ele>2442.123</ele>
        <time>2015-08-27T07:30:03Z</time>
      </trkpt>
      <trkpt lat="45.2652" lon="6.7241">
        <ele>2440.6633</ele>
        <time>2015-08-27T07:30:13Z</time>
      </trkpt>
      <trkpt lat="45.2652" lon="6.72405">
        <ele>2440.6633</ele>
        <time>2015-08-27T07:30:18Z</time>
      </trkpt>
      <trkpt lat="45.26517" lon="6.72398">
        <ele>2438.0032</ele>
        <time>2015-08-27T07:30:28Z</time>
      </trkpt>
      <trkpt lat="45.26518" lon="6.72394">
        <ele>2438.0032</ele>
        <time>2015-08-27T07:30:33Z</time>
      </trkpt>
      <trkpt lat="45.26519" lon="6.72375">
        <ele>2434.2153</ele>
        <time>2015-08-27T07:30:48Z</time>
      </trkpt>
      <trkpt lat="45.26519" lon="6.7237">
        <ele>2434.2153</ele>
        <time>2015-08-27T07:30:53Z</time>
      </trkpt>
      <trkpt lat="45.26518" lon="6.72356">
        <ele>2429.6309</ele>
        <time>2015-08-27T07:31:03Z</time>
      </trkpt>
      <trkpt lat="45.26515" lon="6.72349">
        <ele>2429.6309</ele>
        <time>2015-08-27T07:31:08Z</time>
      </trkpt>
      <trkpt lat="45.26515" lon="6.72348">
        <ele>2429.6309</ele>
        <time>2015-08-27T07:31:18Z</time>
      </trkpt>
      <trkpt lat="45.26517" lon="6.72349">
        <ele>2424.4297</ele>
        <time>2015-08-27T07:31:23Z</time>
      </trkpt>
      <trkpt lat="45.26513" lon="6.72339">
        <ele>2424.4297</ele>
        <time>2015-08-27T07:31:33Z</time>
      </trkpt>
      <trkpt lat="45.26514" lon="6.7234">
        <ele>2419.0347</ele>
        <time>2015-08-27T07:31:38Z</time>
      </trkpt>
      <trkpt lat="45.26513" lon="6.72336">
        <ele>2419.0347</ele>
        <time>2015-08-27T07:31:48Z</time>
      </trkpt>
      <trkpt lat="45.26511" lon="6.72329">
        <ele>2419.0347</ele>
        <time>2015-08-27T07:31:53Z</time>
      </trkpt>
      <trkpt lat="45.26508" lon="6.72318">
        <ele>2413.6365</ele>
        <time>2015-08-27T07:32:03Z</time>
      </trkpt>
      <trkpt lat="45.26505" lon="6.7231">
        <ele>2413.6365</ele>
        <time>2015-08-27T07:32:08Z</time>
      </trkpt>
      <trkpt lat="45.265" lon="6.72298">
        <ele>2408.2993</ele>
        <time>2015-08-27T07:32:18Z</time>
      </trkpt>
      <trkpt lat="45.26497" lon="6.7229">
        <ele>2408.2993</ele>
        <time>2015-08-27T07:32:23Z</time>
      </trkpt>
      <trkpt lat="45.26494" lon="6.72277">
        <ele>2402.9639</ele>
        <time>2015-08-27T07:32:33Z</time>
      </trkpt>
      <trkpt lat="45.26491" lon="6.72271">
        <ele>2402.9639</ele>
        <time>2015-08-27T07:32:38Z</time>
      </trkpt>
      <trkpt lat="45.26487" lon="6.7225">
        <ele>2397.499</ele>
        <time>2015-08-27T07:32:53Z</time>
      </trkpt>
      <trkpt lat="45.26483" lon="6.72245">
        <ele>2397.499</ele>
        <time>2015-08-27T07:32:58Z</time>
      </trkpt>
      <trkpt lat="45.26477" lon="6.72234">
        <ele>2392.0972</ele>
        <time>2015-08-27T07:33:08Z</time>
      </trkpt>
      <trkpt lat="45.26474" lon="6.72227">
        <ele>2392.0972</ele>
        <time>2015-08-27T07:33:13Z</time>
      </trkpt>
      <trkpt lat="45.26471" lon="6.72213">
        <ele>2386.7783</ele>
        <time>2015-08-27T07:33:23Z</time>
      </trkpt>
      <trkpt lat="45.26473" lon="6.72206">
        <ele>2386.7783</ele>
        <time>2015-08-27T07:33:28Z</time>
      </trkpt>
      <trkpt lat="45.26473" lon="6.72194">
        <ele>2381.3445</ele>
        <time>2015-08-27T07:33:38Z</time>
      </trkpt>
      <trkpt lat="45.26476" lon="6.72191">
        <ele>2381.3445</ele>
        <time>2015-08-27T07:33:43Z</time>
      </trkpt>
      <trkpt lat="45.26485" lon="6.72179">
        <ele>2376.037</ele>
        <time>2015-08-27T07:33:53Z</time>
      </trkpt>
      <trkpt lat="45.26487" lon="6.72173">
        <ele>2376.037</ele>
        <time>2015-08-27T07:33:58Z</time>
      </trkpt>
      <trkpt lat="45.26491" lon="6.72162">
        <ele>2370.7463</ele>
        <time>2015-08-27T07:34:08Z</time>
      </trkpt>
      <trkpt lat="45.26493" lon="6.72154">
        <ele>2370.7463</ele>
        <time>2015-08-27T07:34:13Z</time>
      </trkpt>
      <trkpt lat="45.26498" lon="6.7214">
        <ele>2365.4856</ele>
        <time>2015-08-27T07:34:23Z</time>
      </trkpt>
      <trkpt lat="45.265" lon="6.72135">
        <ele>2365.4856</ele>
        <time>2015-08-27T07:34:28Z</time>
      </trkpt>
      <trkpt lat="45.26505" lon="6.72126">
        <ele>2360.4187</ele>
        <time>2015-08-27T07:34:38Z</time>
      </trkpt>
      <trkpt lat="45.26508" lon="6.72118">
        <ele>2360.4187</ele>
        <time>2015-08-27T07:34:43Z</time>
      </trkpt>
      <trkpt lat="45.26511" lon="6.72108">
        <ele>2355.3567</ele>
        <time>2015-08-27T07:34:53Z</time>
      </trkpt>
      <trkpt lat="45.26512" lon="6.72108">
        <ele>2355.3567</ele>
        <time>2015-08-27T07:34:58Z</time>
      </trkpt>
      <trkpt lat="45.2652" lon="6.72089">
        <ele>2350.0305</ele>
        <time>2015-08-27T07:35:13Z</time>
      </trkpt>
      <trkpt lat="45.26522" lon="6.72085">
        <ele>2350.0305</ele>
        <time>2015-08-27T07:35:18Z</time>
      </trkpt>
      <trkpt lat="45.26525" lon="6.72077">
        <ele>2344.5286</ele>
        <time>2015-08-27T07:35:28Z</time>
      </trkpt>
      <trkpt lat="45.26527" lon="6.72071">
        <ele>2344.5286</ele>
        <time>2015-08-27T07:35:33Z</time>
      </trkpt>
      <trkpt lat="45.26533" lon="6.72058">
        <ele>2339.169</ele>
        <time>2015-08-27T07:35:43Z</time>
      </trkpt>
      <trkpt lat="45.26534" lon="6.72056">
        <ele>2339.169</ele>
        <time>2015-08-27T07:35:48Z</time>
      </trkpt>
      <trkpt lat="45.26534" lon="6.72045">
        <ele>2334.0396</ele>
        <time>2015-08-27T07:35:58Z</time>
      </trkpt>
      <trkpt lat="45.26536" lon="6.72039">
        <ele>2334.0396</ele>
        <time>2015-08-27T07:36:03Z</time>
      </trkpt>
      <trkpt lat="45.26537" lon="6.72023">
        <ele>2329.226</ele>
        <time>2015-08-27T07:36:13Z</time>
      </trkpt>
      <trkpt lat="45.26536" lon="6.72017">
        <ele>2329.226</ele>
        <time>2015-08-27T07:36:18Z</time>
      </trkpt>
      <trkpt lat="45.26535" lon="6.72012">
        <ele>2329.226</ele>
        <time>2015-08-27T07:36:28Z</time>
      </trkpt>
      <trkpt lat="45.26532" lon="6.72003">
        <ele>2324.7976</ele>
        <time>2015-08-27T07:36:33Z</time>
      </trkpt>
      <trkpt lat="45.26528" lon="6.71986">
        <ele>2320.711</ele>
        <time>2015-08-27T07:36:43Z</time>
      </trkpt>
      <trkpt lat="45.26525" lon="6.71979">
        <ele>2320.711</ele>
        <time>2015-08-27T07:36:48Z</time>
      </trkpt>
      <trkpt lat="45.26521" lon="6.71964">
        <ele>2316.913</ele>
        <time>2015-08-27T07:36:58Z</time>
      </trkpt>
      <trkpt lat="45.26519" lon="6.71957">
        <ele>2316.913</ele>
        <time>2015-08-27T07:37:03Z</time>
      </trkpt>
      <trkpt lat="45.26518" lon="6.71944">
        <ele>2313.228</ele>
        <time>2015-08-27T07:37:13Z</time>
      </trkpt>
      <trkpt lat="45.26516" lon="6.71941">
        <ele>2313.228</ele>
        <time>2015-08-27T07:37:18Z</time>
      </trkpt>
      <trkpt lat="45.26512" lon="6.71925">
        <ele>2309.5042</ele>
        <time>2015-08-27T07:37:28Z</time>
      </trkpt>
      <trkpt lat="45.2651" lon="6.7192">
        <ele>2309.5042</ele>
        <time>2015-08-27T07:37:33Z</time>
      </trkpt>
      <trkpt lat="45.26505" lon="6.71908">
        <ele>2305.9426</ele>
        <time>2015-08-27T07:37:43Z</time>
      </trkpt>
      <trkpt lat="45.26505" lon="6.71901">
        <ele>2305.9426</ele>
        <time>2015-08-27T07:37:48Z</time>
      </trkpt>
      <trkpt lat="45.26513" lon="6.71887">
        <ele>2301.997</ele>
        <time>2015-08-27T07:38:03Z</time>
      </trkpt>
      <trkpt lat="45.26514" lon="6.71884">
        <ele>2301.997</ele>
        <time>2015-08-27T07:38:08Z</time>
      </trkpt>
      <trkpt lat="45.26521" lon="6.71868">
        <ele>2297.951</ele>
        <time>2015-08-27T07:38:18Z</time>
      </trkpt>
      <trkpt lat="45.26523" lon="6.7186">
        <ele>2297.951</ele>
        <time>2015-08-27T07:38:23Z</time>
      </trkpt>
      <trkpt lat="45.26527" lon="6.71844">
        <ele>2294.1028</ele>
        <time>2015-08-27T07:38:33Z</time>
      </trkpt>
      <trkpt lat="45.26528" lon="6.7184">
        <ele>2294.1028</ele>
        <time>2015-08-27T07:38:38Z</time>
      </trkpt>
      <trkpt lat="45.26525" lon="6.71836">
        <ele>2294.1028</ele>
        <time>2015-08-27T07:38:48Z</time>
      </trkpt>
      <trkpt lat="45.26523" lon="6.7183">
        <ele>2290.469</ele>
        <time>2015-08-27T07:38:53Z</time>
      </trkpt>
      <trkpt lat="45.26523" lon="6.71824">
        <ele>2290.469</ele>
        <time>2015-08-27T07:39:03Z</time>
      </trkpt>
      <trkpt lat="45.26523" lon="6.71816">
        <ele>2287.1814</ele>
        <time>2015-08-27T07:39:08Z</time>
      </trkpt>
      <trkpt lat="45.26524" lon="6.71796">
        <ele>2284.168</ele>
        <time>2015-08-27T07:39:18Z</time>
      </trkpt>
      <trkpt lat="45.26523" lon="6.71788">
        <ele>2284.168</ele>
        <time>2015-08-27T07:39:23Z</time>
      </trkpt>
      <trkpt lat="45.26524" lon="6.71771">
        <ele>2281.3438</ele>
        <time>2015-08-27T07:39:33Z</time>
      </trkpt>
      <trkpt lat="45.26525" lon="6.71762">
        <ele>2281.3438</ele>
        <time>2015-08-27T07:39:38Z</time>
      </trkpt>
      <trkpt lat="45.26524" lon="6.71751">
        <ele>2278.762</ele>
        <time>2015-08-27T07:39:48Z</time>
      </trkpt>
      <trkpt lat="45.26526" lon="6.71746">
        <ele>2278.762</ele>
        <time>2015-08-27T07:39:53Z</time>
      </trkpt>
      <trkpt lat="45.26529" lon="6.71731">
        <ele>2276.5154</ele>
        <time>2015-08-27T07:40:03Z</time>
      </trkpt>
      <trkpt lat="45.26525" lon="6.71727">
        <ele>2276.5154</ele>
        <time>2015-08-27T07:40:08Z</time>
      </trkpt>
      <trkpt lat="45.2652" lon="6.71709">
        <ele>2274.6128</ele>
        <time>2015-08-27T07:40:23Z</time>
      </trkpt>
      <trkpt lat="45.26519" lon="6.71706">
        <ele>2274.6128</ele>
        <time>2015-08-27T07:40:28Z</time>
      </trkpt>
      <trkpt lat="45.26517" lon="6.71693">
        <ele>2272.909</ele>
        <time>2015-08-27T07:40:38Z</time>
      </trkpt>
      <trkpt lat="45.26517" lon="6.71691">
        <ele>2272.909</ele>
        <time>2015-08-27T07:40:43Z</time>
      </trkpt>
      <trkpt lat="45.26512" lon="6.71679">
        <ele>2271.419</ele>
        <time>2015-08-27T07:40:53Z</time>
      </trkpt>
      <trkpt lat="45.26512" lon="6.71673">
        <ele>2271.419</ele>
        <time>2015-08-27T07:40:58Z</time>
      </trkpt>
      <trkpt lat="45.26512" lon="6.71664">
        <ele>2270.0947</ele>
        <time>2015-08-27T07:41:08Z</time>
      </trkpt>
      <trkpt lat="45.26512" lon="6.71662">
        <ele>2270.0947</ele>
        <time>2015-08-27T07:41:13Z</time>
      </trkpt>
      <trkpt lat="45.26511" lon="6.71655">
        <ele>2270.0947</ele>
        <time>2015-08-27T07:41:23Z</time>
      </trkpt>
      <trkpt lat="45.26511" lon="6.71654">
        <ele>2270.0947</ele>
        <time>2015-08-27T07:41:28Z</time>
      </trkpt>
      <trkpt lat="45.26514" lon="6.71639">
        <ele>2268.5293</ele>
        <time>2015-08-27T07:41:38Z</time>
      </trkpt>
      <trkpt lat="45.26515" lon="6.71627">
        <ele>2268.5293</ele>
        <time>2015-08-27T07:41:43Z</time>
      </trkpt>
      <trkpt lat="45.26512" lon="6.7162">
        <ele>2266.9365</ele>
        <time>2015-08-27T07:41:53Z</time>
      </trkpt>
      <trkpt lat="45.26511" lon="6.71615">
        <ele>2266.9365</ele>
        <time>2015-08-27T07:41:58Z</time>
      </trkpt>
      <trkpt lat="45.26509" lon="6.7161">
        <ele>2266.9365</ele>
        <time>2015-08-27T07:42:08Z</time>
      </trkpt>
      <trkpt lat="45.26509" lon="6.71604">
        <ele>2265.513</ele>
        <time>2015-08-27T07:42:13Z</time>
      </trkpt>
      <trkpt lat="45.26509" lon="6.71591">
        <ele>2264.2139</ele>
        <time>2015-08-27T07:42:23Z</time>
      </trkpt>
      <trkpt lat="45.26508" lon="6.71585">
        <ele>2264.2139</ele>
        <time>2015-08-27T07:42:28Z</time>
      </trkpt>
      <trkpt lat="45.26509" lon="6.71583">
        <ele>2264.2139</ele>
        <time>2015-08-27T07:42:38Z</time>
      </trkpt>
      <trkpt lat="45.26508" lon="6.71582">
        <ele>2264.2139</ele>
        <time>2015-08-27T07:42:58Z</time>
      </trkpt>
      <trkpt lat="45.26508" lon="6.71582">
        <ele>2264.2139</ele>
        <time>2015-08-27T07:43:08Z</time>
      </trkpt>
      <trkpt lat="45.26508" lon="6.71581">
        <ele>2264.2139</ele>
        <time>2015-08-27T07:43:13Z</time>
      </trkpt>
      <trkpt lat="45.26508" lon="6.71578">
        <ele>2262.5173</ele>
        <time>2015-08-27T07:43:28Z</time>
      </trkpt>
      <trkpt lat="45.26506" lon="6.7157">
        <ele>2262.5173</ele>
        <time>2015-08-27T07:43:33Z</time>
      </trkpt>
      <trkpt lat="45.26506" lon="6.71549">
        <ele>2260.8145</ele>
        <time>2015-08-27T07:43:43Z</time>
      </trkpt>
      <trkpt lat="45.26505" lon="6.7154">
        <ele>2260.8145</ele>
        <time>2015-08-27T07:43:48Z</time>
      </trkpt>
      <trkpt lat="45.26502" lon="6.71525">
        <ele>2259.2695</ele>
        <time>2015-08-27T07:43:58Z</time>
      </trkpt>
      <trkpt lat="45.26495" lon="6.71525">
        <ele>2259.2695</ele>
        <time>2015-08-27T07:44:03Z</time>
      </trkpt>
      <trkpt lat="45.26489" lon="6.71517">
        <ele>2257.7642</ele>
        <time>2015-08-27T07:44:13Z</time>
      </trkpt>
      <trkpt lat="45.26487" lon="6.71513">
        <ele>2257.7642</ele>
        <time>2015-08-27T07:44:18Z</time>
      </trkpt>
      <trkpt lat="45.26478" lon="6.71502">
        <ele>2256.5322</ele>
        <time>2015-08-27T07:44:28Z</time>
      </trkpt>
      <trkpt lat="45.26478" lon="6.71493">
        <ele>2256.5322</ele>
        <time>2015-08-27T07:44:33Z</time>
      </trkpt>
      <trkpt lat="45.26469" lon="6.71481">
        <ele>2255.7124</ele>
        <time>2015-08-27T07:44:48Z</time>
      </trkpt>
      <trkpt lat="45.26466" lon="6.71476">
        <ele>2255.7124</ele>
        <time>2015-08-27T07:44:53Z</time>
      </trkpt>
      <trkpt lat="45.26457" lon="6.71472">
        <ele>2254.958</ele>
        <time>2015-08-27T07:45:03Z</time>
      </trkpt>
      <trkpt lat="45.26457" lon="6.71472">
        <ele>2254.958</ele>
        <time>2015-08-27T07:45:08Z</time>
      </trkpt>
      <trkpt lat="45.26456" lon="6.71473">
        <ele>2254.958</ele>
        <time>2015-08-27T07:45:48Z</time>
      </trkpt>
      <trkpt lat="45.26454" lon="6.71471">
        <ele>2254.958</ele>
        <time>2015-08-27T07:45:53Z</time>
      </trkpt>
      <trkpt lat="45.26446" lon="6.71459">
        <ele>2253.6704</ele>
        <time>2015-08-27T07:46:03Z</time>
      </trkpt>
      <trkpt lat="45.26444" lon="6.71455">
        <ele>2253.6704</ele>
        <time>2015-08-27T07:46:08Z</time>
      </trkpt>
      <trkpt lat="45.2644" lon="6.71446">
        <ele>2251.8184</ele>
        <time>2015-08-27T07:46:18Z</time>
      </trkpt>
      <trkpt lat="45.26442" lon="6.71438">
        <ele>2251.8184</ele>
        <time>2015-08-27T07:46:23Z</time>
      </trkpt>
      <trkpt lat="45.26448" lon="6.71427">
        <ele>2249.7112</ele>
        <time>2015-08-27T07:46:33Z</time>
      </trkpt>
      <trkpt lat="45.2645" lon="6.71423">
        <ele>2249.7112</ele>
        <time>2015-08-27T07:46:38Z</time>
      </trkpt>
      <trkpt lat="45.26454" lon="6.71413">
        <ele>2247.4138</ele>
        <time>2015-08-27T07:46:48Z</time>
      </trkpt>
      <trkpt lat="45.2645" lon="6.71408">
        <ele>2247.4138</ele>
        <time>2015-08-27T07:46:53Z</time>
      </trkpt>
      <trkpt lat="45.26438" lon="6.71401">
        <ele>2244.9426</ele>
        <time>2015-08-27T07:47:03Z</time>
      </trkpt>
      <trkpt lat="45.26432" lon="6.71399">
        <ele>2244.9426</ele>
        <time>2015-08-27T07:47:08Z</time>
      </trkpt>
      <trkpt lat="45.26418" lon="6.71401">
        <ele>2242.444</ele>
        <time>2015-08-27T07:47:23Z</time>
      </trkpt>
      <trkpt lat="45.26414" lon="6.71405">
        <ele>2242.444</ele>
        <time>2015-08-27T07:47:28Z</time>
      </trkpt>
      <trkpt lat="45.26409" lon="6.7141">
        <ele>2240.009</ele>
        <time>2015-08-27T07:47:38Z</time>
      </trkpt>
      <trkpt lat="45.26407" lon="6.71408">
        <ele>2240.009</ele>
        <time>2015-08-27T07:47:43Z</time>
      </trkpt>
      <trkpt lat="45.26416" lon="6.71397">
        <ele>2236.8918</ele>
        <time>2015-08-27T07:47:53Z</time>
      </trkpt>
      <trkpt lat="45.26419" lon="6.71394">
        <ele>2236.8918</ele>
        <time>2015-08-27T07:47:58Z</time>
      </trkpt>
      <trkpt lat="45.26421" lon="6.71386">
        <ele>2233.57</ele>
        <time>2015-08-27T07:48:08Z</time>
      </trkpt>
      <trkpt lat="45.26424" lon="6.71377">
        <ele>2233.57</ele>
        <time>2015-08-27T07:48:13Z</time>
      </trkpt>
      <trkpt lat="45.26425" lon="6.71365">
        <ele>2230.3237</ele>
        <time>2015-08-27T07:48:23Z</time>
      </trkpt>
      <trkpt lat="45.26426" lon="6.71361">
        <ele>2230.3237</ele>
        <time>2015-08-27T07:48:28Z</time>
      </trkpt>
      <trkpt lat="45.2643" lon="6.71351">
        <ele>2227.1648</ele>
        <time>2015-08-27T07:48:38Z</time>
      </trkpt>
      <trkpt lat="45.26432" lon="6.71344">
        <ele>2227.1648</ele>
        <time>2015-08-27T07:48:43Z</time>
      </trkpt>
      <trkpt lat="45.26434" lon="6.71327">
        <ele>2224.1328</ele>
        <time>2015-08-27T07:48:53Z</time>
      </trkpt>
      <trkpt lat="45.26433" lon="6.7132">
        <ele>2224.1328</ele>
        <time>2015-08-27T07:48:58Z</time>
      </trkpt>
      <trkpt lat="45.26425" lon="6.71306">
        <ele>2221.1194</ele>
        <time>2015-08-27T07:49:08Z</time>
      </trkpt>
      <trkpt lat="45.26425" lon="6.713">
        <ele>2221.1194</ele>
        <time>2015-08-27T07:49:13Z</time>
      </trkpt>
      <trkpt lat="45.26428" lon="6.71292">
        <ele>2217.8364</ele>
        <time>2015-08-27T07:49:23Z</time>
      </trkpt>
      <trkpt lat="45.26429" lon="6.71284">
        <ele>2217.8364</ele>
        <time>2015-08-27T07:49:28Z</time>
      </trkpt>
      <trkpt lat="45.26427" lon="6.71267">
        <ele>2214.3364</ele>
        <time>2015-08-27T07:49:43Z</time>
      </trkpt>
      <trkpt lat="45.26426" lon="6.71256">
        <ele>2214.3364</ele>
        <time>2015-08-27T07:49:48Z</time>
      </trkpt>
      <trkpt lat="45.26425" lon="6.71247">
        <ele>2210.8125</ele>
        <time>2015-08-27T07:49:58Z</time>
      </trkpt>
      <trkpt lat="45.26425" lon="6.71247">
        <ele>2210.8125</ele>
        <time>2015-08-27T07:50:03Z</time>
      </trkpt>
      <trkpt lat="45.26419" lon="6.71239">
        <ele>2210.8125</ele>
        <time>2015-08-27T07:50:13Z</time>
      </trkpt>
      <trkpt lat="45.26413" lon="6.71233">
        <ele>2208.0203</ele>
        <time>2015-08-27T07:50:18Z</time>
      </trkpt>
      <trkpt lat="45.26402" lon="6.7123">
        <ele>2205.8206</ele>
        <time>2015-08-27T07:50:28Z</time>
      </trkpt>
      <trkpt lat="45.26399" lon="6.7123">
        <ele>2205.8206</ele>
        <time>2015-08-27T07:50:33Z</time>
      </trkpt>
      <trkpt lat="45.26398" lon="6.71228">
        <ele>2205.8206</ele>
        <time>2015-08-27T07:50:43Z</time>
      </trkpt>
      <trkpt lat="45.26396" lon="6.71221">
        <ele>2204.4</ele>
        <time>2015-08-27T07:50:48Z</time>
      </trkpt>
      <trkpt lat="45.26396" lon="6.71214">
        <ele>2204.4</ele>
        <time>2015-08-27T07:50:58Z</time>
      </trkpt>
      <trkpt lat="45.26397" lon="6.71207">
        <ele>2203.2659</ele>
        <time>2015-08-27T07:51:03Z</time>
      </trkpt>
      <trkpt lat="45.26396" lon="6.712">
        <ele>2203.2659</ele>
        <time>2015-08-27T07:51:13Z</time>
      </trkpt>
      <trkpt lat="45.26396" lon="6.712">
        <ele>2203.2659</ele>
        <time>2015-08-27T07:51:18Z</time>
      </trkpt>
      <trkpt lat="45.26388" lon="6.71206">
        <ele>2202.5671</ele>
        <time>2015-08-27T07:51:28Z</time>
      </trkpt>
      <trkpt lat="45.26386" lon="6.71207">
        <ele>2202.5671</ele>
        <time>2015-08-27T07:51:33Z</time>
      </trkpt>
      <trkpt lat="45.26387" lon="6.71203">
        <ele>2202.5671</ele>
        <time>2015-08-27T07:51:43Z</time>
      </trkpt>
      <trkpt lat="45.26387" lon="6.71203">
        <ele>2202.5671</ele>
        <time>2015-08-27T07:51:48Z</time>
      </trkpt>
      <trkpt lat="45.26385" lon="6.71199">
        <ele>2202.4836</ele>
        <time>2015-08-27T07:51:58Z</time>
      </trkpt>
      <trkpt lat="45.26385" lon="6.71199">
        <ele>2202.4836</ele>
        <time>2015-08-27T07:52:03Z</time>
      </trkpt>
      <trkpt lat="45.26375" lon="6.71185">
        <ele>2203.0505</ele>
        <time>2015-08-27T07:52:18Z</time>
      </trkpt>
      <trkpt lat="45.26373" lon="6.71183">
        <ele>2203.0505</ele>
        <time>2015-08-27T07:52:23Z</time>
      </trkpt>
      <trkpt lat="45.2637" lon="6.71182">
        <ele>2203.0505</ele>
        <time>2015-08-27T07:52:33Z</time>
      </trkpt>
      <trkpt lat="45.26368" lon="6.71185">
        <ele>2203.0505</ele>
        <time>2015-08-27T07:52:38Z</time>
      </trkpt>
      <trkpt lat="45.26367" lon="6.7119">
        <ele>2204.2695</ele>
        <time>2015-08-27T07:52:48Z</time>
      </trkpt>
      <trkpt lat="45.26366" lon="6.71189">
        <ele>2204.2695</ele>
        <time>2015-08-27T07:52:53Z</time>
      </trkpt>
      <trkpt lat="45.26366" lon="6.71189">
        <ele>2204.2695</ele>
        <time>2015-08-27T07:53:03Z</time>
      </trkpt>
      <trkpt lat="45.26363" lon="6.7119">
        <ele>2204.2695</ele>
        <time>2015-08-27T07:53:08Z</time>
      </trkpt>
      <trkpt lat="45.26359" lon="6.71192">
        <ele>2205.9966</ele>
        <time>2015-08-27T07:53:18Z</time>
      </trkpt>
      <trkpt lat="45.26355" lon="6.71193">
        <ele>2205.9966</ele>
        <time>2015-08-27T07:53:23Z</time>
      </trkpt>
      <trkpt lat="45.26349" lon="6.71199">
        <ele>2207.9377</ele>
        <time>2015-08-27T07:53:33Z</time>
      </trkpt>
      <trkpt lat="45.26346" lon="6.71199">
        <ele>2207.9377</ele>
        <time>2015-08-27T07:53:38Z</time>
      </trkpt>
      <trkpt lat="45.26342" lon="6.71201">
        <ele>2207.9377</ele>
        <time>2015-08-27T07:53:48Z</time>
      </trkpt>
      <trkpt lat="45.2634" lon="6.71198">
        <ele>2210.181</ele>
        <time>2015-08-27T07:53:53Z</time>
      </trkpt>
      <trkpt lat="45.26331" lon="6.71189">
        <ele>2212.5618</ele>
        <time>2015-08-27T07:54:08Z</time>
      </trkpt>
      <trkpt lat="45.26327" lon="6.71185">
        <ele>2212.5618</ele>
        <time>2015-08-27T07:54:13Z</time>
      </trkpt>
      <trkpt lat="45.26324" lon="6.7118">
        <ele>2215.1438</ele>
        <time>2015-08-27T07:54:23Z</time>
      </trkpt>
      <trkpt lat="45.26323" lon="6.71179">
        <ele>2215.1438</ele>
        <time>2015-08-27T07:54:28Z</time>
      </trkpt>
      <trkpt lat="45.26319" lon="6.71177">
        <ele>2215.1438</ele>
        <time>2015-08-27T07:54:38Z</time>
      </trkpt>
      <trkpt lat="45.26317" lon="6.71177">
        <ele>2215.1438</ele>
        <time>2015-08-27T07:54:43Z</time>
      </trkpt>
      <trkpt lat="45.26313" lon="6.7117">
        <ele>2218.49</ele>
        <time>2015-08-27T07:54:53Z</time>
      </trkpt>
      <trkpt lat="45.2631" lon="6.71166">
        <ele>2218.49</ele>
        <time>2015-08-27T07:54:58Z</time>
      </trkpt>
      <trkpt lat="45.26306" lon="6.71161">
        <ele>2218.49</ele>
        <time>2015-08-27T07:55:08Z</time>
      </trkpt>
      <trkpt lat="45.26303" lon="6.71158">
        <ele>2221.967</ele>
        <time>2015-08-27T07:55:13Z</time>
      </trkpt>
      <trkpt lat="45.26296" lon="6.71153">
        <ele>2221.967</ele>
        <time>2015-08-27T07:55:23Z</time>
      </trkpt>
      <trkpt lat="45.26295" lon="6.7115">
        <ele>2225.3762</ele>
        <time>2015-08-27T07:55:28Z</time>
      </trkpt>
      <trkpt lat="45.26291" lon="6.71143">
        <ele>2225.3762</ele>
        <time>2015-08-27T07:55:38Z</time>
      </trkpt>
      <trkpt lat="45.26288" lon="6.7114">
        <ele>2228.5925</ele>
        <time>2015-08-27T07:55:43Z</time>
      </trkpt>
      <trkpt lat="45.26282" lon="6.7114">
        <ele>2228.5925</ele>
        <time>2015-08-27T07:55:53Z</time>
      </trkpt>
      <trkpt lat="45.26281" lon="6.7114">
        <ele>2228.5925</ele>
        <time>2015-08-27T07:55:58Z</time>
      </trkpt>
      <trkpt lat="45.26274" lon="6.71136">
        <ele>2231.8757</ele>
        <time>2015-08-27T07:56:08Z</time>
      </trkpt>
      <trkpt lat="45.26274" lon="6.71136">
        <ele>2231.8757</ele>
        <time>2015-08-27T07:56:13Z</time>
      </trkpt>
      <trkpt lat="45.26264" lon="6.71125">
        <ele>2235.091</ele>
        <time>2015-08-27T07:56:28Z</time>
      </trkpt>
      <trkpt lat="45.2626" lon="6.71119">
        <ele>2235.091</ele>
        <time>2015-08-27T07:56:33Z</time>
      </trkpt>
      <trkpt lat="45.2625" lon="6.71119">
        <ele>2238.1006</ele>
        <time>2015-08-27T07:56:43Z</time>
      </trkpt>
      <trkpt lat="45.26247" lon="6.71116">
        <ele>2238.1006</ele>
        <time>2015-08-27T07:56:48Z</time>
      </trkpt>
      <trkpt lat="45.26238" lon="6.71113">
        <ele>2241.1375</ele>
        <time>2015-08-27T07:56:58Z</time>
      </trkpt>
      <trkpt lat="45.26235" lon="6.7111">
        <ele>2241.1375</ele>
        <time>2015-08-27T07:57:03Z</time>
      </trkpt>
      <trkpt lat="45.26231" lon="6.71103">
        <ele>2243.8699</ele>
        <time>2015-08-27T07:57:13Z</time>
      </trkpt>
      <trkpt lat="45.26229" lon="6.71102">
        <ele>2243.8699</ele>
        <time>2015-08-27T07:57:18Z</time>
      </trkpt>
      <trkpt lat="45.26224" lon="6.711">
        <ele>2243.8699</ele>
        <time>2015-08-27T07:57:28Z</time>
      </trkpt>
      <trkpt lat="45.26223" lon="6.711">
        <ele>2243.8699</ele>
        <time>2015-08-27T07:57:33Z</time>
      </trkpt>
      <trkpt lat="45.26217" lon="6.71097">
        <ele>2246.8145</ele>
        <time>2015-08-27T07:57:43Z</time>
      </trkpt>
      <trkpt lat="45.26213" lon="6.71096">
        <ele>2246.8145</ele>
        <time>2015-08-27T07:57:48Z</time>
      </trkpt>
      <trkpt lat="45.26206" lon="6.71093">
        <ele>2249.756</ele>
        <time>2015-08-27T07:57:58Z</time>
      </trkpt>
      <trkpt lat="45.26203" lon="6.7109">
        <ele>2249.756</ele>
        <time>2015-08-27T07:58:03Z</time>
      </trkpt>
      <trkpt lat="45.26197" lon="6.71085">
        <ele>2252.6848</ele>
        <time>2015-08-27T07:58:13Z</time>
      </trkpt>
      <trkpt lat="45.26195" lon="6.71085">
        <ele>2252.6848</ele>
        <time>2015-08-27T07:58:18Z</time>
      </trkpt>
      <trkpt lat="45.26183" lon="6.71077">
        <ele>2255.5762</ele>
        <time>2015-08-27T07:58:33Z</time>
      </trkpt>
      <trkpt lat="45.2618" lon="6.71074">
        <ele>2255.5762</ele>
        <time>2015-08-27T07:58:38Z</time>
      </trkpt>
      <trkpt lat="45.26179" lon="6.71074">
        <ele>2255.5762</ele>
        <time>2015-08-27T07:58:48Z</time>
      </trkpt>
      <trkpt lat="45.26173" lon="6.71072">
        <ele>2258.322</ele>
        <time>2015-08-27T07:58:53Z</time>
      </trkpt>
      <trkpt lat="45.2617" lon="6.71065">
        <ele>2258.322</ele>
        <time>2015-08-27T07:59:03Z</time>
      </trkpt>
      <trkpt lat="45.26167" lon="6.7106">
        <ele>2260.823</ele>
        <time>2015-08-27T07:59:08Z</time>
      </trkpt>
      <trkpt lat="45.26165" lon="6.71055">
        <ele>2260.823</ele>
        <time>2015-08-27T07:59:18Z</time>
      </trkpt>
      <trkpt lat="45.26161" lon="6.71051">
        <ele>2263.0889</ele>
        <time>2015-08-27T07:59:23Z</time>
      </trkpt>
      <trkpt lat="45.26155" lon="6.71047">
        <ele>2263.0889</ele>
        <time>2015-08-27T07:59:33Z</time>
      </trkpt>
      <trkpt lat="45.26153" lon="6.71046">
        <ele>2265.346</ele>
        <time>2015-08-27T07:59:38Z</time>
      </trkpt>
      <trkpt lat="45.26148" lon="6.71045">
        <ele>2265.346</ele>
        <time>2015-08-27T07:59:48Z</time>
      </trkpt>
      <trkpt lat="45.26147" lon="6.71044">
        <ele>2265.346</ele>
        <time>2015-08-27T07:59:53Z</time>
      </trkpt>
      <trkpt lat="45.26145" lon="6.71043">
        <ele>2265.346</ele>
        <time>2015-08-27T08:00:03Z</time>
      </trkpt>
      <trkpt lat="45.26144" lon="6.71042">
        <ele>2267.949</ele>
        <time>2015-08-27T08:00:08Z</time>
      </trkpt>
      <trkpt lat="45.26141" lon="6.71043">
        <ele>2267.949</ele>
        <time>2015-08-27T08:00:38Z</time>
      </trkpt>
      <trkpt lat="45.2614" lon="6.71042">
        <ele>2267.949</ele>
        <time>2015-08-27T08:01:23Z</time>
      </trkpt>
      <trkpt lat="45.2614" lon="6.71042">
        <ele>2267.949</ele>
        <time>2015-08-27T08:01:28Z</time>
      </trkpt>
      <trkpt lat="45.26125" lon="6.71038">
        <ele>2270.9373</ele>
        <time>2015-08-27T08:01:38Z</time>
      </trkpt>
      <trkpt lat="45.26123" lon="6.71039">
        <ele>2270.9373</ele>
        <time>2015-08-27T08:01:43Z</time>
      </trkpt>
      <trkpt lat="45.26123" lon="6.71039">
        <ele>2270.9373</ele>
        <time>2015-08-27T08:01:53Z</time>
      </trkpt>
      <trkpt lat="45.2612" lon="6.71034">
        <ele>2270.9373</ele>
        <time>2015-08-27T08:02:23Z</time>
      </trkpt>
      <trkpt lat="45.2612" lon="6.71034">
        <ele>2270.9373</ele>
        <time>2015-08-27T08:02:28Z</time>
      </trkpt>
      <trkpt lat="45.26119" lon="6.71032">
        <ele>2270.9373</ele>
        <time>2015-08-27T08:05:18Z</time>
      </trkpt>
      <trkpt lat="45.26116" lon="6.71032">
        <ele>2274.418</ele>
        <time>2015-08-27T08:05:48Z</time>
      </trkpt>
      <trkpt lat="45.26116" lon="6.71032">
        <ele>2274.418</ele>
        <time>2015-08-27T08:05:53Z</time>
      </trkpt>
      <trkpt lat="45.26114" lon="6.71022">
        <ele>2274.418</ele>
        <time>2015-08-27T08:06:03Z</time>
      </trkpt>
      <trkpt lat="45.26114" lon="6.71018">
        <ele>2277.8562</ele>
        <time>2015-08-27T08:06:08Z</time>
      </trkpt>
      <trkpt lat="45.26115" lon="6.71011">
        <ele>2277.8562</ele>
        <time>2015-08-27T08:06:18Z</time>
      </trkpt>
      <trkpt lat="45.26115" lon="6.7101">
        <ele>2277.8562</ele>
        <time>2015-08-27T08:06:23Z</time>
      </trkpt>
      <trkpt lat="45.26115" lon="6.71009">
        <ele>2277.8562</ele>
        <time>2015-08-27T08:06:38Z</time>
      </trkpt>
      <trkpt lat="45.26115" lon="6.71006">
        <ele>2281.0876</ele>
        <time>2015-08-27T08:06:43Z</time>
      </trkpt>
      <trkpt lat="45.26117" lon="6.71">
        <ele>2281.0876</ele>
        <time>2015-08-27T08:06:53Z</time>
      </trkpt>
      <trkpt lat="45.26117" lon="6.70999">
        <ele>2281.0876</ele>
        <time>2015-08-27T08:07:08Z</time>
      </trkpt>
      <trkpt lat="45.26118" lon="6.70998">
        <ele>2281.0876</ele>
        <time>2015-08-27T08:07:13Z</time>
      </trkpt>
      <trkpt lat="45.26118" lon="6.70995">
        <ele>2281.0876</ele>
        <time>2015-08-27T08:07:23Z</time>
      </trkpt>
      <trkpt lat="45.26118" lon="6.70995">
        <ele>2281.0876</ele>
        <time>2015-08-27T08:07:28Z</time>
      </trkpt>
      <trkpt lat="45.26118" lon="6.70991">
        <ele>2284.6963</ele>
        <time>2015-08-27T08:07:38Z</time>
      </trkpt>
      <trkpt lat="45.26118" lon="6.70991">
        <ele>2284.6963</ele>
        <time>2015-08-27T08:07:43Z</time>
      </trkpt>
      <trkpt lat="45.26117" lon="6.7099">
        <ele>2284.6963</ele>
        <time>2015-08-27T08:07:53Z</time>
      </trkpt>
      <trkpt lat="45.26116" lon="6.70988">
        <ele>2284.6963</ele>
        <time>2015-08-27T08:08:13Z</time>
      </trkpt>
      <trkpt lat="45.26115" lon="6.70984">
        <ele>2284.6963</ele>
        <time>2015-08-27T08:08:23Z</time>
      </trkpt>
      <trkpt lat="45.26114" lon="6.70983">
        <ele>2284.6963</ele>
        <time>2015-08-27T08:08:28Z</time>
      </trkpt>
      <trkpt lat="45.26112" lon="6.70976">
        <ele>2289.1653</ele>
        <time>2015-08-27T08:08:38Z</time>
      </trkpt>
      <trkpt lat="45.26112" lon="6.70974">
        <ele>2289.1653</ele>
        <time>2015-08-27T08:08:43Z</time>
      </trkpt>
      <trkpt lat="45.26112" lon="6.70974">
        <ele>2289.1653</ele>
        <time>2015-08-27T08:08:53Z</time>
      </trkpt>
      <trkpt lat="45.2611" lon="6.7096">
        <ele>2293.469</ele>
        <time>2015-08-27T08:09:13Z</time>
      </trkpt>
      <trkpt lat="45.26109" lon="6.70958">
        <ele>2293.469</ele>
        <time>2015-08-27T08:09:18Z</time>
      </trkpt>
      <trkpt lat="45.26109" lon="6.70958">
        <ele>2293.469</ele>
        <time>2015-08-27T08:09:28Z</time>
      </trkpt>
      <trkpt lat="45.26109" lon="6.70956">
        <ele>2293.469</ele>
        <time>2015-08-27T08:09:33Z</time>
      </trkpt>
      <trkpt lat="45.26109" lon="6.70949">
        <ele>2293.469</ele>
        <time>2015-08-27T08:09:43Z</time>
      </trkpt>
      <trkpt lat="45.26109" lon="6.70949">
        <ele>2293.469</ele>
        <time>2015-08-27T08:09:48Z</time>
      </trkpt>
      <trkpt lat="45.2611" lon="6.70947">
        <ele>2298.2878</ele>
        <time>2015-08-27T08:09:58Z</time>
      </trkpt>
      <trkpt lat="45.26109" lon="6.7094">
        <ele>2298.2878</ele>
        <time>2015-08-27T08:10:13Z</time>
      </trkpt>
      <trkpt lat="45.26106" lon="6.70935">
        <ele>2303.0398</ele>
        <time>2015-08-27T08:10:18Z</time>
      </trkpt>
      <trkpt lat="45.26105" lon="6.7093">
        <ele>2303.0398</ele>
        <time>2015-08-27T08:10:28Z</time>
      </trkpt>
      <trkpt lat="45.26103" lon="6.70918">
        <ele>2307.5176</ele>
        <time>2015-08-27T08:10:33Z</time>
      </trkpt>
      <trkpt lat="45.26101" lon="6.70909">
        <ele>2307.5176</ele>
        <time>2015-08-27T08:10:43Z</time>
      </trkpt>
      <trkpt lat="45.26101" lon="6.70903">
        <ele>2311.6174</ele>
        <time>2015-08-27T08:10:48Z</time>
      </trkpt>
      <trkpt lat="45.26102" lon="6.70901">
        <ele>2311.6174</ele>
        <time>2015-08-27T08:10:58Z</time>
      </trkpt>
      <trkpt lat="45.26101" lon="6.709">
        <ele>2311.6174</ele>
        <time>2015-08-27T08:11:03Z</time>
      </trkpt>
      <trkpt lat="45.26102" lon="6.70894">
        <ele>2311.6174</ele>
        <time>2015-08-27T08:11:13Z</time>
      </trkpt>
      <trkpt lat="45.26102" lon="6.7089">
        <ele>2315.6472</ele>
        <time>2015-08-27T08:11:18Z</time>
      </trkpt>
      <trkpt lat="45.26102" lon="6.70883">
        <ele>2315.6472</ele>
        <time>2015-08-27T08:11:33Z</time>
      </trkpt>
      <trkpt lat="45.26102" lon="6.7088">
        <ele>2315.6472</ele>
        <time>2015-08-27T08:11:38Z</time>
      </trkpt>
      <trkpt lat="45.26102" lon="6.70876">
        <ele>2319.3748</ele>
        <time>2015-08-27T08:11:48Z</time>
      </trkpt>
      <trkpt lat="45.26102" lon="6.70877">
        <ele>2319.3748</ele>
        <time>2015-08-27T08:11:53Z</time>
      </trkpt>
      <trkpt lat="45.26102" lon="6.70878">
        <ele>2319.3748</ele>
        <time>2015-08-27T08:12:03Z</time>
      </trkpt>
      <trkpt lat="45.26098" lon="6.70881">
        <ele>2319.3748</ele>
        <time>2015-08-27T08:12:08Z</time>
      </trkpt>
      <trkpt lat="45.26097" lon="6.70881">
        <ele>2319.3748</ele>
        <time>2015-08-27T08:12:13Z</time>
      </trkpt>
      <trkpt lat="45.26097" lon="6.70882">
        <ele>2319.3748</ele>
        <time>2015-08-27T08:12:18Z</time>
      </trkpt>
      <trkpt lat="45.26097" lon="6.70882">
        <ele>2319.3748</ele>
        <time>2015-08-27T08:12:23Z</time>
      </trkpt>
      <trkpt lat="45.26096" lon="6.7088">
        <ele>2319.3748</ele>
        <time>2015-08-27T08:12:28Z</time>
      </trkpt>
      <trkpt lat="45.26096" lon="6.7088">
        <ele>2319.3748</ele>
        <time>2015-08-27T08:12:33Z</time>
      </trkpt>
      <trkpt lat="45.26096" lon="6.70879">
        <ele>2323.5369</ele>
        <time>2015-08-27T08:12:38Z</time>
      </trkpt>
      <trkpt lat="45.26096" lon="6.70879">
        <ele>2323.5369</ele>
        <time>2015-08-27T08:12:43Z</time>
      </trkpt>
      <trkpt lat="45.26095" lon="6.70877">
        <ele>2323.5369</ele>
        <time>2015-08-27T08:12:48Z</time>
      </trkpt>
      <trkpt lat="45.26095" lon="6.70875">
        <ele>2323.5369</ele>
        <time>2015-08-27T08:12:53Z</time>
      </trkpt>
      <trkpt lat="45.26095" lon="6.70875">
        <ele>2323.5369</ele>
        <time>2015-08-27T08:12:58Z</time>
      </trkpt>
      <trkpt lat="45.26095" lon="6.70873">
        <ele>2323.5369</ele>
        <time>2015-08-27T08:13:03Z</time>
      </trkpt>
      <trkpt lat="45.26094" lon="6.70867">
        <ele>2323.5369</ele>
        <time>2015-08-27T08:13:08Z</time>
      </trkpt>
      <trkpt lat="45.26094" lon="6.70867">
        <ele>2323.5369</ele>
        <time>2015-08-27T08:13:13Z</time>
      </trkpt>
      <trkpt lat="45.26092" lon="6.70864">
        <ele>2328.138</ele>
        <time>2015-08-27T08:13:23Z</time>
      </trkpt>
      <trkpt lat="45.26092" lon="6.70862">
        <ele>2328.138</ele>
        <time>2015-08-27T08:13:28Z</time>
      </trkpt>
      <trkpt lat="45.26091" lon="6.7086">
        <ele>2328.138</ele>
        <time>2015-08-27T08:13:33Z</time>
      </trkpt>
      <trkpt lat="45.26088" lon="6.70849">
        <ele>2332.288</ele>
        <time>2015-08-27T08:13:38Z</time>
      </trkpt>
      <trkpt lat="45.26087" lon="6.70847">
        <ele>2332.288</ele>
        <time>2015-08-27T08:13:43Z</time>
      </trkpt>
      <trkpt lat="45.26086" lon="6.70843">
        <ele>2332.288</ele>
        <time>2015-08-27T08:13:48Z</time>
      </trkpt>
      <trkpt lat="45.26085" lon="6.70842">
        <ele>2332.288</ele>
        <time>2015-08-27T08:13:53Z</time>
      </trkpt>
      <trkpt lat="45.26085" lon="6.70841">
        <ele>2332.288</ele>
        <time>2015-08-27T08:13:58Z</time>
      </trkpt>
      <trkpt lat="45.26083" lon="6.70839">
        <ele>2336.4177</ele>
        <time>2015-08-27T08:14:03Z</time>
      </trkpt>
      <trkpt lat="45.26082" lon="6.70841">
        <ele>2336.4177</ele>
        <time>2015-08-27T08:14:08Z</time>
      </trkpt>
      <trkpt lat="45.2608" lon="6.70844">
        <ele>2336.4177</ele>
        <time>2015-08-27T08:14:13Z</time>
      </trkpt>
      <trkpt lat="45.26078" lon="6.70846">
        <ele>2336.4177</ele>
        <time>2015-08-27T08:14:18Z</time>
      </trkpt>
      <trkpt lat="45.26077" lon="6.70847">
        <ele>2336.4177</ele>
        <time>2015-08-27T08:14:23Z</time>
      </trkpt>
      <trkpt lat="45.26076" lon="6.70851">
        <ele>2340.3064</ele>
        <time>2015-08-27T08:14:28Z</time>
      </trkpt>
      <trkpt lat="45.26075" lon="6.70856">
        <ele>2340.3064</ele>
        <time>2015-08-27T08:14:33Z</time>
      </trkpt>
      <trkpt lat="45.26075" lon="6.70859">
        <ele>2340.3064</ele>
        <time>2015-08-27T08:14:38Z</time>
      </trkpt>
      <trkpt lat="45.26074" lon="6.70861">
        <ele>2340.3064</ele>
        <time>2015-08-27T08:14:43Z</time>
      </trkpt>
      <trkpt lat="45.26072" lon="6.70862">
        <ele>2340.3064</ele>
        <time>2015-08-27T08:14:48Z</time>
      </trkpt>
      <trkpt lat="45.26069" lon="6.70864">
        <ele>2344.068</ele>
        <time>2015-08-27T08:14:53Z</time>
      </trkpt>
      <trkpt lat="45.26068" lon="6.70865">
        <ele>2344.068</ele>
        <time>2015-08-27T08:14:58Z</time>
      </trkpt>
      <trkpt lat="45.26066" lon="6.70867">
        <ele>2344.068</ele>
        <time>2015-08-27T08:15:03Z</time>
      </trkpt>
      <trkpt lat="45.26064" lon="6.70868">
        <ele>2344.068</ele>
        <time>2015-08-27T08:15:08Z</time>
      </trkpt>
      <trkpt lat="45.26062" lon="6.70869">
        <ele>2344.068</ele>
        <time>2015-08-27T08:15:13Z</time>
      </trkpt>
      <trkpt lat="45.26062" lon="6.70873">
        <ele>2347.5208</ele>
        <time>2015-08-27T08:15:18Z</time>
      </trkpt>
      <trkpt lat="45.26061" lon="6.70876">
        <ele>2347.5208</ele>
        <time>2015-08-27T08:15:23Z</time>
      </trkpt>
      <trkpt lat="45.26061" lon="6.70877">
        <ele>2347.5208</ele>
        <time>2015-08-27T08:15:28Z</time>
      </trkpt>
      <trkpt lat="45.26061" lon="6.7088">
        <ele>2347.5208</ele>
        <time>2015-08-27T08:15:33Z</time>
      </trkpt>
      <trkpt lat="45.26058" lon="6.70882">
        <ele>2347.5208</ele>
        <time>2015-08-27T08:15:38Z</time>
      </trkpt>
      <trkpt lat="45.26058" lon="6.70884">
        <ele>2350.7275</ele>
        <time>2015-08-27T08:15:43Z</time>
      </trkpt>
      <trkpt lat="45.26057" lon="6.70887">
        <ele>2350.7275</ele>
        <time>2015-08-27T08:15:48Z</time>
      </trkpt>
      <trkpt lat="45.26056" lon="6.7089">
        <ele>2350.7275</ele>
        <time>2015-08-27T08:15:53Z</time>
      </trkpt>
      <trkpt lat="45.26055" lon="6.70892">
        <ele>2350.7275</ele>
        <time>2015-08-27T08:15:58Z</time>
      </trkpt>
      <trkpt lat="45.26053" lon="6.70893">
        <ele>2350.7275</ele>
        <time>2015-08-27T08:16:03Z</time>
      </trkpt>
      <trkpt lat="45.26052" lon="6.70894">
        <ele>2353.7913</ele>
        <time>2015-08-27T08:16:08Z</time>
      </trkpt>
      <trkpt lat="45.2605" lon="6.70897">
        <ele>2353.7913</ele>
        <time>2015-08-27T08:16:13Z</time>
      </trkpt>
      <trkpt lat="45.26048" lon="6.70898">
        <ele>2353.7913</ele>
        <time>2015-08-27T08:16:18Z</time>
      </trkpt>
      <trkpt lat="45.26048" lon="6.70899">
        <ele>2353.7913</ele>
        <time>2015-08-27T08:16:23Z</time>
      </trkpt>
      <trkpt lat="45.26048" lon="6.70901">
        <ele>2353.7913</ele>
        <time>2015-08-27T08:16:28Z</time>
      </trkpt>
      <trkpt lat="45.26046" lon="6.70903">
        <ele>2353.7913</ele>
        <time>2015-08-27T08:16:33Z</time>
      </trkpt>
      <trkpt lat="45.26043" lon="6.70906">
        <ele>2356.764</ele>
        <time>2015-08-27T08:16:38Z</time>
      </trkpt>
      <trkpt lat="45.26041" lon="6.70909">
        <ele>2356.764</ele>
        <time>2015-08-27T08:16:43Z</time>
      </trkpt>
      <trkpt lat="45.26039" lon="6.70911">
        <ele>2356.764</ele>
        <time>2015-08-27T08:16:48Z</time>
      </trkpt>
      <trkpt lat="45.26039" lon="6.70913">
        <ele>2356.764</ele>
        <time>2015-08-27T08:16:53Z</time>
      </trkpt>
      <trkpt lat="45.26038" lon="6.70914">
        <ele>2356.764</ele>
        <time>2015-08-27T08:16:58Z</time>
      </trkpt>
      <trkpt lat="45.26037" lon="6.70915">
        <ele>2359.681</ele>
        <time>2015-08-27T08:17:03Z</time>
      </trkpt>
      <trkpt lat="45.26034" lon="6.70916">
        <ele>2359.681</ele>
        <time>2015-08-27T08:17:08Z</time>
      </trkpt>
      <trkpt lat="45.26032" lon="6.70918">
        <ele>2359.681</ele>
        <time>2015-08-27T08:17:13Z</time>
      </trkpt>
      <trkpt lat="45.26028" lon="6.70917">
        <ele>2359.681</ele>
        <time>2015-08-27T08:17:18Z</time>
      </trkpt>
      <trkpt lat="45.26027" lon="6.70917">
        <ele>2362.3726</ele>
        <time>2015-08-27T08:17:23Z</time>
      </trkpt>
      <trkpt lat="45.26026" lon="6.70917">
        <ele>2362.3726</ele>
        <time>2015-08-27T08:17:28Z</time>
      </trkpt>
      <trkpt lat="45.26025" lon="6.70918">
        <ele>2362.3726</ele>
        <time>2015-08-27T08:17:33Z</time>
      </trkpt>
      <trkpt lat="45.26025" lon="6.70918">
        <ele>2362.3726</ele>
        <time>2015-08-27T08:17:38Z</time>
      </trkpt>
      <trkpt lat="45.26025" lon="6.70919">
        <ele>2362.3726</ele>
        <time>2015-08-27T08:17:43Z</time>
      </trkpt>
      <trkpt lat="45.26025" lon="6.70919">
        <ele>2362.3726</ele>
        <time>2015-08-27T08:17:48Z</time>
      </trkpt>
      <trkpt lat="45.26025" lon="6.70919">
        <ele>2362.3726</ele>
        <time>2015-08-27T08:18:13Z</time>
      </trkpt>
      <trkpt lat="45.26025" lon="6.70919">
        <ele>2362.3726</ele>
        <time>2015-08-27T08:18:18Z</time>
      </trkpt>
      <trkpt lat="45.26025" lon="6.70917">
        <ele>2362.3726</ele>
        <time>2015-08-27T08:19:03Z</time>
      </trkpt>
      <trkpt lat="45.26025" lon="6.70916">
        <ele>2362.3726</ele>
        <time>2015-08-27T08:19:08Z</time>
      </trkpt>
      <trkpt lat="45.26028" lon="6.70909">
        <ele>2364.741</ele>
        <time>2015-08-27T08:19:13Z</time>
      </trkpt>
      <trkpt lat="45.2603" lon="6.70904">
        <ele>2364.741</ele>
        <time>2015-08-27T08:19:18Z</time>
      </trkpt>
      <trkpt lat="45.26031" lon="6.70902">
        <ele>2364.741</ele>
        <time>2015-08-27T08:19:23Z</time>
      </trkpt>
      <trkpt lat="45.26031" lon="6.70901">
        <ele>2364.741</ele>
        <time>2015-08-27T08:19:28Z</time>
      </trkpt>
      <trkpt lat="45.26032" lon="6.709">
        <ele>2364.741</ele>
        <time>2015-08-27T08:19:33Z</time>
      </trkpt>
      <trkpt lat="45.26032" lon="6.70899">
        <ele>2364.741</ele>
        <time>2015-08-27T08:19:38Z</time>
      </trkpt>
      <trkpt lat="45.2603" lon="6.70894">
        <ele>2367.143</ele>
        <time>2015-08-27T08:19:43Z</time>
      </trkpt>
      <trkpt lat="45.26029" lon="6.70894">
        <ele>2367.143</ele>
        <time>2015-08-27T08:19:48Z</time>
      </trkpt>
      <trkpt lat="45.26029" lon="6.70894">
        <ele>2367.143</ele>
        <time>2015-08-27T08:19:53Z</time>
      </trkpt>
      <trkpt lat="45.26025" lon="6.70897">
        <ele>2367.143</ele>
        <time>2015-08-27T08:19:58Z</time>
      </trkpt>
      <trkpt lat="45.26025" lon="6.70897">
        <ele>2367.143</ele>
        <time>2015-08-27T08:20:03Z</time>
      </trkpt>
      <trkpt lat="45.26024" lon="6.70898">
        <ele>2367.143</ele>
        <time>2015-08-27T08:20:08Z</time>
      </trkpt>
      <trkpt lat="45.2602" lon="6.70902">
        <ele>2369.7795</ele>
        <time>2015-08-27T08:20:13Z</time>
      </trkpt>
      <trkpt lat="45.2602" lon="6.70902">
        <ele>2369.7795</ele>
        <time>2015-08-27T08:20:18Z</time>
      </trkpt>
      <trkpt lat="45.26019" lon="6.709">
        <ele>2369.7795</ele>
        <time>2015-08-27T08:20:23Z</time>
      </trkpt>
      <trkpt lat="45.26018" lon="6.70897">
        <ele>2369.7795</ele>
        <time>2015-08-27T08:20:28Z</time>
      </trkpt>
      <trkpt lat="45.26018" lon="6.70896">
        <ele>2369.7795</ele>
        <time>2015-08-27T08:20:33Z</time>
      </trkpt>
      <trkpt lat="45.26019" lon="6.70895">
        <ele>2369.7795</ele>
        <time>2015-08-27T08:20:38Z</time>
      </trkpt>
      <trkpt lat="45.26019" lon="6.70894">
        <ele>2369.7795</ele>
        <time>2015-08-27T08:20:43Z</time>
      </trkpt>
      <trkpt lat="45.26018" lon="6.70892">
        <ele>2369.7795</ele>
        <time>2015-08-27T08:20:48Z</time>
      </trkpt>
      <trkpt lat="45.26018" lon="6.70892">
        <ele>2369.7795</ele>
        <time>2015-08-27T08:20:53Z</time>
      </trkpt>
      <trkpt lat="45.26019" lon="6.70887">
        <ele>2372.7642</ele>
        <time>2015-08-27T08:21:13Z</time>
      </trkpt>
      <trkpt lat="45.26019" lon="6.70887">
        <ele>2372.7642</ele>
        <time>2015-08-27T08:21:18Z</time>
      </trkpt>
      <trkpt lat="45.26018" lon="6.70884">
        <ele>2372.7642</ele>
        <time>2015-08-27T08:21:28Z</time>
      </trkpt>
      <trkpt lat="45.26017" lon="6.70873">
        <ele>2375.4524</ele>
        <time>2015-08-27T08:21:33Z</time>
      </trkpt>
      <trkpt lat="45.26016" lon="6.70856">
        <ele>2377.795</ele>
        <time>2015-08-27T08:21:38Z</time>
      </trkpt>
      <trkpt lat="45.26015" lon="6.70853">
        <ele>2377.795</ele>
        <time>2015-08-27T08:21:43Z</time>
      </trkpt>
      <trkpt lat="45.26015" lon="6.70853">
        <ele>2377.795</ele>
        <time>2015-08-27T08:21:48Z</time>
      </trkpt>
      <trkpt lat="45.26013" lon="6.70853">
        <ele>2377.795</ele>
        <time>2015-08-27T08:21:53Z</time>
      </trkpt>
      <trkpt lat="45.26012" lon="6.70853">
        <ele>2377.795</ele>
        <time>2015-08-27T08:21:58Z</time>
      </trkpt>
      <trkpt lat="45.2601" lon="6.70855">
        <ele>2377.795</ele>
        <time>2015-08-27T08:22:03Z</time>
      </trkpt>
      <trkpt lat="45.26007" lon="6.70857">
        <ele>2380.2666</ele>
        <time>2015-08-27T08:22:08Z</time>
      </trkpt>
      <trkpt lat="45.26007" lon="6.70857">
        <ele>2380.2666</ele>
        <time>2015-08-27T08:22:13Z</time>
      </trkpt>
      <trkpt lat="45.26006" lon="6.70858">
        <ele>2380.2666</ele>
        <time>2015-08-27T08:22:18Z</time>
      </trkpt>
      <trkpt lat="45.26002" lon="6.70862">
        <ele>2380.2666</ele>
        <time>2015-08-27T08:22:23Z</time>
      </trkpt>
      <trkpt lat="45.26" lon="6.70863">
        <ele>2380.2666</ele>
        <time>2015-08-27T08:22:28Z</time>
      </trkpt>
      <trkpt lat="45.26" lon="6.70863">
        <ele>2380.2666</ele>
        <time>2015-08-27T08:22:33Z</time>
      </trkpt>
      <trkpt lat="45.25996" lon="6.70866">
        <ele>2382.961</ele>
        <time>2015-08-27T08:22:38Z</time>
      </trkpt>
      <trkpt lat="45.25994" lon="6.70867">
        <ele>2382.961</ele>
        <time>2015-08-27T08:22:43Z</time>
      </trkpt>
      <trkpt lat="45.25992" lon="6.70869">
        <ele>2382.961</ele>
        <time>2015-08-27T08:22:48Z</time>
      </trkpt>
      <trkpt lat="45.25988" lon="6.70873">
        <ele>2385.4885</ele>
        <time>2015-08-27T08:22:53Z</time>
      </trkpt>
      <trkpt lat="45.25985" lon="6.70874">
        <ele>2385.4885</ele>
        <time>2015-08-27T08:22:58Z</time>
      </trkpt>
      <trkpt lat="45.25983" lon="6.70876">
        <ele>2385.4885</ele>
        <time>2015-08-27T08:23:03Z</time>
      </trkpt>
      <trkpt lat="45.25981" lon="6.70877">
        <ele>2385.4885</ele>
        <time>2015-08-27T08:23:08Z</time>
      </trkpt>
      <trkpt lat="45.25978" lon="6.70877">
        <ele>2387.8494</ele>
        <time>2015-08-27T08:23:13Z</time>
      </trkpt>
      <trkpt lat="45.25977" lon="6.70877">
        <ele>2387.8494</ele>
        <time>2015-08-27T08:23:18Z</time>
      </trkpt>
      <trkpt lat="45.25978" lon="6.70874">
        <ele>2387.8494</ele>
        <time>2015-08-27T08:24:13Z</time>
      </trkpt>
      <trkpt lat="45.25978" lon="6.70871">
        <ele>2387.8494</ele>
        <time>2015-08-27T08:24:18Z</time>
      </trkpt>
      <trkpt lat="45.25978" lon="6.7087">
        <ele>2387.8494</ele>
        <time>2015-08-27T08:24:23Z</time>
      </trkpt>
      <trkpt lat="45.25978" lon="6.70869">
        <ele>2387.8494</ele>
        <time>2015-08-27T08:24:28Z</time>
      </trkpt>
      <trkpt lat="45.25978" lon="6.70866">
        <ele>2390.4333</ele>
        <time>2015-08-27T08:24:33Z</time>
      </trkpt>
      <trkpt lat="45.25978" lon="6.70859">
        <ele>2390.4333</ele>
        <time>2015-08-27T08:24:38Z</time>
      </trkpt>
      <trkpt lat="45.25979" lon="6.70858">
        <ele>2390.4333</ele>
        <time>2015-08-27T08:24:43Z</time>
      </trkpt>
      <trkpt lat="45.25979" lon="6.70858">
        <ele>2390.4333</ele>
        <time>2015-08-27T08:24:48Z</time>
      </trkpt>
      <trkpt lat="45.25981" lon="6.70852">
        <ele>2392.7935</ele>
        <time>2015-08-27T08:24:53Z</time>
      </trkpt>
      <trkpt lat="45.25981" lon="6.7085">
        <ele>2392.7935</ele>
        <time>2015-08-27T08:24:58Z</time>
      </trkpt>
      <trkpt lat="45.25981" lon="6.7085">
        <ele>2392.7935</ele>
        <time>2015-08-27T08:25:03Z</time>
      </trkpt>
      <trkpt lat="45.25981" lon="6.70849">
        <ele>2392.7935</ele>
        <time>2015-08-27T08:25:08Z</time>
      </trkpt>
      <trkpt lat="45.25982" lon="6.70847">
        <ele>2392.7935</ele>
        <time>2015-08-27T08:25:13Z</time>
      </trkpt>
      <trkpt lat="45.25982" lon="6.7084">
        <ele>2392.7935</ele>
        <time>2015-08-27T08:25:18Z</time>
      </trkpt>
      <trkpt lat="45.25982" lon="6.7084">
        <ele>2392.7935</ele>
        <time>2015-08-27T08:25:23Z</time>
      </trkpt>
      <trkpt lat="45.25983" lon="6.70839">
        <ele>2395.54</ele>
        <time>2015-08-27T08:26:43Z</time>
      </trkpt>
      <trkpt lat="45.25983" lon="6.70838">
        <ele>2395.54</ele>
        <time>2015-08-27T08:26:48Z</time>
      </trkpt>
      <trkpt lat="45.25986" lon="6.70832">
        <ele>2395.54</ele>
        <time>2015-08-27T08:26:53Z</time>
      </trkpt>
      <trkpt lat="45.25985" lon="6.7083">
        <ele>2395.54</ele>
        <time>2015-08-27T08:26:58Z</time>
      </trkpt>
      <trkpt lat="45.25987" lon="6.70824">
        <ele>2397.8108</ele>
        <time>2015-08-27T08:27:03Z</time>
      </trkpt>
      <trkpt lat="45.25986" lon="6.70817">
        <ele>2397.8108</ele>
        <time>2015-08-27T08:27:08Z</time>
      </trkpt>
      <trkpt lat="45.25985" lon="6.70814">
        <ele>2397.8108</ele>
        <time>2015-08-27T08:27:13Z</time>
      </trkpt>
      <trkpt lat="45.25985" lon="6.7081">
        <ele>2399.8887</ele>
        <time>2015-08-27T08:27:18Z</time>
      </trkpt>
      <trkpt lat="45.25984" lon="6.70804">
        <ele>2399.8887</ele>
        <time>2015-08-27T08:27:23Z</time>
      </trkpt>
      <trkpt lat="45.25985" lon="6.708">
        <ele>2399.8887</ele>
        <time>2015-08-27T08:27:28Z</time>
      </trkpt>
      <trkpt lat="45.25984" lon="6.70796">
        <ele>2401.503</ele>
        <time>2015-08-27T08:27:33Z</time>
      </trkpt>
      <trkpt lat="45.25983" lon="6.70792">
        <ele>2401.503</ele>
        <time>2015-08-27T08:27:38Z</time>
      </trkpt>
      <trkpt lat="45.25982" lon="6.70786">
        <ele>2401.503</ele>
        <time>2015-08-27T08:27:43Z</time>
      </trkpt>
      <trkpt lat="45.25981" lon="6.70781">
        <ele>2402.9958</ele>
        <time>2015-08-27T08:27:48Z</time>
      </trkpt>
      <trkpt lat="45.25983" lon="6.70773">
        <ele>2402.9958</ele>
        <time>2015-08-27T08:27:53Z</time>
      </trkpt>
      <trkpt lat="45.25987" lon="6.70769">
        <ele>2404.1506</ele>
        <time>2015-08-27T08:27:58Z</time>
      </trkpt>
      <trkpt lat="45.25987" lon="6.70763">
        <ele>2404.1506</ele>
        <time>2015-08-27T08:28:03Z</time>
      </trkpt>
      <trkpt lat="45.25985" lon="6.70756">
        <ele>2405.0703</ele>
        <time>2015-08-27T08:28:08Z</time>
      </trkpt>
      <trkpt lat="45.25985" lon="6.7075">
        <ele>2405.0703</ele>
        <time>2015-08-27T08:28:13Z</time>
      </trkpt>
      <trkpt lat="45.25985" lon="6.70748">
        <ele>2405.0703</ele>
        <time>2015-08-27T08:28:18Z</time>
      </trkpt>
      <trkpt lat="45.25986" lon="6.70743">
        <ele>2405.8657</ele>
        <time>2015-08-27T08:28:23Z</time>
      </trkpt>
      <trkpt lat="45.25987" lon="6.70738">
        <ele>2405.8657</ele>
        <time>2015-08-27T08:28:28Z</time>
      </trkpt>
      <trkpt lat="45.25988" lon="6.70736">
        <ele>2405.8657</ele>
        <time>2015-08-27T08:28:33Z</time>
      </trkpt>
      <trkpt lat="45.25992" lon="6.70731">
        <ele>2406.5674</ele>
        <time>2015-08-27T08:28:38Z</time>
      </trkpt>
      <trkpt lat="45.25992" lon="6.70729">
        <ele>2406.5674</ele>
        <time>2015-08-27T08:28:43Z</time>
      </trkpt>
      <trkpt lat="45.25993" lon="6.70721">
        <ele>2406.5674</ele>
        <time>2015-08-27T08:28:48Z</time>
      </trkpt>
      <trkpt lat="45.25994" lon="6.70716">
        <ele>2406.9155</ele>
        <time>2015-08-27T08:28:53Z</time>
      </trkpt>
      <trkpt lat="45.25996" lon="6.70711">
        <ele>2406.9155</ele>
        <time>2015-08-27T08:28:58Z</time>
      </trkpt>
      <trkpt lat="45.25998" lon="6.70706">
        <ele>2406.9155</ele>
        <time>2015-08-27T08:29:03Z</time>
      </trkpt>
      <trkpt lat="45.25999" lon="6.70704">
        <ele>2406.9734</ele>
        <time>2015-08-27T08:29:08Z</time>
      </trkpt>
      <trkpt lat="45.25998" lon="6.707">
        <ele>2406.9734</ele>
        <time>2015-08-27T08:29:13Z</time>
      </trkpt>
      <trkpt lat="45.25996" lon="6.70695">
        <ele>2406.9734</ele>
        <time>2015-08-27T08:29:18Z</time>
      </trkpt>
      <trkpt lat="45.25996" lon="6.70687">
        <ele>2406.9438</ele>
        <time>2015-08-27T08:29:23Z</time>
      </trkpt>
      <trkpt lat="45.25997" lon="6.70681">
        <ele>2406.9438</ele>
        <time>2015-08-27T08:29:28Z</time>
      </trkpt>
      <trkpt lat="45.25997" lon="6.7068">
        <ele>2406.9438</ele>
        <time>2015-08-27T08:29:33Z</time>
      </trkpt>
      <trkpt lat="45.25997" lon="6.70675">
        <ele>2406.727</ele>
        <time>2015-08-27T08:29:38Z</time>
      </trkpt>
      <trkpt lat="45.25995" lon="6.70668">
        <ele>2406.727</ele>
        <time>2015-08-27T08:29:43Z</time>
      </trkpt>
      <trkpt lat="45.25995" lon="6.70666">
        <ele>2406.727</ele>
        <time>2015-08-27T08:29:48Z</time>
      </trkpt>
      <trkpt lat="45.25998" lon="6.7066">
        <ele>2406.8218</ele>
        <time>2015-08-27T08:29:53Z</time>
      </trkpt>
      <trkpt lat="45.25999" lon="6.70655">
        <ele>2406.8218</ele>
        <time>2015-08-27T08:29:58Z</time>
      </trkpt>
      <trkpt lat="45.26002" lon="6.7065">
        <ele>2406.8218</ele>
        <time>2015-08-27T08:30:03Z</time>
      </trkpt>
      <trkpt lat="45.26" lon="6.70646">
        <ele>2406.8098</ele>
        <time>2015-08-27T08:30:08Z</time>
      </trkpt>
      <trkpt lat="45.26002" lon="6.70646">
        <ele>2406.8098</ele>
        <time>2015-08-27T08:30:13Z</time>
      </trkpt>
      <trkpt lat="45.26001" lon="6.70644">
        <ele>2406.8098</ele>
        <time>2015-08-27T08:30:18Z</time>
      </trkpt>
      <trkpt lat="45.25999" lon="6.70637">
        <ele>2406.8098</ele>
        <time>2015-08-27T08:30:23Z</time>
      </trkpt>
      <trkpt lat="45.26" lon="6.70634">
        <ele>2406.8804</ele>
        <time>2015-08-27T08:30:28Z</time>
      </trkpt>
      <trkpt lat="45.26" lon="6.70634">
        <ele>2406.8804</ele>
        <time>2015-08-27T08:30:33Z</time>
      </trkpt>
      <trkpt lat="45.26" lon="6.70627">
        <ele>2406.8804</ele>
        <time>2015-08-27T08:30:38Z</time>
      </trkpt>
      <trkpt lat="45.26" lon="6.70622">
        <ele>2406.8804</ele>
        <time>2015-08-27T08:30:43Z</time>
      </trkpt>
      <trkpt lat="45.26001" lon="6.70615">
        <ele>2406.9636</ele>
        <time>2015-08-27T08:30:48Z</time>
      </trkpt>
      <trkpt lat="45.26" lon="6.70611">
        <ele>2406.9636</ele>
        <time>2015-08-27T08:30:53Z</time>
      </trkpt>
      <trkpt lat="45.26" lon="6.70607">
        <ele>2406.9636</ele>
        <time>2015-08-27T08:30:58Z</time>
      </trkpt>
      <trkpt lat="45.26001" lon="6.70605">
        <ele>2406.9636</ele>
        <time>2015-08-27T08:31:03Z</time>
      </trkpt>
      <trkpt lat="45.26002" lon="6.70602">
        <ele>2407.1956</ele>
        <time>2015-08-27T08:31:08Z</time>
      </trkpt>
      <trkpt lat="45.26002" lon="6.70601">
        <ele>2407.1956</ele>
        <time>2015-08-27T08:31:13Z</time>
      </trkpt>
      <trkpt lat="45.26001" lon="6.70599">
        <ele>2407.1956</ele>
        <time>2015-08-27T08:31:18Z</time>
      </trkpt>
      <trkpt lat="45.26001" lon="6.70599">
        <ele>2407.1956</ele>
        <time>2015-08-27T08:31:23Z</time>
      </trkpt>
      <trkpt lat="45.26" lon="6.70591">
        <ele>2407.1956</ele>
        <time>2015-08-27T08:31:28Z</time>
      </trkpt>
      <trkpt lat="45.26001" lon="6.70586">
        <ele>2407.919</ele>
        <time>2015-08-27T08:31:33Z</time>
      </trkpt>
      <trkpt lat="45.26" lon="6.70582">
        <ele>2407.919</ele>
        <time>2015-08-27T08:31:38Z</time>
      </trkpt>
      <trkpt lat="45.26002" lon="6.70578">
        <ele>2407.919</ele>
        <time>2015-08-27T08:31:43Z</time>
      </trkpt>
      <trkpt lat="45.26002" lon="6.70575">
        <ele>2407.919</ele>
        <time>2015-08-27T08:31:48Z</time>
      </trkpt>
      <trkpt lat="45.26002" lon="6.70575">
        <ele>2407.919</ele>
        <time>2015-08-27T08:31:53Z</time>
      </trkpt>
      <trkpt lat="45.26001" lon="6.70574">
        <ele>2408.9443</ele>
        <time>2015-08-27T08:31:58Z</time>
      </trkpt>
      <trkpt lat="45.26001" lon="6.70573">
        <ele>2408.9443</ele>
        <time>2015-08-27T08:32:03Z</time>
      </trkpt>
      <trkpt lat="45.26001" lon="6.70573">
        <ele>2408.9443</ele>
        <time>2015-08-27T08:32:08Z</time>
      </trkpt>
      <trkpt lat="45.26" lon="6.70571">
        <ele>2408.9443</ele>
        <time>2015-08-27T08:32:13Z</time>
      </trkpt>
      <trkpt lat="45.25999" lon="6.70568">
        <ele>2408.9443</ele>
        <time>2015-08-27T08:32:18Z</time>
      </trkpt>
      <trkpt lat="45.25999" lon="6.70568">
        <ele>2408.9443</ele>
        <time>2015-08-27T08:32:23Z</time>
      </trkpt>
      <trkpt lat="45.25998" lon="6.70567">
        <ele>2408.9443</ele>
        <time>2015-08-27T08:32:28Z</time>
      </trkpt>
      <trkpt lat="45.25999" lon="6.70556">
        <ele>2410.3838</ele>
        <time>2015-08-27T08:32:33Z</time>
      </trkpt>
      <trkpt lat="45.25997" lon="6.70548">
        <ele>2410.3838</ele>
        <time>2015-08-27T08:32:38Z</time>
      </trkpt>
      <trkpt lat="45.25997" lon="6.70548">
        <ele>2410.3838</ele>
        <time>2015-08-27T08:32:43Z</time>
      </trkpt>
      <trkpt lat="45.25997" lon="6.70547">
        <ele>2410.3838</ele>
        <time>2015-08-27T08:32:48Z</time>
      </trkpt>
      <trkpt lat="45.25994" lon="6.70544">
        <ele>2411.8496</ele>
        <time>2015-08-27T08:32:53Z</time>
      </trkpt>
      <trkpt lat="45.25993" lon="6.7054">
        <ele>2411.8496</ele>
        <time>2015-08-27T08:32:58Z</time>
      </trkpt>
      <trkpt lat="45.25992" lon="6.70539">
        <ele>2411.8496</ele>
        <time>2015-08-27T08:33:03Z</time>
      </trkpt>
      <trkpt lat="45.25992" lon="6.70535">
        <ele>2411.8496</ele>
        <time>2015-08-27T08:33:08Z</time>
      </trkpt>
      <trkpt lat="45.25992" lon="6.70535">
        <ele>2411.8496</ele>
        <time>2015-08-27T08:33:13Z</time>
      </trkpt>
      <trkpt lat="45.25992" lon="6.7053">
        <ele>2413.4727</ele>
        <time>2015-08-27T08:33:18Z</time>
      </trkpt>
      <trkpt lat="45.25996" lon="6.70523">
        <ele>2413.4727</ele>
        <time>2015-08-27T08:33:23Z</time>
      </trkpt>
      <trkpt lat="45.25998" lon="6.70521">
        <ele>2413.4727</ele>
        <time>2015-08-27T08:33:28Z</time>
      </trkpt>
      <trkpt lat="45.26001" lon="6.70512">
        <ele>2414.5808</ele>
        <time>2015-08-27T08:33:33Z</time>
      </trkpt>
      <trkpt lat="45.26001" lon="6.70512">
        <ele>2414.5808</ele>
        <time>2015-08-27T08:33:38Z</time>
      </trkpt>
      <trkpt lat="45.26001" lon="6.70504">
        <ele>2414.5808</ele>
        <time>2015-08-27T08:33:43Z</time>
      </trkpt>
      <trkpt lat="45.25999" lon="6.70501">
        <ele>2414.5808</ele>
        <time>2015-08-27T08:33:48Z</time>
      </trkpt>
      <trkpt lat="45.25998" lon="6.70499">
        <ele>2415.6328</ele>
        <time>2015-08-27T08:33:53Z</time>
      </trkpt>
      <trkpt lat="45.25996" lon="6.70498">
        <ele>2415.6328</ele>
        <time>2015-08-27T08:33:58Z</time>
      </trkpt>
      <trkpt lat="45.25995" lon="6.70494">
        <ele>2415.6328</ele>
        <time>2015-08-27T08:34:03Z</time>
      </trkpt>
      <trkpt lat="45.25992" lon="6.70487">
        <ele>2416.8528</ele>
        <time>2015-08-27T08:34:08Z</time>
      </trkpt>
      <trkpt lat="45.25988" lon="6.70479">
        <ele>2416.8528</ele>
        <time>2015-08-27T08:34:13Z</time>
      </trkpt>
      <trkpt lat="45.25987" lon="6.70476">
        <ele>2417.9717</ele>
        <time>2015-08-27T08:34:18Z</time>
      </trkpt>
      <trkpt lat="45.2599" lon="6.70469">
        <ele>2417.9717</ele>
        <time>2015-08-27T08:34:23Z</time>
      </trkpt>
      <trkpt lat="45.25988" lon="6.70464">
        <ele>2419.1006</ele>
        <time>2015-08-27T08:34:28Z</time>
      </trkpt>
      <trkpt lat="45.25986" lon="6.70458">
        <ele>2419.1006</ele>
        <time>2015-08-27T08:34:33Z</time>
      </trkpt>
      <trkpt lat="45.25984" lon="6.7045">
        <ele>2420.1697</ele>
        <time>2015-08-27T08:34:38Z</time>
      </trkpt>
      <trkpt lat="45.25984" lon="6.70445">
        <ele>2420.1697</ele>
        <time>2015-08-27T08:34:43Z</time>
      </trkpt>
      <trkpt lat="45.25982" lon="6.70439">
        <ele>2420.1697</ele>
        <time>2015-08-27T08:34:48Z</time>
      </trkpt>
      <trkpt lat="45.25981" lon="6.70438">
        <ele>2421.1426</ele>
        <time>2015-08-27T08:34:53Z</time>
      </trkpt>
      <trkpt lat="45.25976" lon="6.70435">
        <ele>2421.1426</ele>
        <time>2015-08-27T08:34:58Z</time>
      </trkpt>
      <trkpt lat="45.25972" lon="6.7043">
        <ele>2422.202</ele>
        <time>2015-08-27T08:35:03Z</time>
      </trkpt>
      <trkpt lat="45.25966" lon="6.70429">
        <ele>2422.202</ele>
        <time>2015-08-27T08:35:08Z</time>
      </trkpt>
      <trkpt lat="45.25965" lon="6.70429">
        <ele>2422.202</ele>
        <time>2015-08-27T08:35:13Z</time>
      </trkpt>
      <trkpt lat="45.25965" lon="6.70428">
        <ele>2422.202</ele>
        <time>2015-08-27T08:35:18Z</time>
      </trkpt>
      <trkpt lat="45.25964" lon="6.70433">
        <ele>2423.3584</ele>
        <time>2015-08-27T08:35:23Z</time>
      </trkpt>
      <trkpt lat="45.25963" lon="6.70434">
        <ele>2423.3584</ele>
        <time>2015-08-27T08:35:28Z</time>
      </trkpt>
      <trkpt lat="45.25963" lon="6.70434">
        <ele>2423.3584</ele>
        <time>2015-08-27T08:35:33Z</time>
      </trkpt>
      <trkpt lat="45.25964" lon="6.70433">
        <ele>2423.3584</ele>
        <time>2015-08-27T08:35:58Z</time>
      </trkpt>
      <trkpt lat="45.25964" lon="6.70433">
        <ele>2423.3584</ele>
        <time>2015-08-27T08:36:03Z</time>
      </trkpt>
      <trkpt lat="45.25963" lon="6.70434">
        <ele>2423.3584</ele>
        <time>2015-08-27T08:36:23Z</time>
      </trkpt>
      <trkpt lat="45.25961" lon="6.70435">
        <ele>2423.3584</ele>
        <time>2015-08-27T08:36:28Z</time>
      </trkpt>
      <trkpt lat="45.25961" lon="6.70435">
        <ele>2423.3584</ele>
        <time>2015-08-27T08:36:33Z</time>
      </trkpt>
      <trkpt lat="45.25958" lon="6.70435">
        <ele>2423.3584</ele>
        <time>2015-08-27T08:36:38Z</time>
      </trkpt>
      <trkpt lat="45.25954" lon="6.70439">
        <ele>2424.463</ele>
        <time>2015-08-27T08:36:43Z</time>
      </trkpt>
      <trkpt lat="45.25952" lon="6.70441">
        <ele>2424.463</ele>
        <time>2015-08-27T08:36:48Z</time>
      </trkpt>
      <trkpt lat="45.25949" lon="6.70445">
        <ele>2424.463</ele>
        <time>2015-08-27T08:36:53Z</time>
      </trkpt>
      <trkpt lat="45.25947" lon="6.70453">
        <ele>2425.5066</ele>
        <time>2015-08-27T08:36:58Z</time>
      </trkpt>
      <trkpt lat="45.25946" lon="6.70459">
        <ele>2425.5066</ele>
        <time>2015-08-27T08:37:03Z</time>
      </trkpt>
      <trkpt lat="45.25944" lon="6.70461">
        <ele>2425.5066</ele>
        <time>2015-08-27T08:37:08Z</time>
      </trkpt>
      <trkpt lat="45.25941" lon="6.70461">
        <ele>2426.3518</ele>
        <time>2015-08-27T08:37:13Z</time>
      </trkpt>
      <trkpt lat="45.25937" lon="6.70457">
        <ele>2426.3518</ele>
        <time>2015-08-27T08:37:18Z</time>
      </trkpt>
      <trkpt lat="45.25935" lon="6.70453">
        <ele>2426.3518</ele>
        <time>2015-08-27T08:37:23Z</time>
      </trkpt>
      <trkpt lat="45.25931" lon="6.70446">
        <ele>2426.5974</ele>
        <time>2015-08-27T08:37:28Z</time>
      </trkpt>
      <trkpt lat="45.25928" lon="6.70442">
        <ele>2426.5974</ele>
        <time>2015-08-27T08:37:33Z</time>
      </trkpt>
      <trkpt lat="45.25923" lon="6.70437">
        <ele>2426.5657</ele>
        <time>2015-08-27T08:37:38Z</time>
      </trkpt>
      <trkpt lat="45.25916" lon="6.70428">
        <ele>2426.3967</ele>
        <time>2015-08-27T08:37:43Z</time>
      </trkpt>
      <trkpt lat="45.25913" lon="6.70425">
        <ele>2426.3967</ele>
        <time>2015-08-27T08:37:48Z</time>
      </trkpt>
      <trkpt lat="45.25911" lon="6.70419">
        <ele>2426.3967</ele>
        <time>2015-08-27T08:37:53Z</time>
      </trkpt>
      <trkpt lat="45.25909" lon="6.70413">
        <ele>2426.0767</ele>
        <time>2015-08-27T08:37:58Z</time>
      </trkpt>
      <trkpt lat="45.25906" lon="6.70407">
        <ele>2426.0767</ele>
        <time>2015-08-27T08:38:03Z</time>
      </trkpt>
      <trkpt lat="45.25902" lon="6.70408">
        <ele>2425.6501</ele>
        <time>2015-08-27T08:38:08Z</time>
      </trkpt>
      <trkpt lat="45.25898" lon="6.70413">
        <ele>2425.6501</ele>
        <time>2015-08-27T08:38:13Z</time>
      </trkpt>
      <trkpt lat="45.25895" lon="6.70418">
        <ele>2424.9868</ele>
        <time>2015-08-27T08:38:18Z</time>
      </trkpt>
      <trkpt lat="45.25891" lon="6.70424">
        <ele>2424.9868</ele>
        <time>2015-08-27T08:38:23Z</time>
      </trkpt>
      <trkpt lat="45.2589" lon="6.7043">
        <ele>2424.1382</ele>
        <time>2015-08-27T08:38:28Z</time>
      </trkpt>
      <trkpt lat="45.25888" lon="6.70433">
        <ele>2424.1382</ele>
        <time>2015-08-27T08:38:33Z</time>
      </trkpt>
      <trkpt lat="45.25885" lon="6.70438">
        <ele>2424.1382</ele>
        <time>2015-08-27T08:38:38Z</time>
      </trkpt>
      <trkpt lat="45.25884" lon="6.70445">
        <ele>2422.98</ele>
        <time>2015-08-27T08:38:43Z</time>
      </trkpt>
      <trkpt lat="45.25882" lon="6.70451">
        <ele>2422.98</ele>
        <time>2015-08-27T08:38:48Z</time>
      </trkpt>
      <trkpt lat="45.25881" lon="6.70457">
        <ele>2422.98</ele>
        <time>2015-08-27T08:38:53Z</time>
      </trkpt>
      <trkpt lat="45.25879" lon="6.70459">
        <ele>2421.7437</ele>
        <time>2015-08-27T08:38:58Z</time>
      </trkpt>
      <trkpt lat="45.25879" lon="6.70459">
        <ele>2421.7437</ele>
        <time>2015-08-27T08:39:03Z</time>
      </trkpt>
      <trkpt lat="45.25878" lon="6.7046">
        <ele>2421.7437</ele>
        <time>2015-08-27T08:39:08Z</time>
      </trkpt>
      <trkpt lat="45.25875" lon="6.70465">
        <ele>2421.7437</ele>
        <time>2015-08-27T08:39:13Z</time>
      </trkpt>
      <trkpt lat="45.25869" lon="6.70472">
        <ele>2420.629</ele>
        <time>2015-08-27T08:39:18Z</time>
      </trkpt>
      <trkpt lat="45.25866" lon="6.70474">
        <ele>2420.629</ele>
        <time>2015-08-27T08:39:23Z</time>
      </trkpt>
      <trkpt lat="45.25861" lon="6.70475">
        <ele>2420.629</ele>
        <time>2015-08-27T08:39:28Z</time>
      </trkpt>
      <trkpt lat="45.25857" lon="6.70474">
        <ele>2419.187</ele>
        <time>2015-08-27T08:39:33Z</time>
      </trkpt>
      <trkpt lat="45.25855" lon="6.70477">
        <ele>2419.187</ele>
        <time>2015-08-27T08:39:38Z</time>
      </trkpt>
      <trkpt lat="45.25855" lon="6.70477">
        <ele>2419.187</ele>
        <time>2015-08-27T08:39:43Z</time>
      </trkpt>
      <trkpt lat="45.25854" lon="6.70477">
        <ele>2419.187</ele>
        <time>2015-08-27T08:39:48Z</time>
      </trkpt>
      <trkpt lat="45.25853" lon="6.70481">
        <ele>2419.187</ele>
        <time>2015-08-27T08:39:53Z</time>
      </trkpt>
      <trkpt lat="45.25853" lon="6.70481">
        <ele>2419.187</ele>
        <time>2015-08-27T08:39:58Z</time>
      </trkpt>
      <trkpt lat="45.25849" lon="6.70486">
        <ele>2417.1602</ele>
        <time>2015-08-27T08:40:03Z</time>
      </trkpt>
      <trkpt lat="45.25848" lon="6.70488">
        <ele>2417.1602</ele>
        <time>2015-08-27T08:40:08Z</time>
      </trkpt>
      <trkpt lat="45.25844" lon="6.70489">
        <ele>2417.1602</ele>
        <time>2015-08-27T08:40:13Z</time>
      </trkpt>
      <trkpt lat="45.2584" lon="6.70491">
        <ele>2414.8743</ele>
        <time>2015-08-27T08:40:18Z</time>
      </trkpt>
      <trkpt lat="45.25838" lon="6.70491">
        <ele>2414.8743</ele>
        <time>2015-08-27T08:40:23Z</time>
      </trkpt>
      <trkpt lat="45.25837" lon="6.70491">
        <ele>2414.8743</ele>
        <time>2015-08-27T08:40:28Z</time>
      </trkpt>
      <trkpt lat="45.25833" lon="6.70484">
        <ele>2411.9968</ele>
        <time>2015-08-27T08:40:33Z</time>
      </trkpt>
      <trkpt lat="45.25831" lon="6.70479">
        <ele>2411.9968</ele>
        <time>2015-08-27T08:40:38Z</time>
      </trkpt>
      <trkpt lat="45.25825" lon="6.70474">
        <ele>2409.1873</ele>
        <time>2015-08-27T08:40:43Z</time>
      </trkpt>
      <trkpt lat="45.25822" lon="6.7047">
        <ele>2409.1873</ele>
        <time>2015-08-27T08:40:48Z</time>
      </trkpt>
      <trkpt lat="45.25818" lon="6.70472">
        <ele>2409.1873</ele>
        <time>2015-08-27T08:40:53Z</time>
      </trkpt>
      <trkpt lat="45.25815" lon="6.70472">
        <ele>2406.2773</ele>
        <time>2015-08-27T08:40:58Z</time>
      </trkpt>
      <trkpt lat="45.25811" lon="6.70472">
        <ele>2406.2773</ele>
        <time>2015-08-27T08:41:03Z</time>
      </trkpt>
      <trkpt lat="45.25808" lon="6.70471">
        <ele>2406.2773</ele>
        <time>2015-08-27T08:41:08Z</time>
      </trkpt>
      <trkpt lat="45.25804" lon="6.70473">
        <ele>2403.4436</ele>
        <time>2015-08-27T08:41:13Z</time>
      </trkpt>
      <trkpt lat="45.25799" lon="6.70478">
        <ele>2403.4436</ele>
        <time>2015-08-27T08:41:18Z</time>
      </trkpt>
      <trkpt lat="45.25794" lon="6.70484">
        <ele>2400.8196</ele>
        <time>2015-08-27T08:41:23Z</time>
      </trkpt>
      <trkpt lat="45.25788" lon="6.70487">
        <ele>2400.8196</ele>
        <time>2015-08-27T08:41:28Z</time>
      </trkpt>
      <trkpt lat="45.25783" lon="6.70491">
        <ele>2398.4128</ele>
        <time>2015-08-27T08:41:33Z</time>
      </trkpt>
      <trkpt lat="45.25779" lon="6.70495">
        <ele>2398.4128</ele>
        <time>2015-08-27T08:41:38Z</time>
      </trkpt>
      <trkpt lat="45.25774" lon="6.70498">
        <ele>2396.1868</ele>
        <time>2015-08-27T08:41:43Z</time>
      </trkpt>
      <trkpt lat="45.25772" lon="6.70501">
        <ele>2396.1868</ele>
        <time>2015-08-27T08:41:48Z</time>
      </trkpt>
      <trkpt lat="45.25768" lon="6.70504">
        <ele>2396.1868</ele>
        <time>2015-08-27T08:41:53Z</time>
      </trkpt>
      <trkpt lat="45.25765" lon="6.70507">
        <ele>2393.7605</ele>
        <time>2015-08-27T08:41:58Z</time>
      </trkpt>
      <trkpt lat="45.25762" lon="6.70511">
        <ele>2393.7605</ele>
        <time>2015-08-27T08:42:03Z</time>
      </trkpt>
      <trkpt lat="45.25757" lon="6.70515">
        <ele>2391.4446</ele>
        <time>2015-08-27T08:42:08Z</time>
      </trkpt>
      <trkpt lat="45.25751" lon="6.70518">
        <ele>2391.4446</ele>
        <time>2015-08-27T08:42:13Z</time>
      </trkpt>
      <trkpt lat="45.25746" lon="6.70524">
        <ele>2389.2517</ele>
        <time>2015-08-27T08:42:18Z</time>
      </trkpt>
      <trkpt lat="45.25745" lon="6.70524">
        <ele>2389.2517</ele>
        <time>2015-08-27T08:42:23Z</time>
      </trkpt>
      <trkpt lat="45.25743" lon="6.70529">
        <ele>2389.2517</ele>
        <time>2015-08-27T08:42:28Z</time>
      </trkpt>
      <trkpt lat="45.25739" lon="6.70537">
        <ele>2386.9343</ele>
        <time>2015-08-27T08:42:33Z</time>
      </trkpt>
      <trkpt lat="45.25737" lon="6.70536">
        <ele>2386.9343</ele>
        <time>2015-08-27T08:42:38Z</time>
      </trkpt>
      <trkpt lat="45.25736" lon="6.70539">
        <ele>2386.9343</ele>
        <time>2015-08-27T08:42:43Z</time>
      </trkpt>
      <trkpt lat="45.25735" lon="6.7054">
        <ele>2386.9343</ele>
        <time>2015-08-27T08:42:48Z</time>
      </trkpt>
      <trkpt lat="45.25733" lon="6.70543">
        <ele>2386.9343</ele>
        <time>2015-08-27T08:42:53Z</time>
      </trkpt>
      <trkpt lat="45.25731" lon="6.70546">
        <ele>2384.1045</ele>
        <time>2015-08-27T08:42:58Z</time>
      </trkpt>
      <trkpt lat="45.2573" lon="6.70549">
        <ele>2384.1045</ele>
        <time>2015-08-27T08:43:03Z</time>
      </trkpt>
      <trkpt lat="45.25729" lon="6.70551">
        <ele>2384.1045</ele>
        <time>2015-08-27T08:43:08Z</time>
      </trkpt>
      <trkpt lat="45.25726" lon="6.70552">
        <ele>2384.1045</ele>
        <time>2015-08-27T08:43:13Z</time>
      </trkpt>
      <trkpt lat="45.25724" lon="6.70554">
        <ele>2381.0376</ele>
        <time>2015-08-27T08:43:18Z</time>
      </trkpt>
      <trkpt lat="45.25719" lon="6.70557">
        <ele>2381.0376</ele>
        <time>2015-08-27T08:43:23Z</time>
      </trkpt>
      <trkpt lat="45.25715" lon="6.70559">
        <ele>2378.2058</ele>
        <time>2015-08-27T08:43:28Z</time>
      </trkpt>
      <trkpt lat="45.25711" lon="6.7056">
        <ele>2378.2058</ele>
        <time>2015-08-27T08:43:33Z</time>
      </trkpt>
      <trkpt lat="45.25708" lon="6.70561">
        <ele>2378.2058</ele>
        <time>2015-08-27T08:43:38Z</time>
      </trkpt>
      <trkpt lat="45.25706" lon="6.70563">
        <ele>2375.5698</ele>
        <time>2015-08-27T08:43:43Z</time>
      </trkpt>
      <trkpt lat="45.25706" lon="6.70563">
        <ele>2375.5698</ele>
        <time>2015-08-27T08:43:48Z</time>
      </trkpt>
      <trkpt lat="45.25704" lon="6.70565">
        <ele>2375.5698</ele>
        <time>2015-08-27T08:44:08Z</time>
      </trkpt>
      <trkpt lat="45.25699" lon="6.70568">
        <ele>2375.5698</ele>
        <time>2015-08-27T08:44:13Z</time>
      </trkpt>
      <trkpt lat="45.25698" lon="6.70569">
        <ele>2373.28</ele>
        <time>2015-08-27T08:44:18Z</time>
      </trkpt>
      <trkpt lat="45.25694" lon="6.70571">
        <ele>2373.28</ele>
        <time>2015-08-27T08:44:23Z</time>
      </trkpt>
      <trkpt lat="45.2569" lon="6.70573">
        <ele>2373.28</ele>
        <time>2015-08-27T08:44:28Z</time>
      </trkpt>
      <trkpt lat="45.25687" lon="6.70573">
        <ele>2370.7825</ele>
        <time>2015-08-27T08:44:33Z</time>
      </trkpt>
      <trkpt lat="45.25682" lon="6.70572">
        <ele>2370.7825</ele>
        <time>2015-08-27T08:44:38Z</time>
      </trkpt>
      <trkpt lat="45.25679" lon="6.70574">
        <ele>2370.7825</ele>
        <time>2015-08-27T08:44:43Z</time>
      </trkpt>
      <trkpt lat="45.25677" lon="6.70578">
        <ele>2368.3713</ele>
        <time>2015-08-27T08:44:48Z</time>
      </trkpt>
      <trkpt lat="45.25674" lon="6.70581">
        <ele>2368.3713</ele>
        <time>2015-08-27T08:44:53Z</time>
      </trkpt>
      <trkpt lat="45.25671" lon="6.70582">
        <ele>2368.3713</ele>
        <time>2015-08-27T08:44:58Z</time>
      </trkpt>
      <trkpt lat="45.25669" lon="6.70583">
        <ele>2368.3713</ele>
        <time>2015-08-27T08:45:03Z</time>
      </trkpt>
      <trkpt lat="45.25663" lon="6.70586">
        <ele>2366.074</ele>
        <time>2015-08-27T08:45:08Z</time>
      </trkpt>
      <trkpt lat="45.25661" lon="6.70588">
        <ele>2366.074</ele>
        <time>2015-08-27T08:45:13Z</time>
      </trkpt>
      <trkpt lat="45.25656" lon="6.70589">
        <ele>2366.074</ele>
        <time>2015-08-27T08:45:18Z</time>
      </trkpt>
      <trkpt lat="45.25656" lon="6.70589">
        <ele>2366.074</ele>
        <time>2015-08-27T08:45:23Z</time>
      </trkpt>
      <trkpt lat="45.25654" lon="6.7059">
        <ele>2364.1597</ele>
        <time>2015-08-27T08:45:38Z</time>
      </trkpt>
      <trkpt lat="45.25647" lon="6.70592">
        <ele>2364.1597</ele>
        <time>2015-08-27T08:45:43Z</time>
      </trkpt>
      <trkpt lat="45.25646" lon="6.70593">
        <ele>2364.1597</ele>
        <time>2015-08-27T08:45:48Z</time>
      </trkpt>
      <trkpt lat="45.25644" lon="6.70596">
        <ele>2362.56</ele>
        <time>2015-08-27T08:45:53Z</time>
      </trkpt>
      <trkpt lat="45.2564" lon="6.706">
        <ele>2362.56</ele>
        <time>2015-08-27T08:45:58Z</time>
      </trkpt>
      <trkpt lat="45.25636" lon="6.70602">
        <ele>2362.56</ele>
        <time>2015-08-27T08:46:03Z</time>
      </trkpt>
      <trkpt lat="45.25635" lon="6.70603">
        <ele>2361.0947</ele>
        <time>2015-08-27T08:46:08Z</time>
      </trkpt>
      <trkpt lat="45.25631" lon="6.70606">
        <ele>2361.0947</ele>
        <time>2015-08-27T08:46:13Z</time>
      </trkpt>
      <trkpt lat="45.25628" lon="6.70608">
        <ele>2361.0947</ele>
        <time>2015-08-27T08:46:18Z</time>
      </trkpt>
      <trkpt lat="45.25628" lon="6.70608">
        <ele>2361.0947</ele>
        <time>2015-08-27T08:46:23Z</time>
      </trkpt>
      <trkpt lat="45.25626" lon="6.70609">
        <ele>2359.9426</ele>
        <time>2015-08-27T08:46:28Z</time>
      </trkpt>
      <trkpt lat="45.25625" lon="6.7061">
        <ele>2359.9426</ele>
        <time>2015-08-27T08:46:33Z</time>
      </trkpt>
      <trkpt lat="45.2562" lon="6.70614">
        <ele>2359.9426</ele>
        <time>2015-08-27T08:46:38Z</time>
      </trkpt>
      <trkpt lat="45.25616" lon="6.70616">
        <ele>2359.0083</ele>
        <time>2015-08-27T08:46:43Z</time>
      </trkpt>
      <trkpt lat="45.25609" lon="6.70621">
        <ele>2359.0083</ele>
        <time>2015-08-27T08:46:48Z</time>
      </trkpt>
      <trkpt lat="45.25605" lon="6.70624">
        <ele>2358.448</ele>
        <time>2015-08-27T08:46:53Z</time>
      </trkpt>
      <trkpt lat="45.25603" lon="6.70628">
        <ele>2358.448</ele>
        <time>2015-08-27T08:46:58Z</time>
      </trkpt>
      <trkpt lat="45.25601" lon="6.70629">
        <ele>2358.448</ele>
        <time>2015-08-27T08:47:03Z</time>
      </trkpt>
      <trkpt lat="45.25597" lon="6.70631">
        <ele>2358.232</ele>
        <time>2015-08-27T08:47:08Z</time>
      </trkpt>
      <trkpt lat="45.25595" lon="6.70633">
        <ele>2358.232</ele>
        <time>2015-08-27T08:47:13Z</time>
      </trkpt>
      <trkpt lat="45.25592" lon="6.70635">
        <ele>2358.232</ele>
        <time>2015-08-27T08:47:18Z</time>
      </trkpt>
      <trkpt lat="45.2559" lon="6.70636">
        <ele>2358.232</ele>
        <time>2015-08-27T08:47:23Z</time>
      </trkpt>
      <trkpt lat="45.25587" lon="6.70642">
        <ele>2358.3464</ele>
        <time>2015-08-27T08:47:28Z</time>
      </trkpt>
      <trkpt lat="45.25584" lon="6.70646">
        <ele>2358.3464</ele>
        <time>2015-08-27T08:47:33Z</time>
      </trkpt>
      <trkpt lat="45.25582" lon="6.70649">
        <ele>2358.3464</ele>
        <time>2015-08-27T08:47:38Z</time>
      </trkpt>
      <trkpt lat="45.25579" lon="6.70651">
        <ele>2358.6616</ele>
        <time>2015-08-27T08:47:43Z</time>
      </trkpt>
      <trkpt lat="45.25578" lon="6.70653">
        <ele>2358.6616</ele>
        <time>2015-08-27T08:47:48Z</time>
      </trkpt>
      <trkpt lat="45.25576" lon="6.70656">
        <ele>2358.6616</ele>
        <time>2015-08-27T08:47:53Z</time>
      </trkpt>
      <trkpt lat="45.25572" lon="6.70659">
        <ele>2358.6616</ele>
        <time>2015-08-27T08:47:58Z</time>
      </trkpt>
      <trkpt lat="45.25569" lon="6.70662">
        <ele>2359.1147</ele>
        <time>2015-08-27T08:48:03Z</time>
      </trkpt>
      <trkpt lat="45.25566" lon="6.70665">
        <ele>2359.1147</ele>
        <time>2015-08-27T08:48:08Z</time>
      </trkpt>
      <trkpt lat="45.25564" lon="6.70667">
        <ele>2359.1147</ele>
        <time>2015-08-27T08:48:13Z</time>
      </trkpt>
      <trkpt lat="45.25563" lon="6.7067">
        <ele>2359.892</ele>
        <time>2015-08-27T08:48:18Z</time>
      </trkpt>
      <trkpt lat="45.2556" lon="6.70674">
        <ele>2359.892</ele>
        <time>2015-08-27T08:48:23Z</time>
      </trkpt>
      <trkpt lat="45.25559" lon="6.70676">
        <ele>2359.892</ele>
        <time>2015-08-27T08:48:28Z</time>
      </trkpt>
      <trkpt lat="45.25556" lon="6.70678">
        <ele>2359.892</ele>
        <time>2015-08-27T08:48:33Z</time>
      </trkpt>
      <trkpt lat="45.25554" lon="6.7068">
        <ele>2360.9634</ele>
        <time>2015-08-27T08:48:38Z</time>
      </trkpt>
      <trkpt lat="45.25551" lon="6.70683">
        <ele>2360.9634</ele>
        <time>2015-08-27T08:48:43Z</time>
      </trkpt>
      <trkpt lat="45.25549" lon="6.70686">
        <ele>2360.9634</ele>
        <time>2015-08-27T08:48:48Z</time>
      </trkpt>
      <trkpt lat="45.25546" lon="6.70689">
        <ele>2362.3286</ele>
        <time>2015-08-27T08:48:53Z</time>
      </trkpt>
      <trkpt lat="45.25545" lon="6.70692">
        <ele>2362.3286</ele>
        <time>2015-08-27T08:48:58Z</time>
      </trkpt>
      <trkpt lat="45.25543" lon="6.70697">
        <ele>2362.3286</ele>
        <time>2015-08-27T08:49:03Z</time>
      </trkpt>
      <trkpt lat="45.25541" lon="6.70696">
        <ele>2362.3286</ele>
        <time>2015-08-27T08:49:08Z</time>
      </trkpt>
      <trkpt lat="45.25537" lon="6.70695">
        <ele>2364.0012</ele>
        <time>2015-08-27T08:49:13Z</time>
      </trkpt>
      <trkpt lat="45.25535" lon="6.70699">
        <ele>2364.0012</ele>
        <time>2015-08-27T08:49:18Z</time>
      </trkpt>
      <trkpt lat="45.25533" lon="6.70702">
        <ele>2364.0012</ele>
        <time>2015-08-27T08:49:23Z</time>
      </trkpt>
      <trkpt lat="45.25531" lon="6.70704">
        <ele>2364.0012</ele>
        <time>2015-08-27T08:49:28Z</time>
      </trkpt>
      <trkpt lat="45.25529" lon="6.70707">
        <ele>2365.8486</ele>
        <time>2015-08-27T08:49:33Z</time>
      </trkpt>
      <trkpt lat="45.25526" lon="6.7071">
        <ele>2365.8486</ele>
        <time>2015-08-27T08:49:38Z</time>
      </trkpt>
      <trkpt lat="45.25524" lon="6.70712">
        <ele>2365.8486</ele>
        <time>2015-08-27T08:49:43Z</time>
      </trkpt>
      <trkpt lat="45.25521" lon="6.70715">
        <ele>2367.806</ele>
        <time>2015-08-27T08:49:48Z</time>
      </trkpt>
      <trkpt lat="45.2552" lon="6.70718">
        <ele>2367.806</ele>
        <time>2015-08-27T08:49:53Z</time>
      </trkpt>
      <trkpt lat="45.25517" lon="6.7072">
        <ele>2367.806</ele>
        <time>2015-08-27T08:49:58Z</time>
      </trkpt>
      <trkpt lat="45.25515" lon="6.70723">
        <ele>2367.806</ele>
        <time>2015-08-27T08:50:03Z</time>
      </trkpt>
      <trkpt lat="45.25512" lon="6.70725">
        <ele>2369.9124</ele>
        <time>2015-08-27T08:50:08Z</time>
      </trkpt>
      <trkpt lat="45.25509" lon="6.70728">
        <ele>2369.9124</ele>
        <time>2015-08-27T08:50:13Z</time>
      </trkpt>
      <trkpt lat="45.25508" lon="6.70732">
        <ele>2369.9124</ele>
        <time>2015-08-27T08:50:18Z</time>
      </trkpt>
      <trkpt lat="45.25507" lon="6.70735">
        <ele>2369.9124</ele>
        <time>2015-08-27T08:50:23Z</time>
      </trkpt>
      <trkpt lat="45.25507" lon="6.70739">
        <ele>2372.2627</ele>
        <time>2015-08-27T08:50:28Z</time>
      </trkpt>
      <trkpt lat="45.25505" lon="6.70743">
        <ele>2372.2627</ele>
        <time>2015-08-27T08:50:33Z</time>
      </trkpt>
      <trkpt lat="45.25504" lon="6.70747">
        <ele>2372.2627</ele>
        <time>2015-08-27T08:50:38Z</time>
      </trkpt>
      <trkpt lat="45.25504" lon="6.7075">
        <ele>2372.2627</ele>
        <time>2015-08-27T08:50:43Z</time>
      </trkpt>
      <trkpt lat="45.25504" lon="6.70753">
        <ele>2374.7563</ele>
        <time>2015-08-27T08:50:48Z</time>
      </trkpt>
      <trkpt lat="45.25504" lon="6.70758">
        <ele>2374.7563</ele>
        <time>2015-08-27T08:50:53Z</time>
      </trkpt>
      <trkpt lat="45.25504" lon="6.70763">
        <ele>2374.7563</ele>
        <time>2015-08-27T08:50:58Z</time>
      </trkpt>
      <trkpt lat="45.25503" lon="6.70768">
        <ele>2377.1702</ele>
        <time>2015-08-27T08:51:03Z</time>
      </trkpt>
      <trkpt lat="45.25502" lon="6.70773">
        <ele>2377.1702</ele>
        <time>2015-08-27T08:51:08Z</time>
      </trkpt>
      <trkpt lat="45.255" lon="6.70777">
        <ele>2377.1702</ele>
        <time>2015-08-27T08:51:13Z</time>
      </trkpt>
      <trkpt lat="45.25499" lon="6.70782">
        <ele>2379.6436</ele>
        <time>2015-08-27T08:51:18Z</time>
      </trkpt>
      <trkpt lat="45.255" lon="6.70788">
        <ele>2379.6436</ele>
        <time>2015-08-27T08:51:23Z</time>
      </trkpt>
      <trkpt lat="45.255" lon="6.70794">
        <ele>2379.6436</ele>
        <time>2015-08-27T08:51:28Z</time>
      </trkpt>
      <trkpt lat="45.25498" lon="6.70799">
        <ele>2382.032</ele>
        <time>2015-08-27T08:51:33Z</time>
      </trkpt>
      <trkpt lat="45.25497" lon="6.70803">
        <ele>2382.032</ele>
        <time>2015-08-27T08:51:38Z</time>
      </trkpt>
      <trkpt lat="45.25497" lon="6.70808">
        <ele>2382.032</ele>
        <time>2015-08-27T08:51:43Z</time>
      </trkpt>
      <trkpt lat="45.25497" lon="6.70814">
        <ele>2384.4905</ele>
        <time>2015-08-27T08:51:48Z</time>
      </trkpt>
      <trkpt lat="45.25496" lon="6.70819">
        <ele>2384.4905</ele>
        <time>2015-08-27T08:51:53Z</time>
      </trkpt>
      <trkpt lat="45.25495" lon="6.70823">
        <ele>2384.4905</ele>
        <time>2015-08-27T08:51:58Z</time>
      </trkpt>
      <trkpt lat="45.25494" lon="6.7083">
        <ele>2386.8738</ele>
        <time>2015-08-27T08:52:03Z</time>
      </trkpt>
      <trkpt lat="45.25494" lon="6.70837">
        <ele>2386.8738</ele>
        <time>2015-08-27T08:52:08Z</time>
      </trkpt>
      <trkpt lat="45.25493" lon="6.70843">
        <ele>2389.0054</ele>
        <time>2015-08-27T08:52:13Z</time>
      </trkpt>
      <trkpt lat="45.25492" lon="6.70849">
        <ele>2389.0054</ele>
        <time>2015-08-27T08:52:18Z</time>
      </trkpt>
      <trkpt lat="45.25491" lon="6.70853">
        <ele>2389.0054</ele>
        <time>2015-08-27T08:52:23Z</time>
      </trkpt>
      <trkpt lat="45.25489" lon="6.70857">
        <ele>2391.01</ele>
        <time>2015-08-27T08:52:28Z</time>
      </trkpt>
      <trkpt lat="45.25487" lon="6.70858">
        <ele>2391.01</ele>
        <time>2015-08-27T08:52:33Z</time>
      </trkpt>
      <trkpt lat="45.25483" lon="6.70863">
        <ele>2391.01</ele>
        <time>2015-08-27T08:52:38Z</time>
      </trkpt>
      <trkpt lat="45.2548" lon="6.70866">
        <ele>2393.0332</ele>
        <time>2015-08-27T08:52:43Z</time>
      </trkpt>
      <trkpt lat="45.25478" lon="6.70872">
        <ele>2393.0332</ele>
        <time>2015-08-27T08:52:48Z</time>
      </trkpt>
      <trkpt lat="45.25476" lon="6.70874">
        <ele>2393.0332</ele>
        <time>2015-08-27T08:52:53Z</time>
      </trkpt>
      <trkpt lat="45.25473" lon="6.70875">
        <ele>2394.9795</ele>
        <time>2015-08-27T08:52:58Z</time>
      </trkpt>
      <trkpt lat="45.25471" lon="6.70879">
        <ele>2394.9795</ele>
        <time>2015-08-27T08:53:03Z</time>
      </trkpt>
      <trkpt lat="45.25469" lon="6.70882">
        <ele>2394.9795</ele>
        <time>2015-08-27T08:53:08Z</time>
      </trkpt>
      <trkpt lat="45.25466" lon="6.70885">
        <ele>2397.0198</ele>
        <time>2015-08-27T08:53:13Z</time>
      </trkpt>
      <trkpt lat="45.25463" lon="6.70888">
        <ele>2397.0198</ele>
        <time>2015-08-27T08:53:18Z</time>
      </trkpt>
      <trkpt lat="45.25461" lon="6.70889">
        <ele>2397.0198</ele>
        <time>2015-08-27T08:53:23Z</time>
      </trkpt>
      <trkpt lat="45.25458" lon="6.70892">
        <ele>2398.9238</ele>
        <time>2015-08-27T08:53:28Z</time>
      </trkpt>
      <trkpt lat="45.25455" lon="6.70893">
        <ele>2398.9238</ele>
        <time>2015-08-27T08:53:33Z</time>
      </trkpt>
      <trkpt lat="45.25449" lon="6.70897">
        <ele>2400.5938</ele>
        <time>2015-08-27T08:53:38Z</time>
      </trkpt>
      <trkpt lat="45.25445" lon="6.70897">
        <ele>2400.5938</ele>
        <time>2015-08-27T08:53:43Z</time>
      </trkpt>
      <trkpt lat="45.25441" lon="6.70898">
        <ele>2400.5938</ele>
        <time>2015-08-27T08:53:48Z</time>
      </trkpt>
      <trkpt lat="45.25438" lon="6.709">
        <ele>2402.1855</ele>
        <time>2015-08-27T08:53:53Z</time>
      </trkpt>
      <trkpt lat="45.25436" lon="6.70902">
        <ele>2402.1855</ele>
        <time>2015-08-27T08:53:58Z</time>
      </trkpt>
      <trkpt lat="45.25431" lon="6.70907">
        <ele>2402.1855</ele>
        <time>2015-08-27T08:54:03Z</time>
      </trkpt>
      <trkpt lat="45.25428" lon="6.7091">
        <ele>2403.656</ele>
        <time>2015-08-27T08:54:08Z</time>
      </trkpt>
      <trkpt lat="45.25424" lon="6.70912">
        <ele>2403.656</ele>
        <time>2015-08-27T08:54:13Z</time>
      </trkpt>
      <trkpt lat="45.25421" lon="6.70916">
        <ele>2403.656</ele>
        <time>2015-08-27T08:54:18Z</time>
      </trkpt>
      <trkpt lat="45.25418" lon="6.70919">
        <ele>2404.9517</ele>
        <time>2015-08-27T08:54:23Z</time>
      </trkpt>
      <trkpt lat="45.25416" lon="6.70921">
        <ele>2404.9517</ele>
        <time>2015-08-27T08:54:28Z</time>
      </trkpt>
      <trkpt lat="45.25413" lon="6.70925">
        <ele>2404.9517</ele>
        <time>2015-08-27T08:54:33Z</time>
      </trkpt>
      <trkpt lat="45.25411" lon="6.70928">
        <ele>2406.0815</ele>
        <time>2015-08-27T08:54:38Z</time>
      </trkpt>
      <trkpt lat="45.2541" lon="6.70931">
        <ele>2406.0815</ele>
        <time>2015-08-27T08:54:43Z</time>
      </trkpt>
      <trkpt lat="45.25407" lon="6.70934">
        <ele>2406.0815</ele>
        <time>2015-08-27T08:54:48Z</time>
      </trkpt>
      <trkpt lat="45.25406" lon="6.70937">
        <ele>2406.0815</ele>
        <time>2015-08-27T08:54:53Z</time>
      </trkpt>
      <trkpt lat="45.25406" lon="6.70941">
        <ele>2407.1697</ele>
        <time>2015-08-27T08:54:58Z</time>
      </trkpt>
      <trkpt lat="45.25404" lon="6.70942">
        <ele>2407.1697</ele>
        <time>2015-08-27T08:55:03Z</time>
      </trkpt>
      <trkpt lat="45.25404" lon="6.70944">
        <ele>2407.1697</ele>
        <time>2015-08-27T08:55:08Z</time>
      </trkpt>
      <trkpt lat="45.25406" lon="6.70943">
        <ele>2407.1697</ele>
        <time>2015-08-27T08:55:13Z</time>
      </trkpt>
      <trkpt lat="45.25407" lon="6.70943">
        <ele>2407.1697</ele>
        <time>2015-08-27T08:55:18Z</time>
      </trkpt>
      <trkpt lat="45.25407" lon="6.70943">
        <ele>2407.1697</ele>
        <time>2015-08-27T08:55:23Z</time>
      </trkpt>
      <trkpt lat="45.25406" lon="6.70945">
        <ele>2408.2017</ele>
        <time>2015-08-27T08:55:28Z</time>
      </trkpt>
      <trkpt lat="45.25401" lon="6.70945">
        <ele>2408.2017</ele>
        <time>2015-08-27T08:55:33Z</time>
      </trkpt>
      <trkpt lat="45.25397" lon="6.70944">
        <ele>2409.2512</ele>
        <time>2015-08-27T08:55:38Z</time>
      </trkpt>
      <trkpt lat="45.2539" lon="6.70946">
        <ele>2409.2512</ele>
        <time>2015-08-27T08:55:43Z</time>
      </trkpt>
      <trkpt lat="45.25385" lon="6.70949">
        <ele>2410.0986</ele>
        <time>2015-08-27T08:55:48Z</time>
      </trkpt>
      <trkpt lat="45.25381" lon="6.70948">
        <ele>2410.0986</ele>
        <time>2015-08-27T08:55:53Z</time>
      </trkpt>
      <trkpt lat="45.25376" lon="6.70947">
        <ele>2410.8577</ele>
        <time>2015-08-27T08:55:58Z</time>
      </trkpt>
      <trkpt lat="45.25371" lon="6.7095">
        <ele>2410.8577</ele>
        <time>2015-08-27T08:56:03Z</time>
      </trkpt>
      <trkpt lat="45.25367" lon="6.7095">
        <ele>2411.3755</ele>
        <time>2015-08-27T08:56:08Z</time>
      </trkpt>
      <trkpt lat="45.25364" lon="6.70951">
        <ele>2411.3755</ele>
        <time>2015-08-27T08:56:13Z</time>
      </trkpt>
      <trkpt lat="45.25361" lon="6.70955">
        <ele>2411.3755</ele>
        <time>2015-08-27T08:56:18Z</time>
      </trkpt>
      <trkpt lat="45.25357" lon="6.70958">
        <ele>2411.77</ele>
        <time>2015-08-27T08:56:23Z</time>
      </trkpt>
      <trkpt lat="45.25353" lon="6.70958">
        <ele>2411.77</ele>
        <time>2015-08-27T08:56:28Z</time>
      </trkpt>
      <trkpt lat="45.2535" lon="6.70961">
        <ele>2411.77</ele>
        <time>2015-08-27T08:56:33Z</time>
      </trkpt>
      <trkpt lat="45.25347" lon="6.70969">
        <ele>2412.2527</ele>
        <time>2015-08-27T08:56:38Z</time>
      </trkpt>
      <trkpt lat="45.25343" lon="6.70974">
        <ele>2412.2527</ele>
        <time>2015-08-27T08:56:43Z</time>
      </trkpt>
      <trkpt lat="45.25339" lon="6.70976">
        <ele>2412.7014</ele>
        <time>2015-08-27T08:56:48Z</time>
      </trkpt>
      <trkpt lat="45.25337" lon="6.70977">
        <ele>2412.7014</ele>
        <time>2015-08-27T08:56:53Z</time>
      </trkpt>
      <trkpt lat="45.25335" lon="6.70981">
        <ele>2412.7014</ele>
        <time>2015-08-27T08:56:58Z</time>
      </trkpt>
      <trkpt lat="45.25334" lon="6.70987">
        <ele>2413.004</ele>
        <time>2015-08-27T08:57:03Z</time>
      </trkpt>
      <trkpt lat="45.25332" lon="6.70993">
        <ele>2413.004</ele>
        <time>2015-08-27T08:57:08Z</time>
      </trkpt>
      <trkpt lat="45.25328" lon="6.70994">
        <ele>2413.1284</ele>
        <time>2015-08-27T08:57:13Z</time>
      </trkpt>
      <trkpt lat="45.25323" lon="6.70997">
        <ele>2413.1284</ele>
        <time>2015-08-27T08:57:18Z</time>
      </trkpt>
      <trkpt lat="45.25323" lon="6.71">
        <ele>2413.1284</ele>
        <time>2015-08-27T08:57:23Z</time>
      </trkpt>
      <trkpt lat="45.25323" lon="6.71006">
        <ele>2412.888</ele>
        <time>2015-08-27T08:57:28Z</time>
      </trkpt>
      <trkpt lat="45.2532" lon="6.71007">
        <ele>2412.888</ele>
        <time>2015-08-27T08:57:33Z</time>
      </trkpt>
      <trkpt lat="45.25316" lon="6.71009">
        <ele>2412.888</ele>
        <time>2015-08-27T08:57:38Z</time>
      </trkpt>
      <trkpt lat="45.25313" lon="6.71008">
        <ele>2412.4849</ele>
        <time>2015-08-27T08:57:43Z</time>
      </trkpt>
      <trkpt lat="45.2531" lon="6.71009">
        <ele>2412.4849</ele>
        <time>2015-08-27T08:57:48Z</time>
      </trkpt>
      <trkpt lat="45.25308" lon="6.71009">
        <ele>2412.4849</ele>
        <time>2015-08-27T08:57:53Z</time>
      </trkpt>
      <trkpt lat="45.25307" lon="6.71012">
        <ele>2412.4849</ele>
        <time>2015-08-27T08:57:58Z</time>
      </trkpt>
      <trkpt lat="45.25308" lon="6.71011">
        <ele>2412.4849</ele>
        <time>2015-08-27T08:58:03Z</time>
      </trkpt>
      <trkpt lat="45.25308" lon="6.7101">
        <ele>2412.4849</ele>
        <time>2015-08-27T08:58:08Z</time>
      </trkpt>
      <trkpt lat="45.25306" lon="6.71011">
        <ele>2411.9775</ele>
        <time>2015-08-27T08:58:13Z</time>
      </trkpt>
      <trkpt lat="45.25305" lon="6.7101">
        <ele>2411.9775</ele>
        <time>2015-08-27T08:58:18Z</time>
      </trkpt>
      <trkpt lat="45.25304" lon="6.71011">
        <ele>2411.9775</ele>
        <time>2015-08-27T08:58:23Z</time>
      </trkpt>
      <trkpt lat="45.25302" lon="6.71015">
        <ele>2411.9775</ele>
        <time>2015-08-27T08:58:28Z</time>
      </trkpt>
      <trkpt lat="45.253" lon="6.71017">
        <ele>2411.9775</ele>
        <time>2015-08-27T08:58:33Z</time>
      </trkpt>
      <trkpt lat="45.25298" lon="6.71021">
        <ele>2411.4204</ele>
        <time>2015-08-27T08:58:38Z</time>
      </trkpt>
      <trkpt lat="45.25296" lon="6.71024">
        <ele>2411.4204</ele>
        <time>2015-08-27T08:58:43Z</time>
      </trkpt>
      <trkpt lat="45.25292" lon="6.71028">
        <ele>2411.4204</ele>
        <time>2015-08-27T08:58:48Z</time>
      </trkpt>
      <trkpt lat="45.2529" lon="6.71034">
        <ele>2410.9502</ele>
        <time>2015-08-27T08:58:53Z</time>
      </trkpt>
      <trkpt lat="45.25287" lon="6.71037">
        <ele>2410.9502</ele>
        <time>2015-08-27T08:58:58Z</time>
      </trkpt>
      <trkpt lat="45.25285" lon="6.71041">
        <ele>2410.9502</ele>
        <time>2015-08-27T08:59:03Z</time>
      </trkpt>
      <trkpt lat="45.25282" lon="6.71047">
        <ele>2410.4639</ele>
        <time>2015-08-27T08:59:08Z</time>
      </trkpt>
      <trkpt lat="45.25279" lon="6.7105">
        <ele>2410.4639</ele>
        <time>2015-08-27T08:59:13Z</time>
      </trkpt>
      <trkpt lat="45.25275" lon="6.7105">
        <ele>2410.4639</ele>
        <time>2015-08-27T08:59:18Z</time>
      </trkpt>
      <trkpt lat="45.25271" lon="6.71051">
        <ele>2410.0088</ele>
        <time>2015-08-27T08:59:23Z</time>
      </trkpt>
      <trkpt lat="45.25268" lon="6.71055">
        <ele>2410.0088</ele>
        <time>2015-08-27T08:59:28Z</time>
      </trkpt>
      <trkpt lat="45.25265" lon="6.71057">
        <ele>2410.0088</ele>
        <time>2015-08-27T08:59:33Z</time>
      </trkpt>
      <trkpt lat="45.25262" lon="6.71061">
        <ele>2409.601</ele>
        <time>2015-08-27T08:59:38Z</time>
      </trkpt>
      <trkpt lat="45.25259" lon="6.71067">
        <ele>2409.601</ele>
        <time>2015-08-27T08:59:43Z</time>
      </trkpt>
      <trkpt lat="45.25257" lon="6.71075">
        <ele>2409.1685</ele>
        <time>2015-08-27T08:59:48Z</time>
      </trkpt>
      <trkpt lat="45.25256" lon="6.7108">
        <ele>2409.1685</ele>
        <time>2015-08-27T08:59:53Z</time>
      </trkpt>
      <trkpt lat="45.25253" lon="6.71084">
        <ele>2409.1685</ele>
        <time>2015-08-27T08:59:58Z</time>
      </trkpt>
      <trkpt lat="45.25249" lon="6.71087">
        <ele>2408.6584</ele>
        <time>2015-08-27T09:00:03Z</time>
      </trkpt>
      <trkpt lat="45.25246" lon="6.71093">
        <ele>2408.6584</ele>
        <time>2015-08-27T09:00:08Z</time>
      </trkpt>
      <trkpt lat="45.25242" lon="6.71096">
        <ele>2408.0806</ele>
        <time>2015-08-27T09:00:13Z</time>
      </trkpt>
      <trkpt lat="45.2524" lon="6.71102">
        <ele>2408.0806</ele>
        <time>2015-08-27T09:00:18Z</time>
      </trkpt>
      <trkpt lat="45.25236" lon="6.71104">
        <ele>2408.0806</ele>
        <time>2015-08-27T09:00:23Z</time>
      </trkpt>
      <trkpt lat="45.25231" lon="6.71106">
        <ele>2407.2275</ele>
        <time>2015-08-27T09:00:28Z</time>
      </trkpt>
      <trkpt lat="45.25227" lon="6.71108">
        <ele>2407.2275</ele>
        <time>2015-08-27T09:00:33Z</time>
      </trkpt>
      <trkpt lat="45.25222" lon="6.71106">
        <ele>2406.2825</ele>
        <time>2015-08-27T09:00:38Z</time>
      </trkpt>
      <trkpt lat="45.2522" lon="6.71107">
        <ele>2406.2825</ele>
        <time>2015-08-27T09:00:43Z</time>
      </trkpt>
      <trkpt lat="45.25217" lon="6.71109">
        <ele>2406.2825</ele>
        <time>2015-08-27T09:00:48Z</time>
      </trkpt>
      <trkpt lat="45.25213" lon="6.71112">
        <ele>2405.286</ele>
        <time>2015-08-27T09:00:53Z</time>
      </trkpt>
      <trkpt lat="45.25209" lon="6.71116">
        <ele>2405.286</ele>
        <time>2015-08-27T09:00:58Z</time>
      </trkpt>
      <trkpt lat="45.25205" lon="6.71121">
        <ele>2404.333</ele>
        <time>2015-08-27T09:01:03Z</time>
      </trkpt>
      <trkpt lat="45.25201" lon="6.71123">
        <ele>2404.333</ele>
        <time>2015-08-27T09:01:08Z</time>
      </trkpt>
      <trkpt lat="45.25196" lon="6.71128">
        <ele>2403.4683</ele>
        <time>2015-08-27T09:01:13Z</time>
      </trkpt>
      <trkpt lat="45.25194" lon="6.71131">
        <ele>2403.4683</ele>
        <time>2015-08-27T09:01:18Z</time>
      </trkpt>
      <trkpt lat="45.25191" lon="6.71135">
        <ele>2403.4683</ele>
        <time>2015-08-27T09:01:23Z</time>
      </trkpt>
      <trkpt lat="45.25191" lon="6.7114">
        <ele>2402.4734</ele>
        <time>2015-08-27T09:01:28Z</time>
      </trkpt>
      <trkpt lat="45.25188" lon="6.71145">
        <ele>2402.4734</ele>
        <time>2015-08-27T09:01:33Z</time>
      </trkpt>
      <trkpt lat="45.25186" lon="6.7115">
        <ele>2402.4734</ele>
        <time>2015-08-27T09:01:38Z</time>
      </trkpt>
      <trkpt lat="45.25182" lon="6.71155">
        <ele>2401.334</ele>
        <time>2015-08-27T09:01:43Z</time>
      </trkpt>
      <trkpt lat="45.25179" lon="6.71159">
        <ele>2401.334</ele>
        <time>2015-08-27T09:01:48Z</time>
      </trkpt>
      <trkpt lat="45.25175" lon="6.71166">
        <ele>2400.1807</ele>
        <time>2015-08-27T09:01:53Z</time>
      </trkpt>
      <trkpt lat="45.25172" lon="6.71171">
        <ele>2400.1807</ele>
        <time>2015-08-27T09:01:58Z</time>
      </trkpt>
      <trkpt lat="45.25168" lon="6.71177">
        <ele>2399.0627</ele>
        <time>2015-08-27T09:02:03Z</time>
      </trkpt>
      <trkpt lat="45.25166" lon="6.71181">
        <ele>2399.0627</ele>
        <time>2015-08-27T09:02:08Z</time>
      </trkpt>
      <trkpt lat="45.25163" lon="6.71185">
        <ele>2399.0627</ele>
        <time>2015-08-27T09:02:13Z</time>
      </trkpt>
      <trkpt lat="45.25157" lon="6.71189">
        <ele>2397.9243</ele>
        <time>2015-08-27T09:02:18Z</time>
      </trkpt>
      <trkpt lat="45.25155" lon="6.71193">
        <ele>2397.9243</ele>
        <time>2015-08-27T09:02:23Z</time>
      </trkpt>
      <trkpt lat="45.2515" lon="6.712">
        <ele>2396.9307</ele>
        <time>2015-08-27T09:02:28Z</time>
      </trkpt>
      <trkpt lat="45.25147" lon="6.71205">
        <ele>2396.9307</ele>
        <time>2015-08-27T09:02:33Z</time>
      </trkpt>
      <trkpt lat="45.25145" lon="6.71209">
        <ele>2396.9307</ele>
        <time>2015-08-27T09:02:38Z</time>
      </trkpt>
      <trkpt lat="45.25142" lon="6.71215">
        <ele>2396.089</ele>
        <time>2015-08-27T09:02:43Z</time>
      </trkpt>
      <trkpt lat="45.25141" lon="6.7122">
        <ele>2396.089</ele>
        <time>2015-08-27T09:02:48Z</time>
      </trkpt>
      <trkpt lat="45.2514" lon="6.71224">
        <ele>2396.089</ele>
        <time>2015-08-27T09:02:53Z</time>
      </trkpt>
      <trkpt lat="45.25137" lon="6.7123">
        <ele>2395.248</ele>
        <time>2015-08-27T09:02:58Z</time>
      </trkpt>
      <trkpt lat="45.25136" lon="6.71236">
        <ele>2395.248</ele>
        <time>2015-08-27T09:03:03Z</time>
      </trkpt>
      <trkpt lat="45.25135" lon="6.7124">
        <ele>2395.248</ele>
        <time>2015-08-27T09:03:08Z</time>
      </trkpt>
      <trkpt lat="45.2513" lon="6.71247">
        <ele>2394.238</ele>
        <time>2015-08-27T09:03:13Z</time>
      </trkpt>
      <trkpt lat="45.25127" lon="6.71255">
        <ele>2394.238</ele>
        <time>2015-08-27T09:03:18Z</time>
      </trkpt>
      <trkpt lat="45.25125" lon="6.71262">
        <ele>2393.4067</ele>
        <time>2015-08-27T09:03:23Z</time>
      </trkpt>
      <trkpt lat="45.25124" lon="6.71268">
        <ele>2393.4067</ele>
        <time>2015-08-27T09:03:28Z</time>
      </trkpt>
      <trkpt lat="45.25122" lon="6.71272">
        <ele>2393.4067</ele>
        <time>2015-08-27T09:03:33Z</time>
      </trkpt>
      <trkpt lat="45.25123" lon="6.71277">
        <ele>2392.6145</ele>
        <time>2015-08-27T09:03:38Z</time>
      </trkpt>
      <trkpt lat="45.2512" lon="6.71285">
        <ele>2392.6145</ele>
        <time>2015-08-27T09:03:43Z</time>
      </trkpt>
      <trkpt lat="45.2512" lon="6.71292">
        <ele>2391.8755</ele>
        <time>2015-08-27T09:03:48Z</time>
      </trkpt>
      <trkpt lat="45.2512" lon="6.71301">
        <ele>2391.8755</ele>
        <time>2015-08-27T09:03:53Z</time>
      </trkpt>
      <trkpt lat="45.2512" lon="6.71305">
        <ele>2391.131</ele>
        <time>2015-08-27T09:03:58Z</time>
      </trkpt>
      <trkpt lat="45.25119" lon="6.71311">
        <ele>2391.131</ele>
        <time>2015-08-27T09:04:03Z</time>
      </trkpt>
      <trkpt lat="45.25119" lon="6.71317">
        <ele>2391.131</ele>
        <time>2015-08-27T09:04:08Z</time>
      </trkpt>
      <trkpt lat="45.2512" lon="6.71324">
        <ele>2390.4272</ele>
        <time>2015-08-27T09:04:13Z</time>
      </trkpt>
      <trkpt lat="45.2512" lon="6.71329">
        <ele>2390.4272</ele>
        <time>2015-08-27T09:04:18Z</time>
      </trkpt>
      <trkpt lat="45.25122" lon="6.71337">
        <ele>2389.7922</ele>
        <time>2015-08-27T09:04:23Z</time>
      </trkpt>
      <trkpt lat="45.25123" lon="6.71344">
        <ele>2389.7922</ele>
        <time>2015-08-27T09:04:28Z</time>
      </trkpt>
      <trkpt lat="45.25122" lon="6.71348">
        <ele>2389.7922</ele>
        <time>2015-08-27T09:04:33Z</time>
      </trkpt>
      <trkpt lat="45.25123" lon="6.71354">
        <ele>2389.2373</ele>
        <time>2015-08-27T09:04:38Z</time>
      </trkpt>
      <trkpt lat="45.25124" lon="6.71363">
        <ele>2389.2373</ele>
        <time>2015-08-27T09:04:43Z</time>
      </trkpt>
      <trkpt lat="45.25123" lon="6.7137">
        <ele>2388.8015</ele>
        <time>2015-08-27T09:04:48Z</time>
      </trkpt>
      <trkpt lat="45.25124" lon="6.71375">
        <ele>2388.8015</ele>
        <time>2015-08-27T09:04:53Z</time>
      </trkpt>
      <trkpt lat="45.25121" lon="6.71381">
        <ele>2388.8015</ele>
        <time>2015-08-27T09:04:58Z</time>
      </trkpt>
      <trkpt lat="45.25121" lon="6.71385">
        <ele>2388.4055</ele>
        <time>2015-08-27T09:05:03Z</time>
      </trkpt>
      <trkpt lat="45.2512" lon="6.71393">
        <ele>2388.4055</ele>
        <time>2015-08-27T09:05:08Z</time>
      </trkpt>
      <trkpt lat="45.25119" lon="6.71398">
        <ele>2388.09</ele>
        <time>2015-08-27T09:05:13Z</time>
      </trkpt>
      <trkpt lat="45.25114" lon="6.71402">
        <ele>2388.09</ele>
        <time>2015-08-27T09:05:18Z</time>
      </trkpt>
      <trkpt lat="45.25109" lon="6.71405">
        <ele>2387.85</ele>
        <time>2015-08-27T09:05:23Z</time>
      </trkpt>
      <trkpt lat="45.25107" lon="6.71407">
        <ele>2387.85</ele>
        <time>2015-08-27T09:05:28Z</time>
      </trkpt>
      <trkpt lat="45.25101" lon="6.71407">
        <ele>2387.85</ele>
        <time>2015-08-27T09:05:33Z</time>
      </trkpt>
      <trkpt lat="45.25095" lon="6.71408">
        <ele>2387.8823</ele>
        <time>2015-08-27T09:05:38Z</time>
      </trkpt>
      <trkpt lat="45.25091" lon="6.71409">
        <ele>2387.8823</ele>
        <time>2015-08-27T09:05:43Z</time>
      </trkpt>
      <trkpt lat="45.25086" lon="6.71413">
        <ele>2388.022</ele>
        <time>2015-08-27T09:05:48Z</time>
      </trkpt>
      <trkpt lat="45.25081" lon="6.71415">
        <ele>2388.022</ele>
        <time>2015-08-27T09:05:53Z</time>
      </trkpt>
      <trkpt lat="45.25078" lon="6.71418">
        <ele>2388.022</ele>
        <time>2015-08-27T09:05:58Z</time>
      </trkpt>
      <trkpt lat="45.25076" lon="6.71421">
        <ele>2388.2026</ele>
        <time>2015-08-27T09:06:03Z</time>
      </trkpt>
      <trkpt lat="45.25072" lon="6.71427">
        <ele>2388.2026</ele>
        <time>2015-08-27T09:06:08Z</time>
      </trkpt>
      <trkpt lat="45.25072" lon="6.71431">
        <ele>2388.2026</ele>
        <time>2015-08-27T09:06:13Z</time>
      </trkpt>
      <trkpt lat="45.25071" lon="6.71432">
        <ele>2388.5068</ele>
        <time>2015-08-27T09:06:18Z</time>
      </trkpt>
      <trkpt lat="45.2507" lon="6.71432">
        <ele>2388.5068</ele>
        <time>2015-08-27T09:06:23Z</time>
      </trkpt>
      <trkpt lat="45.2507" lon="6.71432">
        <ele>2388.5068</ele>
        <time>2015-08-27T09:06:28Z</time>
      </trkpt>
      <trkpt lat="45.25071" lon="6.71432">
        <ele>2388.5068</ele>
        <time>2015-08-27T09:06:33Z</time>
      </trkpt>
      <trkpt lat="45.25069" lon="6.71433">
        <ele>2388.5068</ele>
        <time>2015-08-27T09:06:38Z</time>
      </trkpt>
      <trkpt lat="45.2507" lon="6.71431">
        <ele>2388.5068</ele>
        <time>2015-08-27T09:06:43Z</time>
      </trkpt>
      <trkpt lat="45.25068" lon="6.71432">
        <ele>2388.5068</ele>
        <time>2015-08-27T09:06:48Z</time>
      </trkpt>
      <trkpt lat="45.25067" lon="6.71432">
        <ele>2388.578</ele>
        <time>2015-08-27T09:06:53Z</time>
      </trkpt>
      <trkpt lat="45.25067" lon="6.71434">
        <ele>2388.578</ele>
        <time>2015-08-27T09:06:58Z</time>
      </trkpt>
      <trkpt lat="45.25066" lon="6.71438">
        <ele>2388.578</ele>
        <time>2015-08-27T09:07:03Z</time>
      </trkpt>
      <trkpt lat="45.25063" lon="6.71443">
        <ele>2388.578</ele>
        <time>2015-08-27T09:07:08Z</time>
      </trkpt>
      <trkpt lat="45.25061" lon="6.71447">
        <ele>2388.8066</ele>
        <time>2015-08-27T09:07:13Z</time>
      </trkpt>
      <trkpt lat="45.2506" lon="6.71452">
        <ele>2388.8066</ele>
        <time>2015-08-27T09:07:18Z</time>
      </trkpt>
      <trkpt lat="45.25059" lon="6.71457">
        <ele>2388.8066</ele>
        <time>2015-08-27T09:07:23Z</time>
      </trkpt>
      <trkpt lat="45.25056" lon="6.71461">
        <ele>2389.123</ele>
        <time>2015-08-27T09:07:28Z</time>
      </trkpt>
      <trkpt lat="45.25053" lon="6.71465">
        <ele>2389.123</ele>
        <time>2015-08-27T09:07:33Z</time>
      </trkpt>
      <trkpt lat="45.25052" lon="6.71465">
        <ele>2389.123</ele>
        <time>2015-08-27T09:07:38Z</time>
      </trkpt>
      <trkpt lat="45.25049" lon="6.71467">
        <ele>2389.123</ele>
        <time>2015-08-27T09:07:43Z</time>
      </trkpt>
      <trkpt lat="45.25046" lon="6.71468">
        <ele>2389.576</ele>
        <time>2015-08-27T09:07:48Z</time>
      </trkpt>
      <trkpt lat="45.25044" lon="6.71472">
        <ele>2389.576</ele>
        <time>2015-08-27T09:07:53Z</time>
      </trkpt>
      <trkpt lat="45.25039" lon="6.71473">
        <ele>2389.576</ele>
        <time>2015-08-27T09:07:58Z</time>
      </trkpt>
      <trkpt lat="45.25036" lon="6.71472">
        <ele>2389.995</ele>
        <time>2015-08-27T09:08:03Z</time>
      </trkpt>
      <trkpt lat="45.25033" lon="6.71471">
        <ele>2389.995</ele>
        <time>2015-08-27T09:08:08Z</time>
      </trkpt>
      <trkpt lat="45.25031" lon="6.71471">
        <ele>2389.995</ele>
        <time>2015-08-27T09:08:13Z</time>
      </trkpt>
      <trkpt lat="45.25031" lon="6.71473">
        <ele>2389.995</ele>
        <time>2015-08-27T09:08:18Z</time>
      </trkpt>
      <trkpt lat="45.25032" lon="6.71476">
        <ele>2389.995</ele>
        <time>2015-08-27T09:08:23Z</time>
      </trkpt>
      <trkpt lat="45.2503" lon="6.71475">
        <ele>2390.6548</ele>
        <time>2015-08-27T09:08:28Z</time>
      </trkpt>
      <trkpt lat="45.25031" lon="6.71471">
        <ele>2390.6548</ele>
        <time>2015-08-27T09:08:33Z</time>
      </trkpt>
      <trkpt lat="45.25031" lon="6.7147">
        <ele>2390.6548</ele>
        <time>2015-08-27T09:08:38Z</time>
      </trkpt>
      <trkpt lat="45.2503" lon="6.71471">
        <ele>2390.6548</ele>
        <time>2015-08-27T09:08:43Z</time>
      </trkpt>
      <trkpt lat="45.25029" lon="6.71472">
        <ele>2390.6548</ele>
        <time>2015-08-27T09:08:48Z</time>
      </trkpt>
      <trkpt lat="45.2503" lon="6.7147">
        <ele>2390.6548</ele>
        <time>2015-08-27T09:08:53Z</time>
      </trkpt>
      <trkpt lat="45.25031" lon="6.7147">
        <ele>2390.6548</ele>
        <time>2015-08-27T09:08:58Z</time>
      </trkpt>
      <trkpt lat="45.25032" lon="6.7147">
        <ele>2390.6548</ele>
        <time>2015-08-27T09:09:03Z</time>
      </trkpt>
      <trkpt lat="45.25029" lon="6.71466">
        <ele>2389.0847</ele>
        <time>2015-08-27T09:21:42Z</time>
      </trkpt>
      <trkpt lat="45.2503" lon="6.71467">
        <ele>2389.0847</ele>
        <time>2015-08-27T09:21:47Z</time>
      </trkpt>
      <trkpt lat="45.25029" lon="6.71467">
        <ele>2389.0847</ele>
        <time>2015-08-27T09:21:52Z</time>
      </trkpt>
      <trkpt lat="45.2503" lon="6.71466">
        <ele>2389.0847</ele>
        <time>2015-08-27T09:22:02Z</time>
      </trkpt>
      <trkpt lat="45.2503" lon="6.71467">
        <ele>2389.0847</ele>
        <time>2015-08-27T09:22:07Z</time>
      </trkpt>
      <trkpt lat="45.25029" lon="6.71469">
        <ele>2389.0847</ele>
        <time>2015-08-27T09:22:17Z</time>
      </trkpt>
      <trkpt lat="45.25031" lon="6.71471">
        <ele>2389.0847</ele>
        <time>2015-08-27T09:22:22Z</time>
      </trkpt>
      <trkpt lat="45.25027" lon="6.71468">
        <ele>2388.2766</ele>
        <time>2015-08-27T09:22:37Z</time>
      </trkpt>
      <trkpt lat="45.2503" lon="6.71469">
        <ele>2388.2766</ele>
        <time>2015-08-27T09:22:42Z</time>
      </trkpt>
      <trkpt lat="45.2503" lon="6.71469">
        <ele>2388.2766</ele>
        <time>2015-08-27T09:22:52Z</time>
      </trkpt>
      <trkpt lat="45.25029" lon="6.71469">
        <ele>2388.2766</ele>
        <time>2015-08-27T09:22:57Z</time>
      </trkpt>
      <trkpt lat="45.25028" lon="6.71469">
        <ele>2388.2766</ele>
        <time>2015-08-27T09:23:07Z</time>
      </trkpt>
      <trkpt lat="45.25028" lon="6.71469">
        <ele>2388.2766</ele>
        <time>2015-08-27T09:23:12Z</time>
      </trkpt>
      <trkpt lat="45.25023" lon="6.71467">
        <ele>2387.7869</ele>
        <time>2015-08-27T09:23:22Z</time>
      </trkpt>
      <trkpt lat="45.25021" lon="6.71467">
        <ele>2387.7869</ele>
        <time>2015-08-27T09:23:27Z</time>
      </trkpt>
      <trkpt lat="45.25017" lon="6.71462">
        <ele>2387.7869</ele>
        <time>2015-08-27T09:23:37Z</time>
      </trkpt>
      <trkpt lat="45.25017" lon="6.7146">
        <ele>2387.7869</ele>
        <time>2015-08-27T09:23:42Z</time>
      </trkpt>
      <trkpt lat="45.25017" lon="6.7146">
        <ele>2387.7869</ele>
        <time>2015-08-27T09:23:52Z</time>
      </trkpt>
      <trkpt lat="45.25016" lon="6.7146">
        <ele>2387.8667</ele>
        <time>2015-08-27T09:24:12Z</time>
      </trkpt>
      <trkpt lat="45.25015" lon="6.71459">
        <ele>2387.8667</ele>
        <time>2015-08-27T09:24:22Z</time>
      </trkpt>
      <trkpt lat="45.25015" lon="6.71459">
        <ele>2387.8667</ele>
        <time>2015-08-27T09:24:27Z</time>
      </trkpt>
      <trkpt lat="45.25012" lon="6.71459">
        <ele>2387.8667</ele>
        <time>2015-08-27T09:24:37Z</time>
      </trkpt>
      <trkpt lat="45.25009" lon="6.71456">
        <ele>2387.8667</ele>
        <time>2015-08-27T09:24:42Z</time>
      </trkpt>
      <trkpt lat="45.25003" lon="6.71452">
        <ele>2388.3718</ele>
        <time>2015-08-27T09:24:52Z</time>
      </trkpt>
      <trkpt lat="45.25002" lon="6.7145">
        <ele>2388.3718</ele>
        <time>2015-08-27T09:24:57Z</time>
      </trkpt>
      <trkpt lat="45.24996" lon="6.71446">
        <ele>2388.3718</ele>
        <time>2015-08-27T09:25:07Z</time>
      </trkpt>
      <trkpt lat="45.24991" lon="6.71445">
        <ele>2388.9517</ele>
        <time>2015-08-27T09:25:12Z</time>
      </trkpt>
      <trkpt lat="45.24979" lon="6.71444">
        <ele>2389.411</ele>
        <time>2015-08-27T09:25:27Z</time>
      </trkpt>
      <trkpt lat="45.24978" lon="6.71445">
        <ele>2389.411</ele>
        <time>2015-08-27T09:25:32Z</time>
      </trkpt>
      <trkpt lat="45.2497" lon="6.71445">
        <ele>2389.497</ele>
        <time>2015-08-27T09:25:42Z</time>
      </trkpt>
      <trkpt lat="45.24966" lon="6.71447">
        <ele>2389.497</ele>
        <time>2015-08-27T09:25:47Z</time>
      </trkpt>
      <trkpt lat="45.2496" lon="6.71448">
        <ele>2389.0486</ele>
        <time>2015-08-27T09:25:57Z</time>
      </trkpt>
      <trkpt lat="45.24955" lon="6.71447">
        <ele>2389.0486</ele>
        <time>2015-08-27T09:26:02Z</time>
      </trkpt>
      <trkpt lat="45.2495" lon="6.71445">
        <ele>2388.5088</ele>
        <time>2015-08-27T09:26:12Z</time>
      </trkpt>
      <trkpt lat="45.24948" lon="6.71446">
        <ele>2388.5088</ele>
        <time>2015-08-27T09:26:17Z</time>
      </trkpt>
      <trkpt lat="45.24942" lon="6.71447">
        <ele>2388.5088</ele>
        <time>2015-08-27T09:26:27Z</time>
      </trkpt>
      <trkpt lat="45.24939" lon="6.7145">
        <ele>2387.6257</ele>
        <time>2015-08-27T09:26:32Z</time>
      </trkpt>
      <trkpt lat="45.24929" lon="6.71446">
        <ele>2386.5557</ele>
        <time>2015-08-27T09:26:42Z</time>
      </trkpt>
      <trkpt lat="45.24925" lon="6.71446">
        <ele>2386.5557</ele>
        <time>2015-08-27T09:26:47Z</time>
      </trkpt>
      <trkpt lat="45.24916" lon="6.71451">
        <ele>2385.2856</ele>
        <time>2015-08-27T09:26:57Z</time>
      </trkpt>
      <trkpt lat="45.24911" lon="6.71455">
        <ele>2385.2856</ele>
        <time>2015-08-27T09:27:02Z</time>
      </trkpt>
      <trkpt lat="45.24904" lon="6.71458">
        <ele>2383.79</ele>
        <time>2015-08-27T09:27:12Z</time>
      </trkpt>
      <trkpt lat="45.24901" lon="6.71455">
        <ele>2383.79</ele>
        <time>2015-08-27T09:27:17Z</time>
      </trkpt>
      <trkpt lat="45.24896" lon="6.71457">
        <ele>2383.79</ele>
        <time>2015-08-27T09:27:27Z</time>
      </trkpt>
      <trkpt lat="45.24894" lon="6.71455">
        <ele>2381.6272</ele>
        <time>2015-08-27T09:27:32Z</time>
      </trkpt>
      <trkpt lat="45.24885" lon="6.71456">
        <ele>2379.399</ele>
        <time>2015-08-27T09:27:42Z</time>
      </trkpt>
      <trkpt lat="45.24883" lon="6.71455">
        <ele>2379.399</ele>
        <time>2015-08-27T09:27:47Z</time>
      </trkpt>
      <trkpt lat="45.24881" lon="6.71454">
        <ele>2379.399</ele>
        <time>2015-08-27T09:27:57Z</time>
      </trkpt>
      <trkpt lat="45.24877" lon="6.71455">
        <ele>2379.399</ele>
        <time>2015-08-27T09:28:02Z</time>
      </trkpt>
      <trkpt lat="45.24871" lon="6.71457">
        <ele>2375.9194</ele>
        <time>2015-08-27T09:28:12Z</time>
      </trkpt>
      <trkpt lat="45.24867" lon="6.71457">
        <ele>2375.9194</ele>
        <time>2015-08-27T09:28:17Z</time>
      </trkpt>
      <trkpt lat="45.24857" lon="6.71454">
        <ele>2372.1104</ele>
        <time>2015-08-27T09:28:27Z</time>
      </trkpt>
      <trkpt lat="45.24851" lon="6.71451">
        <ele>2372.1104</ele>
        <time>2015-08-27T09:28:32Z</time>
      </trkpt>
      <trkpt lat="45.24838" lon="6.7145">
        <ele>2368.251</ele>
        <time>2015-08-27T09:28:47Z</time>
      </trkpt>
      <trkpt lat="45.24836" lon="6.71453">
        <ele>2368.251</ele>
        <time>2015-08-27T09:28:52Z</time>
      </trkpt>
      <trkpt lat="45.24826" lon="6.71467">
        <ele>2364.7578</ele>
        <time>2015-08-27T09:29:02Z</time>
      </trkpt>
      <trkpt lat="45.24822" lon="6.71469">
        <ele>2364.7578</ele>
        <time>2015-08-27T09:29:07Z</time>
      </trkpt>
      <trkpt lat="45.2481" lon="6.71474">
        <ele>2361.7854</ele>
        <time>2015-08-27T09:29:17Z</time>
      </trkpt>
      <trkpt lat="45.24804" lon="6.71473">
        <ele>2361.7854</ele>
        <time>2015-08-27T09:29:22Z</time>
      </trkpt>
      <trkpt lat="45.24799" lon="6.71481">
        <ele>2359.1726</ele>
        <time>2015-08-27T09:29:32Z</time>
      </trkpt>
      <trkpt lat="45.24798" lon="6.71486">
        <ele>2359.1726</ele>
        <time>2015-08-27T09:29:37Z</time>
      </trkpt>
      <trkpt lat="45.24792" lon="6.7149">
        <ele>2356.4521</ele>
        <time>2015-08-27T09:29:47Z</time>
      </trkpt>
      <trkpt lat="45.24791" lon="6.71494">
        <ele>2356.4521</ele>
        <time>2015-08-27T09:29:52Z</time>
      </trkpt>
      <trkpt lat="45.24784" lon="6.71496">
        <ele>2353.7388</ele>
        <time>2015-08-27T09:30:02Z</time>
      </trkpt>
      <trkpt lat="45.24783" lon="6.71501">
        <ele>2353.7388</ele>
        <time>2015-08-27T09:30:07Z</time>
      </trkpt>
      <trkpt lat="45.24778" lon="6.71507">
        <ele>2350.8645</ele>
        <time>2015-08-27T09:30:17Z</time>
      </trkpt>
      <trkpt lat="45.24774" lon="6.71509">
        <ele>2350.8645</ele>
        <time>2015-08-27T09:30:22Z</time>
      </trkpt>
      <trkpt lat="45.24767" lon="6.71515">
        <ele>2347.8618</ele>
        <time>2015-08-27T09:30:32Z</time>
      </trkpt>
      <trkpt lat="45.24765" lon="6.71518">
        <ele>2347.8618</ele>
        <time>2015-08-27T09:30:37Z</time>
      </trkpt>
      <trkpt lat="45.24759" lon="6.71522">
        <ele>2347.8618</ele>
        <time>2015-08-27T09:30:47Z</time>
      </trkpt>
      <trkpt lat="45.24756" lon="6.71523">
        <ele>2344.602</ele>
        <time>2015-08-27T09:30:52Z</time>
      </trkpt>
      <trkpt lat="45.24749" lon="6.7152">
        <ele>2344.602</ele>
        <time>2015-08-27T09:31:02Z</time>
      </trkpt>
      <trkpt lat="45.24746" lon="6.7152">
        <ele>2341.1687</ele>
        <time>2015-08-27T09:31:07Z</time>
      </trkpt>
      <trkpt lat="45.24741" lon="6.71519">
        <ele>2341.1687</ele>
        <time>2015-08-27T09:31:17Z</time>
      </trkpt>
      <trkpt lat="45.2474" lon="6.71516">
        <ele>2341.1687</ele>
        <time>2015-08-27T09:31:22Z</time>
      </trkpt>
      <trkpt lat="45.24728" lon="6.71518">
        <ele>2337.1777</ele>
        <time>2015-08-27T09:31:32Z</time>
      </trkpt>
      <trkpt lat="45.24723" lon="6.71517">
        <ele>2337.1777</ele>
        <time>2015-08-27T09:31:37Z</time>
      </trkpt>
      <trkpt lat="45.24704" lon="6.71517">
        <ele>2333.1543</ele>
        <time>2015-08-27T09:31:52Z</time>
      </trkpt>
      <trkpt lat="45.24699" lon="6.71517">
        <ele>2333.1543</ele>
        <time>2015-08-27T09:31:57Z</time>
      </trkpt>
      <trkpt lat="45.24689" lon="6.71518">
        <ele>2329.599</ele>
        <time>2015-08-27T09:32:07Z</time>
      </trkpt>
      <trkpt lat="45.24684" lon="6.71518">
        <ele>2329.599</ele>
        <time>2015-08-27T09:32:12Z</time>
      </trkpt>
      <trkpt lat="45.24674" lon="6.7152">
        <ele>2326.326</ele>
        <time>2015-08-27T09:32:22Z</time>
      </trkpt>
      <trkpt lat="45.24668" lon="6.71522">
        <ele>2326.326</ele>
        <time>2015-08-27T09:32:27Z</time>
      </trkpt>
      <trkpt lat="45.24656" lon="6.71523">
        <ele>2323.363</ele>
        <time>2015-08-27T09:32:37Z</time>
      </trkpt>
      <trkpt lat="45.24652" lon="6.71522">
        <ele>2323.363</ele>
        <time>2015-08-27T09:32:42Z</time>
      </trkpt>
      <trkpt lat="45.24644" lon="6.71521">
        <ele>2320.6494</ele>
        <time>2015-08-27T09:32:52Z</time>
      </trkpt>
      <trkpt lat="45.2464" lon="6.7152">
        <ele>2320.6494</ele>
        <time>2015-08-27T09:32:57Z</time>
      </trkpt>
      <trkpt lat="45.24634" lon="6.71515">
        <ele>2318.2278</ele>
        <time>2015-08-27T09:33:07Z</time>
      </trkpt>
      <trkpt lat="45.24632" lon="6.7151">
        <ele>2318.2278</ele>
        <time>2015-08-27T09:33:12Z</time>
      </trkpt>
      <trkpt lat="45.24624" lon="6.71504">
        <ele>2315.8923</ele>
        <time>2015-08-27T09:33:22Z</time>
      </trkpt>
      <trkpt lat="45.2462" lon="6.71501">
        <ele>2315.8923</ele>
        <time>2015-08-27T09:33:27Z</time>
      </trkpt>
      <trkpt lat="45.24613" lon="6.71499">
        <ele>2313.5237</ele>
        <time>2015-08-27T09:33:37Z</time>
      </trkpt>
      <trkpt lat="45.24608" lon="6.71502">
        <ele>2313.5237</ele>
        <time>2015-08-27T09:33:42Z</time>
      </trkpt>
      <trkpt lat="45.24596" lon="6.71509">
        <ele>2311.0547</ele>
        <time>2015-08-27T09:33:57Z</time>
      </trkpt>
      <trkpt lat="45.24591" lon="6.71511">
        <ele>2311.0547</ele>
        <time>2015-08-27T09:34:02Z</time>
      </trkpt>
      <trkpt lat="45.24584" lon="6.71513">
        <ele>2308.8118</ele>
        <time>2015-08-27T09:34:12Z</time>
      </trkpt>
      <trkpt lat="45.24581" lon="6.71515">
        <ele>2308.8118</ele>
        <time>2015-08-27T09:34:17Z</time>
      </trkpt>
      <trkpt lat="45.2457" lon="6.71519">
        <ele>2306.8953</ele>
        <time>2015-08-27T09:34:27Z</time>
      </trkpt>
      <trkpt lat="45.24567" lon="6.7152">
        <ele>2306.8953</ele>
        <time>2015-08-27T09:34:32Z</time>
      </trkpt>
      <trkpt lat="45.2456" lon="6.71524">
        <ele>2305.2815</ele>
        <time>2015-08-27T09:34:42Z</time>
      </trkpt>
      <trkpt lat="45.24556" lon="6.71525">
        <ele>2305.2815</ele>
        <time>2015-08-27T09:34:47Z</time>
      </trkpt>
      <trkpt lat="45.24549" lon="6.71524">
        <ele>2303.7463</ele>
        <time>2015-08-27T09:34:57Z</time>
      </trkpt>
      <trkpt lat="45.24544" lon="6.71527">
        <ele>2303.7463</ele>
        <time>2015-08-27T09:35:02Z</time>
      </trkpt>
      <trkpt lat="45.24539" lon="6.71526">
        <ele>2302.0088</ele>
        <time>2015-08-27T09:35:12Z</time>
      </trkpt>
      <trkpt lat="45.24535" lon="6.71525">
        <ele>2302.0088</ele>
        <time>2015-08-27T09:35:17Z</time>
      </trkpt>
      <trkpt lat="45.24521" lon="6.71523">
        <ele>2300.069</ele>
        <time>2015-08-27T09:35:27Z</time>
      </trkpt>
      <trkpt lat="45.24518" lon="6.71527">
        <ele>2300.069</ele>
        <time>2015-08-27T09:35:32Z</time>
      </trkpt>
      <trkpt lat="45.24507" lon="6.71527">
        <ele>2298.3164</ele>
        <time>2015-08-27T09:35:42Z</time>
      </trkpt>
      <trkpt lat="45.24504" lon="6.71526">
        <ele>2298.3164</ele>
        <time>2015-08-27T09:35:47Z</time>
      </trkpt>
      <trkpt lat="45.24496" lon="6.71524">
        <ele>2296.6357</ele>
        <time>2015-08-27T09:35:57Z</time>
      </trkpt>
      <trkpt lat="45.24492" lon="6.71522">
        <ele>2296.6357</ele>
        <time>2015-08-27T09:36:02Z</time>
      </trkpt>
      <trkpt lat="45.24482" lon="6.71518">
        <ele>2294.9343</ele>
        <time>2015-08-27T09:36:12Z</time>
      </trkpt>
      <trkpt lat="45.24476" lon="6.71519">
        <ele>2294.9343</ele>
        <time>2015-08-27T09:36:17Z</time>
      </trkpt>
      <trkpt lat="45.24462" lon="6.71523">
        <ele>2293.2415</ele>
        <time>2015-08-27T09:36:32Z</time>
      </trkpt>
      <trkpt lat="45.24457" lon="6.71523">
        <ele>2293.2415</ele>
        <time>2015-08-27T09:36:37Z</time>
      </trkpt>
      <trkpt lat="45.24444" lon="6.71526">
        <ele>2291.5842</ele>
        <time>2015-08-27T09:36:47Z</time>
      </trkpt>
      <trkpt lat="45.24442" lon="6.71526">
        <ele>2291.5842</ele>
        <time>2015-08-27T09:36:52Z</time>
      </trkpt>
      <trkpt lat="45.24438" lon="6.71518">
        <ele>2289.872</ele>
        <time>2015-08-27T09:37:02Z</time>
      </trkpt>
      <trkpt lat="45.24433" lon="6.71513">
        <ele>2289.872</ele>
        <time>2015-08-27T09:37:07Z</time>
      </trkpt>
      <trkpt lat="45.24424" lon="6.71504">
        <ele>2288.411</ele>
        <time>2015-08-27T09:37:17Z</time>
      </trkpt>
      <trkpt lat="45.24418" lon="6.71502">
        <ele>2288.411</ele>
        <time>2015-08-27T09:37:22Z</time>
      </trkpt>
      <trkpt lat="45.24406" lon="6.71507">
        <ele>2287.151</ele>
        <time>2015-08-27T09:37:32Z</time>
      </trkpt>
      <trkpt lat="45.244" lon="6.71504">
        <ele>2287.151</ele>
        <time>2015-08-27T09:37:37Z</time>
      </trkpt>
      <trkpt lat="45.24397" lon="6.71498">
        <ele>2285.8303</ele>
        <time>2015-08-27T09:37:47Z</time>
      </trkpt>
      <trkpt lat="45.24393" lon="6.71497">
        <ele>2285.8303</ele>
        <time>2015-08-27T09:37:52Z</time>
      </trkpt>
      <trkpt lat="45.24384" lon="6.71503">
        <ele>2284.6094</ele>
        <time>2015-08-27T09:38:02Z</time>
      </trkpt>
      <trkpt lat="45.2438" lon="6.71509">
        <ele>2284.6094</ele>
        <time>2015-08-27T09:38:07Z</time>
      </trkpt>
      <trkpt lat="45.24377" lon="6.71516">
        <ele>2283.406</ele>
        <time>2015-08-27T09:38:17Z</time>
      </trkpt>
      <trkpt lat="45.24372" lon="6.71522">
        <ele>2283.406</ele>
        <time>2015-08-27T09:38:22Z</time>
      </trkpt>
      <trkpt lat="45.24361" lon="6.71529">
        <ele>2282.0579</ele>
        <time>2015-08-27T09:38:37Z</time>
      </trkpt>
      <trkpt lat="45.24354" lon="6.71534">
        <ele>2282.0579</ele>
        <time>2015-08-27T09:38:42Z</time>
      </trkpt>
      <trkpt lat="45.24347" lon="6.71536">
        <ele>2280.7747</ele>
        <time>2015-08-27T09:38:52Z</time>
      </trkpt>
      <trkpt lat="45.24343" lon="6.71538">
        <ele>2280.7747</ele>
        <time>2015-08-27T09:38:57Z</time>
      </trkpt>
      <trkpt lat="45.24334" lon="6.7155">
        <ele>2279.6648</ele>
        <time>2015-08-27T09:39:07Z</time>
      </trkpt>
      <trkpt lat="45.24328" lon="6.71554">
        <ele>2279.6648</ele>
        <time>2015-08-27T09:39:12Z</time>
      </trkpt>
      <trkpt lat="45.24321" lon="6.71562">
        <ele>2278.784</ele>
        <time>2015-08-27T09:39:22Z</time>
      </trkpt>
      <trkpt lat="45.24318" lon="6.71565">
        <ele>2278.784</ele>
        <time>2015-08-27T09:39:27Z</time>
      </trkpt>
      <trkpt lat="45.24314" lon="6.71576">
        <ele>2278.0833</ele>
        <time>2015-08-27T09:39:37Z</time>
      </trkpt>
      <trkpt lat="45.24313" lon="6.71582">
        <ele>2278.0833</ele>
        <time>2015-08-27T09:39:42Z</time>
      </trkpt>
      <trkpt lat="45.2431" lon="6.71589">
        <ele>2277.4878</ele>
        <time>2015-08-27T09:39:52Z</time>
      </trkpt>
      <trkpt lat="45.24308" lon="6.71597">
        <ele>2277.4878</ele>
        <time>2015-08-27T09:39:57Z</time>
      </trkpt>
      <trkpt lat="45.24302" lon="6.71609">
        <ele>2276.913</ele>
        <time>2015-08-27T09:40:07Z</time>
      </trkpt>
      <trkpt lat="45.24298" lon="6.71614">
        <ele>2276.913</ele>
        <time>2015-08-27T09:40:12Z</time>
      </trkpt>
      <trkpt lat="45.24288" lon="6.71621">
        <ele>2276.4688</ele>
        <time>2015-08-27T09:40:22Z</time>
      </trkpt>
      <trkpt lat="45.24286" lon="6.71623">
        <ele>2276.4688</ele>
        <time>2015-08-27T09:40:27Z</time>
      </trkpt>
      <trkpt lat="45.24278" lon="6.7162">
        <ele>2276.0828</ele>
        <time>2015-08-27T09:40:42Z</time>
      </trkpt>
      <trkpt lat="45.24276" lon="6.71616">
        <ele>2276.0828</ele>
        <time>2015-08-27T09:40:47Z</time>
      </trkpt>
      <trkpt lat="45.2427" lon="6.71616">
        <ele>2275.5588</ele>
        <time>2015-08-27T09:40:57Z</time>
      </trkpt>
      <trkpt lat="45.24268" lon="6.71614">
        <ele>2275.5588</ele>
        <time>2015-08-27T09:41:02Z</time>
      </trkpt>
      <trkpt lat="45.24262" lon="6.71614">
        <ele>2275.5588</ele>
        <time>2015-08-27T09:41:12Z</time>
      </trkpt>
      <trkpt lat="45.2426" lon="6.71613">
        <ele>2274.9602</ele>
        <time>2015-08-27T09:41:17Z</time>
      </trkpt>
      <trkpt lat="45.24253" lon="6.71611">
        <ele>2274.9602</ele>
        <time>2015-08-27T09:41:27Z</time>
      </trkpt>
      <trkpt lat="45.24249" lon="6.71611">
        <ele>2274.4473</ele>
        <time>2015-08-27T09:41:32Z</time>
      </trkpt>
      <trkpt lat="45.24241" lon="6.71609">
        <ele>2274.4473</ele>
        <time>2015-08-27T09:41:42Z</time>
      </trkpt>
      <trkpt lat="45.2424" lon="6.71607">
        <ele>2274.1965</ele>
        <time>2015-08-27T09:41:47Z</time>
      </trkpt>
      <trkpt lat="45.24232" lon="6.71605">
        <ele>2274.1965</ele>
        <time>2015-08-27T09:41:57Z</time>
      </trkpt>
      <trkpt lat="45.24229" lon="6.71605">
        <ele>2274.1985</ele>
        <time>2015-08-27T09:42:02Z</time>
      </trkpt>
      <trkpt lat="45.24225" lon="6.71605">
        <ele>2274.1985</ele>
        <time>2015-08-27T09:42:12Z</time>
      </trkpt>
      <trkpt lat="45.24219" lon="6.71602">
        <ele>2274.256</ele>
        <time>2015-08-27T09:42:17Z</time>
      </trkpt>
      <trkpt lat="45.24213" lon="6.71601">
        <ele>2274.256</ele>
        <time>2015-08-27T09:42:27Z</time>
      </trkpt>
      <trkpt lat="45.24208" lon="6.71599">
        <ele>2274.6194</ele>
        <time>2015-08-27T09:42:32Z</time>
      </trkpt>
      <trkpt lat="45.24201" lon="6.71598">
        <ele>2274.6194</ele>
        <time>2015-08-27T09:42:42Z</time>
      </trkpt>
      <trkpt lat="45.24198" lon="6.716">
        <ele>2275.2163</ele>
        <time>2015-08-27T09:42:47Z</time>
      </trkpt>
      <trkpt lat="45.24189" lon="6.71596">
        <ele>2275.2163</ele>
        <time>2015-08-27T09:42:57Z</time>
      </trkpt>
      <trkpt lat="45.24186" lon="6.71596">
        <ele>2276.0522</ele>
        <time>2015-08-27T09:43:02Z</time>
      </trkpt>
      <trkpt lat="45.24175" lon="6.71598">
        <ele>2276.8857</ele>
        <time>2015-08-27T09:43:12Z</time>
      </trkpt>
      <trkpt lat="45.24173" lon="6.71596">
        <ele>2276.8857</ele>
        <time>2015-08-27T09:43:17Z</time>
      </trkpt>
      <trkpt lat="45.24161" lon="6.71598">
        <ele>2277.8684</ele>
        <time>2015-08-27T09:43:32Z</time>
      </trkpt>
      <trkpt lat="45.24158" lon="6.71599">
        <ele>2277.8684</ele>
        <time>2015-08-27T09:43:37Z</time>
      </trkpt>
      <trkpt lat="45.24149" lon="6.71598">
        <ele>2278.7085</ele>
        <time>2015-08-27T09:43:47Z</time>
      </trkpt>
      <trkpt lat="45.24147" lon="6.71598">
        <ele>2278.7085</ele>
        <time>2015-08-27T09:43:52Z</time>
      </trkpt>
      <trkpt lat="45.24138" lon="6.71604">
        <ele>2279.4094</ele>
        <time>2015-08-27T09:44:02Z</time>
      </trkpt>
      <trkpt lat="45.24134" lon="6.71604">
        <ele>2279.4094</ele>
        <time>2015-08-27T09:44:07Z</time>
      </trkpt>
      <trkpt lat="45.24122" lon="6.71608">
        <ele>2279.9321</ele>
        <time>2015-08-27T09:44:17Z</time>
      </trkpt>
      <trkpt lat="45.24117" lon="6.71608">
        <ele>2279.9321</ele>
        <time>2015-08-27T09:44:22Z</time>
      </trkpt>
      <trkpt lat="45.24109" lon="6.71611">
        <ele>2280.241</ele>
        <time>2015-08-27T09:44:32Z</time>
      </trkpt>
      <trkpt lat="45.24106" lon="6.71609">
        <ele>2280.241</ele>
        <time>2015-08-27T09:44:37Z</time>
      </trkpt>
      <trkpt lat="45.24097" lon="6.71613">
        <ele>2280.361</ele>
        <time>2015-08-27T09:44:47Z</time>
      </trkpt>
      <trkpt lat="45.24094" lon="6.71612">
        <ele>2280.361</ele>
        <time>2015-08-27T09:44:52Z</time>
      </trkpt>
      <trkpt lat="45.24084" lon="6.71612">
        <ele>2280.2163</ele>
        <time>2015-08-27T09:45:02Z</time>
      </trkpt>
      <trkpt lat="45.24081" lon="6.71613">
        <ele>2280.2163</ele>
        <time>2015-08-27T09:45:07Z</time>
      </trkpt>
      <trkpt lat="45.24073" lon="6.71614">
        <ele>2279.808</ele>
        <time>2015-08-27T09:45:17Z</time>
      </trkpt>
      <trkpt lat="45.24071" lon="6.71611">
        <ele>2279.808</ele>
        <time>2015-08-27T09:45:22Z</time>
      </trkpt>
      <trkpt lat="45.24059" lon="6.71607">
        <ele>2279.2979</ele>
        <time>2015-08-27T09:45:37Z</time>
      </trkpt>
      <trkpt lat="45.24055" lon="6.71609">
        <ele>2279.2979</ele>
        <time>2015-08-27T09:45:42Z</time>
      </trkpt>
      <trkpt lat="45.24046" lon="6.71614">
        <ele>2278.6484</ele>
        <time>2015-08-27T09:45:52Z</time>
      </trkpt>
      <trkpt lat="45.24042" lon="6.71611">
        <ele>2278.6484</ele>
        <time>2015-08-27T09:45:57Z</time>
      </trkpt>
      <trkpt lat="45.24034" lon="6.71612">
        <ele>2278.0127</ele>
        <time>2015-08-27T09:46:07Z</time>
      </trkpt>
      <trkpt lat="45.24029" lon="6.71615">
        <ele>2278.0127</ele>
        <time>2015-08-27T09:46:12Z</time>
      </trkpt>
      <trkpt lat="45.24022" lon="6.71619">
        <ele>2277.331</ele>
        <time>2015-08-27T09:46:22Z</time>
      </trkpt>
      <trkpt lat="45.24018" lon="6.7162">
        <ele>2277.331</ele>
        <time>2015-08-27T09:46:27Z</time>
      </trkpt>
      <trkpt lat="45.2401" lon="6.71621">
        <ele>2276.462</ele>
        <time>2015-08-27T09:46:37Z</time>
      </trkpt>
      <trkpt lat="45.24006" lon="6.71621">
        <ele>2276.462</ele>
        <time>2015-08-27T09:46:42Z</time>
      </trkpt>
      <trkpt lat="45.24001" lon="6.7162">
        <ele>2275.5488</ele>
        <time>2015-08-27T09:46:52Z</time>
      </trkpt>
      <trkpt lat="45.23997" lon="6.71621">
        <ele>2275.5488</ele>
        <time>2015-08-27T09:46:57Z</time>
      </trkpt>
      <trkpt lat="45.2399" lon="6.7162">
        <ele>2274.7678</ele>
        <time>2015-08-27T09:47:07Z</time>
      </trkpt>
      <trkpt lat="45.23985" lon="6.71621">
        <ele>2274.7678</ele>
        <time>2015-08-27T09:47:12Z</time>
      </trkpt>
      <trkpt lat="45.23977" lon="6.71619">
        <ele>2274.0803</ele>
        <time>2015-08-27T09:47:22Z</time>
      </trkpt>
      <trkpt lat="45.23972" lon="6.71619">
        <ele>2274.0803</ele>
        <time>2015-08-27T09:47:27Z</time>
      </trkpt>
      <trkpt lat="45.23963" lon="6.71619">
        <ele>2273.5083</ele>
        <time>2015-08-27T09:47:37Z</time>
      </trkpt>
      <trkpt lat="45.2396" lon="6.71622">
        <ele>2273.5083</ele>
        <time>2015-08-27T09:47:42Z</time>
      </trkpt>
      <trkpt lat="45.23948" lon="6.71627">
        <ele>2272.8552</ele>
        <time>2015-08-27T09:47:57Z</time>
      </trkpt>
      <trkpt lat="45.23942" lon="6.71629">
        <ele>2272.8552</ele>
        <time>2015-08-27T09:48:02Z</time>
      </trkpt>
      <trkpt lat="45.23931" lon="6.71627">
        <ele>2272.199</ele>
        <time>2015-08-27T09:48:12Z</time>
      </trkpt>
      <trkpt lat="45.23929" lon="6.71627">
        <ele>2272.199</ele>
        <time>2015-08-27T09:48:17Z</time>
      </trkpt>
      <trkpt lat="45.23924" lon="6.71625">
        <ele>2272.199</ele>
        <time>2015-08-27T09:48:27Z</time>
      </trkpt>
      <trkpt lat="45.23921" lon="6.71622">
        <ele>2271.482</ele>
        <time>2015-08-27T09:48:32Z</time>
      </trkpt>
      <trkpt lat="45.23917" lon="6.71623">
        <ele>2271.482</ele>
        <time>2015-08-27T09:48:42Z</time>
      </trkpt>
      <trkpt lat="45.23915" lon="6.71622">
        <ele>2271.482</ele>
        <time>2015-08-27T09:48:47Z</time>
      </trkpt>
      <trkpt lat="45.23908" lon="6.71619">
        <ele>2271.055</ele>
        <time>2015-08-27T09:48:57Z</time>
      </trkpt>
      <trkpt lat="45.23905" lon="6.71619">
        <ele>2271.055</ele>
        <time>2015-08-27T09:49:02Z</time>
      </trkpt>
      <trkpt lat="45.239" lon="6.71619">
        <ele>2271.055</ele>
        <time>2015-08-27T09:49:12Z</time>
      </trkpt>
      <trkpt lat="45.23895" lon="6.71617">
        <ele>2270.8813</ele>
        <time>2015-08-27T09:49:17Z</time>
      </trkpt>
      <trkpt lat="45.23887" lon="6.71617">
        <ele>2270.8813</ele>
        <time>2015-08-27T09:49:27Z</time>
      </trkpt>
      <trkpt lat="45.23883" lon="6.71617">
        <ele>2270.6536</ele>
        <time>2015-08-27T09:49:32Z</time>
      </trkpt>
      <trkpt lat="45.23878" lon="6.71613">
        <ele>2270.6536</ele>
        <time>2015-08-27T09:49:42Z</time>
      </trkpt>
      <trkpt lat="45.23875" lon="6.71612">
        <ele>2270.6536</ele>
        <time>2015-08-27T09:49:47Z</time>
      </trkpt>
      <trkpt lat="45.23869" lon="6.71611">
        <ele>2270.4607</ele>
        <time>2015-08-27T09:49:57Z</time>
      </trkpt>
      <trkpt lat="45.23867" lon="6.71611">
        <ele>2270.4607</ele>
        <time>2015-08-27T09:50:02Z</time>
      </trkpt>
      <trkpt lat="45.23857" lon="6.71607">
        <ele>2270.429</ele>
        <time>2015-08-27T09:50:17Z</time>
      </trkpt>
      <trkpt lat="45.23855" lon="6.71606">
        <ele>2270.429</ele>
        <time>2015-08-27T09:50:22Z</time>
      </trkpt>
      <trkpt lat="45.23851" lon="6.71605">
        <ele>2270.429</ele>
        <time>2015-08-27T09:50:32Z</time>
      </trkpt>
      <trkpt lat="45.23849" lon="6.71603">
        <ele>2270.5166</ele>
        <time>2015-08-27T09:50:37Z</time>
      </trkpt>
      <trkpt lat="45.23845" lon="6.71599">
        <ele>2270.5166</ele>
        <time>2015-08-27T09:50:47Z</time>
      </trkpt>
      <trkpt lat="45.23843" lon="6.716">
        <ele>2270.5166</ele>
        <time>2015-08-27T09:50:52Z</time>
      </trkpt>
      <trkpt lat="45.23839" lon="6.71598">
        <ele>2270.785</ele>
        <time>2015-08-27T09:51:02Z</time>
      </trkpt>
      <trkpt lat="45.23836" lon="6.71598">
        <ele>2270.785</ele>
        <time>2015-08-27T09:51:07Z</time>
      </trkpt>
      <trkpt lat="45.2383" lon="6.71597">
        <ele>2270.785</ele>
        <time>2015-08-27T09:51:17Z</time>
      </trkpt>
      <trkpt lat="45.23827" lon="6.71596">
        <ele>2271.2764</ele>
        <time>2015-08-27T09:51:22Z</time>
      </trkpt>
      <trkpt lat="45.2382" lon="6.71593">
        <ele>2271.2764</ele>
        <time>2015-08-27T09:51:32Z</time>
      </trkpt>
      <trkpt lat="45.23819" lon="6.71593">
        <ele>2271.2764</ele>
        <time>2015-08-27T09:51:37Z</time>
      </trkpt>
      <trkpt lat="45.23816" lon="6.71587">
        <ele>2271.986</ele>
        <time>2015-08-27T09:51:47Z</time>
      </trkpt>
      <trkpt lat="45.23812" lon="6.71585">
        <ele>2271.986</ele>
        <time>2015-08-27T09:51:52Z</time>
      </trkpt>
      <trkpt lat="45.23809" lon="6.71586">
        <ele>2271.986</ele>
        <time>2015-08-27T09:52:02Z</time>
      </trkpt>
      <trkpt lat="45.23804" lon="6.71586">
        <ele>2272.9673</ele>
        <time>2015-08-27T09:52:07Z</time>
      </trkpt>
      <trkpt lat="45.23796" lon="6.71587">
        <ele>2272.9673</ele>
        <time>2015-08-27T09:52:17Z</time>
      </trkpt>
      <trkpt lat="45.23792" lon="6.71588">
        <ele>2274.0662</ele>
        <time>2015-08-27T09:52:22Z</time>
      </trkpt>
      <trkpt lat="45.23785" lon="6.7159">
        <ele>2274.0662</ele>
        <time>2015-08-27T09:52:32Z</time>
      </trkpt>
      <trkpt lat="45.23781" lon="6.71591">
        <ele>2275.068</ele>
        <time>2015-08-27T09:52:37Z</time>
      </trkpt>
      <trkpt lat="45.23774" lon="6.71594">
        <ele>2275.068</ele>
        <time>2015-08-27T09:52:47Z</time>
      </trkpt>
      <trkpt lat="45.23771" lon="6.71595">
        <ele>2276.0776</ele>
        <time>2015-08-27T09:52:52Z</time>
      </trkpt>
      <trkpt lat="45.23761" lon="6.71596">
        <ele>2277.148</ele>
        <time>2015-08-27T09:53:07Z</time>
      </trkpt>
      <trkpt lat="45.23759" lon="6.71597">
        <ele>2277.148</ele>
        <time>2015-08-27T09:53:12Z</time>
      </trkpt>
      <trkpt lat="45.23755" lon="6.71597">
        <ele>2277.148</ele>
        <time>2015-08-27T09:53:22Z</time>
      </trkpt>
      <trkpt lat="45.23754" lon="6.71598">
        <ele>2277.148</ele>
        <time>2015-08-27T09:53:27Z</time>
      </trkpt>
      <trkpt lat="45.23757" lon="6.71598">
        <ele>2278.1987</ele>
        <time>2015-08-27T09:53:37Z</time>
      </trkpt>
      <trkpt lat="45.23752" lon="6.716">
        <ele>2278.1987</ele>
        <time>2015-08-27T09:53:42Z</time>
      </trkpt>
      <trkpt lat="45.23746" lon="6.71594">
        <ele>2279.4585</ele>
        <time>2015-08-27T09:53:52Z</time>
      </trkpt>
      <trkpt lat="45.23743" lon="6.71591">
        <ele>2279.4585</ele>
        <time>2015-08-27T09:53:57Z</time>
      </trkpt>
      <trkpt lat="45.23738" lon="6.71586">
        <ele>2280.9797</ele>
        <time>2015-08-27T09:54:07Z</time>
      </trkpt>
      <trkpt lat="45.23735" lon="6.71584">
        <ele>2280.9797</ele>
        <time>2015-08-27T09:54:12Z</time>
      </trkpt>
      <trkpt lat="45.2373" lon="6.71581">
        <ele>2280.9797</ele>
        <time>2015-08-27T09:54:22Z</time>
      </trkpt>
      <trkpt lat="45.23725" lon="6.71582">
        <ele>2282.7097</ele>
        <time>2015-08-27T09:54:27Z</time>
      </trkpt>
      <trkpt lat="45.23721" lon="6.71577">
        <ele>2282.7097</ele>
        <time>2015-08-27T09:54:37Z</time>
      </trkpt>
      <trkpt lat="45.23719" lon="6.71576">
        <ele>2282.7097</ele>
        <time>2015-08-27T09:54:42Z</time>
      </trkpt>
      <trkpt lat="45.23713" lon="6.71574">
        <ele>2284.3252</ele>
        <time>2015-08-27T09:54:52Z</time>
      </trkpt>
      <trkpt lat="45.2371" lon="6.71572">
        <ele>2284.3252</ele>
        <time>2015-08-27T09:54:57Z</time>
      </trkpt>
      <trkpt lat="45.23701" lon="6.71564">
        <ele>2286.0027</ele>
        <time>2015-08-27T09:55:12Z</time>
      </trkpt>
      <trkpt lat="45.23698" lon="6.71561">
        <ele>2286.0027</ele>
        <time>2015-08-27T09:55:17Z</time>
      </trkpt>
      <trkpt lat="45.23689" lon="6.71549">
        <ele>2287.7332</ele>
        <time>2015-08-27T09:55:27Z</time>
      </trkpt>
      <trkpt lat="45.23685" lon="6.71545">
        <ele>2287.7332</ele>
        <time>2015-08-27T09:55:32Z</time>
      </trkpt>
      <trkpt lat="45.23678" lon="6.71545">
        <ele>2289.9111</ele>
        <time>2015-08-27T09:55:42Z</time>
      </trkpt>
      <trkpt lat="45.23675" lon="6.71543">
        <ele>2289.9111</ele>
        <time>2015-08-27T09:55:47Z</time>
      </trkpt>
      <trkpt lat="45.23667" lon="6.71534">
        <ele>2292.267</ele>
        <time>2015-08-27T09:55:57Z</time>
      </trkpt>
      <trkpt lat="45.23665" lon="6.71527">
        <ele>2292.267</ele>
        <time>2015-08-27T09:56:02Z</time>
      </trkpt>
      <trkpt lat="45.23663" lon="6.71518">
        <ele>2294.2341</ele>
        <time>2015-08-27T09:56:12Z</time>
      </trkpt>
      <trkpt lat="45.23663" lon="6.71518">
        <ele>2294.2341</ele>
        <time>2015-08-27T09:56:17Z</time>
      </trkpt>
      <trkpt lat="45.23663" lon="6.7152">
        <ele>2294.2341</ele>
        <time>2015-08-27T09:56:47Z</time>
      </trkpt>
      <trkpt lat="45.23662" lon="6.71521">
        <ele>2294.2341</ele>
        <time>2015-08-27T09:56:52Z</time>
      </trkpt>
      <trkpt lat="45.23664" lon="6.71522">
        <ele>2294.2341</ele>
        <time>2015-08-27T09:57:02Z</time>
      </trkpt>
      <trkpt lat="45.23665" lon="6.7152">
        <ele>2294.2341</ele>
        <time>2015-08-27T09:57:07Z</time>
      </trkpt>
      <trkpt lat="45.23665" lon="6.7152">
        <ele>2294.2341</ele>
        <time>2015-08-27T09:57:17Z</time>
      </trkpt>
      <trkpt lat="45.23664" lon="6.71518">
        <ele>2294.2341</ele>
        <time>2015-08-27T09:58:02Z</time>
      </trkpt>
      <trkpt lat="45.23659" lon="6.7151">
        <ele>2296.744</ele>
        <time>2015-08-27T09:58:07Z</time>
      </trkpt>
      <trkpt lat="45.2366" lon="6.71497">
        <ele>2299.2456</ele>
        <time>2015-08-27T09:58:17Z</time>
      </trkpt>
      <trkpt lat="45.23656" lon="6.71489">
        <ele>2299.2456</ele>
        <time>2015-08-27T09:58:22Z</time>
      </trkpt>
      <trkpt lat="45.23649" lon="6.71473">
        <ele>2301.863</ele>
        <time>2015-08-27T09:58:32Z</time>
      </trkpt>
      <trkpt lat="45.2365" lon="6.71465">
        <ele>2301.863</ele>
        <time>2015-08-27T09:58:37Z</time>
      </trkpt>
      <trkpt lat="45.23646" lon="6.71443">
        <ele>2304.4084</ele>
        <time>2015-08-27T09:58:47Z</time>
      </trkpt>
      <trkpt lat="45.23643" lon="6.71433">
        <ele>2304.4084</ele>
        <time>2015-08-27T09:58:52Z</time>
      </trkpt>
      <trkpt lat="45.23639" lon="6.71409">
        <ele>2307.0398</ele>
        <time>2015-08-27T09:59:07Z</time>
      </trkpt>
      <trkpt lat="45.23636" lon="6.714">
        <ele>2307.0398</ele>
        <time>2015-08-27T09:59:12Z</time>
      </trkpt>
      <trkpt lat="45.23633" lon="6.71387">
        <ele>2309.6726</ele>
        <time>2015-08-27T09:59:22Z</time>
      </trkpt>
      <trkpt lat="45.23631" lon="6.71377">
        <ele>2309.6726</ele>
        <time>2015-08-27T09:59:27Z</time>
      </trkpt>
      <trkpt lat="45.23627" lon="6.71367">
        <ele>2312.1567</ele>
        <time>2015-08-27T09:59:37Z</time>
      </trkpt>
      <trkpt lat="45.23626" lon="6.71362">
        <ele>2312.1567</ele>
        <time>2015-08-27T09:59:42Z</time>
      </trkpt>
      <trkpt lat="45.23621" lon="6.71347">
        <ele>2314.1084</ele>
        <time>2015-08-27T09:59:52Z</time>
      </trkpt>
      <trkpt lat="45.23624" lon="6.71344">
        <ele>2314.1084</ele>
        <time>2015-08-27T09:59:57Z</time>
      </trkpt>
      <trkpt lat="45.23626" lon="6.71332">
        <ele>2315.5059</ele>
        <time>2015-08-27T10:00:07Z</time>
      </trkpt>
      <trkpt lat="45.23627" lon="6.71325">
        <ele>2315.5059</ele>
        <time>2015-08-27T10:00:12Z</time>
      </trkpt>
      <trkpt lat="45.23628" lon="6.71314">
        <ele>2316.1572</ele>
        <time>2015-08-27T10:00:27Z</time>
      </trkpt>
      <trkpt lat="45.23627" lon="6.71309">
        <ele>2316.1572</ele>
        <time>2015-08-27T10:00:32Z</time>
      </trkpt>
      <trkpt lat="45.23626" lon="6.71302">
        <ele>2316.1572</ele>
        <time>2015-08-27T10:00:42Z</time>
      </trkpt>
      <trkpt lat="45.23628" lon="6.71299">
        <ele>2316.3914</ele>
        <time>2015-08-27T10:00:47Z</time>
      </trkpt>
      <trkpt lat="45.23627" lon="6.71288">
        <ele>2316.3914</ele>
        <time>2015-08-27T10:00:57Z</time>
      </trkpt>
      <trkpt lat="45.23627" lon="6.71288">
        <ele>2316.3914</ele>
        <time>2015-08-27T10:01:02Z</time>
      </trkpt>
      <trkpt lat="45.23629" lon="6.71284">
        <ele>2316.4714</ele>
        <time>2015-08-27T10:01:12Z</time>
      </trkpt>
      <trkpt lat="45.23629" lon="6.71278">
        <ele>2316.4714</ele>
        <time>2015-08-27T10:01:17Z</time>
      </trkpt>
      <trkpt lat="45.23629" lon="6.7127">
        <ele>2316.3245</ele>
        <time>2015-08-27T10:01:27Z</time>
      </trkpt>
      <trkpt lat="45.23628" lon="6.71267">
        <ele>2316.3245</ele>
        <time>2015-08-27T10:01:32Z</time>
      </trkpt>
      <trkpt lat="45.23628" lon="6.71267">
        <ele>2316.3245</ele>
        <time>2015-08-27T10:01:42Z</time>
      </trkpt>
      <trkpt lat="45.23628" lon="6.71268">
        <ele>2316.3245</ele>
        <time>2015-08-27T10:01:47Z</time>
      </trkpt>
      <trkpt lat="45.23628" lon="6.71268">
        <ele>2316.3245</ele>
        <time>2015-08-27T10:01:57Z</time>
      </trkpt>
      <trkpt lat="45.23629" lon="6.71265">
        <ele>2316.3245</ele>
        <time>2015-08-27T10:02:17Z</time>
      </trkpt>
      <trkpt lat="45.23631" lon="6.7126">
        <ele>2316.1575</ele>
        <time>2015-08-27T10:02:27Z</time>
      </trkpt>
      <trkpt lat="45.23631" lon="6.7126">
        <ele>2316.1575</ele>
        <time>2015-08-27T10:02:32Z</time>
      </trkpt>
      <trkpt lat="45.23632" lon="6.71256">
        <ele>2316.1575</ele>
        <time>2015-08-27T10:02:42Z</time>
      </trkpt>
      <trkpt lat="45.23634" lon="6.71249">
        <ele>2316.1575</ele>
        <time>2015-08-27T10:02:47Z</time>
      </trkpt>
      <trkpt lat="45.23637" lon="6.71234">
        <ele>2316.1914</ele>
        <time>2015-08-27T10:02:57Z</time>
      </trkpt>
      <trkpt lat="45.23637" lon="6.71227">
        <ele>2316.1914</ele>
        <time>2015-08-27T10:03:02Z</time>
      </trkpt>
      <trkpt lat="45.23638" lon="6.71223">
        <ele>2316.1914</ele>
        <time>2015-08-27T10:03:12Z</time>
      </trkpt>
      <trkpt lat="45.23636" lon="6.71219">
        <ele>2315.8665</ele>
        <time>2015-08-27T10:03:17Z</time>
      </trkpt>
      <trkpt lat="45.23645" lon="6.71205">
        <ele>2315.6887</ele>
        <time>2015-08-27T10:03:32Z</time>
      </trkpt>
      <trkpt lat="45.23646" lon="6.71203">
        <ele>2315.6887</ele>
        <time>2015-08-27T10:03:37Z</time>
      </trkpt>
      <trkpt lat="45.23649" lon="6.71193">
        <ele>2315.4922</ele>
        <time>2015-08-27T10:03:47Z</time>
      </trkpt>
      <trkpt lat="45.2365" lon="6.71187">
        <ele>2315.4922</ele>
        <time>2015-08-27T10:03:52Z</time>
      </trkpt>
      <trkpt lat="45.23655" lon="6.71177">
        <ele>2315.3538</ele>
        <time>2015-08-27T10:04:02Z</time>
      </trkpt>
      <trkpt lat="45.23658" lon="6.71172">
        <ele>2315.3538</ele>
        <time>2015-08-27T10:04:07Z</time>
      </trkpt>
      <trkpt lat="45.23661" lon="6.71159">
        <ele>2315.258</ele>
        <time>2015-08-27T10:04:17Z</time>
      </trkpt>
      <trkpt lat="45.23662" lon="6.71155">
        <ele>2315.258</ele>
        <time>2015-08-27T10:04:22Z</time>
      </trkpt>
      <trkpt lat="45.23661" lon="6.71145">
        <ele>2315.2346</ele>
        <time>2015-08-27T10:04:32Z</time>
      </trkpt>
      <trkpt lat="45.2366" lon="6.71138">
        <ele>2315.2346</ele>
        <time>2015-08-27T10:04:37Z</time>
      </trkpt>
      <trkpt lat="45.23659" lon="6.71124">
        <ele>2315.5835</ele>
        <time>2015-08-27T10:04:47Z</time>
      </trkpt>
      <trkpt lat="45.23658" lon="6.71121">
        <ele>2315.5835</ele>
        <time>2015-08-27T10:04:52Z</time>
      </trkpt>
      <trkpt lat="45.23658" lon="6.71111">
        <ele>2316.1353</ele>
        <time>2015-08-27T10:05:02Z</time>
      </trkpt>
      <trkpt lat="45.23657" lon="6.71104">
        <ele>2316.1353</ele>
        <time>2015-08-27T10:05:07Z</time>
      </trkpt>
      <trkpt lat="45.23653" lon="6.71087">
        <ele>2316.675</ele>
        <time>2015-08-27T10:05:17Z</time>
      </trkpt>
      <trkpt lat="45.23652" lon="6.7108">
        <ele>2316.675</ele>
        <time>2015-08-27T10:05:22Z</time>
      </trkpt>
      <trkpt lat="45.23652" lon="6.71078">
        <ele>2316.675</ele>
        <time>2015-08-27T10:05:37Z</time>
      </trkpt>
      <trkpt lat="45.23651" lon="6.71073">
        <ele>2316.917</ele>
        <time>2015-08-27T10:05:52Z</time>
      </trkpt>
      <trkpt lat="45.23653" lon="6.71067">
        <ele>2316.917</ele>
        <time>2015-08-27T10:05:57Z</time>
      </trkpt>
      <trkpt lat="45.23655" lon="6.71053">
        <ele>2317.1448</ele>
        <time>2015-08-27T10:06:07Z</time>
      </trkpt>
      <trkpt lat="45.23655" lon="6.71046">
        <ele>2317.1448</ele>
        <time>2015-08-27T10:06:12Z</time>
      </trkpt>
      <trkpt lat="45.23652" lon="6.71033">
        <ele>2317.2893</ele>
        <time>2015-08-27T10:06:22Z</time>
      </trkpt>
      <trkpt lat="45.23655" lon="6.71028">
        <ele>2317.2893</ele>
        <time>2015-08-27T10:06:27Z</time>
      </trkpt>
      <trkpt lat="45.23659" lon="6.71017">
        <ele>2317.3599</ele>
        <time>2015-08-27T10:06:37Z</time>
      </trkpt>
      <trkpt lat="45.23658" lon="6.71015">
        <ele>2317.3599</ele>
        <time>2015-08-27T10:06:42Z</time>
      </trkpt>
      <trkpt lat="45.23658" lon="6.71008">
        <ele>2317.3599</ele>
        <time>2015-08-27T10:06:52Z</time>
      </trkpt>
      <trkpt lat="45.23658" lon="6.71">
        <ele>2317.595</ele>
        <time>2015-08-27T10:06:57Z</time>
      </trkpt>
      <trkpt lat="45.23659" lon="6.70986">
        <ele>2317.7974</ele>
        <time>2015-08-27T10:07:07Z</time>
      </trkpt>
      <trkpt lat="45.23659" lon="6.70983">
        <ele>2317.7974</ele>
        <time>2015-08-27T10:07:12Z</time>
      </trkpt>
      <trkpt lat="45.23663" lon="6.70972">
        <ele>2318.058</ele>
        <time>2015-08-27T10:07:22Z</time>
      </trkpt>
      <trkpt lat="45.23665" lon="6.70967">
        <ele>2318.058</ele>
        <time>2015-08-27T10:07:27Z</time>
      </trkpt>
      <trkpt lat="45.23668" lon="6.7095">
        <ele>2318.4473</ele>
        <time>2015-08-27T10:07:42Z</time>
      </trkpt>
      <trkpt lat="45.23669" lon="6.70943">
        <ele>2318.4473</ele>
        <time>2015-08-27T10:07:47Z</time>
      </trkpt>
      <trkpt lat="45.23671" lon="6.70931">
        <ele>2318.7266</ele>
        <time>2015-08-27T10:07:57Z</time>
      </trkpt>
      <trkpt lat="45.23671" lon="6.70928">
        <ele>2318.7266</ele>
        <time>2015-08-27T10:08:02Z</time>
      </trkpt>
      <trkpt lat="45.23671" lon="6.70919">
        <ele>2318.7266</ele>
        <time>2015-08-27T10:08:12Z</time>
      </trkpt>
      <trkpt lat="45.23671" lon="6.70913">
        <ele>2319.0356</ele>
        <time>2015-08-27T10:08:17Z</time>
      </trkpt>
      <trkpt lat="45.23672" lon="6.70909">
        <ele>2319.0356</ele>
        <time>2015-08-27T10:08:27Z</time>
      </trkpt>
      <trkpt lat="45.23672" lon="6.70906">
        <ele>2319.0356</ele>
        <time>2015-08-27T10:08:32Z</time>
      </trkpt>
      <trkpt lat="45.23674" lon="6.70896">
        <ele>2319.3882</ele>
        <time>2015-08-27T10:08:42Z</time>
      </trkpt>
      <trkpt lat="45.23675" lon="6.70892">
        <ele>2319.3882</ele>
        <time>2015-08-27T10:08:47Z</time>
      </trkpt>
      <trkpt lat="45.23676" lon="6.70888">
        <ele>2319.3882</ele>
        <time>2015-08-27T10:08:57Z</time>
      </trkpt>
      <trkpt lat="45.23676" lon="6.70886">
        <ele>2319.3882</ele>
        <time>2015-08-27T10:09:02Z</time>
      </trkpt>
      <trkpt lat="45.23672" lon="6.70869">
        <ele>2320.2153</ele>
        <time>2015-08-27T10:09:17Z</time>
      </trkpt>
      <trkpt lat="45.23671" lon="6.70863">
        <ele>2320.2153</ele>
        <time>2015-08-27T10:09:22Z</time>
      </trkpt>
      <trkpt lat="45.23669" lon="6.70856">
        <ele>2321.194</ele>
        <time>2015-08-27T10:09:32Z</time>
      </trkpt>
      <trkpt lat="45.23665" lon="6.70854">
        <ele>2321.194</ele>
        <time>2015-08-27T10:09:37Z</time>
      </trkpt>
      <trkpt lat="45.2366" lon="6.70848">
        <ele>2322.241</ele>
        <time>2015-08-27T10:09:47Z</time>
      </trkpt>
      <trkpt lat="45.23659" lon="6.70845">
        <ele>2322.241</ele>
        <time>2015-08-27T10:09:52Z</time>
      </trkpt>
      <trkpt lat="45.23658" lon="6.70837">
        <ele>2322.241</ele>
        <time>2015-08-27T10:10:02Z</time>
      </trkpt>
      <trkpt lat="45.23661" lon="6.70833">
        <ele>2323.2354</ele>
        <time>2015-08-27T10:10:07Z</time>
      </trkpt>
      <trkpt lat="45.23663" lon="6.70825">
        <ele>2323.2354</ele>
        <time>2015-08-27T10:10:17Z</time>
      </trkpt>
      <trkpt lat="45.23662" lon="6.7082">
        <ele>2323.9644</ele>
        <time>2015-08-27T10:10:22Z</time>
      </trkpt>
      <trkpt lat="45.23664" lon="6.70812">
        <ele>2323.9644</ele>
        <time>2015-08-27T10:10:32Z</time>
      </trkpt>
      <trkpt lat="45.23665" lon="6.70805">
        <ele>2324.7073</ele>
        <time>2015-08-27T10:10:37Z</time>
      </trkpt>
      <trkpt lat="45.23665" lon="6.70802">
        <ele>2324.7073</ele>
        <time>2015-08-27T10:10:47Z</time>
      </trkpt>
      <trkpt lat="45.23664" lon="6.708">
        <ele>2324.7073</ele>
        <time>2015-08-27T10:10:52Z</time>
      </trkpt>
      <trkpt lat="45.23667" lon="6.7079">
        <ele>2325.3337</ele>
        <time>2015-08-27T10:11:02Z</time>
      </trkpt>
      <trkpt lat="45.23667" lon="6.7079">
        <ele>2325.3337</ele>
        <time>2015-08-27T10:11:07Z</time>
      </trkpt>
      <trkpt lat="45.23668" lon="6.7078">
        <ele>2325.3337</ele>
        <time>2015-08-27T10:11:57Z</time>
      </trkpt>
      <trkpt lat="45.2367" lon="6.70769">
        <ele>2326.4724</ele>
        <time>2015-08-27T10:12:07Z</time>
      </trkpt>
      <trkpt lat="45.23672" lon="6.70765">
        <ele>2326.4724</ele>
        <time>2015-08-27T10:12:12Z</time>
      </trkpt>
      <trkpt lat="45.23675" lon="6.70759">
        <ele>2327.494</ele>
        <time>2015-08-27T10:12:22Z</time>
      </trkpt>
      <trkpt lat="45.23676" lon="6.70752">
        <ele>2327.494</ele>
        <time>2015-08-27T10:12:27Z</time>
      </trkpt>
      <trkpt lat="45.23676" lon="6.70742">
        <ele>2328.4927</ele>
        <time>2015-08-27T10:12:37Z</time>
      </trkpt>
      <trkpt lat="45.23676" lon="6.70739">
        <ele>2328.4927</ele>
        <time>2015-08-27T10:12:42Z</time>
      </trkpt>
      <trkpt lat="45.23678" lon="6.70735">
        <ele>2328.4927</ele>
        <time>2015-08-27T10:12:52Z</time>
      </trkpt>
      <trkpt lat="45.23679" lon="6.70728">
        <ele>2329.5996</ele>
        <time>2015-08-27T10:12:57Z</time>
      </trkpt>
      <trkpt lat="45.23682" lon="6.70718">
        <ele>2329.5996</ele>
        <time>2015-08-27T10:13:07Z</time>
      </trkpt>
      <trkpt lat="45.23683" lon="6.70714">
        <ele>2330.6038</ele>
        <time>2015-08-27T10:13:12Z</time>
      </trkpt>
      <trkpt lat="45.23683" lon="6.70713">
        <ele>2330.6038</ele>
        <time>2015-08-27T10:13:22Z</time>
      </trkpt>
      <trkpt lat="45.23681" lon="6.70709">
        <ele>2330.6038</ele>
        <time>2015-08-27T10:13:27Z</time>
      </trkpt>
      <trkpt lat="45.23681" lon="6.70707">
        <ele>2330.6038</ele>
        <time>2015-08-27T10:13:37Z</time>
      </trkpt>
      <trkpt lat="45.23682" lon="6.70703">
        <ele>2330.6038</ele>
        <time>2015-08-27T10:13:42Z</time>
      </trkpt>
      <trkpt lat="45.23679" lon="6.70686">
        <ele>2332.0745</ele>
        <time>2015-08-27T10:13:57Z</time>
      </trkpt>
      <trkpt lat="45.23679" lon="6.70686">
        <ele>2332.0745</ele>
        <time>2015-08-27T10:14:02Z</time>
      </trkpt>
      <trkpt lat="45.23674" lon="6.70683">
        <ele>2332.0745</ele>
        <time>2015-08-27T10:14:12Z</time>
      </trkpt>
      <trkpt lat="45.23671" lon="6.70681">
        <ele>2332.0745</ele>
        <time>2015-08-27T10:14:17Z</time>
      </trkpt>
      <trkpt lat="45.23668" lon="6.7068">
        <ele>2334.0762</ele>
        <time>2015-08-27T10:14:27Z</time>
      </trkpt>
      <trkpt lat="45.23663" lon="6.70679">
        <ele>2334.0762</ele>
        <time>2015-08-27T10:14:32Z</time>
      </trkpt>
      <trkpt lat="45.23655" lon="6.70674">
        <ele>2336.2207</ele>
        <time>2015-08-27T10:14:42Z</time>
      </trkpt>
      <trkpt lat="45.23652" lon="6.70671">
        <ele>2336.2207</ele>
        <time>2015-08-27T10:14:47Z</time>
      </trkpt>
      <trkpt lat="45.23646" lon="6.70666">
        <ele>2338.508</ele>
        <time>2015-08-27T10:14:57Z</time>
      </trkpt>
      <trkpt lat="45.23644" lon="6.70664">
        <ele>2338.508</ele>
        <time>2015-08-27T10:15:02Z</time>
      </trkpt>
      <trkpt lat="45.23641" lon="6.70657">
        <ele>2338.508</ele>
        <time>2015-08-27T10:15:12Z</time>
      </trkpt>
      <trkpt lat="45.2364" lon="6.70652">
        <ele>2340.6785</ele>
        <time>2015-08-27T10:15:17Z</time>
      </trkpt>
      <trkpt lat="45.23634" lon="6.70637">
        <ele>2342.7798</ele>
        <time>2015-08-27T10:15:27Z</time>
      </trkpt>
      <trkpt lat="45.23632" lon="6.70635">
        <ele>2342.7798</ele>
        <time>2015-08-27T10:15:32Z</time>
      </trkpt>
      <trkpt lat="45.23626" lon="6.70618">
        <ele>2345.0156</ele>
        <time>2015-08-27T10:15:47Z</time>
      </trkpt>
      <trkpt lat="45.23624" lon="6.70608">
        <ele>2345.0156</ele>
        <time>2015-08-27T10:15:52Z</time>
      </trkpt>
      <trkpt lat="45.23617" lon="6.70605">
        <ele>2347.141</ele>
        <time>2015-08-27T10:16:02Z</time>
      </trkpt>
      <trkpt lat="45.23613" lon="6.70601">
        <ele>2347.141</ele>
        <time>2015-08-27T10:16:07Z</time>
      </trkpt>
      <trkpt lat="45.23612" lon="6.70595">
        <ele>2349.0168</ele>
        <time>2015-08-27T10:16:17Z</time>
      </trkpt>
      <trkpt lat="45.23614" lon="6.70599">
        <ele>2349.0168</ele>
        <time>2015-08-27T10:16:22Z</time>
      </trkpt>
      <trkpt lat="45.23615" lon="6.70603">
        <ele>2349.0168</ele>
        <time>2015-08-27T10:16:32Z</time>
      </trkpt>
      <trkpt lat="45.23615" lon="6.70603">
        <ele>2349.0168</ele>
        <time>2015-08-27T10:16:37Z</time>
      </trkpt>
      <trkpt lat="45.23611" lon="6.70587">
        <ele>2350.644</ele>
        <time>2015-08-27T10:16:47Z</time>
      </trkpt>
      <trkpt lat="45.23608" lon="6.70577">
        <ele>2350.644</ele>
        <time>2015-08-27T10:16:52Z</time>
      </trkpt>
      <trkpt lat="45.23603" lon="6.7056">
        <ele>2352.1538</ele>
        <time>2015-08-27T10:17:02Z</time>
      </trkpt>
      <trkpt lat="45.236" lon="6.70553">
        <ele>2352.1538</ele>
        <time>2015-08-27T10:17:07Z</time>
      </trkpt>
      <trkpt lat="45.23594" lon="6.70541">
        <ele>2353.6396</ele>
        <time>2015-08-27T10:17:17Z</time>
      </trkpt>
      <trkpt lat="45.23592" lon="6.70537">
        <ele>2353.6396</ele>
        <time>2015-08-27T10:17:22Z</time>
      </trkpt>
      <trkpt lat="45.23585" lon="6.70528">
        <ele>2354.9148</ele>
        <time>2015-08-27T10:17:32Z</time>
      </trkpt>
      <trkpt lat="45.23581" lon="6.70526">
        <ele>2354.9148</ele>
        <time>2015-08-27T10:17:37Z</time>
      </trkpt>
      <trkpt lat="45.23577" lon="6.70509">
        <ele>2356.0798</ele>
        <time>2015-08-27T10:17:47Z</time>
      </trkpt>
      <trkpt lat="45.23575" lon="6.70503">
        <ele>2356.0798</ele>
        <time>2015-08-27T10:17:52Z</time>
      </trkpt>
      <trkpt lat="45.23568" lon="6.70499">
        <ele>2357.2432</ele>
        <time>2015-08-27T10:18:02Z</time>
      </trkpt>
      <trkpt lat="45.23563" lon="6.70496">
        <ele>2357.2432</ele>
        <time>2015-08-27T10:18:07Z</time>
      </trkpt>
      <trkpt lat="45.23549" lon="6.7049">
        <ele>2358.3472</ele>
        <time>2015-08-27T10:18:22Z</time>
      </trkpt>
      <trkpt lat="45.23545" lon="6.70484">
        <ele>2358.3472</ele>
        <time>2015-08-27T10:18:27Z</time>
      </trkpt>
      <trkpt lat="45.23536" lon="6.70475">
        <ele>2359.3958</ele>
        <time>2015-08-27T10:18:37Z</time>
      </trkpt>
      <trkpt lat="45.23531" lon="6.70472">
        <ele>2359.3958</ele>
        <time>2015-08-27T10:18:42Z</time>
      </trkpt>
      <trkpt lat="45.23524" lon="6.7047">
        <ele>2360.22</ele>
        <time>2015-08-27T10:18:52Z</time>
      </trkpt>
      <trkpt lat="45.23518" lon="6.70468">
        <ele>2360.22</ele>
        <time>2015-08-27T10:18:57Z</time>
      </trkpt>
      <trkpt lat="45.2351" lon="6.70459">
        <ele>2360.6497</ele>
        <time>2015-08-27T10:19:07Z</time>
      </trkpt>
      <trkpt lat="45.23507" lon="6.70457">
        <ele>2360.6497</ele>
        <time>2015-08-27T10:19:12Z</time>
      </trkpt>
      <trkpt lat="45.23499" lon="6.7045">
        <ele>2360.7014</ele>
        <time>2015-08-27T10:19:22Z</time>
      </trkpt>
      <trkpt lat="45.23494" lon="6.70443">
        <ele>2360.7014</ele>
        <time>2015-08-27T10:19:27Z</time>
      </trkpt>
      <trkpt lat="45.23486" lon="6.70431">
        <ele>2360.6792</ele>
        <time>2015-08-27T10:19:37Z</time>
      </trkpt>
      <trkpt lat="45.23483" lon="6.70427">
        <ele>2360.6792</ele>
        <time>2015-08-27T10:19:42Z</time>
      </trkpt>
      <trkpt lat="45.23476" lon="6.70418">
        <ele>2360.5486</ele>
        <time>2015-08-27T10:19:52Z</time>
      </trkpt>
      <trkpt lat="45.23473" lon="6.70415">
        <ele>2360.5486</ele>
        <time>2015-08-27T10:19:57Z</time>
      </trkpt>
      <trkpt lat="45.23464" lon="6.70404">
        <ele>2360.2634</ele>
        <time>2015-08-27T10:20:07Z</time>
      </trkpt>
      <trkpt lat="45.2346" lon="6.704">
        <ele>2360.2634</ele>
        <time>2015-08-27T10:20:12Z</time>
      </trkpt>
      <trkpt lat="45.23454" lon="6.70395">
        <ele>2359.6804</ele>
        <time>2015-08-27T10:20:22Z</time>
      </trkpt>
      <trkpt lat="45.2345" lon="6.70393">
        <ele>2359.6804</ele>
        <time>2015-08-27T10:20:27Z</time>
      </trkpt>
      <trkpt lat="45.23446" lon="6.70387">
        <ele>2358.6816</ele>
        <time>2015-08-27T10:20:37Z</time>
      </trkpt>
      <trkpt lat="45.23444" lon="6.70386">
        <ele>2358.6816</ele>
        <time>2015-08-27T10:20:42Z</time>
      </trkpt>
      <trkpt lat="45.23443" lon="6.70385">
        <ele>2358.6816</ele>
        <time>2015-08-27T10:20:57Z</time>
      </trkpt>
      <trkpt lat="45.23442" lon="6.70382">
        <ele>2358.6816</ele>
        <time>2015-08-27T10:23:47Z</time>
      </trkpt>
      <trkpt lat="45.2344" lon="6.70378">
        <ele>2357.4768</ele>
        <time>2015-08-27T10:23:52Z</time>
      </trkpt>
      <trkpt lat="45.23438" lon="6.70376">
        <ele>2357.4768</ele>
        <time>2015-08-27T10:24:02Z</time>
      </trkpt>
      <trkpt lat="45.23433" lon="6.70369">
        <ele>2356.39</ele>
        <time>2015-08-27T10:24:17Z</time>
      </trkpt>
      <trkpt lat="45.23432" lon="6.70367">
        <ele>2356.39</ele>
        <time>2015-08-27T10:24:22Z</time>
      </trkpt>
      <trkpt lat="45.23424" lon="6.70358">
        <ele>2355.2742</ele>
        <time>2015-08-27T10:24:32Z</time>
      </trkpt>
      <trkpt lat="45.23421" lon="6.70352">
        <ele>2355.2742</ele>
        <time>2015-08-27T10:24:37Z</time>
      </trkpt>
      <trkpt lat="45.23415" lon="6.70341">
        <ele>2353.936</ele>
        <time>2015-08-27T10:24:47Z</time>
      </trkpt>
      <trkpt lat="45.23413" lon="6.70337">
        <ele>2353.936</ele>
        <time>2015-08-27T10:24:52Z</time>
      </trkpt>
      <trkpt lat="45.23407" lon="6.70318">
        <ele>2352.571</ele>
        <time>2015-08-27T10:25:07Z</time>
      </trkpt>
      <trkpt lat="45.23406" lon="6.70315">
        <ele>2352.571</ele>
        <time>2015-08-27T10:25:12Z</time>
      </trkpt>
      <trkpt lat="45.23399" lon="6.70305">
        <ele>2351.1736</ele>
        <time>2015-08-27T10:25:22Z</time>
      </trkpt>
      <trkpt lat="45.23397" lon="6.70298">
        <ele>2351.1736</ele>
        <time>2015-08-27T10:25:27Z</time>
      </trkpt>
      <trkpt lat="45.23393" lon="6.70282">
        <ele>2349.7954</ele>
        <time>2015-08-27T10:25:37Z</time>
      </trkpt>
      <trkpt lat="45.23392" lon="6.70278">
        <ele>2349.7954</ele>
        <time>2015-08-27T10:25:42Z</time>
      </trkpt>
      <trkpt lat="45.23389" lon="6.70268">
        <ele>2348.4993</ele>
        <time>2015-08-27T10:25:52Z</time>
      </trkpt>
      <trkpt lat="45.23387" lon="6.70262">
        <ele>2348.4993</ele>
        <time>2015-08-27T10:25:57Z</time>
      </trkpt>
      <trkpt lat="45.23386" lon="6.70257">
        <ele>2348.4993</ele>
        <time>2015-08-27T10:26:07Z</time>
      </trkpt>
      <trkpt lat="45.23386" lon="6.70256">
        <ele>2348.4993</ele>
        <time>2015-08-27T10:26:12Z</time>
      </trkpt>
      <trkpt lat="45.23389" lon="6.70255">
        <ele>2347.2275</ele>
        <time>2015-08-27T10:26:22Z</time>
      </trkpt>
      <trkpt lat="45.23389" lon="6.70255">
        <ele>2347.2275</ele>
        <time>2015-08-27T10:26:27Z</time>
      </trkpt>
      <trkpt lat="45.23382" lon="6.70237">
        <ele>2345.941</ele>
        <time>2015-08-27T10:26:42Z</time>
      </trkpt>
      <trkpt lat="45.2338" lon="6.70232">
        <ele>2345.941</ele>
        <time>2015-08-27T10:26:47Z</time>
      </trkpt>
      <trkpt lat="45.23379" lon="6.70221">
        <ele>2344.6892</ele>
        <time>2015-08-27T10:26:57Z</time>
      </trkpt>
      <trkpt lat="45.23378" lon="6.70216">
        <ele>2344.6892</ele>
        <time>2015-08-27T10:27:02Z</time>
      </trkpt>
      <trkpt lat="45.23376" lon="6.702">
        <ele>2343.4897</ele>
        <time>2015-08-27T10:27:12Z</time>
      </trkpt>
      <trkpt lat="45.23375" lon="6.70195">
        <ele>2343.4897</ele>
        <time>2015-08-27T10:27:17Z</time>
      </trkpt>
      <trkpt lat="45.23373" lon="6.70182">
        <ele>2342.3152</ele>
        <time>2015-08-27T10:27:27Z</time>
      </trkpt>
      <trkpt lat="45.23373" lon="6.70175">
        <ele>2342.3152</ele>
        <time>2015-08-27T10:27:32Z</time>
      </trkpt>
      <trkpt lat="45.23372" lon="6.70161">
        <ele>2341.2402</ele>
        <time>2015-08-27T10:27:42Z</time>
      </trkpt>
      <trkpt lat="45.2337" lon="6.70153">
        <ele>2341.2402</ele>
        <time>2015-08-27T10:27:47Z</time>
      </trkpt>
      <trkpt lat="45.23374" lon="6.70143">
        <ele>2340.1904</ele>
        <time>2015-08-27T10:27:57Z</time>
      </trkpt>
      <trkpt lat="45.23374" lon="6.70137">
        <ele>2340.1904</ele>
        <time>2015-08-27T10:28:02Z</time>
      </trkpt>
      <trkpt lat="45.23377" lon="6.70125">
        <ele>2339.2253</ele>
        <time>2015-08-27T10:28:12Z</time>
      </trkpt>
      <trkpt lat="45.23379" lon="6.70117">
        <ele>2339.2253</ele>
        <time>2015-08-27T10:28:17Z</time>
      </trkpt>
      <trkpt lat="45.23381" lon="6.70114">
        <ele>2339.2253</ele>
        <time>2015-08-27T10:28:32Z</time>
      </trkpt>
      <trkpt lat="45.2338" lon="6.70113">
        <ele>2338.3572</ele>
        <time>2015-08-27T10:28:37Z</time>
      </trkpt>
      <trkpt lat="45.23374" lon="6.70115">
        <ele>2338.3572</ele>
        <time>2015-08-27T10:28:47Z</time>
      </trkpt>
      <trkpt lat="45.23374" lon="6.70114">
        <ele>2338.3572</ele>
        <time>2015-08-27T10:28:52Z</time>
      </trkpt>
      <trkpt lat="45.23375" lon="6.70114">
        <ele>2338.3572</ele>
        <time>2015-08-27T10:29:02Z</time>
      </trkpt>
      <trkpt lat="45.23375" lon="6.70107">
        <ele>2337.4668</ele>
        <time>2015-08-27T10:29:07Z</time>
      </trkpt>
      <trkpt lat="45.23377" lon="6.70097">
        <ele>2337.4668</ele>
        <time>2015-08-27T10:29:17Z</time>
      </trkpt>
      <trkpt lat="45.23379" lon="6.70093">
        <ele>2336.5593</ele>
        <time>2015-08-27T10:29:22Z</time>
      </trkpt>
      <trkpt lat="45.23382" lon="6.70089">
        <ele>2336.5593</ele>
        <time>2015-08-27T10:29:32Z</time>
      </trkpt>
      <trkpt lat="45.23383" lon="6.70087">
        <ele>2336.5593</ele>
        <time>2015-08-27T10:29:37Z</time>
      </trkpt>
      <trkpt lat="45.23387" lon="6.70078">
        <ele>2335.5957</ele>
        <time>2015-08-27T10:29:47Z</time>
      </trkpt>
      <trkpt lat="45.23389" lon="6.70074">
        <ele>2335.5957</ele>
        <time>2015-08-27T10:29:52Z</time>
      </trkpt>
      <trkpt lat="45.23398" lon="6.70067">
        <ele>2334.713</ele>
        <time>2015-08-27T10:30:02Z</time>
      </trkpt>
      <trkpt lat="45.23405" lon="6.70062">
        <ele>2334.713</ele>
        <time>2015-08-27T10:30:07Z</time>
      </trkpt>
      <trkpt lat="45.23413" lon="6.70056">
        <ele>2334.1096</ele>
        <time>2015-08-27T10:30:17Z</time>
      </trkpt>
      <trkpt lat="45.23418" lon="6.70049">
        <ele>2334.1096</ele>
        <time>2015-08-27T10:30:22Z</time>
      </trkpt>
      <trkpt lat="45.23423" lon="6.70031">
        <ele>2333.5654</ele>
        <time>2015-08-27T10:30:37Z</time>
      </trkpt>
      <trkpt lat="45.23424" lon="6.70025">
        <ele>2333.5654</ele>
        <time>2015-08-27T10:30:42Z</time>
      </trkpt>
      <trkpt lat="45.23426" lon="6.70014">
        <ele>2333.02</ele>
        <time>2015-08-27T10:30:52Z</time>
      </trkpt>
      <trkpt lat="45.23429" lon="6.70009">
        <ele>2333.02</ele>
        <time>2015-08-27T10:30:57Z</time>
      </trkpt>
      <trkpt lat="45.23438" lon="6.69999">
        <ele>2332.489</ele>
        <time>2015-08-27T10:31:07Z</time>
      </trkpt>
      <trkpt lat="45.23442" lon="6.69994">
        <ele>2332.489</ele>
        <time>2015-08-27T10:31:12Z</time>
      </trkpt>
      <trkpt lat="45.23449" lon="6.69982">
        <ele>2331.9006</ele>
        <time>2015-08-27T10:31:22Z</time>
      </trkpt>
      <trkpt lat="45.23453" lon="6.69978">
        <ele>2331.9006</ele>
        <time>2015-08-27T10:31:27Z</time>
      </trkpt>
      <trkpt lat="45.2346" lon="6.6997">
        <ele>2331.4045</ele>
        <time>2015-08-27T10:31:37Z</time>
      </trkpt>
      <trkpt lat="45.2346" lon="6.69962">
        <ele>2331.4045</ele>
        <time>2015-08-27T10:31:42Z</time>
      </trkpt>
      <trkpt lat="45.23457" lon="6.69943">
        <ele>2330.894</ele>
        <time>2015-08-27T10:31:52Z</time>
      </trkpt>
      <trkpt lat="45.23456" lon="6.69936">
        <ele>2330.894</ele>
        <time>2015-08-27T10:31:57Z</time>
      </trkpt>
      <trkpt lat="45.23453" lon="6.69924">
        <ele>2330.4285</ele>
        <time>2015-08-27T10:32:07Z</time>
      </trkpt>
      <trkpt lat="45.23453" lon="6.69923">
        <ele>2330.4285</ele>
        <time>2015-08-27T10:32:12Z</time>
      </trkpt>
      <trkpt lat="45.23453" lon="6.69923">
        <ele>2330.4285</ele>
        <time>2015-08-27T10:32:27Z</time>
      </trkpt>
      <trkpt lat="45.23452" lon="6.69919">
        <ele>2330.4285</ele>
        <time>2015-08-27T10:32:57Z</time>
      </trkpt>
      <trkpt lat="45.2345" lon="6.6991">
        <ele>2329.789</ele>
        <time>2015-08-27T10:33:02Z</time>
      </trkpt>
      <trkpt lat="45.23445" lon="6.69896">
        <ele>2329.1914</ele>
        <time>2015-08-27T10:33:12Z</time>
      </trkpt>
      <trkpt lat="45.23443" lon="6.69891">
        <ele>2329.1914</ele>
        <time>2015-08-27T10:33:17Z</time>
      </trkpt>
      <trkpt lat="45.23442" lon="6.6988">
        <ele>2328.4602</ele>
        <time>2015-08-27T10:33:27Z</time>
      </trkpt>
      <trkpt lat="45.23442" lon="6.69874">
        <ele>2328.4602</ele>
        <time>2015-08-27T10:33:32Z</time>
      </trkpt>
      <trkpt lat="45.23439" lon="6.6986">
        <ele>2327.5916</ele>
        <time>2015-08-27T10:33:42Z</time>
      </trkpt>
      <trkpt lat="45.23438" lon="6.69856">
        <ele>2327.5916</ele>
        <time>2015-08-27T10:33:47Z</time>
      </trkpt>
      <trkpt lat="45.23436" lon="6.69845">
        <ele>2326.6262</ele>
        <time>2015-08-27T10:33:57Z</time>
      </trkpt>
      <trkpt lat="45.23432" lon="6.69839">
        <ele>2326.6262</ele>
        <time>2015-08-27T10:34:02Z</time>
      </trkpt>
      <trkpt lat="45.23425" lon="6.69827">
        <ele>2325.6733</ele>
        <time>2015-08-27T10:34:12Z</time>
      </trkpt>
      <trkpt lat="45.2342" lon="6.69821">
        <ele>2325.6733</ele>
        <time>2015-08-27T10:34:17Z</time>
      </trkpt>
      <trkpt lat="45.23411" lon="6.69815">
        <ele>2324.7915</ele>
        <time>2015-08-27T10:34:27Z</time>
      </trkpt>
      <trkpt lat="45.23406" lon="6.69811">
        <ele>2324.7915</ele>
        <time>2015-08-27T10:34:32Z</time>
      </trkpt>
      <trkpt lat="45.23393" lon="6.69802">
        <ele>2323.9329</ele>
        <time>2015-08-27T10:34:47Z</time>
      </trkpt>
      <trkpt lat="45.23389" lon="6.69798">
        <ele>2323.9329</ele>
        <time>2015-08-27T10:34:52Z</time>
      </trkpt>
      <trkpt lat="45.23383" lon="6.69786">
        <ele>2323.0537</ele>
        <time>2015-08-27T10:35:02Z</time>
      </trkpt>
      <trkpt lat="45.23382" lon="6.69779">
        <ele>2323.0537</ele>
        <time>2015-08-27T10:35:07Z</time>
      </trkpt>
      <trkpt lat="45.23378" lon="6.69767">
        <ele>2322.1565</ele>
        <time>2015-08-27T10:35:17Z</time>
      </trkpt>
      <trkpt lat="45.23375" lon="6.69762">
        <ele>2322.1565</ele>
        <time>2015-08-27T10:35:22Z</time>
      </trkpt>
      <trkpt lat="45.23367" lon="6.69752">
        <ele>2321.2292</ele>
        <time>2015-08-27T10:35:32Z</time>
      </trkpt>
      <trkpt lat="45.23363" lon="6.69748">
        <ele>2321.2292</ele>
        <time>2015-08-27T10:35:37Z</time>
      </trkpt>
      <trkpt lat="45.23356" lon="6.69739">
        <ele>2320.2893</ele>
        <time>2015-08-27T10:35:47Z</time>
      </trkpt>
      <trkpt lat="45.23353" lon="6.69736">
        <ele>2320.2893</ele>
        <time>2015-08-27T10:35:52Z</time>
      </trkpt>
      <trkpt lat="45.23348" lon="6.69727">
        <ele>2319.3242</ele>
        <time>2015-08-27T10:36:02Z</time>
      </trkpt>
      <trkpt lat="45.23347" lon="6.69722">
        <ele>2319.3242</ele>
        <time>2015-08-27T10:36:07Z</time>
      </trkpt>
      <trkpt lat="45.23343" lon="6.69711">
        <ele>2318.3945</ele>
        <time>2015-08-27T10:36:17Z</time>
      </trkpt>
      <trkpt lat="45.23343" lon="6.6971">
        <ele>2318.3945</ele>
        <time>2015-08-27T10:36:22Z</time>
      </trkpt>
      <trkpt lat="45.23344" lon="6.69704">
        <ele>2318.3945</ele>
        <time>2015-08-27T10:36:32Z</time>
      </trkpt>
      <trkpt lat="45.23344" lon="6.69698">
        <ele>2317.7</ele>
        <time>2015-08-27T10:36:37Z</time>
      </trkpt>
      <trkpt lat="45.23345" lon="6.69683">
        <ele>2317.0938</ele>
        <time>2015-08-27T10:36:47Z</time>
      </trkpt>
      <trkpt lat="45.23345" lon="6.69675">
        <ele>2317.0938</ele>
        <time>2015-08-27T10:36:52Z</time>
      </trkpt>
      <trkpt lat="45.23342" lon="6.69655">
        <ele>2316.5112</ele>
        <time>2015-08-27T10:37:07Z</time>
      </trkpt>
      <trkpt lat="45.23341" lon="6.69649">
        <ele>2316.5112</ele>
        <time>2015-08-27T10:37:12Z</time>
      </trkpt>
      <trkpt lat="45.2334" lon="6.69633">
        <ele>2316.0662</ele>
        <time>2015-08-27T10:37:22Z</time>
      </trkpt>
      <trkpt lat="45.23341" lon="6.69625">
        <ele>2316.0662</ele>
        <time>2015-08-27T10:37:27Z</time>
      </trkpt>
      <trkpt lat="45.23342" lon="6.69614">
        <ele>2315.776</ele>
        <time>2015-08-27T10:37:37Z</time>
      </trkpt>
      <trkpt lat="45.23343" lon="6.69613">
        <ele>2315.776</ele>
        <time>2015-08-27T10:37:42Z</time>
      </trkpt>
      <trkpt lat="45.23343" lon="6.69611">
        <ele>2315.776</ele>
        <time>2015-08-27T10:38:52Z</time>
      </trkpt>
      <trkpt lat="45.23342" lon="6.69611">
        <ele>2315.776</ele>
        <time>2015-08-27T10:38:57Z</time>
      </trkpt>
      <trkpt lat="45.23342" lon="6.69611">
        <ele>2315.776</ele>
        <time>2015-08-27T10:39:07Z</time>
      </trkpt>
      <trkpt lat="45.23345" lon="6.69603">
        <ele>2315.311</ele>
        <time>2015-08-27T10:39:22Z</time>
      </trkpt>
      <trkpt lat="45.23345" lon="6.69602">
        <ele>2315.311</ele>
        <time>2015-08-27T10:39:27Z</time>
      </trkpt>
      <trkpt lat="45.23345" lon="6.69602">
        <ele>2315.311</ele>
        <time>2015-08-27T10:39:37Z</time>
      </trkpt>
      <trkpt lat="45.23343" lon="6.69591">
        <ele>2315.311</ele>
        <time>2015-08-27T10:42:27Z</time>
      </trkpt>
      <trkpt lat="45.23341" lon="6.69585">
        <ele>2315.0295</ele>
        <time>2015-08-27T10:42:32Z</time>
      </trkpt>
      <trkpt lat="45.23336" lon="6.69574">
        <ele>2315.0295</ele>
        <time>2015-08-27T10:42:42Z</time>
      </trkpt>
      <trkpt lat="45.23334" lon="6.69568">
        <ele>2314.7722</ele>
        <time>2015-08-27T10:42:47Z</time>
      </trkpt>
      <trkpt lat="45.23324" lon="6.69553">
        <ele>2314.5215</ele>
        <time>2015-08-27T10:43:02Z</time>
      </trkpt>
      <trkpt lat="45.2332" lon="6.69549">
        <ele>2314.5215</ele>
        <time>2015-08-27T10:43:07Z</time>
      </trkpt>
      <trkpt lat="45.2331" lon="6.69548">
        <ele>2314.2324</ele>
        <time>2015-08-27T10:43:17Z</time>
      </trkpt>
      <trkpt lat="45.23306" lon="6.69546">
        <ele>2314.2324</ele>
        <time>2015-08-27T10:43:22Z</time>
      </trkpt>
      <trkpt lat="45.23301" lon="6.69542">
        <ele>2313.8918</ele>
        <time>2015-08-27T10:43:32Z</time>
      </trkpt>
      <trkpt lat="45.23299" lon="6.69538">
        <ele>2313.8918</ele>
        <time>2015-08-27T10:43:37Z</time>
      </trkpt>
      <trkpt lat="45.23295" lon="6.69531">
        <ele>2313.459</ele>
        <time>2015-08-27T10:43:47Z</time>
      </trkpt>
      <trkpt lat="45.23294" lon="6.69526">
        <ele>2313.459</ele>
        <time>2015-08-27T10:43:52Z</time>
      </trkpt>
      <trkpt lat="45.23292" lon="6.69516">
        <ele>2312.7812</ele>
        <time>2015-08-27T10:44:02Z</time>
      </trkpt>
      <trkpt lat="45.23292" lon="6.69513">
        <ele>2312.7812</ele>
        <time>2015-08-27T10:44:07Z</time>
      </trkpt>
      <trkpt lat="45.23289" lon="6.69505">
        <ele>2312.7812</ele>
        <time>2015-08-27T10:44:17Z</time>
      </trkpt>
      <trkpt lat="45.23288" lon="6.69501">
        <ele>2311.6746</ele>
        <time>2015-08-27T10:44:22Z</time>
      </trkpt>
      <trkpt lat="45.23283" lon="6.69492">
        <ele>2311.6746</ele>
        <time>2015-08-27T10:44:32Z</time>
      </trkpt>
      <trkpt lat="45.23281" lon="6.6949">
        <ele>2310.2434</ele>
        <time>2015-08-27T10:44:37Z</time>
      </trkpt>
      <trkpt lat="45.23278" lon="6.69484">
        <ele>2310.2434</ele>
        <time>2015-08-27T10:44:47Z</time>
      </trkpt>
      <trkpt lat="45.23275" lon="6.69485">
        <ele>2308.6143</ele>
        <time>2015-08-27T10:44:52Z</time>
      </trkpt>
      <trkpt lat="45.23276" lon="6.69495">
        <ele>2308.6143</ele>
        <time>2015-08-27T10:45:02Z</time>
      </trkpt>
      <trkpt lat="45.23276" lon="6.69499">
        <ele>2306.9336</ele>
        <time>2015-08-27T10:45:07Z</time>
      </trkpt>
      <trkpt lat="45.23271" lon="6.69508">
        <ele>2306.9336</ele>
        <time>2015-08-27T10:45:22Z</time>
      </trkpt>
      <trkpt lat="45.23269" lon="6.69504">
        <ele>2304.9055</ele>
        <time>2015-08-27T10:45:27Z</time>
      </trkpt>
      <trkpt lat="45.23263" lon="6.69497">
        <ele>2304.9055</ele>
        <time>2015-08-27T10:45:37Z</time>
      </trkpt>
      <trkpt lat="45.23259" lon="6.69494">
        <ele>2302.6448</ele>
        <time>2015-08-27T10:45:42Z</time>
      </trkpt>
      <trkpt lat="45.23254" lon="6.6949">
        <ele>2302.6448</ele>
        <time>2015-08-27T10:45:52Z</time>
      </trkpt>
      <trkpt lat="45.23253" lon="6.69488">
        <ele>2302.6448</ele>
        <time>2015-08-27T10:45:57Z</time>
      </trkpt>
      <trkpt lat="45.23245" lon="6.6948">
        <ele>2299.885</ele>
        <time>2015-08-27T10:46:07Z</time>
      </trkpt>
      <trkpt lat="45.23242" lon="6.69475">
        <ele>2299.885</ele>
        <time>2015-08-27T10:46:12Z</time>
      </trkpt>
      <trkpt lat="45.23235" lon="6.69469">
        <ele>2297.1145</ele>
        <time>2015-08-27T10:46:22Z</time>
      </trkpt>
      <trkpt lat="45.23232" lon="6.69467">
        <ele>2297.1145</ele>
        <time>2015-08-27T10:46:27Z</time>
      </trkpt>
      <trkpt lat="45.23231" lon="6.69456">
        <ele>2294.2388</ele>
        <time>2015-08-27T10:46:37Z</time>
      </trkpt>
      <trkpt lat="45.23231" lon="6.69452">
        <ele>2294.2388</ele>
        <time>2015-08-27T10:46:42Z</time>
      </trkpt>
      <trkpt lat="45.23229" lon="6.6944">
        <ele>2291.3435</ele>
        <time>2015-08-27T10:46:52Z</time>
      </trkpt>
      <trkpt lat="45.23228" lon="6.69436">
        <ele>2291.3435</ele>
        <time>2015-08-27T10:46:57Z</time>
      </trkpt>
      <trkpt lat="45.23228" lon="6.69426">
        <ele>2288.3633</ele>
        <time>2015-08-27T10:47:07Z</time>
      </trkpt>
      <trkpt lat="45.23227" lon="6.6942">
        <ele>2288.3633</ele>
        <time>2015-08-27T10:47:12Z</time>
      </trkpt>
      <trkpt lat="45.23226" lon="6.69415">
        <ele>2288.3633</ele>
        <time>2015-08-27T10:47:22Z</time>
      </trkpt>
      <trkpt lat="45.23226" lon="6.69413">
        <ele>2285.368</ele>
        <time>2015-08-27T10:47:27Z</time>
      </trkpt>
      <trkpt lat="45.23222" lon="6.6941">
        <ele>2285.368</ele>
        <time>2015-08-27T10:47:37Z</time>
      </trkpt>
      <trkpt lat="45.23221" lon="6.69412">
        <ele>2285.368</ele>
        <time>2015-08-27T10:47:42Z</time>
      </trkpt>
      <trkpt lat="45.23213" lon="6.69431">
        <ele>2282.465</ele>
        <time>2015-08-27T10:47:52Z</time>
      </trkpt>
      <trkpt lat="45.23209" lon="6.69437">
        <ele>2282.465</ele>
        <time>2015-08-27T10:47:57Z</time>
      </trkpt>
      <trkpt lat="45.23203" lon="6.69438">
        <ele>2279.5671</ele>
        <time>2015-08-27T10:48:07Z</time>
      </trkpt>
      <trkpt lat="45.23202" lon="6.69439">
        <ele>2279.5671</ele>
        <time>2015-08-27T10:48:12Z</time>
      </trkpt>
      <trkpt lat="45.23198" lon="6.69442">
        <ele>2279.5671</ele>
        <time>2015-08-27T10:48:22Z</time>
      </trkpt>
      <trkpt lat="45.23196" lon="6.69447">
        <ele>2276.2031</ele>
        <time>2015-08-27T10:48:27Z</time>
      </trkpt>
      <trkpt lat="45.2319" lon="6.69458">
        <ele>2272.788</ele>
        <time>2015-08-27T10:48:42Z</time>
      </trkpt>
      <trkpt lat="45.23187" lon="6.69463">
        <ele>2272.788</ele>
        <time>2015-08-27T10:48:47Z</time>
      </trkpt>
      <trkpt lat="45.23187" lon="6.69472">
        <ele>2269.3184</ele>
        <time>2015-08-27T10:48:57Z</time>
      </trkpt>
      <trkpt lat="45.23186" lon="6.69475">
        <ele>2269.3184</ele>
        <time>2015-08-27T10:49:02Z</time>
      </trkpt>
      <trkpt lat="45.2318" lon="6.69473">
        <ele>2269.3184</ele>
        <time>2015-08-27T10:49:12Z</time>
      </trkpt>
      <trkpt lat="45.23179" lon="6.6947">
        <ele>2265.343</ele>
        <time>2015-08-27T10:49:17Z</time>
      </trkpt>
      <trkpt lat="45.23178" lon="6.69463">
        <ele>2265.343</ele>
        <time>2015-08-27T10:49:27Z</time>
      </trkpt>
      <trkpt lat="45.23177" lon="6.69459">
        <ele>2265.343</ele>
        <time>2015-08-27T10:49:32Z</time>
      </trkpt>
      <trkpt lat="45.23172" lon="6.69452">
        <ele>2260.7625</ele>
        <time>2015-08-27T10:49:42Z</time>
      </trkpt>
      <trkpt lat="45.2317" lon="6.69455">
        <ele>2260.7625</ele>
        <time>2015-08-27T10:49:47Z</time>
      </trkpt>
      <trkpt lat="45.23167" lon="6.69464">
        <ele>2256.2073</ele>
        <time>2015-08-27T10:49:57Z</time>
      </trkpt>
      <trkpt lat="45.23165" lon="6.69472">
        <ele>2256.2073</ele>
        <time>2015-08-27T10:50:02Z</time>
      </trkpt>
      <trkpt lat="45.23157" lon="6.69479">
        <ele>2251.7131</ele>
        <time>2015-08-27T10:50:12Z</time>
      </trkpt>
      <trkpt lat="45.23155" lon="6.69484">
        <ele>2251.7131</ele>
        <time>2015-08-27T10:50:17Z</time>
      </trkpt>
      <trkpt lat="45.23153" lon="6.69482">
        <ele>2251.7131</ele>
        <time>2015-08-27T10:50:27Z</time>
      </trkpt>
      <trkpt lat="45.23152" lon="6.69478">
        <ele>2247.14</ele>
        <time>2015-08-27T10:50:32Z</time>
      </trkpt>
      <trkpt lat="45.23154" lon="6.69469">
        <ele>2247.14</ele>
        <time>2015-08-27T10:50:42Z</time>
      </trkpt>
      <trkpt lat="45.23154" lon="6.69468">
        <ele>2247.14</ele>
        <time>2015-08-27T10:50:47Z</time>
      </trkpt>
      <trkpt lat="45.23152" lon="6.69459">
        <ele>2242.5745</ele>
        <time>2015-08-27T10:51:02Z</time>
      </trkpt>
      <trkpt lat="45.23152" lon="6.69454">
        <ele>2242.5745</ele>
        <time>2015-08-27T10:51:07Z</time>
      </trkpt>
      <trkpt lat="45.23153" lon="6.6945">
        <ele>2242.5745</ele>
        <time>2015-08-27T10:51:17Z</time>
      </trkpt>
      <trkpt lat="45.23152" lon="6.69445">
        <ele>2238.0532</ele>
        <time>2015-08-27T10:51:22Z</time>
      </trkpt>
      <trkpt lat="45.23151" lon="6.69435">
        <ele>2238.0532</ele>
        <time>2015-08-27T10:51:32Z</time>
      </trkpt>
      <trkpt lat="45.23151" lon="6.69429">
        <ele>2233.552</ele>
        <time>2015-08-27T10:51:37Z</time>
      </trkpt>
      <trkpt lat="45.2315" lon="6.69417">
        <ele>2233.552</ele>
        <time>2015-08-27T10:51:47Z</time>
      </trkpt>
      <trkpt lat="45.23151" lon="6.69406">
        <ele>2229.2217</ele>
        <time>2015-08-27T10:51:52Z</time>
      </trkpt>
      <trkpt lat="45.23151" lon="6.69394">
        <ele>2229.2217</ele>
        <time>2015-08-27T10:52:02Z</time>
      </trkpt>
      <trkpt lat="45.23152" lon="6.69388">
        <ele>2225.0852</ele>
        <time>2015-08-27T10:52:07Z</time>
      </trkpt>
      <trkpt lat="45.23151" lon="6.69379">
        <ele>2225.0852</ele>
        <time>2015-08-27T10:52:17Z</time>
      </trkpt>
      <trkpt lat="45.2315" lon="6.69377">
        <ele>2225.0852</ele>
        <time>2015-08-27T10:52:22Z</time>
      </trkpt>
      <trkpt lat="45.23141" lon="6.69375">
        <ele>2220.6301</ele>
        <time>2015-08-27T10:52:32Z</time>
      </trkpt>
      <trkpt lat="45.23139" lon="6.69375">
        <ele>2220.6301</ele>
        <time>2015-08-27T10:52:37Z</time>
      </trkpt>
      <trkpt lat="45.23132" lon="6.69381">
        <ele>2216.2476</ele>
        <time>2015-08-27T10:52:47Z</time>
      </trkpt>
      <trkpt lat="45.23128" lon="6.69386">
        <ele>2216.2476</ele>
        <time>2015-08-27T10:52:52Z</time>
      </trkpt>
      <trkpt lat="45.23126" lon="6.69382">
        <ele>2216.2476</ele>
        <time>2015-08-27T10:53:02Z</time>
      </trkpt>
      <trkpt lat="45.23126" lon="6.69376">
        <ele>2211.8083</ele>
        <time>2015-08-27T10:53:07Z</time>
      </trkpt>
      <trkpt lat="45.23127" lon="6.69366">
        <ele>2211.8083</ele>
        <time>2015-08-27T10:53:17Z</time>
      </trkpt>
      <trkpt lat="45.23127" lon="6.69363">
        <ele>2211.8083</ele>
        <time>2015-08-27T10:53:22Z</time>
      </trkpt>
      <trkpt lat="45.23125" lon="6.69364">
        <ele>2207.2368</ele>
        <time>2015-08-27T10:53:32Z</time>
      </trkpt>
      <trkpt lat="45.23126" lon="6.6936">
        <ele>2207.2368</ele>
        <time>2015-08-27T10:53:37Z</time>
      </trkpt>
      <trkpt lat="45.23124" lon="6.6936">
        <ele>2207.2368</ele>
        <time>2015-08-27T10:53:52Z</time>
      </trkpt>
      <trkpt lat="45.23122" lon="6.69361">
        <ele>2207.2368</ele>
        <time>2015-08-27T10:53:57Z</time>
      </trkpt>
      <trkpt lat="45.2312" lon="6.69361">
        <ele>2207.2368</ele>
        <time>2015-08-27T10:54:07Z</time>
      </trkpt>
      <trkpt lat="45.2312" lon="6.69361">
        <ele>2201.9873</ele>
        <time>2015-08-27T10:54:12Z</time>
      </trkpt>
      <trkpt lat="45.23119" lon="6.69353">
        <ele>2201.9873</ele>
        <time>2015-08-27T10:54:22Z</time>
      </trkpt>
      <trkpt lat="45.2312" lon="6.6935">
        <ele>2201.9873</ele>
        <time>2015-08-27T10:54:27Z</time>
      </trkpt>
      <trkpt lat="45.2312" lon="6.69342">
        <ele>2196.8093</ele>
        <time>2015-08-27T10:54:37Z</time>
      </trkpt>
      <trkpt lat="45.23119" lon="6.69341">
        <ele>2196.8093</ele>
        <time>2015-08-27T10:54:42Z</time>
      </trkpt>
      <trkpt lat="45.23112" lon="6.69345">
        <ele>2191.6191</ele>
        <time>2015-08-27T10:54:52Z</time>
      </trkpt>
      <trkpt lat="45.23111" lon="6.69345">
        <ele>2191.6191</ele>
        <time>2015-08-27T10:54:57Z</time>
      </trkpt>
      <trkpt lat="45.2311" lon="6.69344">
        <ele>2191.6191</ele>
        <time>2015-08-27T10:55:07Z</time>
      </trkpt>
      <trkpt lat="45.23111" lon="6.69344">
        <ele>2191.6191</ele>
        <time>2015-08-27T10:56:32Z</time>
      </trkpt>
      <trkpt lat="45.23111" lon="6.69344">
        <ele>2191.6191</ele>
        <time>2015-08-27T10:56:42Z</time>
      </trkpt>
      <trkpt lat="45.23111" lon="6.69343">
        <ele>2191.6191</ele>
        <time>2015-08-27T10:56:57Z</time>
      </trkpt>
      <trkpt lat="45.23112" lon="6.69342">
        <ele>2191.6191</ele>
        <time>2015-08-27T10:57:17Z</time>
      </trkpt>
      <trkpt lat="45.23113" lon="6.69336">
        <ele>2191.6191</ele>
        <time>2015-08-27T10:57:27Z</time>
      </trkpt>
      <trkpt lat="45.23112" lon="6.69336">
        <ele>2185.2285</ele>
        <time>2015-08-27T10:57:32Z</time>
      </trkpt>
      <trkpt lat="45.23112" lon="6.69336">
        <ele>2185.2285</ele>
        <time>2015-08-27T10:57:47Z</time>
      </trkpt>
      <trkpt lat="45.23111" lon="6.69335">
        <ele>2185.2285</ele>
        <time>2015-08-27T10:58:32Z</time>
      </trkpt>
      <trkpt lat="45.2311" lon="6.69336">
        <ele>2185.2285</ele>
        <time>2015-08-27T10:58:37Z</time>
      </trkpt>
      <trkpt lat="45.2311" lon="6.69336">
        <ele>2185.2285</ele>
        <time>2015-08-27T10:58:47Z</time>
      </trkpt>
      <trkpt lat="45.23107" lon="6.69337">
        <ele>2185.2285</ele>
        <time>2015-08-27T10:58:52Z</time>
      </trkpt>
      <trkpt lat="45.23103" lon="6.69338">
        <ele>2178.9617</ele>
        <time>2015-08-27T10:59:02Z</time>
      </trkpt>
      <trkpt lat="45.23103" lon="6.69338">
        <ele>2178.9617</ele>
        <time>2015-08-27T10:59:07Z</time>
      </trkpt>
      <trkpt lat="45.231" lon="6.69329">
        <ele>2178.9617</ele>
        <time>2015-08-27T10:59:17Z</time>
      </trkpt>
      <trkpt lat="45.23094" lon="6.6932">
        <ele>2173.3381</ele>
        <time>2015-08-27T10:59:22Z</time>
      </trkpt>
      <trkpt lat="45.23084" lon="6.69305">
        <ele>2168.0735</ele>
        <time>2015-08-27T10:59:37Z</time>
      </trkpt>
      <trkpt lat="45.23084" lon="6.69305">
        <ele>2168.0735</ele>
        <time>2015-08-27T10:59:42Z</time>
      </trkpt>
      <trkpt lat="45.23083" lon="6.69306">
        <ele>2168.0735</ele>
        <time>2015-08-27T10:59:52Z</time>
      </trkpt>
      <trkpt lat="45.23082" lon="6.69308">
        <ele>2168.0735</ele>
        <time>2015-08-27T10:59:57Z</time>
      </trkpt>
      <trkpt lat="45.23075" lon="6.69312">
        <ele>2162.586</ele>
        <time>2015-08-27T11:00:07Z</time>
      </trkpt>
      <trkpt lat="45.23067" lon="6.69315">
        <ele>2157.5474</ele>
        <time>2015-08-27T11:00:12Z</time>
      </trkpt>
      <trkpt lat="45.23062" lon="6.69317">
        <ele>2157.5474</ele>
        <time>2015-08-27T11:00:22Z</time>
      </trkpt>
      <trkpt lat="45.23062" lon="6.69317">
        <ele>2157.5474</ele>
        <time>2015-08-27T11:00:27Z</time>
      </trkpt>
      <trkpt lat="45.23059" lon="6.69328">
        <ele>2151.9934</ele>
        <time>2015-08-27T11:00:37Z</time>
      </trkpt>
      <trkpt lat="45.23059" lon="6.69331">
        <ele>2151.9934</ele>
        <time>2015-08-27T11:00:42Z</time>
      </trkpt>
      <trkpt lat="45.23051" lon="6.6935">
        <ele>2146.9055</ele>
        <time>2015-08-27T11:00:52Z</time>
      </trkpt>
      <trkpt lat="45.2305" lon="6.69353">
        <ele>2146.9055</ele>
        <time>2015-08-27T11:00:57Z</time>
      </trkpt>
      <trkpt lat="45.23049" lon="6.69355">
        <ele>2146.9055</ele>
        <time>2015-08-27T11:01:07Z</time>
      </trkpt>
      <trkpt lat="45.23046" lon="6.69359">
        <ele>2146.9055</ele>
        <time>2015-08-27T11:01:12Z</time>
      </trkpt>
      <trkpt lat="45.23044" lon="6.69373">
        <ele>2141.9658</ele>
        <time>2015-08-27T11:01:22Z</time>
      </trkpt>
      <trkpt lat="45.23044" lon="6.69377">
        <ele>2141.9658</ele>
        <time>2015-08-27T11:01:27Z</time>
      </trkpt>
      <trkpt lat="45.23039" lon="6.69381">
        <ele>2141.9658</ele>
        <time>2015-08-27T11:01:42Z</time>
      </trkpt>
      <trkpt lat="45.23037" lon="6.69383">
        <ele>2136.952</ele>
        <time>2015-08-27T11:01:47Z</time>
      </trkpt>
      <trkpt lat="45.23032" lon="6.69391">
        <ele>2136.952</ele>
        <time>2015-08-27T11:01:57Z</time>
      </trkpt>
      <trkpt lat="45.23031" lon="6.69391">
        <ele>2136.952</ele>
        <time>2015-08-27T11:02:02Z</time>
      </trkpt>
      <trkpt lat="45.2303" lon="6.69393">
        <ele>2131.8445</ele>
        <time>2015-08-27T11:02:12Z</time>
      </trkpt>
      <trkpt lat="45.23018" lon="6.69416">
        <ele>2126.8276</ele>
        <time>2015-08-27T11:02:27Z</time>
      </trkpt>
      <trkpt lat="45.23011" lon="6.69423">
        <ele>2122.331</ele>
        <time>2015-08-27T11:02:32Z</time>
      </trkpt>
      <trkpt lat="45.22998" lon="6.69427">
        <ele>2118.1597</ele>
        <time>2015-08-27T11:02:42Z</time>
      </trkpt>
      <trkpt lat="45.22997" lon="6.69423">
        <ele>2118.1597</ele>
        <time>2015-08-27T11:02:47Z</time>
      </trkpt>
      <trkpt lat="45.22994" lon="6.69418">
        <ele>2118.1597</ele>
        <time>2015-08-27T11:02:57Z</time>
      </trkpt>
      <trkpt lat="45.2299" lon="6.69421">
        <ele>2114.1614</ele>
        <time>2015-08-27T11:03:02Z</time>
      </trkpt>
      <trkpt lat="45.22976" lon="6.69434">
        <ele>2110.4385</ele>
        <time>2015-08-27T11:03:12Z</time>
      </trkpt>
      <trkpt lat="45.22972" lon="6.69436">
        <ele>2110.4385</ele>
        <time>2015-08-27T11:03:17Z</time>
      </trkpt>
      <trkpt lat="45.22966" lon="6.6944">
        <ele>2106.826</ele>
        <time>2015-08-27T11:03:27Z</time>
      </trkpt>
      <trkpt lat="45.22962" lon="6.6944">
        <ele>2106.826</ele>
        <time>2015-08-27T11:03:32Z</time>
      </trkpt>
      <trkpt lat="45.22958" lon="6.69439">
        <ele>2106.826</ele>
        <time>2015-08-27T11:03:42Z</time>
      </trkpt>
      <trkpt lat="45.22957" lon="6.69432">
        <ele>2102.9978</ele>
        <time>2015-08-27T11:03:47Z</time>
      </trkpt>
      <trkpt lat="45.22953" lon="6.69422">
        <ele>2102.9978</ele>
        <time>2015-08-27T11:04:02Z</time>
      </trkpt>
      <trkpt lat="45.2295" lon="6.69412">
        <ele>2098.9255</ele>
        <time>2015-08-27T11:04:07Z</time>
      </trkpt>
      <trkpt lat="45.22949" lon="6.69411">
        <ele>2098.9255</ele>
        <time>2015-08-27T11:04:17Z</time>
      </trkpt>
      <trkpt lat="45.2295" lon="6.69411">
        <ele>2098.9255</ele>
        <time>2015-08-27T11:04:52Z</time>
      </trkpt>
      <trkpt lat="45.22951" lon="6.69406">
        <ele>2098.9255</ele>
        <time>2015-08-27T11:05:32Z</time>
      </trkpt>
      <trkpt lat="45.22951" lon="6.69405">
        <ele>2098.9255</ele>
        <time>2015-08-27T11:05:37Z</time>
      </trkpt>
      <trkpt lat="45.22951" lon="6.69385">
        <ele>2094.915</ele>
        <time>2015-08-27T11:05:52Z</time>
      </trkpt>
      <trkpt lat="45.22949" lon="6.69379">
        <ele>2094.915</ele>
        <time>2015-08-27T11:05:57Z</time>
      </trkpt>
      <trkpt lat="45.22948" lon="6.69376">
        <ele>2094.915</ele>
        <time>2015-08-27T11:06:07Z</time>
      </trkpt>
      <trkpt lat="45.22947" lon="6.69374">
        <ele>2094.915</ele>
        <time>2015-08-27T11:06:12Z</time>
      </trkpt>
      <trkpt lat="45.22943" lon="6.69357">
        <ele>2090.587</ele>
        <time>2015-08-27T11:06:22Z</time>
      </trkpt>
      <trkpt lat="45.22939" lon="6.69347">
        <ele>2090.587</ele>
        <time>2015-08-27T11:06:27Z</time>
      </trkpt>
      <trkpt lat="45.22935" lon="6.69332">
        <ele>2086.4685</ele>
        <time>2015-08-27T11:06:37Z</time>
      </trkpt>
      <trkpt lat="45.22933" lon="6.6933">
        <ele>2086.4685</ele>
        <time>2015-08-27T11:06:42Z</time>
      </trkpt>
      <trkpt lat="45.22926" lon="6.69323">
        <ele>2082.4292</ele>
        <time>2015-08-27T11:06:52Z</time>
      </trkpt>
      <trkpt lat="45.22924" lon="6.69319">
        <ele>2082.4292</ele>
        <time>2015-08-27T11:06:57Z</time>
      </trkpt>
      <trkpt lat="45.22917" lon="6.69303">
        <ele>2078.3323</ele>
        <time>2015-08-27T11:07:07Z</time>
      </trkpt>
      <trkpt lat="45.2291" lon="6.69293">
        <ele>2074.8586</ele>
        <time>2015-08-27T11:07:12Z</time>
      </trkpt>
      <trkpt lat="45.22906" lon="6.69288">
        <ele>2074.8586</ele>
        <time>2015-08-27T11:07:22Z</time>
      </trkpt>
      <trkpt lat="45.22905" lon="6.69286">
        <ele>2074.8586</ele>
        <time>2015-08-27T11:07:27Z</time>
      </trkpt>
      <trkpt lat="45.22896" lon="6.69274">
        <ele>2071.5564</ele>
        <time>2015-08-27T11:07:37Z</time>
      </trkpt>
      <trkpt lat="45.22895" lon="6.69272">
        <ele>2071.5564</ele>
        <time>2015-08-27T11:07:42Z</time>
      </trkpt>
      <trkpt lat="45.22888" lon="6.69268">
        <ele>2068.064</ele>
        <time>2015-08-27T11:07:52Z</time>
      </trkpt>
      <trkpt lat="45.22888" lon="6.69262">
        <ele>2068.064</ele>
        <time>2015-08-27T11:07:57Z</time>
      </trkpt>
      <trkpt lat="45.22881" lon="6.69248">
        <ele>2064.8105</ele>
        <time>2015-08-27T11:08:07Z</time>
      </trkpt>
      <trkpt lat="45.22881" lon="6.69244">
        <ele>2064.8105</ele>
        <time>2015-08-27T11:08:12Z</time>
      </trkpt>
      <trkpt lat="45.22879" lon="6.69242">
        <ele>2064.8105</ele>
        <time>2015-08-27T11:08:22Z</time>
      </trkpt>
      <trkpt lat="45.22879" lon="6.6924">
        <ele>2064.8105</ele>
        <time>2015-08-27T11:08:27Z</time>
      </trkpt>
      <trkpt lat="45.22872" lon="6.69233">
        <ele>2061.487</ele>
        <time>2015-08-27T11:08:42Z</time>
      </trkpt>
      <trkpt lat="45.2287" lon="6.69231">
        <ele>2061.487</ele>
        <time>2015-08-27T11:08:47Z</time>
      </trkpt>
      <trkpt lat="45.22868" lon="6.69228">
        <ele>2061.487</ele>
        <time>2015-08-27T11:08:57Z</time>
      </trkpt>
      <trkpt lat="45.22866" lon="6.69225">
        <ele>2061.487</ele>
        <time>2015-08-27T11:09:02Z</time>
      </trkpt>
      <trkpt lat="45.22864" lon="6.69219">
        <ele>2058.1099</ele>
        <time>2015-08-27T11:09:12Z</time>
      </trkpt>
      <trkpt lat="45.22859" lon="6.6921">
        <ele>2058.1099</ele>
        <time>2015-08-27T11:09:17Z</time>
      </trkpt>
      <trkpt lat="45.22855" lon="6.69192">
        <ele>2054.9536</ele>
        <time>2015-08-27T11:09:27Z</time>
      </trkpt>
      <trkpt lat="45.22853" lon="6.69185">
        <ele>2054.9536</ele>
        <time>2015-08-27T11:09:32Z</time>
      </trkpt>
      <trkpt lat="45.22846" lon="6.69169">
        <ele>2052.056</ele>
        <time>2015-08-27T11:09:42Z</time>
      </trkpt>
      <trkpt lat="45.22842" lon="6.69163">
        <ele>2052.056</ele>
        <time>2015-08-27T11:09:47Z</time>
      </trkpt>
      <trkpt lat="45.22839" lon="6.6916">
        <ele>2049.264</ele>
        <time>2015-08-27T11:09:57Z</time>
      </trkpt>
      <trkpt lat="45.22838" lon="6.69159">
        <ele>2049.264</ele>
        <time>2015-08-27T11:10:02Z</time>
      </trkpt>
      <trkpt lat="45.22836" lon="6.69156">
        <ele>2049.264</ele>
        <time>2015-08-27T11:10:12Z</time>
      </trkpt>
      <trkpt lat="45.22831" lon="6.69146">
        <ele>2046.882</ele>
        <time>2015-08-27T11:10:17Z</time>
      </trkpt>
      <trkpt lat="45.22824" lon="6.69134">
        <ele>2044.8308</ele>
        <time>2015-08-27T11:10:27Z</time>
      </trkpt>
      <trkpt lat="45.22824" lon="6.69132">
        <ele>2044.8308</ele>
        <time>2015-08-27T11:10:32Z</time>
      </trkpt>
      <trkpt lat="45.22819" lon="6.69119">
        <ele>2042.9357</ele>
        <time>2015-08-27T11:10:47Z</time>
      </trkpt>
      <trkpt lat="45.22812" lon="6.69097">
        <ele>2041.4082</ele>
        <time>2015-08-27T11:10:52Z</time>
      </trkpt>
      <trkpt lat="45.22801" lon="6.69093">
        <ele>2039.839</ele>
        <time>2015-08-27T11:11:02Z</time>
      </trkpt>
      <trkpt lat="45.228" lon="6.6909">
        <ele>2039.839</ele>
        <time>2015-08-27T11:11:07Z</time>
      </trkpt>
      <trkpt lat="45.22798" lon="6.69084">
        <ele>2039.839</ele>
        <time>2015-08-27T11:11:17Z</time>
      </trkpt>
      <trkpt lat="45.22796" lon="6.69086">
        <ele>2037.7333</ele>
        <time>2015-08-27T11:11:22Z</time>
      </trkpt>
      <trkpt lat="45.22795" lon="6.69083">
        <ele>2037.7333</ele>
        <time>2015-08-27T11:11:32Z</time>
      </trkpt>
      <trkpt lat="45.22792" lon="6.69078">
        <ele>2037.7333</ele>
        <time>2015-08-27T11:11:37Z</time>
      </trkpt>
      <trkpt lat="45.22786" lon="6.6907">
        <ele>2034.7494</ele>
        <time>2015-08-27T11:11:47Z</time>
      </trkpt>
      <trkpt lat="45.22783" lon="6.69069">
        <ele>2034.7494</ele>
        <time>2015-08-27T11:11:52Z</time>
      </trkpt>
      <trkpt lat="45.22775" lon="6.69066">
        <ele>2031.5392</ele>
        <time>2015-08-27T11:12:02Z</time>
      </trkpt>
      <trkpt lat="45.22772" lon="6.69065">
        <ele>2031.5392</ele>
        <time>2015-08-27T11:12:07Z</time>
      </trkpt>
      <trkpt lat="45.22767" lon="6.69063">
        <ele>2031.5392</ele>
        <time>2015-08-27T11:12:17Z</time>
      </trkpt>
      <trkpt lat="45.2276" lon="6.69061">
        <ele>2028.376</ele>
        <time>2015-08-27T11:12:22Z</time>
      </trkpt>
      <trkpt lat="45.22736" lon="6.69051">
        <ele>2025.4982</ele>
        <time>2015-08-27T11:12:32Z</time>
      </trkpt>
      <trkpt lat="45.22731" lon="6.6905">
        <ele>2025.4982</ele>
        <time>2015-08-27T11:12:37Z</time>
      </trkpt>
      <trkpt lat="45.22724" lon="6.6904">
        <ele>2022.8383</ele>
        <time>2015-08-27T11:12:47Z</time>
      </trkpt>
      <trkpt lat="45.22718" lon="6.69037">
        <ele>2022.8383</ele>
        <time>2015-08-27T11:12:52Z</time>
      </trkpt>
      <trkpt lat="45.22711" lon="6.69034">
        <ele>2020.3904</ele>
        <time>2015-08-27T11:13:02Z</time>
      </trkpt>
      <trkpt lat="45.22707" lon="6.69027">
        <ele>2020.3904</ele>
        <time>2015-08-27T11:13:07Z</time>
      </trkpt>
      <trkpt lat="45.22707" lon="6.69016">
        <ele>2018.1204</ele>
        <time>2015-08-27T11:13:17Z</time>
      </trkpt>
      <trkpt lat="45.22707" lon="6.69012">
        <ele>2018.1204</ele>
        <time>2015-08-27T11:13:22Z</time>
      </trkpt>
      <trkpt lat="45.22702" lon="6.69002">
        <ele>2015.7362</ele>
        <time>2015-08-27T11:13:37Z</time>
      </trkpt>
      <trkpt lat="45.22699" lon="6.68998">
        <ele>2015.7362</ele>
        <time>2015-08-27T11:13:42Z</time>
      </trkpt>
      <trkpt lat="45.22696" lon="6.68996">
        <ele>2015.7362</ele>
        <time>2015-08-27T11:13:52Z</time>
      </trkpt>
      <trkpt lat="45.22696" lon="6.68996">
        <ele>2015.7362</ele>
        <time>2015-08-27T11:13:57Z</time>
      </trkpt>
      <trkpt lat="45.22693" lon="6.68993">
        <ele>2013.242</ele>
        <time>2015-08-27T11:14:57Z</time>
      </trkpt>
      <trkpt lat="45.22686" lon="6.6899">
        <ele>2013.242</ele>
        <time>2015-08-27T11:15:07Z</time>
      </trkpt>
      <trkpt lat="45.22685" lon="6.68988">
        <ele>2010.4689</ele>
        <time>2015-08-27T11:15:12Z</time>
      </trkpt>
      <trkpt lat="45.22682" lon="6.68982">
        <ele>2010.4689</ele>
        <time>2015-08-27T11:15:22Z</time>
      </trkpt>
      <trkpt lat="45.2268" lon="6.68972">
        <ele>2007.7515</ele>
        <time>2015-08-27T11:15:27Z</time>
      </trkpt>
      <trkpt lat="45.22677" lon="6.68949">
        <ele>2005.4572</ele>
        <time>2015-08-27T11:15:42Z</time>
      </trkpt>
      <trkpt lat="45.22677" lon="6.68948">
        <ele>2005.4572</ele>
        <time>2015-08-27T11:15:47Z</time>
      </trkpt>
      <trkpt lat="45.2268" lon="6.68933">
        <ele>2003.2194</ele>
        <time>2015-08-27T11:15:57Z</time>
      </trkpt>
      <trkpt lat="45.2268" lon="6.68932">
        <ele>2003.2194</ele>
        <time>2015-08-27T11:16:02Z</time>
      </trkpt>
      <trkpt lat="45.22672" lon="6.68916">
        <ele>2001.0731</ele>
        <time>2015-08-27T11:16:12Z</time>
      </trkpt>
      <trkpt lat="45.22672" lon="6.68915">
        <ele>2001.0731</ele>
        <time>2015-08-27T11:16:17Z</time>
      </trkpt>
      <trkpt lat="45.22671" lon="6.68896">
        <ele>1998.9786</ele>
        <time>2015-08-27T11:16:27Z</time>
      </trkpt>
      <trkpt lat="45.22668" lon="6.68888">
        <ele>1998.9786</ele>
        <time>2015-08-27T11:16:32Z</time>
      </trkpt>
      <trkpt lat="45.22664" lon="6.68872">
        <ele>1997.288</ele>
        <time>2015-08-27T11:16:42Z</time>
      </trkpt>
      <trkpt lat="45.22663" lon="6.68872">
        <ele>1997.288</ele>
        <time>2015-08-27T11:16:47Z</time>
      </trkpt>
      <trkpt lat="45.22659" lon="6.68862">
        <ele>1997.288</ele>
        <time>2015-08-27T11:16:57Z</time>
      </trkpt>
      <trkpt lat="45.22654" lon="6.68857">
        <ele>1995.88</ele>
        <time>2015-08-27T11:17:02Z</time>
      </trkpt>
      <trkpt lat="45.22647" lon="6.68857">
        <ele>1995.88</ele>
        <time>2015-08-27T11:17:12Z</time>
      </trkpt>
      <trkpt lat="45.22643" lon="6.68853">
        <ele>1994.2668</ele>
        <time>2015-08-27T11:17:17Z</time>
      </trkpt>
      <trkpt lat="45.22642" lon="6.68848">
        <ele>1994.2668</ele>
        <time>2015-08-27T11:17:27Z</time>
      </trkpt>
      <trkpt lat="45.22638" lon="6.68839">
        <ele>1992.6602</ele>
        <time>2015-08-27T11:17:32Z</time>
      </trkpt>
      <trkpt lat="45.2263" lon="6.68832">
        <ele>1991.2852</ele>
        <time>2015-08-27T11:17:47Z</time>
      </trkpt>
      <trkpt lat="45.2263" lon="6.68832">
        <ele>1991.2852</ele>
        <time>2015-08-27T11:17:52Z</time>
      </trkpt>
      <trkpt lat="45.22627" lon="6.68821">
        <ele>1991.2852</ele>
        <time>2015-08-27T11:18:17Z</time>
      </trkpt>
      <trkpt lat="45.22623" lon="6.6881">
        <ele>1989.7301</ele>
        <time>2015-08-27T11:18:22Z</time>
      </trkpt>
      <trkpt lat="45.22621" lon="6.68807">
        <ele>1989.7301</ele>
        <time>2015-08-27T11:18:32Z</time>
      </trkpt>
      <trkpt lat="45.2262" lon="6.68804">
        <ele>1989.7301</ele>
        <time>2015-08-27T11:18:37Z</time>
      </trkpt>
      <trkpt lat="45.22615" lon="6.68798">
        <ele>1987.5424</ele>
        <time>2015-08-27T11:18:47Z</time>
      </trkpt>
      <trkpt lat="45.22613" lon="6.6879">
        <ele>1987.5424</ele>
        <time>2015-08-27T11:18:52Z</time>
      </trkpt>
      <trkpt lat="45.2261" lon="6.68786">
        <ele>1985.4285</ele>
        <time>2015-08-27T11:19:02Z</time>
      </trkpt>
      <trkpt lat="45.22608" lon="6.68784">
        <ele>1985.4285</ele>
        <time>2015-08-27T11:19:07Z</time>
      </trkpt>
      <trkpt lat="45.22602" lon="6.68777">
        <ele>1983.4232</ele>
        <time>2015-08-27T11:19:17Z</time>
      </trkpt>
      <trkpt lat="45.22596" lon="6.68766">
        <ele>1981.631</ele>
        <time>2015-08-27T11:19:22Z</time>
      </trkpt>
      <trkpt lat="45.22591" lon="6.68754">
        <ele>1979.8452</ele>
        <time>2015-08-27T11:19:32Z</time>
      </trkpt>
      <trkpt lat="45.2259" lon="6.68753">
        <ele>1979.8452</ele>
        <time>2015-08-27T11:19:37Z</time>
      </trkpt>
      <trkpt lat="45.22587" lon="6.68745">
        <ele>1979.8452</ele>
        <time>2015-08-27T11:19:47Z</time>
      </trkpt>
      <trkpt lat="45.2258" lon="6.68733">
        <ele>1977.5288</ele>
        <time>2015-08-27T11:19:52Z</time>
      </trkpt>
      <trkpt lat="45.2257" lon="6.68708">
        <ele>1975.2379</ele>
        <time>2015-08-27T11:20:07Z</time>
      </trkpt>
      <trkpt lat="45.22565" lon="6.68697">
        <ele>1973.1708</ele>
        <time>2015-08-27T11:20:12Z</time>
      </trkpt>
      <trkpt lat="45.22557" lon="6.68687">
        <ele>1971.4097</ele>
        <time>2015-08-27T11:20:22Z</time>
      </trkpt>
      <trkpt lat="45.22555" lon="6.68679">
        <ele>1971.4097</ele>
        <time>2015-08-27T11:20:27Z</time>
      </trkpt>
      <trkpt lat="45.2255" lon="6.6867">
        <ele>1969.5403</ele>
        <time>2015-08-27T11:20:37Z</time>
      </trkpt>
      <trkpt lat="45.22546" lon="6.68666">
        <ele>1969.5403</ele>
        <time>2015-08-27T11:20:42Z</time>
      </trkpt>
      <trkpt lat="45.22539" lon="6.68654">
        <ele>1967.5104</ele>
        <time>2015-08-27T11:20:52Z</time>
      </trkpt>
      <trkpt lat="45.22536" lon="6.6865">
        <ele>1967.5104</ele>
        <time>2015-08-27T11:20:57Z</time>
      </trkpt>
      <trkpt lat="45.22529" lon="6.68641">
        <ele>1965.5894</ele>
        <time>2015-08-27T11:21:07Z</time>
      </trkpt>
      <trkpt lat="45.22527" lon="6.68637">
        <ele>1965.5894</ele>
        <time>2015-08-27T11:21:12Z</time>
      </trkpt>
      <trkpt lat="45.22522" lon="6.68625">
        <ele>1963.5223</ele>
        <time>2015-08-27T11:21:22Z</time>
      </trkpt>
      <trkpt lat="45.2252" lon="6.68618">
        <ele>1963.5223</ele>
        <time>2015-08-27T11:21:27Z</time>
      </trkpt>
      <trkpt lat="45.22511" lon="6.68602">
        <ele>1961.3761</ele>
        <time>2015-08-27T11:21:37Z</time>
      </trkpt>
      <trkpt lat="45.22509" lon="6.686">
        <ele>1961.3761</ele>
        <time>2015-08-27T11:21:42Z</time>
      </trkpt>
      <trkpt lat="45.22501" lon="6.68584">
        <ele>1959.0256</ele>
        <time>2015-08-27T11:21:52Z</time>
      </trkpt>
      <trkpt lat="45.22501" lon="6.68583">
        <ele>1959.0256</ele>
        <time>2015-08-27T11:21:57Z</time>
      </trkpt>
      <trkpt lat="45.22495" lon="6.68574">
        <ele>1956.4712</ele>
        <time>2015-08-27T11:22:12Z</time>
      </trkpt>
      <trkpt lat="45.22493" lon="6.68572">
        <ele>1956.4712</ele>
        <time>2015-08-27T11:22:17Z</time>
      </trkpt>
      <trkpt lat="45.22493" lon="6.68572">
        <ele>1956.4712</ele>
        <time>2015-08-27T11:22:27Z</time>
      </trkpt>
      <trkpt lat="45.22493" lon="6.68572">
        <ele>1956.4712</ele>
        <time>2015-08-27T11:22:32Z</time>
      </trkpt>
      <trkpt lat="45.22487" lon="6.68561">
        <ele>1953.4397</ele>
        <time>2015-08-27T11:23:42Z</time>
      </trkpt>
      <trkpt lat="45.22485" lon="6.6856">
        <ele>1953.4397</ele>
        <time>2015-08-27T11:23:47Z</time>
      </trkpt>
      <trkpt lat="45.22479" lon="6.68553">
        <ele>1950.1119</ele>
        <time>2015-08-27T11:23:57Z</time>
      </trkpt>
      <trkpt lat="45.22475" lon="6.68548">
        <ele>1950.1119</ele>
        <time>2015-08-27T11:24:02Z</time>
      </trkpt>
      <trkpt lat="45.22464" lon="6.68525">
        <ele>1945.9503</ele>
        <time>2015-08-27T11:24:17Z</time>
      </trkpt>
      <trkpt lat="45.22461" lon="6.68521">
        <ele>1945.9503</ele>
        <time>2015-08-27T11:24:22Z</time>
      </trkpt>
      <trkpt lat="45.22455" lon="6.6851">
        <ele>1941.7848</ele>
        <time>2015-08-27T11:24:32Z</time>
      </trkpt>
      <trkpt lat="45.22453" lon="6.68506">
        <ele>1941.7848</ele>
        <time>2015-08-27T11:24:37Z</time>
      </trkpt>
      <trkpt lat="45.2245" lon="6.68501">
        <ele>1941.7848</ele>
        <time>2015-08-27T11:24:47Z</time>
      </trkpt>
      <trkpt lat="45.22445" lon="6.68496">
        <ele>1937.3901</ele>
        <time>2015-08-27T11:24:52Z</time>
      </trkpt>
      <trkpt lat="45.22442" lon="6.68492">
        <ele>1937.3901</ele>
        <time>2015-08-27T11:25:02Z</time>
      </trkpt>
      <trkpt lat="45.22439" lon="6.68483">
        <ele>1933.0627</ele>
        <time>2015-08-27T11:25:07Z</time>
      </trkpt>
      <trkpt lat="45.22435" lon="6.68472">
        <ele>1928.933</ele>
        <time>2015-08-27T11:25:17Z</time>
      </trkpt>
      <trkpt lat="45.22436" lon="6.6847">
        <ele>1928.933</ele>
        <time>2015-08-27T11:25:22Z</time>
      </trkpt>
      <trkpt lat="45.22436" lon="6.68458">
        <ele>1924.7893</ele>
        <time>2015-08-27T11:25:32Z</time>
      </trkpt>
      <trkpt lat="45.22435" lon="6.68444">
        <ele>1921.0271</ele>
        <time>2015-08-27T11:25:37Z</time>
      </trkpt>
      <trkpt lat="45.22433" lon="6.68436">
        <ele>1921.0271</ele>
        <time>2015-08-27T11:25:47Z</time>
      </trkpt>
      <trkpt lat="45.22429" lon="6.68429">
        <ele>1917.4492</ele>
        <time>2015-08-27T11:25:52Z</time>
      </trkpt>
      <trkpt lat="45.22426" lon="6.68413">
        <ele>1914.132</ele>
        <time>2015-08-27T11:26:02Z</time>
      </trkpt>
      <trkpt lat="45.22425" lon="6.68412">
        <ele>1914.132</ele>
        <time>2015-08-27T11:26:07Z</time>
      </trkpt>
      <trkpt lat="45.22423" lon="6.68374">
        <ele>1911.0443</ele>
        <time>2015-08-27T11:26:17Z</time>
      </trkpt>
      <trkpt lat="45.22422" lon="6.68373">
        <ele>1911.0443</ele>
        <time>2015-08-27T11:26:22Z</time>
      </trkpt>
      <trkpt lat="45.22414" lon="6.68356">
        <ele>1908.1136</ele>
        <time>2015-08-27T11:26:32Z</time>
      </trkpt>
      <trkpt lat="45.22414" lon="6.6835">
        <ele>1908.1136</ele>
        <time>2015-08-27T11:26:37Z</time>
      </trkpt>
      <trkpt lat="45.2241" lon="6.68344">
        <ele>1905.3009</ele>
        <time>2015-08-27T11:26:47Z</time>
      </trkpt>
      <trkpt lat="45.2241" lon="6.68343">
        <ele>1905.3009</ele>
        <time>2015-08-27T11:26:52Z</time>
      </trkpt>
      <trkpt lat="45.22409" lon="6.68328">
        <ele>1902.4688</ele>
        <time>2015-08-27T11:27:02Z</time>
      </trkpt>
      <trkpt lat="45.22408" lon="6.6832">
        <ele>1902.4688</ele>
        <time>2015-08-27T11:27:07Z</time>
      </trkpt>
      <trkpt lat="45.224" lon="6.68298">
        <ele>1899.5908</ele>
        <time>2015-08-27T11:27:22Z</time>
      </trkpt>
      <trkpt lat="45.22397" lon="6.6829">
        <ele>1899.5908</ele>
        <time>2015-08-27T11:27:27Z</time>
      </trkpt>
      <trkpt lat="45.22395" lon="6.68285">
        <ele>1896.6283</ele>
        <time>2015-08-27T11:27:37Z</time>
      </trkpt>
      <trkpt lat="45.22391" lon="6.6827">
        <ele>1893.92</ele>
        <time>2015-08-27T11:27:42Z</time>
      </trkpt>
      <trkpt lat="45.22387" lon="6.68251">
        <ele>1891.275</ele>
        <time>2015-08-27T11:27:52Z</time>
      </trkpt>
      <trkpt lat="45.22383" lon="6.68238">
        <ele>1888.8041</ele>
        <time>2015-08-27T11:27:57Z</time>
      </trkpt>
      <trkpt lat="45.2238" lon="6.68222">
        <ele>1886.3068</ele>
        <time>2015-08-27T11:28:07Z</time>
      </trkpt>
      <trkpt lat="45.22378" lon="6.68214">
        <ele>1886.3068</ele>
        <time>2015-08-27T11:28:12Z</time>
      </trkpt>
      <trkpt lat="45.22382" lon="6.68201">
        <ele>1883.8136</ele>
        <time>2015-08-27T11:28:22Z</time>
      </trkpt>
      <trkpt lat="45.22382" lon="6.68195">
        <ele>1883.8136</ele>
        <time>2015-08-27T11:28:27Z</time>
      </trkpt>
      <trkpt lat="45.22379" lon="6.68178">
        <ele>1881.2664</ele>
        <time>2015-08-27T11:28:42Z</time>
      </trkpt>
      <trkpt lat="45.2238" lon="6.68173">
        <ele>1881.2664</ele>
        <time>2015-08-27T11:28:47Z</time>
      </trkpt>
      <trkpt lat="45.22377" lon="6.68166">
        <ele>1878.4672</ele>
        <time>2015-08-27T11:28:57Z</time>
      </trkpt>
      <trkpt lat="45.22375" lon="6.6816">
        <ele>1878.4672</ele>
        <time>2015-08-27T11:29:02Z</time>
      </trkpt>
      <trkpt lat="45.22371" lon="6.68149">
        <ele>1875.6366</ele>
        <time>2015-08-27T11:29:12Z</time>
      </trkpt>
      <trkpt lat="45.22367" lon="6.68146">
        <ele>1875.6366</ele>
        <time>2015-08-27T11:29:17Z</time>
      </trkpt>
      <trkpt lat="45.22362" lon="6.68136">
        <ele>1873.0803</ele>
        <time>2015-08-27T11:29:27Z</time>
      </trkpt>
      <trkpt lat="45.22361" lon="6.68132">
        <ele>1873.0803</ele>
        <time>2015-08-27T11:29:32Z</time>
      </trkpt>
      <trkpt lat="45.22358" lon="6.68118">
        <ele>1870.7777</ele>
        <time>2015-08-27T11:29:42Z</time>
      </trkpt>
      <trkpt lat="45.22358" lon="6.68116">
        <ele>1870.7777</ele>
        <time>2015-08-27T11:29:47Z</time>
      </trkpt>
      <trkpt lat="45.22353" lon="6.68104">
        <ele>1868.5653</ele>
        <time>2015-08-27T11:29:57Z</time>
      </trkpt>
      <trkpt lat="45.2235" lon="6.68099">
        <ele>1868.5653</ele>
        <time>2015-08-27T11:30:02Z</time>
      </trkpt>
      <trkpt lat="45.22346" lon="6.68091">
        <ele>1866.536</ele>
        <time>2015-08-27T11:30:12Z</time>
      </trkpt>
      <trkpt lat="45.22346" lon="6.68089">
        <ele>1866.536</ele>
        <time>2015-08-27T11:30:17Z</time>
      </trkpt>
      <trkpt lat="45.22346" lon="6.68089">
        <ele>1866.536</ele>
        <time>2015-08-27T11:30:32Z</time>
      </trkpt>
      <trkpt lat="45.22346" lon="6.68088">
        <ele>1866.536</ele>
        <time>2015-08-27T11:31:07Z</time>
      </trkpt>
      <trkpt lat="45.22346" lon="6.68088">
        <ele>1866.536</ele>
        <time>2015-08-27T11:31:17Z</time>
      </trkpt>
      <trkpt lat="45.22346" lon="6.68085">
        <ele>1866.536</ele>
        <time>2015-08-27T11:31:22Z</time>
      </trkpt>
      <trkpt lat="45.22346" lon="6.68079">
        <ele>1865.1644</ele>
        <time>2015-08-27T11:31:32Z</time>
      </trkpt>
      <trkpt lat="45.22347" lon="6.68077">
        <ele>1865.1644</ele>
        <time>2015-08-27T11:31:37Z</time>
      </trkpt>
      <trkpt lat="45.22348" lon="6.68073">
        <ele>1865.1644</ele>
        <time>2015-08-27T11:31:47Z</time>
      </trkpt>
      <trkpt lat="45.22349" lon="6.68068">
        <ele>1865.1644</ele>
        <time>2015-08-27T11:31:52Z</time>
      </trkpt>
      <trkpt lat="45.22351" lon="6.68062">
        <ele>1864.3987</ele>
        <time>2015-08-27T11:32:07Z</time>
      </trkpt>
      <trkpt lat="45.22351" lon="6.68062">
        <ele>1864.3987</ele>
        <time>2015-08-27T11:32:12Z</time>
      </trkpt>
      <trkpt lat="45.22349" lon="6.68054">
        <ele>1864.3987</ele>
        <time>2015-08-27T11:32:22Z</time>
      </trkpt>
      <trkpt lat="45.22349" lon="6.68052">
        <ele>1864.3987</ele>
        <time>2015-08-27T11:32:27Z</time>
      </trkpt>
      <trkpt lat="45.22349" lon="6.68049">
        <ele>1863.8289</ele>
        <time>2015-08-27T11:32:37Z</time>
      </trkpt>
      <trkpt lat="45.22351" lon="6.68047">
        <ele>1863.8289</ele>
        <time>2015-08-27T11:32:42Z</time>
      </trkpt>
      <trkpt lat="45.22352" lon="6.68044">
        <ele>1863.8289</ele>
        <time>2015-08-27T11:32:52Z</time>
      </trkpt>
      <trkpt lat="45.22353" lon="6.6804">
        <ele>1863.8289</ele>
        <time>2015-08-27T11:32:57Z</time>
      </trkpt>
      <trkpt lat="45.22353" lon="6.68034">
        <ele>1863.6649</ele>
        <time>2015-08-27T11:33:07Z</time>
      </trkpt>
      <trkpt lat="45.22352" lon="6.68031">
        <ele>1863.6649</ele>
        <time>2015-08-27T11:33:12Z</time>
      </trkpt>
      <trkpt lat="45.2235" lon="6.68014">
        <ele>1864.0289</ele>
        <time>2015-08-27T11:33:22Z</time>
      </trkpt>
      <trkpt lat="45.22349" lon="6.6801">
        <ele>1864.0289</ele>
        <time>2015-08-27T11:33:27Z</time>
      </trkpt>
      <trkpt lat="45.22346" lon="6.67984">
        <ele>1864.9167</ele>
        <time>2015-08-27T11:33:37Z</time>
      </trkpt>
      <trkpt lat="45.22349" lon="6.67969">
        <ele>1866.0065</ele>
        <time>2015-08-27T11:33:42Z</time>
      </trkpt>
      <trkpt lat="45.22357" lon="6.6796">
        <ele>1867.2872</ele>
        <time>2015-08-27T11:33:52Z</time>
      </trkpt>
      <trkpt lat="45.22359" lon="6.67958">
        <ele>1867.2872</ele>
        <time>2015-08-27T11:33:57Z</time>
      </trkpt>
      <trkpt lat="45.22361" lon="6.67953">
        <ele>1867.2872</ele>
        <time>2015-08-27T11:34:07Z</time>
      </trkpt>
      <trkpt lat="45.2236" lon="6.67944">
        <ele>1868.7921</ele>
        <time>2015-08-27T11:34:12Z</time>
      </trkpt>
      <trkpt lat="45.2236" lon="6.6793">
        <ele>1870.2485</ele>
        <time>2015-08-27T11:34:27Z</time>
      </trkpt>
      <trkpt lat="45.22358" lon="6.67925">
        <ele>1870.2485</ele>
        <time>2015-08-27T11:34:32Z</time>
      </trkpt>
      <trkpt lat="45.22359" lon="6.67917">
        <ele>1871.9084</ele>
        <time>2015-08-27T11:34:42Z</time>
      </trkpt>
      <trkpt lat="45.22362" lon="6.67914">
        <ele>1871.9084</ele>
        <time>2015-08-27T11:34:47Z</time>
      </trkpt>
      <trkpt lat="45.22367" lon="6.67905">
        <ele>1873.8324</ele>
        <time>2015-08-27T11:34:57Z</time>
      </trkpt>
      <trkpt lat="45.22368" lon="6.67905">
        <ele>1873.8324</ele>
        <time>2015-08-27T11:35:02Z</time>
      </trkpt>
      <trkpt lat="45.22367" lon="6.67906">
        <ele>1873.8324</ele>
        <time>2015-08-27T11:35:12Z</time>
      </trkpt>
      <trkpt lat="45.22367" lon="6.67906">
        <ele>1873.8324</ele>
        <time>2015-08-27T11:35:17Z</time>
      </trkpt>
      <trkpt lat="45.22369" lon="6.67905">
        <ele>1873.8324</ele>
        <time>2015-08-27T11:35:27Z</time>
      </trkpt>
      <trkpt lat="45.2237" lon="6.67903">
        <ele>1873.8324</ele>
        <time>2015-08-27T11:35:32Z</time>
      </trkpt>
      <trkpt lat="45.2237" lon="6.67904">
        <ele>1873.8324</ele>
        <time>2015-08-27T11:35:42Z</time>
      </trkpt>
      <trkpt lat="45.22371" lon="6.67903">
        <ele>1873.8324</ele>
        <time>2015-08-27T11:35:47Z</time>
      </trkpt>
      <trkpt lat="45.22372" lon="6.67902">
        <ele>1873.8324</ele>
        <time>2015-08-27T11:35:57Z</time>
      </trkpt>
      <trkpt lat="45.22378" lon="6.67902">
        <ele>1877.2428</ele>
        <time>2015-08-27T11:36:02Z</time>
      </trkpt>
      <trkpt lat="45.22378" lon="6.67903">
        <ele>1877.2428</ele>
        <time>2015-08-27T11:36:12Z</time>
      </trkpt>
      <trkpt lat="45.22379" lon="6.67903">
        <ele>1877.2428</ele>
        <time>2015-08-27T11:36:27Z</time>
      </trkpt>
      <trkpt lat="45.22379" lon="6.67903">
        <ele>1877.2428</ele>
        <time>2015-08-27T11:36:32Z</time>
      </trkpt>
      <trkpt lat="45.22386" lon="6.67898">
        <ele>1877.2428</ele>
        <time>2015-08-27T11:36:42Z</time>
      </trkpt>
      <trkpt lat="45.22391" lon="6.67895">
        <ele>1881.7554</ele>
        <time>2015-08-27T11:36:47Z</time>
      </trkpt>
      <trkpt lat="45.22394" lon="6.67888">
        <ele>1881.7554</ele>
        <time>2015-08-27T11:36:57Z</time>
      </trkpt>
      <trkpt lat="45.22395" lon="6.67888">
        <ele>1881.7554</ele>
        <time>2015-08-27T11:37:02Z</time>
      </trkpt>
      <trkpt lat="45.22397" lon="6.67883">
        <ele>1886.6078</ele>
        <time>2015-08-27T11:37:17Z</time>
      </trkpt>
      <trkpt lat="45.22397" lon="6.67883">
        <ele>1886.6078</ele>
        <time>2015-08-27T11:37:22Z</time>
      </trkpt>
      <trkpt lat="45.22399" lon="6.67866">
        <ele>1891.41</ele>
        <time>2015-08-27T11:37:32Z</time>
      </trkpt>
      <trkpt lat="45.22404" lon="6.67866">
        <ele>1891.41</ele>
        <time>2015-08-27T11:37:37Z</time>
      </trkpt>
      <trkpt lat="45.22405" lon="6.6787">
        <ele>1891.41</ele>
        <time>2015-08-27T11:37:47Z</time>
      </trkpt>
      <trkpt lat="45.22405" lon="6.6787">
        <ele>1891.41</ele>
        <time>2015-08-27T11:37:52Z</time>
      </trkpt>
      <trkpt lat="45.22405" lon="6.67872">
        <ele>1896.1183</ele>
        <time>2015-08-27T11:38:02Z</time>
      </trkpt>
      <trkpt lat="45.22407" lon="6.67872">
        <ele>1896.1183</ele>
        <time>2015-08-27T11:38:07Z</time>
      </trkpt>
      <trkpt lat="45.22407" lon="6.67872">
        <ele>1896.1183</ele>
        <time>2015-08-27T11:38:17Z</time>
      </trkpt>
      <trkpt lat="45.22411" lon="6.6787">
        <ele>1896.1183</ele>
        <time>2015-08-27T11:38:22Z</time>
      </trkpt>
      <trkpt lat="45.22412" lon="6.67865">
        <ele>1901.096</ele>
        <time>2015-08-27T11:38:32Z</time>
      </trkpt>
      <trkpt lat="45.22412" lon="6.67865">
        <ele>1901.096</ele>
        <time>2015-08-27T11:38:37Z</time>
      </trkpt>
      <trkpt lat="45.22411" lon="6.67857">
        <ele>1901.096</ele>
        <time>2015-08-27T11:38:52Z</time>
      </trkpt>
      <trkpt lat="45.22412" lon="6.67855">
        <ele>1901.096</ele>
        <time>2015-08-27T11:38:57Z</time>
      </trkpt>
      <trkpt lat="45.22413" lon="6.67845">
        <ele>1906.1464</ele>
        <time>2015-08-27T11:39:07Z</time>
      </trkpt>
      <trkpt lat="45.22412" lon="6.67844">
        <ele>1906.1464</ele>
        <time>2015-08-27T11:39:12Z</time>
      </trkpt>
      <trkpt lat="45.22416" lon="6.67833">
        <ele>1910.6549</ele>
        <time>2015-08-27T11:39:22Z</time>
      </trkpt>
      <trkpt lat="45.22418" lon="6.6783">
        <ele>1910.6549</ele>
        <time>2015-08-27T11:39:27Z</time>
      </trkpt>
      <trkpt lat="45.22418" lon="6.67824">
        <ele>1910.6549</ele>
        <time>2015-08-27T11:39:37Z</time>
      </trkpt>
      <trkpt lat="45.22418" lon="6.67814">
        <ele>1914.7606</ele>
        <time>2015-08-27T11:39:42Z</time>
      </trkpt>
      <trkpt lat="45.22414" lon="6.67803">
        <ele>1918.7375</ele>
        <time>2015-08-27T11:39:52Z</time>
      </trkpt>
      <trkpt lat="45.22414" lon="6.678">
        <ele>1918.7375</ele>
        <time>2015-08-27T11:39:57Z</time>
      </trkpt>
      <trkpt lat="45.22408" lon="6.67793">
        <ele>1918.7375</ele>
        <time>2015-08-27T11:40:07Z</time>
      </trkpt>
      <trkpt lat="45.22405" lon="6.67779">
        <ele>1922.6823</ele>
        <time>2015-08-27T11:40:12Z</time>
      </trkpt>
      <trkpt lat="45.22401" lon="6.67766">
        <ele>1926.3531</ele>
        <time>2015-08-27T11:40:22Z</time>
      </trkpt>
      <trkpt lat="45.22399" lon="6.67754">
        <ele>1926.3531</ele>
        <time>2015-08-27T11:40:27Z</time>
      </trkpt>
      <trkpt lat="45.22394" lon="6.67746">
        <ele>1929.3547</ele>
        <time>2015-08-27T11:40:37Z</time>
      </trkpt>
      <trkpt lat="45.22397" lon="6.67742">
        <ele>1929.3547</ele>
        <time>2015-08-27T11:40:42Z</time>
      </trkpt>
      <trkpt lat="45.22396" lon="6.67738">
        <ele>1929.3547</ele>
        <time>2015-08-27T11:40:52Z</time>
      </trkpt>
      <trkpt lat="45.224" lon="6.67723">
        <ele>1931.424</ele>
        <time>2015-08-27T11:40:57Z</time>
      </trkpt>
      <trkpt lat="45.22401" lon="6.67721">
        <ele>1931.424</ele>
        <time>2015-08-27T11:41:07Z</time>
      </trkpt>
      <trkpt lat="45.22402" lon="6.67713">
        <ele>1931.424</ele>
        <time>2015-08-27T11:41:12Z</time>
      </trkpt>
      <trkpt lat="45.22409" lon="6.67686">
        <ele>1932.9105</ele>
        <time>2015-08-27T11:41:27Z</time>
      </trkpt>
      <trkpt lat="45.22418" lon="6.67681">
        <ele>1934.2133</ele>
        <time>2015-08-27T11:41:32Z</time>
      </trkpt>
      <trkpt lat="45.22424" lon="6.67664">
        <ele>1935.2698</ele>
        <time>2015-08-27T11:41:42Z</time>
      </trkpt>
      <trkpt lat="45.22428" lon="6.67659">
        <ele>1935.2698</ele>
        <time>2015-08-27T11:41:47Z</time>
      </trkpt>
      <trkpt lat="45.22435" lon="6.67643">
        <ele>1936.1532</ele>
        <time>2015-08-27T11:41:57Z</time>
      </trkpt>
      <trkpt lat="45.22437" lon="6.67637">
        <ele>1936.1532</ele>
        <time>2015-08-27T11:42:02Z</time>
      </trkpt>
      <trkpt lat="45.22438" lon="6.67626">
        <ele>1936.7019</ele>
        <time>2015-08-27T11:42:12Z</time>
      </trkpt>
      <trkpt lat="45.22436" lon="6.67624">
        <ele>1936.7019</ele>
        <time>2015-08-27T11:42:17Z</time>
      </trkpt>
      <trkpt lat="45.22436" lon="6.67618">
        <ele>1936.7019</ele>
        <time>2015-08-27T11:42:27Z</time>
      </trkpt>
      <trkpt lat="45.22434" lon="6.67614">
        <ele>1936.7526</ele>
        <time>2015-08-27T11:42:32Z</time>
      </trkpt>
      <trkpt lat="45.22429" lon="6.67598">
        <ele>1936.5161</ele>
        <time>2015-08-27T11:42:42Z</time>
      </trkpt>
      <trkpt lat="45.22428" lon="6.67596">
        <ele>1936.5161</ele>
        <time>2015-08-27T11:42:47Z</time>
      </trkpt>
      <trkpt lat="45.22421" lon="6.67579">
        <ele>1935.9296</ele>
        <time>2015-08-27T11:42:57Z</time>
      </trkpt>
      <trkpt lat="45.22415" lon="6.67563">
        <ele>1935.2098</ele>
        <time>2015-08-27T11:43:02Z</time>
      </trkpt>
      <trkpt lat="45.22418" lon="6.67553">
        <ele>1935.2098</ele>
        <time>2015-08-27T11:43:12Z</time>
      </trkpt>
      <trkpt lat="45.22417" lon="6.67539">
        <ele>1934.2556</ele>
        <time>2015-08-27T11:43:17Z</time>
      </trkpt>
      <trkpt lat="45.22419" lon="6.67534">
        <ele>1934.2556</ele>
        <time>2015-08-27T11:43:27Z</time>
      </trkpt>
      <trkpt lat="45.2242" lon="6.67529">
        <ele>1934.2556</ele>
        <time>2015-08-27T11:43:32Z</time>
      </trkpt>
      <trkpt lat="45.22429" lon="6.675">
        <ele>1933.1039</ele>
        <time>2015-08-27T11:43:47Z</time>
      </trkpt>
      <trkpt lat="45.22429" lon="6.67499">
        <ele>1933.1039</ele>
        <time>2015-08-27T11:43:52Z</time>
      </trkpt>
      <trkpt lat="45.22433" lon="6.67483">
        <ele>1931.9192</ele>
        <time>2015-08-27T11:44:02Z</time>
      </trkpt>
      <trkpt lat="45.22435" lon="6.6748">
        <ele>1931.9192</ele>
        <time>2015-08-27T11:44:07Z</time>
      </trkpt>
      <trkpt lat="45.22437" lon="6.67476">
        <ele>1931.9192</ele>
        <time>2015-08-27T11:44:17Z</time>
      </trkpt>
      <trkpt lat="45.22437" lon="6.67476">
        <ele>1931.9192</ele>
        <time>2015-08-27T11:44:22Z</time>
      </trkpt>
      <trkpt lat="45.22444" lon="6.67454">
        <ele>1930.6669</ele>
        <time>2015-08-27T11:44:47Z</time>
      </trkpt>
      <trkpt lat="45.22446" lon="6.67441">
        <ele>1929.3728</ele>
        <time>2015-08-27T11:44:52Z</time>
      </trkpt>
      <trkpt lat="45.22452" lon="6.67427">
        <ele>1927.989</ele>
        <time>2015-08-27T11:45:02Z</time>
      </trkpt>
      <trkpt lat="45.22455" lon="6.67423">
        <ele>1927.989</ele>
        <time>2015-08-27T11:45:07Z</time>
      </trkpt>
      <trkpt lat="45.22455" lon="6.67423">
        <ele>1927.989</ele>
        <time>2015-08-27T11:45:17Z</time>
      </trkpt>
      <trkpt lat="45.22455" lon="6.67423">
        <ele>1927.989</ele>
        <time>2015-08-27T11:45:22Z</time>
      </trkpt>
      <trkpt lat="45.22456" lon="6.67422">
        <ele>1927.989</ele>
        <time>2015-08-27T11:45:52Z</time>
      </trkpt>
      <trkpt lat="45.22458" lon="6.67421">
        <ele>1926.0249</ele>
        <time>2015-08-27T11:45:57Z</time>
      </trkpt>
      <trkpt lat="45.22468" lon="6.67413">
        <ele>1924.108</ele>
        <time>2015-08-27T11:46:07Z</time>
      </trkpt>
      <trkpt lat="45.22469" lon="6.67413">
        <ele>1924.108</ele>
        <time>2015-08-27T11:46:12Z</time>
      </trkpt>
      <trkpt lat="45.2247" lon="6.67413">
        <ele>1924.108</ele>
        <time>2015-08-27T11:46:27Z</time>
      </trkpt>
      <trkpt lat="45.22483" lon="6.67412">
        <ele>1922.2292</ele>
        <time>2015-08-27T11:46:37Z</time>
      </trkpt>
      <trkpt lat="45.2249" lon="6.67409">
        <ele>1922.2292</ele>
        <time>2015-08-27T11:46:42Z</time>
      </trkpt>
      <trkpt lat="45.22499" lon="6.67403">
        <ele>1920.4949</ele>
        <time>2015-08-27T11:46:52Z</time>
      </trkpt>
      <trkpt lat="45.22503" lon="6.67401">
        <ele>1920.4949</ele>
        <time>2015-08-27T11:46:57Z</time>
      </trkpt>
      <trkpt lat="45.22515" lon="6.674">
        <ele>1919.0753</ele>
        <time>2015-08-27T11:47:07Z</time>
      </trkpt>
      <trkpt lat="45.22521" lon="6.67399">
        <ele>1919.0753</ele>
        <time>2015-08-27T11:47:12Z</time>
      </trkpt>
      <trkpt lat="45.22532" lon="6.67394">
        <ele>1917.969</ele>
        <time>2015-08-27T11:47:22Z</time>
      </trkpt>
      <trkpt lat="45.22538" lon="6.67394">
        <ele>1917.969</ele>
        <time>2015-08-27T11:47:27Z</time>
      </trkpt>
      <trkpt lat="45.22556" lon="6.67396">
        <ele>1917.1587</ele>
        <time>2015-08-27T11:47:42Z</time>
      </trkpt>
      <trkpt lat="45.2256" lon="6.67396">
        <ele>1917.1587</ele>
        <time>2015-08-27T11:47:47Z</time>
      </trkpt>
      <trkpt lat="45.22568" lon="6.67395">
        <ele>1916.2246</ele>
        <time>2015-08-27T11:47:57Z</time>
      </trkpt>
      <trkpt lat="45.22569" lon="6.67396">
        <ele>1916.2246</ele>
        <time>2015-08-27T11:48:02Z</time>
      </trkpt>
      <trkpt lat="45.22569" lon="6.67396">
        <ele>1916.2246</ele>
        <time>2015-08-27T11:48:12Z</time>
      </trkpt>
      <trkpt lat="45.22575" lon="6.67394">
        <ele>1916.2246</ele>
        <time>2015-08-27T11:48:42Z</time>
      </trkpt>
      <trkpt lat="45.22583" lon="6.67391">
        <ele>1915.4406</ele>
        <time>2015-08-27T11:48:47Z</time>
      </trkpt>
      <trkpt lat="45.22596" lon="6.67388">
        <ele>1914.8002</ele>
        <time>2015-08-27T11:48:57Z</time>
      </trkpt>
      <trkpt lat="45.22603" lon="6.67386">
        <ele>1914.8002</ele>
        <time>2015-08-27T11:49:02Z</time>
      </trkpt>
      <trkpt lat="45.22613" lon="6.67386">
        <ele>1914.1678</ele>
        <time>2015-08-27T11:49:12Z</time>
      </trkpt>
      <trkpt lat="45.22618" lon="6.6739">
        <ele>1914.1678</ele>
        <time>2015-08-27T11:49:17Z</time>
      </trkpt>
      <trkpt lat="45.22626" lon="6.67402">
        <ele>1913.6047</ele>
        <time>2015-08-27T11:49:27Z</time>
      </trkpt>
      <trkpt lat="45.22631" lon="6.67404">
        <ele>1913.6047</ele>
        <time>2015-08-27T11:49:32Z</time>
      </trkpt>
      <trkpt lat="45.22649" lon="6.67403">
        <ele>1912.9944</ele>
        <time>2015-08-27T11:49:47Z</time>
      </trkpt>
      <trkpt lat="45.22655" lon="6.674">
        <ele>1912.9944</ele>
        <time>2015-08-27T11:49:52Z</time>
      </trkpt>
      <trkpt lat="45.22668" lon="6.67397">
        <ele>1912.4594</ele>
        <time>2015-08-27T11:50:02Z</time>
      </trkpt>
      <trkpt lat="45.22673" lon="6.67402">
        <ele>1912.4594</ele>
        <time>2015-08-27T11:50:07Z</time>
      </trkpt>
      <trkpt lat="45.22679" lon="6.67417">
        <ele>1911.8104</ele>
        <time>2015-08-27T11:50:17Z</time>
      </trkpt>
      <trkpt lat="45.22684" lon="6.6742">
        <ele>1911.8104</ele>
        <time>2015-08-27T11:50:22Z</time>
      </trkpt>
      <trkpt lat="45.22694" lon="6.6743">
        <ele>1911.2615</ele>
        <time>2015-08-27T11:50:32Z</time>
      </trkpt>
      <trkpt lat="45.22698" lon="6.67438">
        <ele>1911.2615</ele>
        <time>2015-08-27T11:50:37Z</time>
      </trkpt>
      <trkpt lat="45.22706" lon="6.67446">
        <ele>1910.4625</ele>
        <time>2015-08-27T11:50:47Z</time>
      </trkpt>
      <trkpt lat="45.22711" lon="6.6745">
        <ele>1910.4625</ele>
        <time>2015-08-27T11:50:52Z</time>
      </trkpt>
      <trkpt lat="45.2272" lon="6.67458">
        <ele>1909.3928</ele>
        <time>2015-08-27T11:51:02Z</time>
      </trkpt>
      <trkpt lat="45.22725" lon="6.67463">
        <ele>1909.3928</ele>
        <time>2015-08-27T11:51:07Z</time>
      </trkpt>
      <trkpt lat="45.22734" lon="6.67476">
        <ele>1908.4657</ele>
        <time>2015-08-27T11:51:17Z</time>
      </trkpt>
      <trkpt lat="45.22735" lon="6.67477">
        <ele>1908.4657</ele>
        <time>2015-08-27T11:51:22Z</time>
      </trkpt>
      <trkpt lat="45.22735" lon="6.67477">
        <ele>1908.4657</ele>
        <time>2015-08-27T11:51:32Z</time>
      </trkpt>
      <trkpt lat="45.22737" lon="6.67477">
        <ele>1908.4657</ele>
        <time>2015-08-27T11:51:47Z</time>
      </trkpt>
      <trkpt lat="45.2274" lon="6.6748">
        <ele>1908.4657</ele>
        <time>2015-08-27T11:51:52Z</time>
      </trkpt>
      <trkpt lat="45.22746" lon="6.67488">
        <ele>1906.9397</ele>
        <time>2015-08-27T11:52:02Z</time>
      </trkpt>
      <trkpt lat="45.22748" lon="6.67488">
        <ele>1906.9397</ele>
        <time>2015-08-27T11:52:07Z</time>
      </trkpt>
      <trkpt lat="45.22754" lon="6.6749">
        <ele>1906.9397</ele>
        <time>2015-08-27T11:52:17Z</time>
      </trkpt>
      <trkpt lat="45.22759" lon="6.67493">
        <ele>1905.4121</ele>
        <time>2015-08-27T11:52:22Z</time>
      </trkpt>
      <trkpt lat="45.22774" lon="6.67503">
        <ele>1903.9893</ele>
        <time>2015-08-27T11:52:37Z</time>
      </trkpt>
      <trkpt lat="45.22778" lon="6.67506">
        <ele>1903.9893</ele>
        <time>2015-08-27T11:52:42Z</time>
      </trkpt>
      <trkpt lat="45.22789" lon="6.67517">
        <ele>1902.7115</ele>
        <time>2015-08-27T11:52:52Z</time>
      </trkpt>
      <trkpt lat="45.22793" lon="6.67522">
        <ele>1902.7115</ele>
        <time>2015-08-27T11:52:57Z</time>
      </trkpt>
      <trkpt lat="45.22802" lon="6.67523">
        <ele>1901.6017</ele>
        <time>2015-08-27T11:53:07Z</time>
      </trkpt>
      <trkpt lat="45.22806" lon="6.67524">
        <ele>1901.6017</ele>
        <time>2015-08-27T11:53:12Z</time>
      </trkpt>
      <trkpt lat="45.22816" lon="6.67529">
        <ele>1900.6511</ele>
        <time>2015-08-27T11:53:22Z</time>
      </trkpt>
      <trkpt lat="45.22819" lon="6.6753">
        <ele>1900.6511</ele>
        <time>2015-08-27T11:53:27Z</time>
      </trkpt>
      <trkpt lat="45.22822" lon="6.67525">
        <ele>1900.6511</ele>
        <time>2015-08-27T11:53:37Z</time>
      </trkpt>
      <trkpt lat="45.22824" lon="6.67522">
        <ele>1899.8224</ele>
        <time>2015-08-27T11:53:42Z</time>
      </trkpt>
      <trkpt lat="45.22829" lon="6.67523">
        <ele>1899.8224</ele>
        <time>2015-08-27T11:53:52Z</time>
      </trkpt>
      <trkpt lat="45.2283" lon="6.6752">
        <ele>1899.8224</ele>
        <time>2015-08-27T11:53:57Z</time>
      </trkpt>
      <trkpt lat="45.22836" lon="6.67505">
        <ele>1899.1235</ele>
        <time>2015-08-27T11:54:12Z</time>
      </trkpt>
      <trkpt lat="45.22838" lon="6.67501">
        <ele>1899.1235</ele>
        <time>2015-08-27T11:54:17Z</time>
      </trkpt>
      <trkpt lat="45.22843" lon="6.67485">
        <ele>1898.6483</ele>
        <time>2015-08-27T11:54:27Z</time>
      </trkpt>
      <trkpt lat="45.22843" lon="6.6748">
        <ele>1898.6483</ele>
        <time>2015-08-27T11:54:32Z</time>
      </trkpt>
      <trkpt lat="45.22846" lon="6.67474">
        <ele>1898.6483</ele>
        <time>2015-08-27T11:54:42Z</time>
      </trkpt>
      <trkpt lat="45.22846" lon="6.67471">
        <ele>1898.2662</ele>
        <time>2015-08-27T11:54:47Z</time>
      </trkpt>
      <trkpt lat="45.22849" lon="6.67466">
        <ele>1898.2662</ele>
        <time>2015-08-27T11:54:57Z</time>
      </trkpt>
      <trkpt lat="45.22851" lon="6.67464">
        <ele>1898.2662</ele>
        <time>2015-08-27T11:55:02Z</time>
      </trkpt>
      <trkpt lat="45.22854" lon="6.67459">
        <ele>1897.8274</ele>
        <time>2015-08-27T11:55:12Z</time>
      </trkpt>
      <trkpt lat="45.22856" lon="6.67455">
        <ele>1897.8274</ele>
        <time>2015-08-27T11:55:17Z</time>
      </trkpt>
      <trkpt lat="45.22861" lon="6.67441">
        <ele>1897.7693</ele>
        <time>2015-08-27T11:55:27Z</time>
      </trkpt>
      <trkpt lat="45.22862" lon="6.67436">
        <ele>1897.7693</ele>
        <time>2015-08-27T11:55:32Z</time>
      </trkpt>
      <trkpt lat="45.22865" lon="6.6743">
        <ele>1897.7693</ele>
        <time>2015-08-27T11:55:42Z</time>
      </trkpt>
      <trkpt lat="45.22865" lon="6.67428">
        <ele>1898.1359</ele>
        <time>2015-08-27T11:55:47Z</time>
      </trkpt>
      <trkpt lat="45.22869" lon="6.67419">
        <ele>1898.1359</ele>
        <time>2015-08-27T11:55:57Z</time>
      </trkpt>
      <trkpt lat="45.22869" lon="6.67418">
        <ele>1898.1359</ele>
        <time>2015-08-27T11:56:02Z</time>
      </trkpt>
      <trkpt lat="45.2287" lon="6.67415">
        <ele>1898.7504</ele>
        <time>2015-08-27T11:56:12Z</time>
      </trkpt>
      <trkpt lat="45.22871" lon="6.67411">
        <ele>1898.7504</ele>
        <time>2015-08-27T11:56:17Z</time>
      </trkpt>
      <trkpt lat="45.22877" lon="6.67394">
        <ele>1899.6643</ele>
        <time>2015-08-27T11:56:32Z</time>
      </trkpt>
      <trkpt lat="45.22883" lon="6.67386">
        <ele>1899.6643</ele>
        <time>2015-08-27T11:56:47Z</time>
      </trkpt>
      <trkpt lat="45.22885" lon="6.6738">
        <ele>1901.0543</ele>
        <time>2015-08-27T11:56:52Z</time>
      </trkpt>
      <trkpt lat="45.22888" lon="6.67371">
        <ele>1901.0543</ele>
        <time>2015-08-27T11:57:02Z</time>
      </trkpt>
      <trkpt lat="45.2289" lon="6.67369">
        <ele>1902.7512</ele>
        <time>2015-08-27T11:57:07Z</time>
      </trkpt>
      <trkpt lat="45.22894" lon="6.67361">
        <ele>1902.7512</ele>
        <time>2015-08-27T11:57:17Z</time>
      </trkpt>
      <trkpt lat="45.22894" lon="6.6736">
        <ele>1902.7512</ele>
        <time>2015-08-27T11:57:22Z</time>
      </trkpt>
      <trkpt lat="45.22896" lon="6.6736">
        <ele>1904.8566</ele>
        <time>2015-08-27T11:57:32Z</time>
      </trkpt>
      <trkpt lat="45.22897" lon="6.67357">
        <ele>1904.8566</ele>
        <time>2015-08-27T11:57:37Z</time>
      </trkpt>
      <trkpt lat="45.229" lon="6.67349">
        <ele>1904.8566</ele>
        <time>2015-08-27T11:57:47Z</time>
      </trkpt>
      <trkpt lat="45.22903" lon="6.67348">
        <ele>1907.1174</ele>
        <time>2015-08-27T11:57:52Z</time>
      </trkpt>
      <trkpt lat="45.2291" lon="6.67342">
        <ele>1907.1174</ele>
        <time>2015-08-27T11:58:07Z</time>
      </trkpt>
      <trkpt lat="45.22912" lon="6.6734">
        <ele>1909.6309</ele>
        <time>2015-08-27T11:58:12Z</time>
      </trkpt>
      <trkpt lat="45.22915" lon="6.67338">
        <ele>1909.6309</ele>
        <time>2015-08-27T11:58:22Z</time>
      </trkpt>
      <trkpt lat="45.22918" lon="6.67337">
        <ele>1909.6309</ele>
        <time>2015-08-27T11:58:27Z</time>
      </trkpt>
      <trkpt lat="45.22922" lon="6.67335">
        <ele>1912.2117</ele>
        <time>2015-08-27T11:58:37Z</time>
      </trkpt>
      <trkpt lat="45.22925" lon="6.67335">
        <ele>1912.2117</ele>
        <time>2015-08-27T11:58:42Z</time>
      </trkpt>
      <trkpt lat="45.22932" lon="6.67336">
        <ele>1914.8616</ele>
        <time>2015-08-27T11:58:52Z</time>
      </trkpt>
      <trkpt lat="45.22934" lon="6.67337">
        <ele>1914.8616</ele>
        <time>2015-08-27T11:58:57Z</time>
      </trkpt>
      <trkpt lat="45.22936" lon="6.67335">
        <ele>1914.8616</ele>
        <time>2015-08-27T11:59:07Z</time>
      </trkpt>
      <trkpt lat="45.22938" lon="6.67335">
        <ele>1914.8616</ele>
        <time>2015-08-27T11:59:12Z</time>
      </trkpt>
      <trkpt lat="45.22945" lon="6.67334">
        <ele>1917.1781</ele>
        <time>2015-08-27T11:59:22Z</time>
      </trkpt>
      <trkpt lat="45.22947" lon="6.67335">
        <ele>1917.1781</ele>
        <time>2015-08-27T11:59:27Z</time>
      </trkpt>
      <trkpt lat="45.22952" lon="6.67332">
        <ele>1917.1781</ele>
        <time>2015-08-27T11:59:37Z</time>
      </trkpt>
      <trkpt lat="45.22952" lon="6.67328">
        <ele>1919.6256</ele>
        <time>2015-08-27T11:59:42Z</time>
      </trkpt>
      <trkpt lat="45.22946" lon="6.67321">
        <ele>1919.6256</ele>
        <time>2015-08-27T11:59:52Z</time>
      </trkpt>
      <trkpt lat="45.22944" lon="6.67314">
        <ele>1922.1438</ele>
        <time>2015-08-27T11:59:57Z</time>
      </trkpt>
      <trkpt lat="45.2294" lon="6.67304">
        <ele>1922.1438</ele>
        <time>2015-08-27T12:00:07Z</time>
      </trkpt>
      <trkpt lat="45.22938" lon="6.67302">
        <ele>1924.8641</ele>
        <time>2015-08-27T12:00:12Z</time>
      </trkpt>
      <trkpt lat="45.22932" lon="6.67303">
        <ele>1924.8641</ele>
        <time>2015-08-27T12:00:27Z</time>
      </trkpt>
      <trkpt lat="45.22929" lon="6.67306">
        <ele>1927.9224</ele>
        <time>2015-08-27T12:00:32Z</time>
      </trkpt>
      <trkpt lat="45.22924" lon="6.67305">
        <ele>1927.9224</ele>
        <time>2015-08-27T12:00:42Z</time>
      </trkpt>
      <trkpt lat="45.22922" lon="6.67301">
        <ele>1927.9224</ele>
        <time>2015-08-27T12:00:47Z</time>
      </trkpt>
      <trkpt lat="45.22921" lon="6.67297">
        <ele>1930.4492</ele>
        <time>2015-08-27T12:00:57Z</time>
      </trkpt>
      <trkpt lat="45.2292" lon="6.67296">
        <ele>1930.4492</ele>
        <time>2015-08-27T12:01:02Z</time>
      </trkpt>
      <trkpt lat="45.2292" lon="6.67296">
        <ele>1930.4492</ele>
        <time>2015-08-27T12:01:12Z</time>
      </trkpt>
      <trkpt lat="45.2292" lon="6.67296">
        <ele>1930.4492</ele>
        <time>2015-08-27T12:01:17Z</time>
      </trkpt>
      <trkpt lat="45.22922" lon="6.67297">
        <ele>1930.4492</ele>
        <time>2015-08-27T12:01:42Z</time>
      </trkpt>
      <trkpt lat="45.22924" lon="6.67295">
        <ele>1930.4492</ele>
        <time>2015-08-27T12:01:47Z</time>
      </trkpt>
      <trkpt lat="45.22926" lon="6.67292">
        <ele>1930.4492</ele>
        <time>2015-08-27T12:01:57Z</time>
      </trkpt>
      <trkpt lat="45.22926" lon="6.67292">
        <ele>1930.4492</ele>
        <time>2015-08-27T12:02:02Z</time>
      </trkpt>
      <trkpt lat="45.22924" lon="6.67289">
        <ele>1932.4335</ele>
        <time>2015-08-27T12:02:22Z</time>
      </trkpt>
      <trkpt lat="45.22917" lon="6.67283">
        <ele>1932.4335</ele>
        <time>2015-08-27T12:02:32Z</time>
      </trkpt>
      <trkpt lat="45.22915" lon="6.6728">
        <ele>1934.2264</ele>
        <time>2015-08-27T12:02:37Z</time>
      </trkpt>
      <trkpt lat="45.22913" lon="6.67277">
        <ele>1934.2264</ele>
        <time>2015-08-27T12:02:47Z</time>
      </trkpt>
      <trkpt lat="45.22912" lon="6.67275">
        <ele>1934.2264</ele>
        <time>2015-08-27T12:02:52Z</time>
      </trkpt>
      <trkpt lat="45.22908" lon="6.67272">
        <ele>1936.0682</ele>
        <time>2015-08-27T12:03:02Z</time>
      </trkpt>
      <trkpt lat="45.22906" lon="6.67273">
        <ele>1936.0682</ele>
        <time>2015-08-27T12:03:07Z</time>
      </trkpt>
      <trkpt lat="45.22906" lon="6.67273">
        <ele>1936.0682</ele>
        <time>2015-08-27T12:03:17Z</time>
      </trkpt>
      <trkpt lat="45.22906" lon="6.67276">
        <ele>1936.0682</ele>
        <time>2015-08-27T12:03:22Z</time>
      </trkpt>
      <trkpt lat="45.22906" lon="6.67277">
        <ele>1936.0682</ele>
        <time>2015-08-27T12:03:32Z</time>
      </trkpt>
      <trkpt lat="45.22908" lon="6.67278">
        <ele>1936.0682</ele>
        <time>2015-08-27T12:03:37Z</time>
      </trkpt>
      <trkpt lat="45.22908" lon="6.67279">
        <ele>1936.0682</ele>
        <time>2015-08-27T12:03:47Z</time>
      </trkpt>
      <trkpt lat="45.22906" lon="6.67278">
        <ele>1937.5905</ele>
        <time>2015-08-27T12:03:52Z</time>
      </trkpt>
      <trkpt lat="45.22906" lon="6.67278">
        <ele>1937.5905</ele>
        <time>2015-08-27T12:04:07Z</time>
      </trkpt>
      <trkpt lat="45.22906" lon="6.67277">
        <ele>1937.5905</ele>
        <time>2015-08-27T12:04:37Z</time>
      </trkpt>
      <trkpt lat="45.22906" lon="6.67277">
        <ele>1937.5905</ele>
        <time>2015-08-27T12:04:42Z</time>
      </trkpt>
      <trkpt lat="45.22905" lon="6.67278">
        <ele>1937.5905</ele>
        <time>2015-08-27T12:05:07Z</time>
      </trkpt>
      <trkpt lat="45.229" lon="6.67266">
        <ele>1938.0057</ele>
        <time>2015-08-27T12:48:57Z</time>
      </trkpt>
      <trkpt lat="45.229" lon="6.67267">
        <ele>1938.0057</ele>
        <time>2015-08-27T12:49:02Z</time>
      </trkpt>
      <trkpt lat="45.229" lon="6.67267">
        <ele>1938.0057</ele>
        <time>2015-08-27T12:49:07Z</time>
      </trkpt>
      <trkpt lat="45.22899" lon="6.67266">
        <ele>1938.0057</ele>
        <time>2015-08-27T12:49:17Z</time>
      </trkpt>
      <trkpt lat="45.22899" lon="6.67266">
        <ele>1938.0057</ele>
        <time>2015-08-27T12:49:22Z</time>
      </trkpt>
      <trkpt lat="45.22899" lon="6.67263">
        <ele>1938.0057</ele>
        <time>2015-08-27T12:51:12Z</time>
      </trkpt>
      <trkpt lat="45.22892" lon="6.67253">
        <ele>1939.3119</ele>
        <time>2015-08-27T12:51:22Z</time>
      </trkpt>
      <trkpt lat="45.22886" lon="6.67248">
        <ele>1939.3119</ele>
        <time>2015-08-27T12:51:27Z</time>
      </trkpt>
      <trkpt lat="45.22877" lon="6.67243">
        <ele>1940.432</ele>
        <time>2015-08-27T12:51:37Z</time>
      </trkpt>
      <trkpt lat="45.22873" lon="6.6724">
        <ele>1940.432</ele>
        <time>2015-08-27T12:51:42Z</time>
      </trkpt>
      <trkpt lat="45.22863" lon="6.67236">
        <ele>1941.2048</ele>
        <time>2015-08-27T12:51:52Z</time>
      </trkpt>
      <trkpt lat="45.22858" lon="6.67235">
        <ele>1941.2048</ele>
        <time>2015-08-27T12:51:57Z</time>
      </trkpt>
      <trkpt lat="45.22848" lon="6.67228">
        <ele>1941.7126</ele>
        <time>2015-08-27T12:52:07Z</time>
      </trkpt>
      <trkpt lat="45.22842" lon="6.67225">
        <ele>1941.7126</ele>
        <time>2015-08-27T12:52:12Z</time>
      </trkpt>
      <trkpt lat="45.22829" lon="6.67212">
        <ele>1942.2777</ele>
        <time>2015-08-27T12:52:22Z</time>
      </trkpt>
      <trkpt lat="45.22824" lon="6.67202">
        <ele>1942.2777</ele>
        <time>2015-08-27T12:52:27Z</time>
      </trkpt>
      <trkpt lat="45.22811" lon="6.67197">
        <ele>1943.155</ele>
        <time>2015-08-27T12:52:42Z</time>
      </trkpt>
      <trkpt lat="45.22806" lon="6.67198">
        <ele>1943.155</ele>
        <time>2015-08-27T12:52:47Z</time>
      </trkpt>
      <trkpt lat="45.22797" lon="6.67194">
        <ele>1943.5283</ele>
        <time>2015-08-27T12:52:57Z</time>
      </trkpt>
      <trkpt lat="45.22793" lon="6.67192">
        <ele>1943.5283</ele>
        <time>2015-08-27T12:53:02Z</time>
      </trkpt>
      <trkpt lat="45.22785" lon="6.67186">
        <ele>1943.7092</ele>
        <time>2015-08-27T12:53:12Z</time>
      </trkpt>
      <trkpt lat="45.22781" lon="6.67181">
        <ele>1943.7092</ele>
        <time>2015-08-27T12:53:17Z</time>
      </trkpt>
      <trkpt lat="45.22774" lon="6.67168">
        <ele>1943.987</ele>
        <time>2015-08-27T12:53:27Z</time>
      </trkpt>
      <trkpt lat="45.22771" lon="6.67165">
        <ele>1943.987</ele>
        <time>2015-08-27T12:53:32Z</time>
      </trkpt>
      <trkpt lat="45.2277" lon="6.67169">
        <ele>1943.987</ele>
        <time>2015-08-27T12:53:42Z</time>
      </trkpt>
      <trkpt lat="45.22768" lon="6.67173">
        <ele>1944.0388</ele>
        <time>2015-08-27T12:53:47Z</time>
      </trkpt>
      <trkpt lat="45.22768" lon="6.67173">
        <ele>1944.0388</ele>
        <time>2015-08-27T12:53:57Z</time>
      </trkpt>
      <trkpt lat="45.22754" lon="6.67169">
        <ele>1943.5804</ele>
        <time>2015-08-27T12:54:12Z</time>
      </trkpt>
      <trkpt lat="45.22751" lon="6.67168">
        <ele>1943.5804</ele>
        <time>2015-08-27T12:54:17Z</time>
      </trkpt>
      <trkpt lat="45.22746" lon="6.67163">
        <ele>1943.5804</ele>
        <time>2015-08-27T12:54:27Z</time>
      </trkpt>
      <trkpt lat="45.22746" lon="6.67163">
        <ele>1943.5804</ele>
        <time>2015-08-27T12:54:32Z</time>
      </trkpt>
      <trkpt lat="45.22744" lon="6.67155">
        <ele>1942.5231</ele>
        <time>2015-08-27T12:54:42Z</time>
      </trkpt>
      <trkpt lat="45.22737" lon="6.67144">
        <ele>1941.5212</ele>
        <time>2015-08-27T12:54:47Z</time>
      </trkpt>
      <trkpt lat="45.2273" lon="6.67134">
        <ele>1940.2731</ele>
        <time>2015-08-27T12:55:02Z</time>
      </trkpt>
      <trkpt lat="45.22725" lon="6.67131">
        <ele>1940.2731</ele>
        <time>2015-08-27T12:55:07Z</time>
      </trkpt>
      <trkpt lat="45.22707" lon="6.6712">
        <ele>1938.8314</ele>
        <time>2015-08-27T12:55:17Z</time>
      </trkpt>
      <trkpt lat="45.22704" lon="6.67121">
        <ele>1938.8314</ele>
        <time>2015-08-27T12:55:22Z</time>
      </trkpt>
      <trkpt lat="45.22698" lon="6.6713">
        <ele>1936.813</ele>
        <time>2015-08-27T12:55:32Z</time>
      </trkpt>
      <trkpt lat="45.22695" lon="6.67135">
        <ele>1936.813</ele>
        <time>2015-08-27T12:55:37Z</time>
      </trkpt>
      <trkpt lat="45.22687" lon="6.67134">
        <ele>1934.4988</ele>
        <time>2015-08-27T12:55:47Z</time>
      </trkpt>
      <trkpt lat="45.22676" lon="6.67129">
        <ele>1932.1351</ele>
        <time>2015-08-27T12:55:52Z</time>
      </trkpt>
      <trkpt lat="45.2266" lon="6.67115">
        <ele>1929.6625</ele>
        <time>2015-08-27T12:56:02Z</time>
      </trkpt>
      <trkpt lat="45.22655" lon="6.67115">
        <ele>1929.6625</ele>
        <time>2015-08-27T12:56:07Z</time>
      </trkpt>
      <trkpt lat="45.22647" lon="6.67113">
        <ele>1926.7952</ele>
        <time>2015-08-27T12:56:22Z</time>
      </trkpt>
      <trkpt lat="45.22642" lon="6.67114">
        <ele>1926.7952</ele>
        <time>2015-08-27T12:56:27Z</time>
      </trkpt>
      <trkpt lat="45.22636" lon="6.6711">
        <ele>1923.7015</ele>
        <time>2015-08-27T12:56:37Z</time>
      </trkpt>
      <trkpt lat="45.22634" lon="6.67109">
        <ele>1923.7015</ele>
        <time>2015-08-27T12:56:42Z</time>
      </trkpt>
      <trkpt lat="45.22629" lon="6.67107">
        <ele>1923.7015</ele>
        <time>2015-08-27T12:56:52Z</time>
      </trkpt>
      <trkpt lat="45.22625" lon="6.67105">
        <ele>1920.063</ele>
        <time>2015-08-27T12:56:57Z</time>
      </trkpt>
      <trkpt lat="45.22619" lon="6.67102">
        <ele>1920.063</ele>
        <time>2015-08-27T12:57:07Z</time>
      </trkpt>
      <trkpt lat="45.22619" lon="6.67102">
        <ele>1920.063</ele>
        <time>2015-08-27T12:57:12Z</time>
      </trkpt>
      <trkpt lat="45.22614" lon="6.67094">
        <ele>1916.234</ele>
        <time>2015-08-27T12:57:22Z</time>
      </trkpt>
      <trkpt lat="45.22604" lon="6.67079">
        <ele>1912.6584</ele>
        <time>2015-08-27T12:57:27Z</time>
      </trkpt>
      <trkpt lat="45.226" lon="6.67074">
        <ele>1912.6584</ele>
        <time>2015-08-27T12:57:37Z</time>
      </trkpt>
      <trkpt lat="45.22598" lon="6.67072">
        <ele>1912.6584</ele>
        <time>2015-08-27T12:57:42Z</time>
      </trkpt>
      <trkpt lat="45.22582" lon="6.67052">
        <ele>1909.0698</ele>
        <time>2015-08-27T12:57:52Z</time>
      </trkpt>
      <trkpt lat="45.22573" lon="6.6704">
        <ele>1905.696</ele>
        <time>2015-08-27T12:57:57Z</time>
      </trkpt>
      <trkpt lat="45.22564" lon="6.67026">
        <ele>1902.402</ele>
        <time>2015-08-27T12:58:07Z</time>
      </trkpt>
      <trkpt lat="45.22561" lon="6.6702">
        <ele>1902.402</ele>
        <time>2015-08-27T12:58:12Z</time>
      </trkpt>
      <trkpt lat="45.22555" lon="6.67014">
        <ele>1899.1771</ele>
        <time>2015-08-27T12:58:22Z</time>
      </trkpt>
      <trkpt lat="45.22551" lon="6.67011">
        <ele>1899.1771</ele>
        <time>2015-08-27T12:58:27Z</time>
      </trkpt>
      <trkpt lat="45.22542" lon="6.67004">
        <ele>1896.0688</ele>
        <time>2015-08-27T12:58:37Z</time>
      </trkpt>
      <trkpt lat="45.22536" lon="6.66999">
        <ele>1896.0688</ele>
        <time>2015-08-27T12:58:42Z</time>
      </trkpt>
      <trkpt lat="45.22528" lon="6.66989">
        <ele>1893.0487</ele>
        <time>2015-08-27T12:58:52Z</time>
      </trkpt>
      <trkpt lat="45.22524" lon="6.66985">
        <ele>1893.0487</ele>
        <time>2015-08-27T12:58:57Z</time>
      </trkpt>
      <trkpt lat="45.22519" lon="6.66971">
        <ele>1890.0316</ele>
        <time>2015-08-27T12:59:12Z</time>
      </trkpt>
      <trkpt lat="45.22518" lon="6.66964">
        <ele>1890.0316</ele>
        <time>2015-08-27T12:59:17Z</time>
      </trkpt>
      <trkpt lat="45.22516" lon="6.66953">
        <ele>1887.0255</ele>
        <time>2015-08-27T12:59:27Z</time>
      </trkpt>
      <trkpt lat="45.22517" lon="6.6695">
        <ele>1887.0255</ele>
        <time>2015-08-27T12:59:32Z</time>
      </trkpt>
      <trkpt lat="45.22514" lon="6.66938">
        <ele>1884.4695</ele>
        <time>2015-08-27T12:59:42Z</time>
      </trkpt>
      <trkpt lat="45.2251" lon="6.66929">
        <ele>1884.4695</ele>
        <time>2015-08-27T12:59:47Z</time>
      </trkpt>
      <trkpt lat="45.22502" lon="6.66916">
        <ele>1882.4374</ele>
        <time>2015-08-27T12:59:57Z</time>
      </trkpt>
      <trkpt lat="45.22499" lon="6.66905">
        <ele>1882.4374</ele>
        <time>2015-08-27T13:00:02Z</time>
      </trkpt>
      <trkpt lat="45.22498" lon="6.66889">
        <ele>1880.7076</ele>
        <time>2015-08-27T13:00:12Z</time>
      </trkpt>
      <trkpt lat="45.22499" lon="6.66883">
        <ele>1880.7076</ele>
        <time>2015-08-27T13:00:17Z</time>
      </trkpt>
      <trkpt lat="45.22504" lon="6.6687">
        <ele>1879.1315</ele>
        <time>2015-08-27T13:00:27Z</time>
      </trkpt>
      <trkpt lat="45.22509" lon="6.66863">
        <ele>1879.1315</ele>
        <time>2015-08-27T13:00:32Z</time>
      </trkpt>
      <trkpt lat="45.22507" lon="6.6683">
        <ele>1877.9165</ele>
        <time>2015-08-27T13:00:47Z</time>
      </trkpt>
      <trkpt lat="45.22505" lon="6.66829">
        <ele>1877.9165</ele>
        <time>2015-08-27T13:00:52Z</time>
      </trkpt>
      <trkpt lat="45.22499" lon="6.66821">
        <ele>1877.0804</ele>
        <time>2015-08-27T13:01:02Z</time>
      </trkpt>
      <trkpt lat="45.22494" lon="6.66816">
        <ele>1877.0804</ele>
        <time>2015-08-27T13:01:07Z</time>
      </trkpt>
      <trkpt lat="45.22493" lon="6.66814">
        <ele>1877.0804</ele>
        <time>2015-08-27T13:01:17Z</time>
      </trkpt>
      <trkpt lat="45.22488" lon="6.66808">
        <ele>1876.1488</ele>
        <time>2015-08-27T13:01:32Z</time>
      </trkpt>
      <trkpt lat="45.22487" lon="6.66805">
        <ele>1876.1488</ele>
        <time>2015-08-27T13:01:37Z</time>
      </trkpt>
      <trkpt lat="45.22473" lon="6.66795">
        <ele>1875.4457</ele>
        <time>2015-08-27T13:01:47Z</time>
      </trkpt>
      <trkpt lat="45.2247" lon="6.66794">
        <ele>1875.4457</ele>
        <time>2015-08-27T13:01:52Z</time>
      </trkpt>
      <trkpt lat="45.22455" lon="6.66782">
        <ele>1874.8093</ele>
        <time>2015-08-27T13:02:02Z</time>
      </trkpt>
      <trkpt lat="45.2245" lon="6.66779">
        <ele>1874.8093</ele>
        <time>2015-08-27T13:02:07Z</time>
      </trkpt>
      <trkpt lat="45.22439" lon="6.66774">
        <ele>1874.0894</ele>
        <time>2015-08-27T13:02:17Z</time>
      </trkpt>
      <trkpt lat="45.22432" lon="6.66774">
        <ele>1874.0894</ele>
        <time>2015-08-27T13:02:22Z</time>
      </trkpt>
      <trkpt lat="45.22422" lon="6.66775">
        <ele>1873.2334</ele>
        <time>2015-08-27T13:02:32Z</time>
      </trkpt>
      <trkpt lat="45.22414" lon="6.66779">
        <ele>1873.2334</ele>
        <time>2015-08-27T13:02:37Z</time>
      </trkpt>
      <trkpt lat="45.22403" lon="6.66786">
        <ele>1872.2216</ele>
        <time>2015-08-27T13:02:47Z</time>
      </trkpt>
      <trkpt lat="45.22397" lon="6.66789">
        <ele>1872.2216</ele>
        <time>2015-08-27T13:02:52Z</time>
      </trkpt>
      <trkpt lat="45.22389" lon="6.66793">
        <ele>1871.0648</ele>
        <time>2015-08-27T13:03:02Z</time>
      </trkpt>
      <trkpt lat="45.22382" lon="6.66792">
        <ele>1871.0648</ele>
        <time>2015-08-27T13:03:07Z</time>
      </trkpt>
      <trkpt lat="45.22374" lon="6.66794">
        <ele>1869.6005</ele>
        <time>2015-08-27T13:03:17Z</time>
      </trkpt>
      <trkpt lat="45.2237" lon="6.66799">
        <ele>1869.6005</ele>
        <time>2015-08-27T13:03:22Z</time>
      </trkpt>
      <trkpt lat="45.2236" lon="6.66806">
        <ele>1868.1254</ele>
        <time>2015-08-27T13:03:32Z</time>
      </trkpt>
      <trkpt lat="45.22352" lon="6.66802">
        <ele>1868.1254</ele>
        <time>2015-08-27T13:03:37Z</time>
      </trkpt>
      <trkpt lat="45.22342" lon="6.66797">
        <ele>1866.6984</ele>
        <time>2015-08-27T13:03:47Z</time>
      </trkpt>
      <trkpt lat="45.22334" lon="6.66792">
        <ele>1866.6984</ele>
        <time>2015-08-27T13:03:52Z</time>
      </trkpt>
      <trkpt lat="45.2233" lon="6.66791">
        <ele>1865.417</ele>
        <time>2015-08-27T13:04:02Z</time>
      </trkpt>
      <trkpt lat="45.22327" lon="6.66787">
        <ele>1865.417</ele>
        <time>2015-08-27T13:04:07Z</time>
      </trkpt>
      <trkpt lat="45.22312" lon="6.66769">
        <ele>1864.1548</ele>
        <time>2015-08-27T13:04:22Z</time>
      </trkpt>
      <trkpt lat="45.22311" lon="6.66765">
        <ele>1864.1548</ele>
        <time>2015-08-27T13:04:27Z</time>
      </trkpt>
      <trkpt lat="45.22302" lon="6.66755">
        <ele>1862.8666</ele>
        <time>2015-08-27T13:04:37Z</time>
      </trkpt>
      <trkpt lat="45.22299" lon="6.66748">
        <ele>1862.8666</ele>
        <time>2015-08-27T13:04:42Z</time>
      </trkpt>
      <trkpt lat="45.22289" lon="6.66737">
        <ele>1861.6261</ele>
        <time>2015-08-27T13:04:52Z</time>
      </trkpt>
      <trkpt lat="45.22286" lon="6.66733">
        <ele>1861.6261</ele>
        <time>2015-08-27T13:04:57Z</time>
      </trkpt>
      <trkpt lat="45.22276" lon="6.66727">
        <ele>1860.4144</ele>
        <time>2015-08-27T13:05:07Z</time>
      </trkpt>
      <trkpt lat="45.22273" lon="6.66719">
        <ele>1860.4144</ele>
        <time>2015-08-27T13:05:12Z</time>
      </trkpt>
      <trkpt lat="45.2227" lon="6.66705">
        <ele>1859.344</ele>
        <time>2015-08-27T13:05:22Z</time>
      </trkpt>
      <trkpt lat="45.22266" lon="6.66702">
        <ele>1859.344</ele>
        <time>2015-08-27T13:05:27Z</time>
      </trkpt>
      <trkpt lat="45.22261" lon="6.667">
        <ele>1858.432</ele>
        <time>2015-08-27T13:05:37Z</time>
      </trkpt>
      <trkpt lat="45.22257" lon="6.66697">
        <ele>1858.432</ele>
        <time>2015-08-27T13:05:42Z</time>
      </trkpt>
      <trkpt lat="45.22252" lon="6.66693">
        <ele>1857.521</ele>
        <time>2015-08-27T13:05:52Z</time>
      </trkpt>
      <trkpt lat="45.2225" lon="6.6669">
        <ele>1857.521</ele>
        <time>2015-08-27T13:05:57Z</time>
      </trkpt>
      <trkpt lat="45.22248" lon="6.66693">
        <ele>1857.521</ele>
        <time>2015-08-27T13:06:07Z</time>
      </trkpt>
      <trkpt lat="45.22245" lon="6.66693">
        <ele>1856.2341</ele>
        <time>2015-08-27T13:06:12Z</time>
      </trkpt>
      <trkpt lat="45.2223" lon="6.66687">
        <ele>1854.5985</ele>
        <time>2015-08-27T13:06:27Z</time>
      </trkpt>
      <trkpt lat="45.22226" lon="6.66684">
        <ele>1854.5985</ele>
        <time>2015-08-27T13:06:32Z</time>
      </trkpt>
      <trkpt lat="45.22222" lon="6.66677">
        <ele>1852.8271</ele>
        <time>2015-08-27T13:06:42Z</time>
      </trkpt>
      <trkpt lat="45.22217" lon="6.66672">
        <ele>1852.8271</ele>
        <time>2015-08-27T13:06:47Z</time>
      </trkpt>
      <trkpt lat="45.22215" lon="6.66663">
        <ele>1851.1178</ele>
        <time>2015-08-27T13:06:57Z</time>
      </trkpt>
      <trkpt lat="45.22212" lon="6.66658">
        <ele>1851.1178</ele>
        <time>2015-08-27T13:07:02Z</time>
      </trkpt>
      <trkpt lat="45.22207" lon="6.66652">
        <ele>1849.3079</ele>
        <time>2015-08-27T13:07:12Z</time>
      </trkpt>
      <trkpt lat="45.22204" lon="6.66648">
        <ele>1849.3079</ele>
        <time>2015-08-27T13:07:17Z</time>
      </trkpt>
      <trkpt lat="45.22195" lon="6.66633">
        <ele>1847.0449</ele>
        <time>2015-08-27T13:07:27Z</time>
      </trkpt>
      <trkpt lat="45.22189" lon="6.66624">
        <ele>1847.0449</ele>
        <time>2015-08-27T13:07:32Z</time>
      </trkpt>
      <trkpt lat="45.22185" lon="6.66617">
        <ele>1844.6234</ele>
        <time>2015-08-27T13:07:42Z</time>
      </trkpt>
      <trkpt lat="45.22183" lon="6.66615">
        <ele>1844.6234</ele>
        <time>2015-08-27T13:07:47Z</time>
      </trkpt>
      <trkpt lat="45.22182" lon="6.66615">
        <ele>1844.6234</ele>
        <time>2015-08-27T13:07:57Z</time>
      </trkpt>
      <trkpt lat="45.22182" lon="6.6662">
        <ele>1844.6234</ele>
        <time>2015-08-27T13:08:02Z</time>
      </trkpt>
      <trkpt lat="45.22179" lon="6.66628">
        <ele>1841.9133</ele>
        <time>2015-08-27T13:08:12Z</time>
      </trkpt>
      <trkpt lat="45.22179" lon="6.66632">
        <ele>1841.9133</ele>
        <time>2015-08-27T13:08:17Z</time>
      </trkpt>
      <trkpt lat="45.22179" lon="6.66637">
        <ele>1841.9133</ele>
        <time>2015-08-27T13:08:32Z</time>
      </trkpt>
      <trkpt lat="45.22179" lon="6.66641">
        <ele>1838.8955</ele>
        <time>2015-08-27T13:08:47Z</time>
      </trkpt>
      <trkpt lat="45.22179" lon="6.66645">
        <ele>1838.8955</ele>
        <time>2015-08-27T13:08:52Z</time>
      </trkpt>
      <trkpt lat="45.22169" lon="6.66679">
        <ele>1835.7406</ele>
        <time>2015-08-27T13:09:02Z</time>
      </trkpt>
      <trkpt lat="45.22166" lon="6.66685">
        <ele>1835.7406</ele>
        <time>2015-08-27T13:09:07Z</time>
      </trkpt>
      <trkpt lat="45.22162" lon="6.66689">
        <ele>1832.3618</ele>
        <time>2015-08-27T13:09:17Z</time>
      </trkpt>
      <trkpt lat="45.2216" lon="6.6669">
        <ele>1832.3618</ele>
        <time>2015-08-27T13:09:22Z</time>
      </trkpt>
      <trkpt lat="45.22157" lon="6.66685">
        <ele>1832.3618</ele>
        <time>2015-08-27T13:09:32Z</time>
      </trkpt>
      <trkpt lat="45.22157" lon="6.66687">
        <ele>1832.3618</ele>
        <time>2015-08-27T13:09:37Z</time>
      </trkpt>
      <trkpt lat="45.22151" lon="6.66686">
        <ele>1828.4059</ele>
        <time>2015-08-27T13:09:52Z</time>
      </trkpt>
      <trkpt lat="45.22148" lon="6.66682">
        <ele>1828.4059</ele>
        <time>2015-08-27T13:09:57Z</time>
      </trkpt>
      <trkpt lat="45.22144" lon="6.66673">
        <ele>1824.2529</ele>
        <time>2015-08-27T13:10:07Z</time>
      </trkpt>
      <trkpt lat="45.22142" lon="6.66664">
        <ele>1824.2529</ele>
        <time>2015-08-27T13:10:12Z</time>
      </trkpt>
      <trkpt lat="45.22139" lon="6.66657">
        <ele>1819.9529</ele>
        <time>2015-08-27T13:10:22Z</time>
      </trkpt>
      <trkpt lat="45.22139" lon="6.66657">
        <ele>1819.9529</ele>
        <time>2015-08-27T13:10:27Z</time>
      </trkpt>
      <trkpt lat="45.22137" lon="6.66658">
        <ele>1819.9529</ele>
        <time>2015-08-27T13:10:37Z</time>
      </trkpt>
      <trkpt lat="45.22136" lon="6.66663">
        <ele>1819.9529</ele>
        <time>2015-08-27T13:10:42Z</time>
      </trkpt>
      <trkpt lat="45.22128" lon="6.66673">
        <ele>1815.322</ele>
        <time>2015-08-27T13:10:52Z</time>
      </trkpt>
      <trkpt lat="45.22127" lon="6.66677">
        <ele>1815.322</ele>
        <time>2015-08-27T13:10:57Z</time>
      </trkpt>
      <trkpt lat="45.22126" lon="6.66684">
        <ele>1815.322</ele>
        <time>2015-08-27T13:11:07Z</time>
      </trkpt>
      <trkpt lat="45.22126" lon="6.66685">
        <ele>1810.5078</ele>
        <time>2015-08-27T13:11:12Z</time>
      </trkpt>
      <trkpt lat="45.22124" lon="6.66694">
        <ele>1810.5078</ele>
        <time>2015-08-27T13:11:22Z</time>
      </trkpt>
      <trkpt lat="45.22124" lon="6.66698">
        <ele>1805.359</ele>
        <time>2015-08-27T13:11:27Z</time>
      </trkpt>
      <trkpt lat="45.22124" lon="6.66704">
        <ele>1805.359</ele>
        <time>2015-08-27T13:11:37Z</time>
      </trkpt>
      <trkpt lat="45.22125" lon="6.66706">
        <ele>1805.359</ele>
        <time>2015-08-27T13:11:42Z</time>
      </trkpt>
      <trkpt lat="45.2212" lon="6.66715">
        <ele>1799.2754</ele>
        <time>2015-08-27T13:11:52Z</time>
      </trkpt>
      <trkpt lat="45.22117" lon="6.6672">
        <ele>1799.2754</ele>
        <time>2015-08-27T13:11:57Z</time>
      </trkpt>
      <trkpt lat="45.22116" lon="6.66726">
        <ele>1799.2754</ele>
        <time>2015-08-27T13:12:07Z</time>
      </trkpt>
      <trkpt lat="45.22115" lon="6.66728">
        <ele>1792.9857</ele>
        <time>2015-08-27T13:12:12Z</time>
      </trkpt>
      <trkpt lat="45.22112" lon="6.66736">
        <ele>1792.9857</ele>
        <time>2015-08-27T13:12:22Z</time>
      </trkpt>
      <trkpt lat="45.22109" lon="6.66743">
        <ele>1787.2518</ele>
        <time>2015-08-27T13:12:27Z</time>
      </trkpt>
      <trkpt lat="45.22109" lon="6.66746">
        <ele>1787.2518</ele>
        <time>2015-08-27T13:12:37Z</time>
      </trkpt>
      <trkpt lat="45.22108" lon="6.66748">
        <ele>1787.2518</ele>
        <time>2015-08-27T13:12:42Z</time>
      </trkpt>
      <trkpt lat="45.22106" lon="6.66756">
        <ele>1782.1586</ele>
        <time>2015-08-27T13:12:52Z</time>
      </trkpt>
      <trkpt lat="45.22102" lon="6.66769">
        <ele>1777.6814</ele>
        <time>2015-08-27T13:12:57Z</time>
      </trkpt>
      <trkpt lat="45.22083" lon="6.66789">
        <ele>1773.349</ele>
        <time>2015-08-27T13:13:12Z</time>
      </trkpt>
      <trkpt lat="45.22084" lon="6.66789">
        <ele>1773.349</ele>
        <time>2015-08-27T13:13:17Z</time>
      </trkpt>
      <trkpt lat="45.22081" lon="6.66787">
        <ele>1773.349</ele>
        <time>2015-08-27T13:13:27Z</time>
      </trkpt>
      <trkpt lat="45.22081" lon="6.66787">
        <ele>1773.349</ele>
        <time>2015-08-27T13:13:32Z</time>
      </trkpt>
      <trkpt lat="45.2208" lon="6.66783">
        <ele>1773.349</ele>
        <time>2015-08-27T13:13:42Z</time>
      </trkpt>
      <trkpt lat="45.22079" lon="6.66781">
        <ele>1773.349</ele>
        <time>2015-08-27T13:13:47Z</time>
      </trkpt>
      <trkpt lat="45.22065" lon="6.66761">
        <ele>1768.7385</ele>
        <time>2015-08-27T13:13:57Z</time>
      </trkpt>
      <trkpt lat="45.22062" lon="6.66757">
        <ele>1768.7385</ele>
        <time>2015-08-27T13:14:02Z</time>
      </trkpt>
      <trkpt lat="45.22054" lon="6.66742">
        <ele>1764.4673</ele>
        <time>2015-08-27T13:14:12Z</time>
      </trkpt>
      <trkpt lat="45.22054" lon="6.66739">
        <ele>1764.4673</ele>
        <time>2015-08-27T13:14:17Z</time>
      </trkpt>
      <trkpt lat="45.22054" lon="6.66732">
        <ele>1764.4673</ele>
        <time>2015-08-27T13:14:27Z</time>
      </trkpt>
      <trkpt lat="45.22051" lon="6.66726">
        <ele>1760.2128</ele>
        <time>2015-08-27T13:14:32Z</time>
      </trkpt>
      <trkpt lat="45.22047" lon="6.66717">
        <ele>1760.2128</ele>
        <time>2015-08-27T13:14:42Z</time>
      </trkpt>
      <trkpt lat="45.22045" lon="6.66713">
        <ele>1755.8921</ele>
        <time>2015-08-27T13:14:47Z</time>
      </trkpt>
      <trkpt lat="45.22042" lon="6.66704">
        <ele>1755.8921</ele>
        <time>2015-08-27T13:15:02Z</time>
      </trkpt>
      <trkpt lat="45.22042" lon="6.66702">
        <ele>1755.8921</ele>
        <time>2015-08-27T13:15:07Z</time>
      </trkpt>
      <trkpt lat="45.22039" lon="6.66694">
        <ele>1751.2266</ele>
        <time>2015-08-27T13:15:17Z</time>
      </trkpt>
      <trkpt lat="45.22038" lon="6.66691">
        <ele>1751.2266</ele>
        <time>2015-08-27T13:15:22Z</time>
      </trkpt>
      <trkpt lat="45.22034" lon="6.66684">
        <ele>1751.2266</ele>
        <time>2015-08-27T13:15:32Z</time>
      </trkpt>
      <trkpt lat="45.2203" lon="6.66681">
        <ele>1746.3044</ele>
        <time>2015-08-27T13:15:37Z</time>
      </trkpt>
      <trkpt lat="45.22031" lon="6.66674">
        <ele>1746.3044</ele>
        <time>2015-08-27T13:15:47Z</time>
      </trkpt>
      <trkpt lat="45.2203" lon="6.66672">
        <ele>1746.3044</ele>
        <time>2015-08-27T13:15:52Z</time>
      </trkpt>
      <trkpt lat="45.22026" lon="6.66666">
        <ele>1740.8912</ele>
        <time>2015-08-27T13:16:02Z</time>
      </trkpt>
      <trkpt lat="45.22023" lon="6.66663">
        <ele>1740.8912</ele>
        <time>2015-08-27T13:16:07Z</time>
      </trkpt>
      <trkpt lat="45.22019" lon="6.66653">
        <ele>1735.5056</ele>
        <time>2015-08-27T13:16:17Z</time>
      </trkpt>
      <trkpt lat="45.22016" lon="6.6665">
        <ele>1735.5056</ele>
        <time>2015-08-27T13:16:22Z</time>
      </trkpt>
      <trkpt lat="45.22014" lon="6.66648">
        <ele>1735.5056</ele>
        <time>2015-08-27T13:16:32Z</time>
      </trkpt>
      <trkpt lat="45.22013" lon="6.66646">
        <ele>1735.5056</ele>
        <time>2015-08-27T13:16:47Z</time>
      </trkpt>
      <trkpt lat="45.22009" lon="6.66641">
        <ele>1729.302</ele>
        <time>2015-08-27T13:16:52Z</time>
      </trkpt>
      <trkpt lat="45.22003" lon="6.66636">
        <ele>1729.302</ele>
        <time>2015-08-27T13:17:02Z</time>
      </trkpt>
      <trkpt lat="45.22002" lon="6.66634">
        <ele>1729.302</ele>
        <time>2015-08-27T13:17:07Z</time>
      </trkpt>
      <trkpt lat="45.21998" lon="6.66631">
        <ele>1722.1477</ele>
        <time>2015-08-27T13:17:22Z</time>
      </trkpt>
      <trkpt lat="45.21998" lon="6.66632">
        <ele>1722.1477</ele>
        <time>2015-08-27T13:17:27Z</time>
      </trkpt>
      <trkpt lat="45.21997" lon="6.66635">
        <ele>1722.1477</ele>
        <time>2015-08-27T13:17:37Z</time>
      </trkpt>
      <trkpt lat="45.21996" lon="6.66644">
        <ele>1714.4985</ele>
        <time>2015-08-27T13:17:42Z</time>
      </trkpt>
      <trkpt lat="45.21995" lon="6.66647">
        <ele>1714.4985</ele>
        <time>2015-08-27T13:17:52Z</time>
      </trkpt>
      <trkpt lat="45.21995" lon="6.66649">
        <ele>1714.4985</ele>
        <time>2015-08-27T13:17:57Z</time>
      </trkpt>
      <trkpt lat="45.21993" lon="6.66654">
        <ele>1714.4985</ele>
        <time>2015-08-27T13:18:07Z</time>
      </trkpt>
      <trkpt lat="45.21993" lon="6.66656">
        <ele>1714.4985</ele>
        <time>2015-08-27T13:18:12Z</time>
      </trkpt>
      <trkpt lat="45.21991" lon="6.66666">
        <ele>1706.7345</ele>
        <time>2015-08-27T13:18:22Z</time>
      </trkpt>
      <trkpt lat="45.21991" lon="6.66666">
        <ele>1706.7345</ele>
        <time>2015-08-27T13:18:27Z</time>
      </trkpt>
      <trkpt lat="45.21985" lon="6.66674">
        <ele>1706.7345</ele>
        <time>2015-08-27T13:18:37Z</time>
      </trkpt>
      <trkpt lat="45.21983" lon="6.66674">
        <ele>1699.4675</ele>
        <time>2015-08-27T13:18:42Z</time>
      </trkpt>
      <trkpt lat="45.21978" lon="6.66673">
        <ele>1699.4675</ele>
        <time>2015-08-27T13:18:52Z</time>
      </trkpt>
      <trkpt lat="45.21976" lon="6.6667">
        <ele>1699.4675</ele>
        <time>2015-08-27T13:18:57Z</time>
      </trkpt>
      <trkpt lat="45.21969" lon="6.66666">
        <ele>1693.0464</ele>
        <time>2015-08-27T13:19:07Z</time>
      </trkpt>
      <trkpt lat="45.21966" lon="6.66664">
        <ele>1693.0464</ele>
        <time>2015-08-27T13:19:12Z</time>
      </trkpt>
      <trkpt lat="45.2196" lon="6.66661">
        <ele>1687.2587</ele>
        <time>2015-08-27T13:19:27Z</time>
      </trkpt>
      <trkpt lat="45.21955" lon="6.66658">
        <ele>1687.2587</ele>
        <time>2015-08-27T13:19:32Z</time>
      </trkpt>
      <trkpt lat="45.21951" lon="6.66655">
        <ele>1682.0205</ele>
        <time>2015-08-27T13:19:42Z</time>
      </trkpt>
      <trkpt lat="45.21948" lon="6.66652">
        <ele>1682.0205</ele>
        <time>2015-08-27T13:19:47Z</time>
      </trkpt>
      <trkpt lat="45.21948" lon="6.66651">
        <ele>1682.0205</ele>
        <time>2015-08-27T13:19:57Z</time>
      </trkpt>
      <trkpt lat="45.21945" lon="6.6665">
        <ele>1682.0205</ele>
        <time>2015-08-27T13:20:02Z</time>
      </trkpt>
      <trkpt lat="45.21944" lon="6.6665">
        <ele>1682.0205</ele>
        <time>2015-08-27T13:20:12Z</time>
      </trkpt>
      <trkpt lat="45.2194" lon="6.66646">
        <ele>1676.6906</ele>
        <time>2015-08-27T13:20:17Z</time>
      </trkpt>
      <trkpt lat="45.21933" lon="6.6664">
        <ele>1676.6906</ele>
        <time>2015-08-27T13:20:27Z</time>
      </trkpt>
      <trkpt lat="45.21932" lon="6.66639">
        <ele>1671.64</ele>
        <time>2015-08-27T13:20:32Z</time>
      </trkpt>
      <trkpt lat="45.21928" lon="6.66637">
        <ele>1671.64</ele>
        <time>2015-08-27T13:20:42Z</time>
      </trkpt>
      <trkpt lat="45.21923" lon="6.66633">
        <ele>1666.6063</ele>
        <time>2015-08-27T13:20:47Z</time>
      </trkpt>
      <trkpt lat="45.21923" lon="6.66633">
        <ele>1666.6063</ele>
        <time>2015-08-27T13:20:57Z</time>
      </trkpt>
      <trkpt lat="45.21921" lon="6.66633">
        <ele>1666.6063</ele>
        <time>2015-08-27T13:23:37Z</time>
      </trkpt>
      <trkpt lat="45.21909" lon="6.66626">
        <ele>1660.6833</ele>
        <time>2015-08-27T13:23:47Z</time>
      </trkpt>
      <trkpt lat="45.21901" lon="6.66623">
        <ele>1660.6833</ele>
        <time>2015-08-27T13:23:52Z</time>
      </trkpt>
      <trkpt lat="45.21896" lon="6.66616">
        <ele>1654.7338</ele>
        <time>2015-08-27T13:24:07Z</time>
      </trkpt>
      <trkpt lat="45.21895" lon="6.66614">
        <ele>1654.7338</ele>
        <time>2015-08-27T13:24:12Z</time>
      </trkpt>
      <trkpt lat="45.21891" lon="6.66612">
        <ele>1654.7338</ele>
        <time>2015-08-27T13:24:22Z</time>
      </trkpt>
      <trkpt lat="45.21883" lon="6.66606">
        <ele>1649.2258</ele>
        <time>2015-08-27T13:24:27Z</time>
      </trkpt>
      <trkpt lat="45.21882" lon="6.66603">
        <ele>1649.2258</ele>
        <time>2015-08-27T13:24:37Z</time>
      </trkpt>
      <trkpt lat="45.21872" lon="6.66596">
        <ele>1643.9574</ele>
        <time>2015-08-27T13:24:52Z</time>
      </trkpt>
      <trkpt lat="45.21868" lon="6.66592">
        <ele>1643.9574</ele>
        <time>2015-08-27T13:24:57Z</time>
      </trkpt>
      <trkpt lat="45.21862" lon="6.66588">
        <ele>1638.8556</ele>
        <time>2015-08-27T13:25:07Z</time>
      </trkpt>
      <trkpt lat="45.2186" lon="6.66586">
        <ele>1638.8556</ele>
        <time>2015-08-27T13:25:12Z</time>
      </trkpt>
      <trkpt lat="45.21852" lon="6.66581">
        <ele>1633.8958</ele>
        <time>2015-08-27T13:25:22Z</time>
      </trkpt>
      <trkpt lat="45.2185" lon="6.66577">
        <ele>1633.8958</ele>
        <time>2015-08-27T13:25:27Z</time>
      </trkpt>
      <trkpt lat="45.2184" lon="6.66569">
        <ele>1629.3566</ele>
        <time>2015-08-27T13:25:37Z</time>
      </trkpt>
      <trkpt lat="45.21838" lon="6.66568">
        <ele>1629.3566</ele>
        <time>2015-08-27T13:25:42Z</time>
      </trkpt>
      <trkpt lat="45.21828" lon="6.66562">
        <ele>1625.0774</ele>
        <time>2015-08-27T13:25:52Z</time>
      </trkpt>
      <trkpt lat="45.21828" lon="6.66562">
        <ele>1625.0774</ele>
        <time>2015-08-27T13:25:57Z</time>
      </trkpt>
      <trkpt lat="45.21807" lon="6.66544">
        <ele>1620.6057</ele>
        <time>2015-08-27T13:26:12Z</time>
      </trkpt>
      <trkpt lat="45.21804" lon="6.66535">
        <ele>1620.6057</ele>
        <time>2015-08-27T13:26:17Z</time>
      </trkpt>
      <trkpt lat="45.21802" lon="6.66528">
        <ele>1615.8251</ele>
        <time>2015-08-27T13:26:27Z</time>
      </trkpt>
      <trkpt lat="45.21801" lon="6.66528">
        <ele>1615.8251</ele>
        <time>2015-08-27T13:26:32Z</time>
      </trkpt>
      <trkpt lat="45.21801" lon="6.66527">
        <ele>1615.8251</ele>
        <time>2015-08-27T13:26:42Z</time>
      </trkpt>
      <trkpt lat="45.21793" lon="6.66525">
        <ele>1611.3346</ele>
        <time>2015-08-27T13:26:47Z</time>
      </trkpt>
      <trkpt lat="45.21789" lon="6.66526">
        <ele>1611.3346</ele>
        <time>2015-08-27T13:26:57Z</time>
      </trkpt>
      <trkpt lat="45.21784" lon="6.66525">
        <ele>1611.3346</ele>
        <time>2015-08-27T13:27:02Z</time>
      </trkpt>
      <trkpt lat="45.21773" lon="6.6652">
        <ele>1606.5355</ele>
        <time>2015-08-27T13:27:12Z</time>
      </trkpt>
      <trkpt lat="45.21768" lon="6.6652">
        <ele>1606.5355</ele>
        <time>2015-08-27T13:27:17Z</time>
      </trkpt>
      <trkpt lat="45.21762" lon="6.66516">
        <ele>1601.9402</ele>
        <time>2015-08-27T13:27:27Z</time>
      </trkpt>
      <trkpt lat="45.21758" lon="6.66515">
        <ele>1601.9402</ele>
        <time>2015-08-27T13:27:32Z</time>
      </trkpt>
      <trkpt lat="45.21754" lon="6.66512">
        <ele>1601.9402</ele>
        <time>2015-08-27T13:27:42Z</time>
      </trkpt>
      <trkpt lat="45.21751" lon="6.6651">
        <ele>1596.8987</ele>
        <time>2015-08-27T13:27:47Z</time>
      </trkpt>
      <trkpt lat="45.21748" lon="6.66509">
        <ele>1596.8987</ele>
        <time>2015-08-27T13:28:02Z</time>
      </trkpt>
      <trkpt lat="45.21739" lon="6.66508">
        <ele>1591.5736</ele>
        <time>2015-08-27T13:28:17Z</time>
      </trkpt>
      <trkpt lat="45.21738" lon="6.66508">
        <ele>1591.5736</ele>
        <time>2015-08-27T13:28:22Z</time>
      </trkpt>
      <trkpt lat="45.21731" lon="6.66509">
        <ele>1591.5736</ele>
        <time>2015-08-27T13:28:32Z</time>
      </trkpt>
      <trkpt lat="45.21731" lon="6.66509">
        <ele>1591.5736</ele>
        <time>2015-08-27T13:28:37Z</time>
      </trkpt>
      <trkpt lat="45.21724" lon="6.6651">
        <ele>1586.4478</ele>
        <time>2015-08-27T13:28:47Z</time>
      </trkpt>
      <trkpt lat="45.21718" lon="6.66509">
        <ele>1586.4478</ele>
        <time>2015-08-27T13:28:52Z</time>
      </trkpt>
      <trkpt lat="45.21715" lon="6.66509">
        <ele>1586.4478</ele>
        <time>2015-08-27T13:29:02Z</time>
      </trkpt>
      <trkpt lat="45.21715" lon="6.66509">
        <ele>1586.4478</ele>
        <time>2015-08-27T13:29:07Z</time>
      </trkpt>
      <trkpt lat="45.21709" lon="6.66511">
        <ele>1581.0024</ele>
        <time>2015-08-27T13:29:17Z</time>
      </trkpt>
      <trkpt lat="45.21708" lon="6.6651">
        <ele>1581.0024</ele>
        <time>2015-08-27T13:29:22Z</time>
      </trkpt>
      <trkpt lat="45.21698" lon="6.66509">
        <ele>1576.0404</ele>
        <time>2015-08-27T13:29:32Z</time>
      </trkpt>
      <trkpt lat="45.21695" lon="6.66509">
        <ele>1576.0404</ele>
        <time>2015-08-27T13:29:37Z</time>
      </trkpt>
      <trkpt lat="45.21671" lon="6.66504">
        <ele>1571.0789</ele>
        <time>2015-08-27T13:29:52Z</time>
      </trkpt>
      <trkpt lat="45.21665" lon="6.66504">
        <ele>1571.0789</ele>
        <time>2015-08-27T13:29:57Z</time>
      </trkpt>
      <trkpt lat="45.2166" lon="6.6651">
        <ele>1565.8436</ele>
        <time>2015-08-27T13:30:07Z</time>
      </trkpt>
      <trkpt lat="45.21657" lon="6.6651">
        <ele>1565.8436</ele>
        <time>2015-08-27T13:30:12Z</time>
      </trkpt>
      <trkpt lat="45.2165" lon="6.66504">
        <ele>1560.5568</ele>
        <time>2015-08-27T13:30:22Z</time>
      </trkpt>
      <trkpt lat="45.21646" lon="6.66504">
        <ele>1560.5568</ele>
        <time>2015-08-27T13:30:27Z</time>
      </trkpt>
      <trkpt lat="45.2164" lon="6.66504">
        <ele>1555.1069</ele>
        <time>2015-08-27T13:30:37Z</time>
      </trkpt>
      <trkpt lat="45.21636" lon="6.66502">
        <ele>1555.1069</ele>
        <time>2015-08-27T13:30:42Z</time>
      </trkpt>
      <trkpt lat="45.21631" lon="6.66499">
        <ele>1549.4926</ele>
        <time>2015-08-27T13:30:52Z</time>
      </trkpt>
      <trkpt lat="45.21629" lon="6.66496">
        <ele>1549.4926</ele>
        <time>2015-08-27T13:30:57Z</time>
      </trkpt>
      <trkpt lat="45.21626" lon="6.66495">
        <ele>1549.4926</ele>
        <time>2015-08-27T13:31:07Z</time>
      </trkpt>
      <trkpt lat="45.21622" lon="6.66491">
        <ele>1543.5684</ele>
        <time>2015-08-27T13:31:12Z</time>
      </trkpt>
      <trkpt lat="45.21613" lon="6.66488">
        <ele>1538.1227</ele>
        <time>2015-08-27T13:31:22Z</time>
      </trkpt>
      <trkpt lat="45.21606" lon="6.66485">
        <ele>1538.1227</ele>
        <time>2015-08-27T13:31:27Z</time>
      </trkpt>
      <trkpt lat="45.216" lon="6.6648">
        <ele>1532.9335</ele>
        <time>2015-08-27T13:31:37Z</time>
      </trkpt>
      <trkpt lat="45.21597" lon="6.66476">
        <ele>1532.9335</ele>
        <time>2015-08-27T13:31:42Z</time>
      </trkpt>
      <trkpt lat="45.21592" lon="6.66466">
        <ele>1528.1404</ele>
        <time>2015-08-27T13:31:52Z</time>
      </trkpt>
      <trkpt lat="45.21591" lon="6.66463">
        <ele>1528.1404</ele>
        <time>2015-08-27T13:31:57Z</time>
      </trkpt>
      <trkpt lat="45.21588" lon="6.66456">
        <ele>1528.1404</ele>
        <time>2015-08-27T13:32:07Z</time>
      </trkpt>
      <trkpt lat="45.21586" lon="6.66451">
        <ele>1523.684</ele>
        <time>2015-08-27T13:32:12Z</time>
      </trkpt>
      <trkpt lat="45.21583" lon="6.66441">
        <ele>1523.684</ele>
        <time>2015-08-27T13:32:22Z</time>
      </trkpt>
      <trkpt lat="45.21582" lon="6.66439">
        <ele>1519.5514</ele>
        <time>2015-08-27T13:32:27Z</time>
      </trkpt>
      <trkpt lat="45.21578" lon="6.66424">
        <ele>1515.7157</ele>
        <time>2015-08-27T13:32:42Z</time>
      </trkpt>
      <trkpt lat="45.21576" lon="6.66422">
        <ele>1515.7157</ele>
        <time>2015-08-27T13:32:47Z</time>
      </trkpt>
      <trkpt lat="45.21574" lon="6.66418">
        <ele>1515.7157</ele>
        <time>2015-08-27T13:32:57Z</time>
      </trkpt>
      <trkpt lat="45.21573" lon="6.66418">
        <ele>1515.7157</ele>
        <time>2015-08-27T13:33:02Z</time>
      </trkpt>
      <trkpt lat="45.21572" lon="6.66421">
        <ele>1511.3583</ele>
        <time>2015-08-27T13:33:12Z</time>
      </trkpt>
      <trkpt lat="45.21572" lon="6.66426">
        <ele>1511.3583</ele>
        <time>2015-08-27T13:33:17Z</time>
      </trkpt>
      <trkpt lat="45.21569" lon="6.66433">
        <ele>1507.0048</ele>
        <time>2015-08-27T13:33:27Z</time>
      </trkpt>
      <trkpt lat="45.21567" lon="6.66436">
        <ele>1507.0048</ele>
        <time>2015-08-27T13:33:32Z</time>
      </trkpt>
      <trkpt lat="45.21563" lon="6.66443">
        <ele>1507.0048</ele>
        <time>2015-08-27T13:33:42Z</time>
      </trkpt>
      <trkpt lat="45.21561" lon="6.66449">
        <ele>1502.6808</ele>
        <time>2015-08-27T13:33:47Z</time>
      </trkpt>
      <trkpt lat="45.21558" lon="6.66458">
        <ele>1502.6808</ele>
        <time>2015-08-27T13:33:57Z</time>
      </trkpt>
      <trkpt lat="45.21555" lon="6.66462">
        <ele>1498.4391</ele>
        <time>2015-08-27T13:34:02Z</time>
      </trkpt>
      <trkpt lat="45.21549" lon="6.6647">
        <ele>1498.4391</ele>
        <time>2015-08-27T13:34:12Z</time>
      </trkpt>
      <trkpt lat="45.21548" lon="6.66471">
        <ele>1494.3859</ele>
        <time>2015-08-27T13:34:17Z</time>
      </trkpt>
      <trkpt lat="45.21543" lon="6.6647">
        <ele>1494.3859</ele>
        <time>2015-08-27T13:34:27Z</time>
      </trkpt>
      <trkpt lat="45.21542" lon="6.6647">
        <ele>1494.3859</ele>
        <time>2015-08-27T13:34:32Z</time>
      </trkpt>
      <trkpt lat="45.21531" lon="6.66469">
        <ele>1489.6824</ele>
        <time>2015-08-27T13:34:47Z</time>
      </trkpt>
      <trkpt lat="45.21528" lon="6.66466">
        <ele>1489.6824</ele>
        <time>2015-08-27T13:34:52Z</time>
      </trkpt>
      <trkpt lat="45.21518" lon="6.66469">
        <ele>1485.2106</ele>
        <time>2015-08-27T13:35:02Z</time>
      </trkpt>
      <trkpt lat="45.21515" lon="6.6647">
        <ele>1485.2106</ele>
        <time>2015-08-27T13:35:07Z</time>
      </trkpt>
      <trkpt lat="45.21509" lon="6.66469">
        <ele>1481.0088</ele>
        <time>2015-08-27T13:35:17Z</time>
      </trkpt>
      <trkpt lat="45.21506" lon="6.66468">
        <ele>1481.0088</ele>
        <time>2015-08-27T13:35:22Z</time>
      </trkpt>
      <trkpt lat="45.21498" lon="6.66466">
        <ele>1476.982</ele>
        <time>2015-08-27T13:35:32Z</time>
      </trkpt>
      <trkpt lat="45.21496" lon="6.66466">
        <ele>1476.982</ele>
        <time>2015-08-27T13:35:37Z</time>
      </trkpt>
      <trkpt lat="45.2149" lon="6.66465">
        <ele>1476.982</ele>
        <time>2015-08-27T13:35:47Z</time>
      </trkpt>
      <trkpt lat="45.21487" lon="6.66464">
        <ele>1473.1431</ele>
        <time>2015-08-27T13:35:52Z</time>
      </trkpt>
      <trkpt lat="45.21485" lon="6.66466">
        <ele>1473.1431</ele>
        <time>2015-08-27T13:36:02Z</time>
      </trkpt>
      <trkpt lat="45.21484" lon="6.66467">
        <ele>1473.1431</ele>
        <time>2015-08-27T13:36:07Z</time>
      </trkpt>
      <trkpt lat="45.21482" lon="6.66467">
        <ele>1473.1431</ele>
        <time>2015-08-27T13:36:17Z</time>
      </trkpt>
      <trkpt lat="45.2148" lon="6.66469">
        <ele>1473.1431</ele>
        <time>2015-08-27T13:36:32Z</time>
      </trkpt>
      <trkpt lat="45.2148" lon="6.66469">
        <ele>1473.1431</ele>
        <time>2015-08-27T13:36:37Z</time>
      </trkpt>
      <trkpt lat="45.21478" lon="6.6647">
        <ele>1468.5806</ele>
        <time>2015-08-27T13:36:47Z</time>
      </trkpt>
      <trkpt lat="45.21476" lon="6.66473">
        <ele>1468.5806</ele>
        <time>2015-08-27T13:36:52Z</time>
      </trkpt>
      <trkpt lat="45.21473" lon="6.66476">
        <ele>1468.5806</ele>
        <time>2015-08-27T13:37:02Z</time>
      </trkpt>
      <trkpt lat="45.21473" lon="6.66476">
        <ele>1468.5806</ele>
        <time>2015-08-27T13:37:07Z</time>
      </trkpt>
      <trkpt lat="45.21448" lon="6.66489">
        <ele>1462.6108</ele>
        <time>2015-08-27T13:37:22Z</time>
      </trkpt>
      <trkpt lat="45.21442" lon="6.66491">
        <ele>1462.6108</ele>
        <time>2015-08-27T13:37:27Z</time>
      </trkpt>
      <trkpt lat="45.21435" lon="6.66495">
        <ele>1456.752</ele>
        <time>2015-08-27T13:37:37Z</time>
      </trkpt>
      <trkpt lat="45.2143" lon="6.66498">
        <ele>1456.752</ele>
        <time>2015-08-27T13:37:42Z</time>
      </trkpt>
      <trkpt lat="45.21428" lon="6.66499">
        <ele>1456.752</ele>
        <time>2015-08-27T13:37:52Z</time>
      </trkpt>
      <trkpt lat="45.21427" lon="6.66498">
        <ele>1456.752</ele>
        <time>2015-08-27T13:37:57Z</time>
      </trkpt>
      <trkpt lat="45.21416" lon="6.66502">
        <ele>1451.2712</ele>
        <time>2015-08-27T13:38:07Z</time>
      </trkpt>
      <trkpt lat="45.21414" lon="6.66504">
        <ele>1451.2712</ele>
        <time>2015-08-27T13:38:12Z</time>
      </trkpt>
      <trkpt lat="45.21406" lon="6.66505">
        <ele>1446.1997</ele>
        <time>2015-08-27T13:38:22Z</time>
      </trkpt>
      <trkpt lat="45.21401" lon="6.66505">
        <ele>1446.1997</ele>
        <time>2015-08-27T13:38:27Z</time>
      </trkpt>
      <trkpt lat="45.21394" lon="6.66508">
        <ele>1441.2476</ele>
        <time>2015-08-27T13:38:37Z</time>
      </trkpt>
      <trkpt lat="45.21391" lon="6.66508">
        <ele>1441.2476</ele>
        <time>2015-08-27T13:38:42Z</time>
      </trkpt>
      <trkpt lat="45.21391" lon="6.66507">
        <ele>1441.2476</ele>
        <time>2015-08-27T13:38:52Z</time>
      </trkpt>
      <trkpt lat="45.21391" lon="6.66508">
        <ele>1441.2476</ele>
        <time>2015-08-27T13:38:57Z</time>
      </trkpt>
      <trkpt lat="45.21397" lon="6.66506">
        <ele>1436.2902</ele>
        <time>2015-08-27T13:39:07Z</time>
      </trkpt>
      <trkpt lat="45.21399" lon="6.66507">
        <ele>1436.2902</ele>
        <time>2015-08-27T13:39:12Z</time>
      </trkpt>
      <trkpt lat="45.214" lon="6.6651">
        <ele>1436.2902</ele>
        <time>2015-08-27T13:39:22Z</time>
      </trkpt>
      <trkpt lat="45.21396" lon="6.66508">
        <ele>1431.7312</ele>
        <time>2015-08-27T13:39:27Z</time>
      </trkpt>
      <trkpt lat="45.21396" lon="6.66508">
        <ele>1431.7312</ele>
        <time>2015-08-27T13:39:37Z</time>
      </trkpt>
      <trkpt lat="45.21396" lon="6.66507">
        <ele>1431.7312</ele>
        <time>2015-08-27T13:39:52Z</time>
      </trkpt>
      <trkpt lat="45.21395" lon="6.66508">
        <ele>1431.7312</ele>
        <time>2015-08-27T13:40:07Z</time>
      </trkpt>
      <trkpt lat="45.21395" lon="6.66508">
        <ele>1431.7312</ele>
        <time>2015-08-27T13:40:12Z</time>
      </trkpt>
      <trkpt lat="45.21393" lon="6.66507">
        <ele>1431.7312</ele>
        <time>2015-08-27T13:40:57Z</time>
      </trkpt>
      <trkpt lat="45.21393" lon="6.66507">
        <ele>1431.7312</ele>
        <time>2015-08-27T13:41:02Z</time>
      </trkpt>
      <trkpt lat="45.21393" lon="6.66503">
        <ele>1431.7312</ele>
        <time>2015-08-27T13:41:12Z</time>
      </trkpt>
      <trkpt lat="45.21394" lon="6.66495">
        <ele>1426.7903</ele>
        <time>2015-08-27T13:41:17Z</time>
      </trkpt>
      <trkpt lat="45.21397" lon="6.66484">
        <ele>1426.7903</ele>
        <time>2015-08-27T13:41:27Z</time>
      </trkpt>
      <trkpt lat="45.21397" lon="6.66483">
        <ele>1422.1293</ele>
        <time>2015-08-27T13:41:32Z</time>
      </trkpt>
      <trkpt lat="45.214" lon="6.6647">
        <ele>1418.0001</ele>
        <time>2015-08-27T13:41:42Z</time>
      </trkpt>
      <trkpt lat="45.21401" lon="6.66469">
        <ele>1418.0001</ele>
        <time>2015-08-27T13:41:47Z</time>
      </trkpt>
      <trkpt lat="45.21404" lon="6.66462">
        <ele>1418.0001</ele>
        <time>2015-08-27T13:41:57Z</time>
      </trkpt>
      <trkpt lat="45.21406" lon="6.66454">
        <ele>1413.8568</ele>
        <time>2015-08-27T13:42:02Z</time>
      </trkpt>
      <trkpt lat="45.21408" lon="6.66449">
        <ele>1413.8568</ele>
        <time>2015-08-27T13:42:12Z</time>
      </trkpt>
      <trkpt lat="45.21408" lon="6.66443">
        <ele>1413.8568</ele>
        <time>2015-08-27T13:42:17Z</time>
      </trkpt>
      <trkpt lat="45.21411" lon="6.66431">
        <ele>1409.8563</ele>
        <time>2015-08-27T13:42:27Z</time>
      </trkpt>
      <trkpt lat="45.21412" lon="6.66428">
        <ele>1409.8563</ele>
        <time>2015-08-27T13:42:32Z</time>
      </trkpt>
      <trkpt lat="45.21415" lon="6.66417">
        <ele>1405.9276</ele>
        <time>2015-08-27T13:42:42Z</time>
      </trkpt>
      <trkpt lat="45.21417" lon="6.66408">
        <ele>1405.9276</ele>
        <time>2015-08-27T13:42:47Z</time>
      </trkpt>
      <trkpt lat="45.2142" lon="6.66402">
        <ele>1402.1055</ele>
        <time>2015-08-27T13:42:57Z</time>
      </trkpt>
      <trkpt lat="45.21422" lon="6.66397">
        <ele>1402.1055</ele>
        <time>2015-08-27T13:43:02Z</time>
      </trkpt>
      <trkpt lat="45.21428" lon="6.66384">
        <ele>1398.5663</ele>
        <time>2015-08-27T13:43:12Z</time>
      </trkpt>
      <trkpt lat="45.21429" lon="6.66377">
        <ele>1398.5663</ele>
        <time>2015-08-27T13:43:17Z</time>
      </trkpt>
      <trkpt lat="45.21431" lon="6.6637">
        <ele>1394.9393</ele>
        <time>2015-08-27T13:43:27Z</time>
      </trkpt>
      <trkpt lat="45.21431" lon="6.66369">
        <ele>1394.9393</ele>
        <time>2015-08-27T13:43:32Z</time>
      </trkpt>
      <trkpt lat="45.21431" lon="6.66352">
        <ele>1391.4434</ele>
        <time>2015-08-27T13:43:47Z</time>
      </trkpt>
      <trkpt lat="45.21431" lon="6.66351">
        <ele>1391.4434</ele>
        <time>2015-08-27T13:43:52Z</time>
      </trkpt>
      <trkpt lat="45.21434" lon="6.66333">
        <ele>1388.3386</ele>
        <time>2015-08-27T13:44:02Z</time>
      </trkpt>
      <trkpt lat="45.21434" lon="6.66332">
        <ele>1388.3386</ele>
        <time>2015-08-27T13:44:07Z</time>
      </trkpt>
      <trkpt lat="45.21434" lon="6.66325">
        <ele>1388.3386</ele>
        <time>2015-08-27T13:44:17Z</time>
      </trkpt>
      <trkpt lat="45.21431" lon="6.66319">
        <ele>1385.6057</ele>
        <time>2015-08-27T13:44:22Z</time>
      </trkpt>
      <trkpt lat="45.21422" lon="6.66308">
        <ele>1383.3268</ele>
        <time>2015-08-27T13:44:32Z</time>
      </trkpt>
      <trkpt lat="45.21419" lon="6.66303">
        <ele>1383.3268</ele>
        <time>2015-08-27T13:44:37Z</time>
      </trkpt>
      <trkpt lat="45.2141" lon="6.66288">
        <ele>1381.1729</ele>
        <time>2015-08-27T13:44:47Z</time>
      </trkpt>
      <trkpt lat="45.21407" lon="6.66284">
        <ele>1381.1729</ele>
        <time>2015-08-27T13:44:52Z</time>
      </trkpt>
      <trkpt lat="45.21406" lon="6.66282">
        <ele>1381.1729</ele>
        <time>2015-08-27T13:45:02Z</time>
      </trkpt>
      <trkpt lat="45.21404" lon="6.66281">
        <ele>1381.1729</ele>
        <time>2015-08-27T13:45:07Z</time>
      </trkpt>
      <trkpt lat="45.21402" lon="6.66281">
        <ele>1379.142</ele>
        <time>2015-08-27T13:45:17Z</time>
      </trkpt>
      <trkpt lat="45.21397" lon="6.66279">
        <ele>1379.142</ele>
        <time>2015-08-27T13:45:22Z</time>
      </trkpt>
      <trkpt lat="45.21388" lon="6.66278">
        <ele>1377.3326</ele>
        <time>2015-08-27T13:45:32Z</time>
      </trkpt>
      <trkpt lat="45.21388" lon="6.66278">
        <ele>1377.3326</ele>
        <time>2015-08-27T13:45:37Z</time>
      </trkpt>
      <trkpt lat="45.21386" lon="6.66278">
        <ele>1377.3326</ele>
        <time>2015-08-27T13:45:47Z</time>
      </trkpt>
      <trkpt lat="45.21383" lon="6.66276">
        <ele>1377.3326</ele>
        <time>2015-08-27T13:45:52Z</time>
      </trkpt>
      <trkpt lat="45.21375" lon="6.66266">
        <ele>1375.101</ele>
        <time>2015-08-27T13:46:07Z</time>
      </trkpt>
      <trkpt lat="45.21372" lon="6.66264">
        <ele>1375.101</ele>
        <time>2015-08-27T13:46:12Z</time>
      </trkpt>
      <trkpt lat="45.21356" lon="6.66255">
        <ele>1372.9033</ele>
        <time>2015-08-27T13:46:22Z</time>
      </trkpt>
      <trkpt lat="45.21348" lon="6.66245">
        <ele>1371.0479</ele>
        <time>2015-08-27T13:46:27Z</time>
      </trkpt>
      <trkpt lat="45.21341" lon="6.66246">
        <ele>1371.0479</ele>
        <time>2015-08-27T13:46:37Z</time>
      </trkpt>
      <trkpt lat="45.2134" lon="6.66246">
        <ele>1371.0479</ele>
        <time>2015-08-27T13:46:42Z</time>
      </trkpt>
      <trkpt lat="45.21335" lon="6.66249">
        <ele>1368.8677</ele>
        <time>2015-08-27T13:46:52Z</time>
      </trkpt>
      <trkpt lat="45.21333" lon="6.66249">
        <ele>1368.8677</ele>
        <time>2015-08-27T13:46:57Z</time>
      </trkpt>
      <trkpt lat="45.21323" lon="6.66251">
        <ele>1366.755</ele>
        <time>2015-08-27T13:47:07Z</time>
      </trkpt>
      <trkpt lat="45.21313" lon="6.66249">
        <ele>1364.9292</ele>
        <time>2015-08-27T13:47:12Z</time>
      </trkpt>
      <trkpt lat="45.213" lon="6.66248">
        <ele>1363.117</ele>
        <time>2015-08-27T13:47:22Z</time>
      </trkpt>
      <trkpt lat="45.21296" lon="6.66247">
        <ele>1363.117</ele>
        <time>2015-08-27T13:47:27Z</time>
      </trkpt>
      <trkpt lat="45.2129" lon="6.66246">
        <ele>1360.9071</ele>
        <time>2015-08-27T13:47:37Z</time>
      </trkpt>
      <trkpt lat="45.21287" lon="6.66244">
        <ele>1360.9071</ele>
        <time>2015-08-27T13:47:42Z</time>
      </trkpt>
      <trkpt lat="45.21272" lon="6.66243">
        <ele>1358.0638</ele>
        <time>2015-08-27T13:47:57Z</time>
      </trkpt>
      <trkpt lat="45.21267" lon="6.66242">
        <ele>1358.0638</ele>
        <time>2015-08-27T13:48:02Z</time>
      </trkpt>
      <trkpt lat="45.21266" lon="6.66243">
        <ele>1358.0638</ele>
        <time>2015-08-27T13:48:12Z</time>
      </trkpt>
      <trkpt lat="45.21266" lon="6.66243">
        <ele>1358.0638</ele>
        <time>2015-08-27T13:48:17Z</time>
      </trkpt>
      <trkpt lat="45.21265" lon="6.66244">
        <ele>1358.0638</ele>
        <time>2015-08-27T13:48:42Z</time>
      </trkpt>
      <trkpt lat="45.21258" lon="6.66241">
        <ele>1353.9674</ele>
        <time>2015-08-27T13:48:47Z</time>
      </trkpt>
      <trkpt lat="45.21247" lon="6.66237">
        <ele>1349.834</ele>
        <time>2015-08-27T13:48:57Z</time>
      </trkpt>
      <trkpt lat="45.21247" lon="6.66237">
        <ele>1349.834</ele>
        <time>2015-08-27T13:49:02Z</time>
      </trkpt>
      <trkpt lat="45.21244" lon="6.66237">
        <ele>1349.834</ele>
        <time>2015-08-27T13:49:12Z</time>
      </trkpt>
      <trkpt lat="45.2123" lon="6.6624">
        <ele>1345.609</ele>
        <time>2015-08-27T13:49:17Z</time>
      </trkpt>
      <trkpt lat="45.21219" lon="6.66237">
        <ele>1341.5597</ele>
        <time>2015-08-27T13:49:27Z</time>
      </trkpt>
      <trkpt lat="45.21213" lon="6.66235">
        <ele>1341.5597</ele>
        <time>2015-08-27T13:49:32Z</time>
      </trkpt>
      <trkpt lat="45.21205" lon="6.66228">
        <ele>1337.3853</ele>
        <time>2015-08-27T13:49:42Z</time>
      </trkpt>
      <trkpt lat="45.21201" lon="6.66229">
        <ele>1337.3853</ele>
        <time>2015-08-27T13:49:47Z</time>
      </trkpt>
      <trkpt lat="45.21207" lon="6.66238">
        <ele>1332.8221</ele>
        <time>2015-08-27T13:49:57Z</time>
      </trkpt>
      <trkpt lat="45.21207" lon="6.66242">
        <ele>1332.8221</ele>
        <time>2015-08-27T13:50:02Z</time>
      </trkpt>
      <trkpt lat="45.21212" lon="6.66252">
        <ele>1327.9589</ele>
        <time>2015-08-27T13:50:12Z</time>
      </trkpt>
      <trkpt lat="45.21214" lon="6.66258">
        <ele>1327.9589</ele>
        <time>2015-08-27T13:50:17Z</time>
      </trkpt>
      <trkpt lat="45.21218" lon="6.66266">
        <ele>1323.0225</ele>
        <time>2015-08-27T13:50:27Z</time>
      </trkpt>
      <trkpt lat="45.21219" lon="6.66272">
        <ele>1323.0225</ele>
        <time>2015-08-27T13:50:32Z</time>
      </trkpt>
      <trkpt lat="45.21217" lon="6.66277">
        <ele>1323.0225</ele>
        <time>2015-08-27T13:50:42Z</time>
      </trkpt>
      <trkpt lat="45.21217" lon="6.66277">
        <ele>1323.0225</ele>
        <time>2015-08-27T13:50:47Z</time>
      </trkpt>
      <trkpt lat="45.21215" lon="6.66279">
        <ele>1318.065</ele>
        <time>2015-08-27T13:50:57Z</time>
      </trkpt>
      <trkpt lat="45.21213" lon="6.66279">
        <ele>1318.065</ele>
        <time>2015-08-27T13:51:02Z</time>
      </trkpt>
      <trkpt lat="45.21208" lon="6.66278">
        <ele>1318.065</ele>
        <time>2015-08-27T13:51:17Z</time>
      </trkpt>
      <trkpt lat="45.21206" lon="6.66278">
        <ele>1318.065</ele>
        <time>2015-08-27T13:51:22Z</time>
      </trkpt>
      <trkpt lat="45.21192" lon="6.66278">
        <ele>1313.1348</ele>
        <time>2015-08-27T13:51:32Z</time>
      </trkpt>
      <trkpt lat="45.21188" lon="6.66278">
        <ele>1313.1348</ele>
        <time>2015-08-27T13:51:37Z</time>
      </trkpt>
      <trkpt lat="45.21172" lon="6.66274">
        <ele>1308.6515</ele>
        <time>2015-08-27T13:51:47Z</time>
      </trkpt>
      <trkpt lat="45.2117" lon="6.66274">
        <ele>1308.6515</ele>
        <time>2015-08-27T13:51:52Z</time>
      </trkpt>
      <trkpt lat="45.21157" lon="6.66274">
        <ele>1304.743</ele>
        <time>2015-08-27T13:52:02Z</time>
      </trkpt>
      <trkpt lat="45.21153" lon="6.66274">
        <ele>1304.743</ele>
        <time>2015-08-27T13:52:07Z</time>
      </trkpt>
      <trkpt lat="45.21146" lon="6.66274">
        <ele>1301.1233</ele>
        <time>2015-08-27T13:52:17Z</time>
      </trkpt>
      <trkpt lat="45.21139" lon="6.66273">
        <ele>1301.1233</ele>
        <time>2015-08-27T13:52:22Z</time>
      </trkpt>
      <trkpt lat="45.21133" lon="6.66274">
        <ele>1297.6989</ele>
        <time>2015-08-27T13:52:32Z</time>
      </trkpt>
      <trkpt lat="45.21127" lon="6.66271">
        <ele>1297.6989</ele>
        <time>2015-08-27T13:52:37Z</time>
      </trkpt>
      <trkpt lat="45.21127" lon="6.6627">
        <ele>1297.6989</ele>
        <time>2015-08-27T13:52:47Z</time>
      </trkpt>
      <trkpt lat="45.21124" lon="6.6627">
        <ele>1293.9937</ele>
        <time>2015-08-27T13:53:22Z</time>
      </trkpt>
      <trkpt lat="45.2112" lon="6.6627">
        <ele>1293.9937</ele>
        <time>2015-08-27T13:53:27Z</time>
      </trkpt>
      <trkpt lat="45.21109" lon="6.66276">
        <ele>1290.3315</ele>
        <time>2015-08-27T13:53:37Z</time>
      </trkpt>
      <trkpt lat="45.21104" lon="6.66279">
        <ele>1290.3315</ele>
        <time>2015-08-27T13:53:42Z</time>
      </trkpt>
      <trkpt lat="45.21091" lon="6.66281">
        <ele>1286.5797</ele>
        <time>2015-08-27T13:53:52Z</time>
      </trkpt>
      <trkpt lat="45.21086" lon="6.66281">
        <ele>1286.5797</ele>
        <time>2015-08-27T13:53:57Z</time>
      </trkpt>
      <trkpt lat="45.21077" lon="6.66282">
        <ele>1282.774</ele>
        <time>2015-08-27T13:54:07Z</time>
      </trkpt>
      <trkpt lat="45.21073" lon="6.66284">
        <ele>1282.774</ele>
        <time>2015-08-27T13:54:12Z</time>
      </trkpt>
      <trkpt lat="45.21068" lon="6.66284">
        <ele>1278.6743</ele>
        <time>2015-08-27T13:54:22Z</time>
      </trkpt>
      <trkpt lat="45.21063" lon="6.66285">
        <ele>1278.6743</ele>
        <time>2015-08-27T13:54:27Z</time>
      </trkpt>
      <trkpt lat="45.21045" lon="6.66284">
        <ele>1274.5054</ele>
        <time>2015-08-27T13:54:42Z</time>
      </trkpt>
      <trkpt lat="45.2104" lon="6.66284">
        <ele>1274.5054</ele>
        <time>2015-08-27T13:54:47Z</time>
      </trkpt>
      <trkpt lat="45.21029" lon="6.66286">
        <ele>1270.346</ele>
        <time>2015-08-27T13:54:57Z</time>
      </trkpt>
      <trkpt lat="45.21023" lon="6.6629">
        <ele>1270.346</ele>
        <time>2015-08-27T13:55:02Z</time>
      </trkpt>
      <trkpt lat="45.2101" lon="6.66295">
        <ele>1266.2836</ele>
        <time>2015-08-27T13:55:12Z</time>
      </trkpt>
      <trkpt lat="45.21005" lon="6.66296">
        <ele>1266.2836</ele>
        <time>2015-08-27T13:55:17Z</time>
      </trkpt>
      <trkpt lat="45.20999" lon="6.66302">
        <ele>1261.9811</ele>
        <time>2015-08-27T13:55:27Z</time>
      </trkpt>
      <trkpt lat="45.20998" lon="6.66307">
        <ele>1261.9811</ele>
        <time>2015-08-27T13:55:32Z</time>
      </trkpt>
      <trkpt lat="45.20989" lon="6.66312">
        <ele>1257.4437</ele>
        <time>2015-08-27T13:55:42Z</time>
      </trkpt>
      <trkpt lat="45.20985" lon="6.66309">
        <ele>1257.4437</ele>
        <time>2015-08-27T13:55:47Z</time>
      </trkpt>
      <trkpt lat="45.20978" lon="6.66307">
        <ele>1252.7924</ele>
        <time>2015-08-27T13:55:57Z</time>
      </trkpt>
      <trkpt lat="45.20974" lon="6.66307">
        <ele>1252.7924</ele>
        <time>2015-08-27T13:56:02Z</time>
      </trkpt>
      <trkpt lat="45.20965" lon="6.66308">
        <ele>1248.0671</ele>
        <time>2015-08-27T13:56:12Z</time>
      </trkpt>
      <trkpt lat="45.20958" lon="6.66309">
        <ele>1248.0671</ele>
        <time>2015-08-27T13:56:17Z</time>
      </trkpt>
      <trkpt lat="45.20951" lon="6.66314">
        <ele>1243.3057</ele>
        <time>2015-08-27T13:56:27Z</time>
      </trkpt>
      <trkpt lat="45.20947" lon="6.66318">
        <ele>1243.3057</ele>
        <time>2015-08-27T13:56:32Z</time>
      </trkpt>
      <trkpt lat="45.20939" lon="6.66322">
        <ele>1238.4993</ele>
        <time>2015-08-27T13:56:42Z</time>
      </trkpt>
      <trkpt lat="45.20935" lon="6.66326">
        <ele>1238.4993</ele>
        <time>2015-08-27T13:56:47Z</time>
      </trkpt>
      <trkpt lat="45.20921" lon="6.66332">
        <ele>1233.2368</ele>
        <time>2015-08-27T13:57:02Z</time>
      </trkpt>
      <trkpt lat="45.20914" lon="6.66332">
        <ele>1233.2368</ele>
        <time>2015-08-27T13:57:07Z</time>
      </trkpt>
      <trkpt lat="45.20902" lon="6.66332">
        <ele>1228.0175</ele>
        <time>2015-08-27T13:57:17Z</time>
      </trkpt>
      <trkpt lat="45.20897" lon="6.66331">
        <ele>1228.0175</ele>
        <time>2015-08-27T13:57:22Z</time>
      </trkpt>
      <trkpt lat="45.20887" lon="6.66334">
        <ele>1222.9146</ele>
        <time>2015-08-27T13:57:32Z</time>
      </trkpt>
      <trkpt lat="45.20884" lon="6.66335">
        <ele>1222.9146</ele>
        <time>2015-08-27T13:57:37Z</time>
      </trkpt>
      <trkpt lat="45.20875" lon="6.66341">
        <ele>1217.8081</ele>
        <time>2015-08-27T13:57:47Z</time>
      </trkpt>
      <trkpt lat="45.20871" lon="6.66342">
        <ele>1217.8081</ele>
        <time>2015-08-27T13:57:52Z</time>
      </trkpt>
      <trkpt lat="45.2086" lon="6.6634">
        <ele>1212.8322</ele>
        <time>2015-08-27T13:58:02Z</time>
      </trkpt>
      <trkpt lat="45.20855" lon="6.66339">
        <ele>1212.8322</ele>
        <time>2015-08-27T13:58:07Z</time>
      </trkpt>
      <trkpt lat="45.20847" lon="6.66341">
        <ele>1207.9084</ele>
        <time>2015-08-27T13:58:17Z</time>
      </trkpt>
      <trkpt lat="45.20839" lon="6.66344">
        <ele>1207.9084</ele>
        <time>2015-08-27T13:58:22Z</time>
      </trkpt>
      <trkpt lat="45.20831" lon="6.6635">
        <ele>1203.1229</ele>
        <time>2015-08-27T13:58:32Z</time>
      </trkpt>
      <trkpt lat="45.20828" lon="6.66351">
        <ele>1203.1229</ele>
        <time>2015-08-27T13:58:37Z</time>
      </trkpt>
      <trkpt lat="45.2082" lon="6.66351">
        <ele>1198.5114</ele>
        <time>2015-08-27T13:58:47Z</time>
      </trkpt>
      <trkpt lat="45.20814" lon="6.66351">
        <ele>1198.5114</ele>
        <time>2015-08-27T13:58:52Z</time>
      </trkpt>
      <trkpt lat="45.20803" lon="6.66358">
        <ele>1194.092</ele>
        <time>2015-08-27T13:59:02Z</time>
      </trkpt>
      <trkpt lat="45.208" lon="6.66361">
        <ele>1194.092</ele>
        <time>2015-08-27T13:59:07Z</time>
      </trkpt>
      <trkpt lat="45.20791" lon="6.66365">
        <ele>1189.7804</ele>
        <time>2015-08-27T13:59:17Z</time>
      </trkpt>
      <trkpt lat="45.20788" lon="6.66371">
        <ele>1189.7804</ele>
        <time>2015-08-27T13:59:22Z</time>
      </trkpt>
      <trkpt lat="45.20786" lon="6.6638">
        <ele>1185.4977</ele>
        <time>2015-08-27T13:59:32Z</time>
      </trkpt>
      <trkpt lat="45.20783" lon="6.66385">
        <ele>1185.4977</ele>
        <time>2015-08-27T13:59:37Z</time>
      </trkpt>
      <trkpt lat="45.20773" lon="6.66399">
        <ele>1181.2139</ele>
        <time>2015-08-27T13:59:52Z</time>
      </trkpt>
      <trkpt lat="45.2077" lon="6.66399">
        <ele>1181.2139</ele>
        <time>2015-08-27T13:59:57Z</time>
      </trkpt>
      <trkpt lat="45.20766" lon="6.66402">
        <ele>1181.2139</ele>
        <time>2015-08-27T14:00:07Z</time>
      </trkpt>
      <trkpt lat="45.20767" lon="6.664">
        <ele>1181.2139</ele>
        <time>2015-08-27T14:00:12Z</time>
      </trkpt>
      <trkpt lat="45.20767" lon="6.664">
        <ele>1176.5841</ele>
        <time>2015-08-27T14:00:22Z</time>
      </trkpt>
      <trkpt lat="45.20767" lon="6.66399">
        <ele>1176.5841</ele>
        <time>2015-08-27T14:00:27Z</time>
      </trkpt>
      <trkpt lat="45.20769" lon="6.66398">
        <ele>1176.5841</ele>
        <time>2015-08-27T14:00:37Z</time>
      </trkpt>
      <trkpt lat="45.20769" lon="6.66397">
        <ele>1176.5841</ele>
        <time>2015-08-27T14:00:42Z</time>
      </trkpt>
      <trkpt lat="45.20769" lon="6.66397">
        <ele>1176.5841</ele>
        <time>2015-08-27T14:00:52Z</time>
      </trkpt>
      <trkpt lat="45.20768" lon="6.66398">
        <ele>1176.5841</ele>
        <time>2015-08-27T14:01:22Z</time>
      </trkpt>
      <trkpt lat="45.20768" lon="6.66398">
        <ele>1176.5841</ele>
        <time>2015-08-27T14:01:27Z</time>
      </trkpt>
      <trkpt lat="45.20767" lon="6.66399">
        <ele>1176.5841</ele>
        <time>2015-08-27T14:01:37Z</time>
      </trkpt>
      <trkpt lat="45.20767" lon="6.66399">
        <ele>1176.5841</ele>
        <time>2015-08-27T14:01:42Z</time>
      </trkpt>
      <trkpt lat="45.20759" lon="6.66405">
        <ele>1171.8375</ele>
        <time>2015-08-27T14:01:57Z</time>
      </trkpt>
      <trkpt lat="45.20754" lon="6.66409">
        <ele>1171.8375</ele>
        <time>2015-08-27T14:02:02Z</time>
      </trkpt>
      <trkpt lat="45.20741" lon="6.66415">
        <ele>1167.4746</ele>
        <time>2015-08-27T14:02:12Z</time>
      </trkpt>
      <trkpt lat="45.20729" lon="6.66419">
        <ele>1163.641</ele>
        <time>2015-08-27T14:02:17Z</time>
      </trkpt>
      <trkpt lat="45.20718" lon="6.66427">
        <ele>1160.1389</ele>
        <time>2015-08-27T14:02:27Z</time>
      </trkpt>
      <trkpt lat="45.20711" lon="6.66432">
        <ele>1160.1389</ele>
        <time>2015-08-27T14:02:32Z</time>
      </trkpt>
      <trkpt lat="45.20698" lon="6.66437">
        <ele>1157.1582</ele>
        <time>2015-08-27T14:02:42Z</time>
      </trkpt>
      <trkpt lat="45.20694" lon="6.66431">
        <ele>1157.1582</ele>
        <time>2015-08-27T14:02:47Z</time>
      </trkpt>
      <trkpt lat="45.20693" lon="6.66421">
        <ele>1154.4127</ele>
        <time>2015-08-27T14:02:57Z</time>
      </trkpt>
      <trkpt lat="45.20693" lon="6.66407">
        <ele>1152.083</ele>
        <time>2015-08-27T14:03:02Z</time>
      </trkpt>
      <trkpt lat="45.20694" lon="6.66385">
        <ele>1150.0037</ele>
        <time>2015-08-27T14:03:12Z</time>
      </trkpt>
      <trkpt lat="45.20697" lon="6.66382">
        <ele>1150.0037</ele>
        <time>2015-08-27T14:03:17Z</time>
      </trkpt>
      <trkpt lat="45.20705" lon="6.66374">
        <ele>1147.8048</ele>
        <time>2015-08-27T14:03:27Z</time>
      </trkpt>
      <trkpt lat="45.20705" lon="6.66371">
        <ele>1147.8048</ele>
        <time>2015-08-27T14:03:32Z</time>
      </trkpt>
      <trkpt lat="45.20703" lon="6.66362">
        <ele>1147.8048</ele>
        <time>2015-08-27T14:03:42Z</time>
      </trkpt>
      <trkpt lat="45.20701" lon="6.66353">
        <ele>1145.3457</ele>
        <time>2015-08-27T14:03:47Z</time>
      </trkpt>
      <trkpt lat="45.20692" lon="6.6635">
        <ele>1145.3457</ele>
        <time>2015-08-27T14:04:02Z</time>
      </trkpt>
      <trkpt lat="45.20688" lon="6.66354">
        <ele>1142.8569</ele>
        <time>2015-08-27T14:04:32Z</time>
      </trkpt>
      <trkpt lat="45.20682" lon="6.66358">
        <ele>1142.8569</ele>
        <time>2015-08-27T14:04:37Z</time>
      </trkpt>
      <trkpt lat="45.20674" lon="6.66363">
        <ele>1140.6964</ele>
        <time>2015-08-27T14:04:47Z</time>
      </trkpt>
      <trkpt lat="45.20669" lon="6.66367">
        <ele>1140.6964</ele>
        <time>2015-08-27T14:04:52Z</time>
      </trkpt>
      <trkpt lat="45.2066" lon="6.66373">
        <ele>1138.7338</ele>
        <time>2015-08-27T14:05:02Z</time>
      </trkpt>
      <trkpt lat="45.20653" lon="6.6638">
        <ele>1137.0782</ele>
        <time>2015-08-27T14:05:07Z</time>
      </trkpt>
      <trkpt lat="45.20637" lon="6.664">
        <ele>1135.715</ele>
        <time>2015-08-27T14:05:17Z</time>
      </trkpt>
      <trkpt lat="45.20635" lon="6.66405">
        <ele>1135.715</ele>
        <time>2015-08-27T14:05:22Z</time>
      </trkpt>
      <trkpt lat="45.20629" lon="6.66416">
        <ele>1134.5142</ele>
        <time>2015-08-27T14:05:32Z</time>
      </trkpt>
      <trkpt lat="45.20624" lon="6.66419">
        <ele>1134.5142</ele>
        <time>2015-08-27T14:05:37Z</time>
      </trkpt>
      <trkpt lat="45.20612" lon="6.66429">
        <ele>1133.1246</ele>
        <time>2015-08-27T14:05:47Z</time>
      </trkpt>
      <trkpt lat="45.20608" lon="6.66432">
        <ele>1133.1246</ele>
        <time>2015-08-27T14:05:52Z</time>
      </trkpt>
      <trkpt lat="45.20599" lon="6.66439">
        <ele>1131.6252</ele>
        <time>2015-08-27T14:06:02Z</time>
      </trkpt>
      <trkpt lat="45.20594" lon="6.66442">
        <ele>1131.6252</ele>
        <time>2015-08-27T14:06:07Z</time>
      </trkpt>
      <trkpt lat="45.20575" lon="6.66454">
        <ele>1130.0173</ele>
        <time>2015-08-27T14:06:22Z</time>
      </trkpt>
      <trkpt lat="45.20571" lon="6.66456">
        <ele>1130.0173</ele>
        <time>2015-08-27T14:06:27Z</time>
      </trkpt>
      <trkpt lat="45.20563" lon="6.66461">
        <ele>1128.5476</ele>
        <time>2015-08-27T14:06:37Z</time>
      </trkpt>
      <trkpt lat="45.20558" lon="6.66468">
        <ele>1128.5476</ele>
        <time>2015-08-27T14:06:42Z</time>
      </trkpt>
      <trkpt lat="45.20548" lon="6.66478">
        <ele>1127.1562</ele>
        <time>2015-08-27T14:06:52Z</time>
      </trkpt>
      <trkpt lat="45.20541" lon="6.66484">
        <ele>1127.1562</ele>
        <time>2015-08-27T14:06:57Z</time>
      </trkpt>
      <trkpt lat="45.20536" lon="6.66495">
        <ele>1125.903</ele>
        <time>2015-08-27T14:07:07Z</time>
      </trkpt>
      <trkpt lat="45.20532" lon="6.66498">
        <ele>1125.903</ele>
        <time>2015-08-27T14:07:12Z</time>
      </trkpt>
      <trkpt lat="45.20523" lon="6.66504">
        <ele>1124.5258</ele>
        <time>2015-08-27T14:07:22Z</time>
      </trkpt>
      <trkpt lat="45.20521" lon="6.66509">
        <ele>1124.5258</ele>
        <time>2015-08-27T14:07:27Z</time>
      </trkpt>
      <trkpt lat="45.20514" lon="6.66524">
        <ele>1123.2294</ele>
        <time>2015-08-27T14:07:37Z</time>
      </trkpt>
      <trkpt lat="45.20509" lon="6.66531">
        <ele>1123.2294</ele>
        <time>2015-08-27T14:07:42Z</time>
      </trkpt>
      <trkpt lat="45.20503" lon="6.66544">
        <ele>1122.16</ele>
        <time>2015-08-27T14:07:52Z</time>
      </trkpt>
      <trkpt lat="45.20501" lon="6.66548">
        <ele>1122.16</ele>
        <time>2015-08-27T14:07:57Z</time>
      </trkpt>
      <trkpt lat="45.20501" lon="6.66551">
        <ele>1122.16</ele>
        <time>2015-08-27T14:08:07Z</time>
      </trkpt>
      <trkpt lat="45.205" lon="6.66551">
        <ele>1122.16</ele>
        <time>2015-08-27T14:08:12Z</time>
      </trkpt>
      <trkpt lat="45.20496" lon="6.66552">
        <ele>1121.4673</ele>
        <time>2015-08-27T14:08:22Z</time>
      </trkpt>
      <trkpt lat="45.20497" lon="6.66549">
        <ele>1121.4673</ele>
        <time>2015-08-27T14:08:27Z</time>
      </trkpt>
      <trkpt lat="45.20497" lon="6.66539">
        <ele>1121.4673</ele>
        <time>2015-08-27T14:08:42Z</time>
      </trkpt>
      <trkpt lat="45.20496" lon="6.66537">
        <ele>1120.3807</ele>
        <time>2015-08-27T14:08:47Z</time>
      </trkpt>
      <trkpt lat="45.205" lon="6.66543">
        <ele>1120.3807</ele>
        <time>2015-08-27T14:08:57Z</time>
      </trkpt>
      <trkpt lat="45.20499" lon="6.66544">
        <ele>1120.3807</ele>
        <time>2015-08-27T14:09:02Z</time>
      </trkpt>
      <trkpt lat="45.20498" lon="6.66546">
        <ele>1120.3807</ele>
        <time>2015-08-27T14:09:12Z</time>
      </trkpt>
      <trkpt lat="45.20499" lon="6.66545">
        <ele>1119.2258</ele>
        <time>2015-08-27T14:09:17Z</time>
      </trkpt>
      <trkpt lat="45.20498" lon="6.66541">
        <ele>1119.2258</ele>
        <time>2015-08-27T14:09:27Z</time>
      </trkpt>
      <trkpt lat="45.20501" lon="6.66542">
        <ele>1119.2258</ele>
        <time>2015-08-27T14:09:32Z</time>
      </trkpt>
      <trkpt lat="45.20499" lon="6.6654">
        <ele>1119.2258</ele>
        <time>2015-08-27T14:09:42Z</time>
      </trkpt>
      <trkpt lat="45.20498" lon="6.6654">
        <ele>1119.2258</ele>
        <time>2015-08-27T14:09:47Z</time>
      </trkpt>
      <trkpt lat="45.20497" lon="6.66538">
        <ele>1117.5116</ele>
        <time>2015-08-27T14:09:57Z</time>
      </trkpt>
      <trkpt lat="45.20498" lon="6.66539">
        <ele>1117.5116</ele>
        <time>2015-08-27T14:10:02Z</time>
      </trkpt>
      <trkpt lat="45.20495" lon="6.66552">
        <ele>1115.837</ele>
        <time>2015-08-27T14:10:12Z</time>
      </trkpt>
      <trkpt lat="45.20494" lon="6.66559">
        <ele>1115.837</ele>
        <time>2015-08-27T14:10:17Z</time>
      </trkpt>
      <trkpt lat="45.20496" lon="6.66574">
        <ele>1114.1808</ele>
        <time>2015-08-27T14:10:27Z</time>
      </trkpt>
      <trkpt lat="45.20496" lon="6.66582">
        <ele>1114.1808</ele>
        <time>2015-08-27T14:10:32Z</time>
      </trkpt>
      <trkpt lat="45.20496" lon="6.66598">
        <ele>1112.624</ele>
        <time>2015-08-27T14:10:42Z</time>
      </trkpt>
      <trkpt lat="45.20497" lon="6.66607">
        <ele>1112.624</ele>
        <time>2015-08-27T14:10:47Z</time>
      </trkpt>
      <trkpt lat="45.20495" lon="6.66621">
        <ele>1111.1842</ele>
        <time>2015-08-27T14:10:57Z</time>
      </trkpt>
      <trkpt lat="45.20493" lon="6.66627">
        <ele>1111.1842</ele>
        <time>2015-08-27T14:11:02Z</time>
      </trkpt>
      <trkpt lat="45.20484" lon="6.66637">
        <ele>1109.7767</ele>
        <time>2015-08-27T14:11:12Z</time>
      </trkpt>
      <trkpt lat="45.20479" lon="6.6664">
        <ele>1109.7767</ele>
        <time>2015-08-27T14:11:17Z</time>
      </trkpt>
      <trkpt lat="45.2047" lon="6.66647">
        <ele>1108.4238</ele>
        <time>2015-08-27T14:11:27Z</time>
      </trkpt>
      <trkpt lat="45.20466" lon="6.66648">
        <ele>1108.4238</ele>
        <time>2015-08-27T14:11:32Z</time>
      </trkpt>
      <trkpt lat="45.20451" lon="6.66656">
        <ele>1106.9159</ele>
        <time>2015-08-27T14:11:47Z</time>
      </trkpt>
      <trkpt lat="45.20446" lon="6.66661">
        <ele>1106.9159</ele>
        <time>2015-08-27T14:11:52Z</time>
      </trkpt>
      <trkpt lat="45.20435" lon="6.66669">
        <ele>1105.4193</ele>
        <time>2015-08-27T14:12:02Z</time>
      </trkpt>
      <trkpt lat="45.2043" lon="6.66672">
        <ele>1105.4193</ele>
        <time>2015-08-27T14:12:07Z</time>
      </trkpt>
      <trkpt lat="45.20422" lon="6.6668">
        <ele>1104.0167</ele>
        <time>2015-08-27T14:12:17Z</time>
      </trkpt>
      <trkpt lat="45.20417" lon="6.66681">
        <ele>1104.0167</ele>
        <time>2015-08-27T14:12:22Z</time>
      </trkpt>
      <trkpt lat="45.20407" lon="6.66688">
        <ele>1102.5392</ele>
        <time>2015-08-27T14:12:32Z</time>
      </trkpt>
      <trkpt lat="45.20403" lon="6.66694">
        <ele>1102.5392</ele>
        <time>2015-08-27T14:12:37Z</time>
      </trkpt>
      <trkpt lat="45.20395" lon="6.66705">
        <ele>1101.1335</ele>
        <time>2015-08-27T14:12:47Z</time>
      </trkpt>
      <trkpt lat="45.20391" lon="6.66708">
        <ele>1101.1335</ele>
        <time>2015-08-27T14:12:52Z</time>
      </trkpt>
      <trkpt lat="45.20388" lon="6.66712">
        <ele>1101.1335</ele>
        <time>2015-08-27T14:13:02Z</time>
      </trkpt>
      <trkpt lat="45.20389" lon="6.66714">
        <ele>1099.7194</ele>
        <time>2015-08-27T14:13:07Z</time>
      </trkpt>
      <trkpt lat="45.2039" lon="6.66712">
        <ele>1099.7194</ele>
        <time>2015-08-27T14:13:17Z</time>
      </trkpt>
      <trkpt lat="45.2039" lon="6.66712">
        <ele>1099.7194</ele>
        <time>2015-08-27T14:13:22Z</time>
      </trkpt>
      <trkpt lat="45.2039" lon="6.6671">
        <ele>1099.7194</ele>
        <time>2015-08-27T14:13:32Z</time>
      </trkpt>
      <trkpt lat="45.20388" lon="6.66714">
        <ele>1099.7194</ele>
        <time>2015-08-27T14:13:37Z</time>
      </trkpt>
      <trkpt lat="45.20386" lon="6.66721">
        <ele>1098.5107</ele>
        <time>2015-08-27T14:13:52Z</time>
      </trkpt>
      <trkpt lat="45.20387" lon="6.6672">
        <ele>1098.5107</ele>
        <time>2015-08-27T14:13:57Z</time>
      </trkpt>
      <trkpt lat="45.20389" lon="6.66717">
        <ele>1098.5107</ele>
        <time>2015-08-27T14:14:07Z</time>
      </trkpt>
      <trkpt lat="45.20389" lon="6.66717">
        <ele>1098.5107</ele>
        <time>2015-08-27T14:14:12Z</time>
      </trkpt>
      <trkpt lat="45.20389" lon="6.66718">
        <ele>1098.5107</ele>
        <time>2015-08-27T14:15:27Z</time>
      </trkpt>
      <trkpt lat="45.2039" lon="6.66718">
        <ele>1098.5107</ele>
        <time>2015-08-27T14:15:32Z</time>
      </trkpt>
      <trkpt lat="45.2039" lon="6.66718">
        <ele>1098.5107</ele>
        <time>2015-08-27T14:15:42Z</time>
      </trkpt>
      <trkpt lat="45.20392" lon="6.66721">
        <ele>1098.5107</ele>
        <time>2015-08-27T14:15:57Z</time>
      </trkpt>
      <trkpt lat="45.20392" lon="6.66721">
        <ele>1098.5107</ele>
        <time>2015-08-27T14:16:02Z</time>
      </trkpt>
      <trkpt lat="45.20394" lon="6.66727">
        <ele>1097.5471</ele>
        <time>2015-08-27T14:16:17Z</time>
      </trkpt>
      <trkpt lat="45.20402" lon="6.66746">
        <ele>1096.6338</ele>
        <time>2015-08-27T14:16:27Z</time>
      </trkpt>
      <trkpt lat="45.20405" lon="6.66755">
        <ele>1096.6338</ele>
        <time>2015-08-27T14:16:32Z</time>
      </trkpt>
      <trkpt lat="45.20403" lon="6.66766">
        <ele>1095.6914</ele>
        <time>2015-08-27T14:16:42Z</time>
      </trkpt>
      <trkpt lat="45.20402" lon="6.66772">
        <ele>1095.6914</ele>
        <time>2015-08-27T14:16:47Z</time>
      </trkpt>
      <trkpt lat="45.20394" lon="6.66795">
        <ele>1094.7041</ele>
        <time>2015-08-27T14:17:02Z</time>
      </trkpt>
      <trkpt lat="45.20391" lon="6.66798">
        <ele>1094.7041</ele>
        <time>2015-08-27T14:17:07Z</time>
      </trkpt>
      <trkpt lat="45.20382" lon="6.66802">
        <ele>1093.7153</ele>
        <time>2015-08-27T14:17:17Z</time>
      </trkpt>
      <trkpt lat="45.20377" lon="6.66806">
        <ele>1093.7153</ele>
        <time>2015-08-27T14:17:22Z</time>
      </trkpt>
      <trkpt lat="45.20368" lon="6.66816">
        <ele>1092.6212</ele>
        <time>2015-08-27T14:17:32Z</time>
      </trkpt>
      <trkpt lat="45.20365" lon="6.66822">
        <ele>1092.6212</ele>
        <time>2015-08-27T14:17:37Z</time>
      </trkpt>
      <trkpt lat="45.20359" lon="6.66835">
        <ele>1091.1533</ele>
        <time>2015-08-27T14:17:47Z</time>
      </trkpt>
      <trkpt lat="45.20359" lon="6.66843">
        <ele>1091.1533</ele>
        <time>2015-08-27T14:17:52Z</time>
      </trkpt>
      <trkpt lat="45.20359" lon="6.66858">
        <ele>1089.5105</ele>
        <time>2015-08-27T14:18:02Z</time>
      </trkpt>
      <trkpt lat="45.2036" lon="6.66866">
        <ele>1089.5105</ele>
        <time>2015-08-27T14:18:07Z</time>
      </trkpt>
      <trkpt lat="45.20358" lon="6.66883">
        <ele>1087.8202</ele>
        <time>2015-08-27T14:18:17Z</time>
      </trkpt>
      <trkpt lat="45.20357" lon="6.66891">
        <ele>1087.8202</ele>
        <time>2015-08-27T14:18:22Z</time>
      </trkpt>
      <trkpt lat="45.20355" lon="6.6691">
        <ele>1086.2872</ele>
        <time>2015-08-27T14:18:32Z</time>
      </trkpt>
      <trkpt lat="45.20353" lon="6.66916">
        <ele>1086.2872</ele>
        <time>2015-08-27T14:18:37Z</time>
      </trkpt>
      <trkpt lat="45.20345" lon="6.66934">
        <ele>1085.0001</ele>
        <time>2015-08-27T14:18:47Z</time>
      </trkpt>
      <trkpt lat="45.20341" lon="6.66938">
        <ele>1085.0001</ele>
        <time>2015-08-27T14:18:52Z</time>
      </trkpt>
      <trkpt lat="45.20331" lon="6.66948">
        <ele>1083.8961</ele>
        <time>2015-08-27T14:19:02Z</time>
      </trkpt>
      <trkpt lat="45.20329" lon="6.66953">
        <ele>1083.8961</ele>
        <time>2015-08-27T14:19:07Z</time>
      </trkpt>
      <trkpt lat="45.20319" lon="6.6697">
        <ele>1082.8591</ele>
        <time>2015-08-27T14:19:22Z</time>
      </trkpt>
      <trkpt lat="45.20312" lon="6.66973">
        <ele>1082.8591</ele>
        <time>2015-08-27T14:19:27Z</time>
      </trkpt>
      <trkpt lat="45.20304" lon="6.66983">
        <ele>1081.6951</ele>
        <time>2015-08-27T14:19:37Z</time>
      </trkpt>
      <trkpt lat="45.20303" lon="6.6699">
        <ele>1081.6951</ele>
        <time>2015-08-27T14:19:42Z</time>
      </trkpt>
      <trkpt lat="45.20303" lon="6.66994">
        <ele>1081.6951</ele>
        <time>2015-08-27T14:19:52Z</time>
      </trkpt>
      <trkpt lat="45.20301" lon="6.66993">
        <ele>1080.3688</ele>
        <time>2015-08-27T14:19:57Z</time>
      </trkpt>
      <trkpt lat="45.20295" lon="6.66985">
        <ele>1080.3688</ele>
        <time>2015-08-27T14:20:07Z</time>
      </trkpt>
      <trkpt lat="45.20295" lon="6.66985">
        <ele>1080.3688</ele>
        <time>2015-08-27T14:20:12Z</time>
      </trkpt>
      <trkpt lat="45.20306" lon="6.66995">
        <ele>1078.9489</ele>
        <time>2015-08-27T14:20:22Z</time>
      </trkpt>
      <trkpt lat="45.20312" lon="6.67006">
        <ele>1077.5282</ele>
        <time>2015-08-27T14:20:27Z</time>
      </trkpt>
      <trkpt lat="45.20308" lon="6.67021">
        <ele>1076.0776</ele>
        <time>2015-08-27T14:20:37Z</time>
      </trkpt>
      <trkpt lat="45.20301" lon="6.67028">
        <ele>1074.7721</ele>
        <time>2015-08-27T14:20:42Z</time>
      </trkpt>
      <trkpt lat="45.20294" lon="6.6703">
        <ele>1074.7721</ele>
        <time>2015-08-27T14:20:52Z</time>
      </trkpt>
      <trkpt lat="45.20294" lon="6.6703">
        <ele>1074.7721</ele>
        <time>2015-08-27T14:20:57Z</time>
      </trkpt>
      <trkpt lat="45.20288" lon="6.67041">
        <ele>1073.8455</ele>
        <time>2015-08-27T14:21:07Z</time>
      </trkpt>
      <trkpt lat="45.20289" lon="6.67044">
        <ele>1073.8455</ele>
        <time>2015-08-27T14:21:12Z</time>
      </trkpt>
      <trkpt lat="45.2028" lon="6.67046">
        <ele>1072.8647</ele>
        <time>2015-08-27T14:21:22Z</time>
      </trkpt>
      <trkpt lat="45.20275" lon="6.67051">
        <ele>1072.8647</ele>
        <time>2015-08-27T14:21:27Z</time>
      </trkpt>
      <trkpt lat="45.20266" lon="6.67064">
        <ele>1072.0488</ele>
        <time>2015-08-27T14:21:37Z</time>
      </trkpt>
      <trkpt lat="45.2026" lon="6.67069">
        <ele>1072.0488</ele>
        <time>2015-08-27T14:21:42Z</time>
      </trkpt>
      <trkpt lat="45.20252" lon="6.67076">
        <ele>1071.7875</ele>
        <time>2015-08-27T14:21:52Z</time>
      </trkpt>
      <trkpt lat="45.2025" lon="6.67077">
        <ele>1071.7875</ele>
        <time>2015-08-27T14:21:57Z</time>
      </trkpt>
      <trkpt lat="45.20245" lon="6.67084">
        <ele>1071.3595</ele>
        <time>2015-08-27T14:22:12Z</time>
      </trkpt>
      <trkpt lat="45.20239" lon="6.67087">
        <ele>1071.3595</ele>
        <time>2015-08-27T14:22:17Z</time>
      </trkpt>
      <trkpt lat="45.20229" lon="6.67088">
        <ele>1070.7887</ele>
        <time>2015-08-27T14:22:27Z</time>
      </trkpt>
      <trkpt lat="45.20223" lon="6.67089">
        <ele>1070.7887</ele>
        <time>2015-08-27T14:22:32Z</time>
      </trkpt>
      <trkpt lat="45.20223" lon="6.67097">
        <ele>1070.343</ele>
        <time>2015-08-27T14:22:42Z</time>
      </trkpt>
      <trkpt lat="45.20219" lon="6.671">
        <ele>1070.343</ele>
        <time>2015-08-27T14:22:47Z</time>
      </trkpt>
      <trkpt lat="45.20216" lon="6.67111">
        <ele>1069.8379</ele>
        <time>2015-08-27T14:22:57Z</time>
      </trkpt>
      <trkpt lat="45.20214" lon="6.67117">
        <ele>1069.8379</ele>
        <time>2015-08-27T14:23:02Z</time>
      </trkpt>
      <trkpt lat="45.2021" lon="6.67117">
        <ele>1069.8379</ele>
        <time>2015-08-27T14:23:12Z</time>
      </trkpt>
      <trkpt lat="45.2021" lon="6.67118">
        <ele>1069.8379</ele>
        <time>2015-08-27T14:23:17Z</time>
      </trkpt>
      <trkpt lat="45.2021" lon="6.67118">
        <ele>1069.3763</ele>
        <time>2015-08-27T14:23:27Z</time>
      </trkpt>
      <trkpt lat="45.20211" lon="6.67118">
        <ele>1069.3763</ele>
        <time>2015-08-27T14:23:32Z</time>
      </trkpt>
      <trkpt lat="45.20211" lon="6.67118">
        <ele>1069.3763</ele>
        <time>2015-08-27T14:23:42Z</time>
      </trkpt>
      <trkpt lat="45.20211" lon="6.67118">
        <ele>1069.3763</ele>
        <time>2015-08-27T14:26:52Z</time>
      </trkpt>
      <trkpt lat="45.20216" lon="6.67136">
        <ele>1069.097</ele>
        <time>2015-08-27T14:27:02Z</time>
      </trkpt>
      <trkpt lat="45.20221" lon="6.67144">
        <ele>1069.097</ele>
        <time>2015-08-27T14:27:07Z</time>
      </trkpt>
      <trkpt lat="45.20232" lon="6.67149">
        <ele>1068.8976</ele>
        <time>2015-08-27T14:27:17Z</time>
      </trkpt>
      <trkpt lat="45.20236" lon="6.67152">
        <ele>1068.8976</ele>
        <time>2015-08-27T14:27:22Z</time>
      </trkpt>
      <trkpt lat="45.20242" lon="6.67162">
        <ele>1068.7404</ele>
        <time>2015-08-27T14:27:32Z</time>
      </trkpt>
      <trkpt lat="45.20246" lon="6.6717">
        <ele>1068.7404</ele>
        <time>2015-08-27T14:27:37Z</time>
      </trkpt>
      <trkpt lat="45.20251" lon="6.67185">
        <ele>1068.5475</ele>
        <time>2015-08-27T14:27:47Z</time>
      </trkpt>
      <trkpt lat="45.20255" lon="6.6719">
        <ele>1068.5475</ele>
        <time>2015-08-27T14:27:52Z</time>
      </trkpt>
      <trkpt lat="45.20267" lon="6.67203">
        <ele>1068.3046</ele>
        <time>2015-08-27T14:28:07Z</time>
      </trkpt>
      <trkpt lat="45.2027" lon="6.6721">
        <ele>1068.3046</ele>
        <time>2015-08-27T14:28:12Z</time>
      </trkpt>
      <trkpt lat="45.20278" lon="6.6722">
        <ele>1068.0415</ele>
        <time>2015-08-27T14:28:22Z</time>
      </trkpt>
      <trkpt lat="45.20279" lon="6.67225">
        <ele>1068.0415</ele>
        <time>2015-08-27T14:28:27Z</time>
      </trkpt>
      <trkpt lat="45.20286" lon="6.67242">
        <ele>1067.628</ele>
        <time>2015-08-27T14:28:37Z</time>
      </trkpt>
      <trkpt lat="45.2029" lon="6.67249">
        <ele>1067.628</ele>
        <time>2015-08-27T14:28:42Z</time>
      </trkpt>
      <trkpt lat="45.20298" lon="6.67262">
        <ele>1067.131</ele>
        <time>2015-08-27T14:28:52Z</time>
      </trkpt>
      <trkpt lat="45.20301" lon="6.67268">
        <ele>1067.131</ele>
        <time>2015-08-27T14:28:57Z</time>
      </trkpt>
      <trkpt lat="45.20309" lon="6.67279">
        <ele>1066.5983</ele>
        <time>2015-08-27T14:29:07Z</time>
      </trkpt>
      <trkpt lat="45.20314" lon="6.67286">
        <ele>1066.5983</ele>
        <time>2015-08-27T14:29:12Z</time>
      </trkpt>
      <trkpt lat="45.20323" lon="6.67298">
        <ele>1066.334</ele>
        <time>2015-08-27T14:29:22Z</time>
      </trkpt>
      <trkpt lat="45.20327" lon="6.67305">
        <ele>1066.334</ele>
        <time>2015-08-27T14:29:27Z</time>
      </trkpt>
      <trkpt lat="45.20333" lon="6.67317">
        <ele>1066.201</ele>
        <time>2015-08-27T14:29:37Z</time>
      </trkpt>
      <trkpt lat="45.20335" lon="6.67325">
        <ele>1066.201</ele>
        <time>2015-08-27T14:29:42Z</time>
      </trkpt>
      <trkpt lat="45.20345" lon="6.67343">
        <ele>1066.3175</ele>
        <time>2015-08-27T14:29:57Z</time>
      </trkpt>
      <trkpt lat="45.20348" lon="6.6735">
        <ele>1066.3175</ele>
        <time>2015-08-27T14:30:02Z</time>
      </trkpt>
      <trkpt lat="45.20354" lon="6.67359">
        <ele>1066.5613</ele>
        <time>2015-08-27T14:30:12Z</time>
      </trkpt>
      <trkpt lat="45.20356" lon="6.67365">
        <ele>1066.5613</ele>
        <time>2015-08-27T14:30:17Z</time>
      </trkpt>
      <trkpt lat="45.2036" lon="6.67377">
        <ele>1066.8334</ele>
        <time>2015-08-27T14:30:27Z</time>
      </trkpt>
      <trkpt lat="45.20361" lon="6.67384">
        <ele>1066.8334</ele>
        <time>2015-08-27T14:30:32Z</time>
      </trkpt>
      <trkpt lat="45.20366" lon="6.67392">
        <ele>1067.1432</ele>
        <time>2015-08-27T14:30:42Z</time>
      </trkpt>
      <trkpt lat="45.20368" lon="6.67396">
        <ele>1067.1432</ele>
        <time>2015-08-27T14:30:47Z</time>
      </trkpt>
      <trkpt lat="45.20372" lon="6.67405">
        <ele>1067.7008</ele>
        <time>2015-08-27T14:30:57Z</time>
      </trkpt>
      <trkpt lat="45.20373" lon="6.67411">
        <ele>1067.7008</ele>
        <time>2015-08-27T14:31:02Z</time>
      </trkpt>
      <trkpt lat="45.20375" lon="6.67422">
        <ele>1068.2972</ele>
        <time>2015-08-27T14:31:12Z</time>
      </trkpt>
      <trkpt lat="45.20377" lon="6.67428">
        <ele>1068.2972</ele>
        <time>2015-08-27T14:31:17Z</time>
      </trkpt>
      <trkpt lat="45.20379" lon="6.6744">
        <ele>1068.9545</ele>
        <time>2015-08-27T14:31:27Z</time>
      </trkpt>
      <trkpt lat="45.20381" lon="6.67449">
        <ele>1068.9545</ele>
        <time>2015-08-27T14:31:32Z</time>
      </trkpt>
      <trkpt lat="45.20385" lon="6.67463">
        <ele>1069.5924</ele>
        <time>2015-08-27T14:31:42Z</time>
      </trkpt>
      <trkpt lat="45.20388" lon="6.67467">
        <ele>1069.5924</ele>
        <time>2015-08-27T14:31:47Z</time>
      </trkpt>
      <trkpt lat="45.2039" lon="6.67475">
        <ele>1070.1367</ele>
        <time>2015-08-27T14:31:57Z</time>
      </trkpt>
      <trkpt lat="45.20391" lon="6.6748">
        <ele>1070.1367</ele>
        <time>2015-08-27T14:32:02Z</time>
      </trkpt>
      <trkpt lat="45.20396" lon="6.67497">
        <ele>1070.7495</ele>
        <time>2015-08-27T14:32:17Z</time>
      </trkpt>
      <trkpt lat="45.20398" lon="6.67503">
        <ele>1070.7495</ele>
        <time>2015-08-27T14:32:22Z</time>
      </trkpt>
      <trkpt lat="45.20401" lon="6.67513">
        <ele>1071.4513</ele>
        <time>2015-08-27T14:32:32Z</time>
      </trkpt>
      <trkpt lat="45.20404" lon="6.67522">
        <ele>1071.4513</ele>
        <time>2015-08-27T14:32:37Z</time>
      </trkpt>
      <trkpt lat="45.20406" lon="6.67533">
        <ele>1072.2753</ele>
        <time>2015-08-27T14:32:47Z</time>
      </trkpt>
      <trkpt lat="45.20408" lon="6.67541">
        <ele>1072.2753</ele>
        <time>2015-08-27T14:32:52Z</time>
      </trkpt>
      <trkpt lat="45.20409" lon="6.67551">
        <ele>1073.2664</ele>
        <time>2015-08-27T14:33:02Z</time>
      </trkpt>
      <trkpt lat="45.20411" lon="6.67555">
        <ele>1073.2664</ele>
        <time>2015-08-27T14:33:07Z</time>
      </trkpt>
      <trkpt lat="45.20414" lon="6.67562">
        <ele>1074.1633</ele>
        <time>2015-08-27T14:33:17Z</time>
      </trkpt>
      <trkpt lat="45.20415" lon="6.67568">
        <ele>1074.1633</ele>
        <time>2015-08-27T14:33:22Z</time>
      </trkpt>
      <trkpt lat="45.20421" lon="6.67578">
        <ele>1075.1135</ele>
        <time>2015-08-27T14:33:32Z</time>
      </trkpt>
      <trkpt lat="45.20423" lon="6.67586">
        <ele>1075.1135</ele>
        <time>2015-08-27T14:33:37Z</time>
      </trkpt>
      <trkpt lat="45.20427" lon="6.67594">
        <ele>1076.2533</ele>
        <time>2015-08-27T14:33:47Z</time>
      </trkpt>
      <trkpt lat="45.20429" lon="6.676">
        <ele>1076.2533</ele>
        <time>2015-08-27T14:33:52Z</time>
      </trkpt>
      <trkpt lat="45.20433" lon="6.67621">
        <ele>1077.5071</ele>
        <time>2015-08-27T14:34:07Z</time>
      </trkpt>
      <trkpt lat="45.20432" lon="6.67629">
        <ele>1077.5071</ele>
        <time>2015-08-27T14:34:12Z</time>
      </trkpt>
      <trkpt lat="45.20437" lon="6.67641">
        <ele>1078.8046</ele>
        <time>2015-08-27T14:34:22Z</time>
      </trkpt>
      <trkpt lat="45.20438" lon="6.67648">
        <ele>1078.8046</ele>
        <time>2015-08-27T14:34:27Z</time>
      </trkpt>
      <trkpt lat="45.20441" lon="6.67657">
        <ele>1080.1671</ele>
        <time>2015-08-27T14:34:37Z</time>
      </trkpt>
      <trkpt lat="45.20444" lon="6.67663">
        <ele>1080.1671</ele>
        <time>2015-08-27T14:34:42Z</time>
      </trkpt>
      <trkpt lat="45.20448" lon="6.67677">
        <ele>1081.6143</ele>
        <time>2015-08-27T14:34:52Z</time>
      </trkpt>
      <trkpt lat="45.2045" lon="6.67681">
        <ele>1081.6143</ele>
        <time>2015-08-27T14:34:57Z</time>
      </trkpt>
      <trkpt lat="45.20454" lon="6.6769">
        <ele>1083.2075</ele>
        <time>2015-08-27T14:35:07Z</time>
      </trkpt>
      <trkpt lat="45.20455" lon="6.67698">
        <ele>1083.2075</ele>
        <time>2015-08-27T14:35:12Z</time>
      </trkpt>
      <trkpt lat="45.20457" lon="6.6771">
        <ele>1084.7872</ele>
        <time>2015-08-27T14:35:22Z</time>
      </trkpt>
      <trkpt lat="45.20458" lon="6.67716">
        <ele>1084.7872</ele>
        <time>2015-08-27T14:35:27Z</time>
      </trkpt>
      <trkpt lat="45.20459" lon="6.67731">
        <ele>1086.0472</ele>
        <time>2015-08-27T14:35:37Z</time>
      </trkpt>
      <trkpt lat="45.20461" lon="6.67737">
        <ele>1086.0472</ele>
        <time>2015-08-27T14:35:42Z</time>
      </trkpt>
      <trkpt lat="45.20464" lon="6.67747">
        <ele>1087.2959</ele>
        <time>2015-08-27T14:35:52Z</time>
      </trkpt>
      <trkpt lat="45.20464" lon="6.6775">
        <ele>1087.2959</ele>
        <time>2015-08-27T14:35:57Z</time>
      </trkpt>
      <trkpt lat="45.2046" lon="6.67752">
        <ele>1087.2959</ele>
        <time>2015-08-27T14:36:12Z</time>
      </trkpt>
      <trkpt lat="45.2046" lon="6.67751">
        <ele>1087.2959</ele>
        <time>2015-08-27T14:36:17Z</time>
      </trkpt>
      <trkpt lat="45.20461" lon="6.67744">
        <ele>1088.4009</ele>
        <time>2015-08-27T14:36:27Z</time>
      </trkpt>
      <trkpt lat="45.20461" lon="6.67743">
        <ele>1088.4009</ele>
        <time>2015-08-27T14:36:32Z</time>
      </trkpt>
      <trkpt lat="45.20461" lon="6.67741">
        <ele>1088.4009</ele>
        <time>2015-08-27T14:36:42Z</time>
      </trkpt>
      <trkpt lat="45.20461" lon="6.67749">
        <ele>1088.4009</ele>
        <time>2015-08-27T14:37:32Z</time>
      </trkpt>
      <trkpt lat="45.20463" lon="6.67771">
        <ele>1089.8022</ele>
        <time>2015-08-27T14:37:42Z</time>
      </trkpt>
      <trkpt lat="45.20465" lon="6.67783">
        <ele>1091.1722</ele>
        <time>2015-08-27T14:37:47Z</time>
      </trkpt>
      <trkpt lat="45.20468" lon="6.67799">
        <ele>1092.5243</ele>
        <time>2015-08-27T14:37:57Z</time>
      </trkpt>
      <trkpt lat="45.20471" lon="6.67805">
        <ele>1092.5243</ele>
        <time>2015-08-27T14:38:02Z</time>
      </trkpt>
      <trkpt lat="45.20478" lon="6.67814">
        <ele>1093.8711</ele>
        <time>2015-08-27T14:38:12Z</time>
      </trkpt>
      <trkpt lat="45.20482" lon="6.67814">
        <ele>1093.8711</ele>
        <time>2015-08-27T14:38:17Z</time>
      </trkpt>
      <trkpt lat="45.20492" lon="6.67824">
        <ele>1095.0804</ele>
        <time>2015-08-27T14:38:27Z</time>
      </trkpt>
      <trkpt lat="45.20495" lon="6.6783">
        <ele>1095.0804</ele>
        <time>2015-08-27T14:38:32Z</time>
      </trkpt>
      <trkpt lat="45.20501" lon="6.67842">
        <ele>1096.4194</ele>
        <time>2015-08-27T14:38:42Z</time>
      </trkpt>
      <trkpt lat="45.20503" lon="6.67846">
        <ele>1096.4194</ele>
        <time>2015-08-27T14:38:47Z</time>
      </trkpt>
      <trkpt lat="45.20511" lon="6.67864">
        <ele>1098.0776</ele>
        <time>2015-08-27T14:39:02Z</time>
      </trkpt>
      <trkpt lat="45.20514" lon="6.67867">
        <ele>1098.0776</ele>
        <time>2015-08-27T14:39:07Z</time>
      </trkpt>
      <trkpt lat="45.20521" lon="6.67875">
        <ele>1099.7258</ele>
        <time>2015-08-27T14:39:17Z</time>
      </trkpt>
      <trkpt lat="45.20526" lon="6.6788">
        <ele>1099.7258</ele>
        <time>2015-08-27T14:39:22Z</time>
      </trkpt>
      <trkpt lat="45.20533" lon="6.6789">
        <ele>1101.1163</ele>
        <time>2015-08-27T14:39:32Z</time>
      </trkpt>
      <trkpt lat="45.20535" lon="6.67897">
        <ele>1101.1163</ele>
        <time>2015-08-27T14:39:37Z</time>
      </trkpt>
      <trkpt lat="45.20542" lon="6.67905">
        <ele>1102.136</ele>
        <time>2015-08-27T14:39:47Z</time>
      </trkpt>
      <trkpt lat="45.20545" lon="6.6791">
        <ele>1102.136</ele>
        <time>2015-08-27T14:39:52Z</time>
      </trkpt>
      <trkpt lat="45.20556" lon="6.67929">
        <ele>1102.8832</ele>
        <time>2015-08-27T14:40:02Z</time>
      </trkpt>
      <trkpt lat="45.2056" lon="6.67935">
        <ele>1102.8832</ele>
        <time>2015-08-27T14:40:07Z</time>
      </trkpt>
      <trkpt lat="45.20568" lon="6.67946">
        <ele>1103.5071</ele>
        <time>2015-08-27T14:40:17Z</time>
      </trkpt>
      <trkpt lat="45.2057" lon="6.6795">
        <ele>1103.5071</ele>
        <time>2015-08-27T14:40:22Z</time>
      </trkpt>
      <trkpt lat="45.20574" lon="6.67956">
        <ele>1103.916</ele>
        <time>2015-08-27T14:40:32Z</time>
      </trkpt>
      <trkpt lat="45.20576" lon="6.67962">
        <ele>1103.916</ele>
        <time>2015-08-27T14:40:37Z</time>
      </trkpt>
      <trkpt lat="45.20581" lon="6.67974">
        <ele>1104.1411</ele>
        <time>2015-08-27T14:40:47Z</time>
      </trkpt>
      <trkpt lat="45.20582" lon="6.67979">
        <ele>1104.1411</ele>
        <time>2015-08-27T14:40:52Z</time>
      </trkpt>
      <trkpt lat="45.20582" lon="6.67995">
        <ele>1104.1398</ele>
        <time>2015-08-27T14:41:02Z</time>
      </trkpt>
      <trkpt lat="45.20586" lon="6.68003">
        <ele>1104.1398</ele>
        <time>2015-08-27T14:41:07Z</time>
      </trkpt>
      <trkpt lat="45.20601" lon="6.68011">
        <ele>1103.8156</ele>
        <time>2015-08-27T14:41:22Z</time>
      </trkpt>
      <trkpt lat="45.20604" lon="6.68014">
        <ele>1103.8156</ele>
        <time>2015-08-27T14:41:27Z</time>
      </trkpt>
      <trkpt lat="45.20605" lon="6.68021">
        <ele>1103.8156</ele>
        <time>2015-08-27T14:41:37Z</time>
      </trkpt>
      <trkpt lat="45.20603" lon="6.68023">
        <ele>1103.3392</ele>
        <time>2015-08-27T14:41:42Z</time>
      </trkpt>
      <trkpt lat="45.20602" lon="6.68023">
        <ele>1103.3392</ele>
        <time>2015-08-27T14:41:52Z</time>
      </trkpt>
      <trkpt lat="45.20602" lon="6.68023">
        <ele>1103.3392</ele>
        <time>2015-08-27T14:41:57Z</time>
      </trkpt>
      <trkpt lat="45.20601" lon="6.6802">
        <ele>1103.3392</ele>
        <time>2015-08-27T14:42:07Z</time>
      </trkpt>
      <trkpt lat="45.20606" lon="6.68025">
        <ele>1102.5673</ele>
        <time>2015-08-27T14:42:12Z</time>
      </trkpt>
      <trkpt lat="45.20609" lon="6.68036">
        <ele>1102.5673</ele>
        <time>2015-08-27T14:42:22Z</time>
      </trkpt>
      <trkpt lat="45.20609" lon="6.68041">
        <ele>1101.6411</ele>
        <time>2015-08-27T14:42:27Z</time>
      </trkpt>
    </trkseg>
  </trk>
</gpx>